<?xml version="1.0" encoding="UTF-8" standalone="no" ?>
<gpx xmlns="http://www.topografix.com/GPX/1/1" xmlns:xsi="http://www.w3.org/2001/XMLSchema-instance" xsi:schemaLocation="http://www.topografix.com/GPX/1/1 http://www.topografix.com/GPX/1/1/gpx.xsd" version="1.1" creator="VisuGPX - https://www.visugpx.com">
  <metadata>
    <name>LOZERIENNE 25-05-2019</name>
  </metadata>
  <trk>
    <name><![CDATA[LOZERIENNE 25-05-2019]]></name>
    <trkseg>
      <trkpt lat="44.72222" lon="3.28452">
        <ele>1050.8000488281</ele>
        <time>2019-05-25T06:59:48Z</time>
      </trkpt>
      <trkpt lat="44.72223" lon="3.28452">
        <ele>1051.1999511719</ele>
        <time>2019-05-25T06:59:49Z</time>
      </trkpt>
      <trkpt lat="44.72216" lon="3.2844">
        <ele>1053.8000488281</ele>
        <time>2019-05-25T07:08:58Z</time>
      </trkpt>
      <trkpt lat="44.72215" lon="3.28434">
        <ele>1054.1999511719</ele>
        <time>2019-05-25T07:09:01Z</time>
      </trkpt>
      <trkpt lat="44.7221" lon="3.28419">
        <ele>1054</ele>
        <time>2019-05-25T07:09:07Z</time>
      </trkpt>
      <trkpt lat="44.72207" lon="3.28411">
        <ele>1054</ele>
        <time>2019-05-25T07:09:10Z</time>
      </trkpt>
      <trkpt lat="44.72211" lon="3.28405">
        <ele>1054</ele>
        <time>2019-05-25T07:09:12Z</time>
      </trkpt>
      <trkpt lat="44.7222" lon="3.28394">
        <ele>1053.8000488281</ele>
        <time>2019-05-25T07:09:15Z</time>
      </trkpt>
      <trkpt lat="44.72224" lon="3.28391">
        <ele>1053.5999755859</ele>
        <time>2019-05-25T07:09:16Z</time>
      </trkpt>
      <trkpt lat="44.72233" lon="3.28381">
        <ele>1053.5999755859</ele>
        <time>2019-05-25T07:09:19Z</time>
      </trkpt>
      <trkpt lat="44.72234" lon="3.28377">
        <ele>1053.4000244141</ele>
        <time>2019-05-25T07:09:20Z</time>
      </trkpt>
      <trkpt lat="44.72234" lon="3.28373">
        <ele>1053.4000244141</ele>
        <time>2019-05-25T07:09:21Z</time>
      </trkpt>
      <trkpt lat="44.7223" lon="3.28364">
        <ele>1053.1999511719</ele>
        <time>2019-05-25T07:09:23Z</time>
      </trkpt>
      <trkpt lat="44.72221" lon="3.28353">
        <ele>1053</ele>
        <time>2019-05-25T07:09:26Z</time>
      </trkpt>
      <trkpt lat="44.72215" lon="3.28347">
        <ele>1053</ele>
        <time>2019-05-25T07:09:28Z</time>
      </trkpt>
      <trkpt lat="44.72198" lon="3.28336">
        <ele>1052.8000488281</ele>
        <time>2019-05-25T07:09:33Z</time>
      </trkpt>
      <trkpt lat="44.72179" lon="3.28321">
        <ele>1052.5999755859</ele>
        <time>2019-05-25T07:09:40Z</time>
      </trkpt>
      <trkpt lat="44.72173" lon="3.28312">
        <ele>1052.5999755859</ele>
        <time>2019-05-25T07:09:45Z</time>
      </trkpt>
      <trkpt lat="44.72173" lon="3.2831">
        <ele>1052.4000244141</ele>
        <time>2019-05-25T07:09:46Z</time>
      </trkpt>
      <trkpt lat="44.72172" lon="3.28303">
        <ele>1052.1999511719</ele>
        <time>2019-05-25T07:09:48Z</time>
      </trkpt>
      <trkpt lat="44.7217" lon="3.28299">
        <ele>1052</ele>
        <time>2019-05-25T07:09:49Z</time>
      </trkpt>
      <trkpt lat="44.72159" lon="3.28281">
        <ele>1051</ele>
        <time>2019-05-25T07:09:55Z</time>
      </trkpt>
      <trkpt lat="44.72151" lon="3.28268">
        <ele>1050.1999511719</ele>
        <time>2019-05-25T07:10:00Z</time>
      </trkpt>
      <trkpt lat="44.72136" lon="3.2824">
        <ele>1049.1999511719</ele>
        <time>2019-05-25T07:10:07Z</time>
      </trkpt>
      <trkpt lat="44.72124" lon="3.28204">
        <ele>1049.4000244141</ele>
        <time>2019-05-25T07:10:14Z</time>
      </trkpt>
      <trkpt lat="44.72116" lon="3.28172">
        <ele>1049.4000244141</ele>
        <time>2019-05-25T07:10:19Z</time>
      </trkpt>
      <trkpt lat="44.72116" lon="3.28164">
        <ele>1049.1999511719</ele>
        <time>2019-05-25T07:10:20Z</time>
      </trkpt>
      <trkpt lat="44.72119" lon="3.28157">
        <ele>1049.1999511719</ele>
        <time>2019-05-25T07:10:21Z</time>
      </trkpt>
      <trkpt lat="44.72124" lon="3.28152">
        <ele>1049</ele>
        <time>2019-05-25T07:10:22Z</time>
      </trkpt>
      <trkpt lat="44.72131" lon="3.28149">
        <ele>1049</ele>
        <time>2019-05-25T07:10:23Z</time>
      </trkpt>
      <trkpt lat="44.72145" lon="3.28146">
        <ele>1048.8000488281</ele>
        <time>2019-05-25T07:10:25Z</time>
      </trkpt>
      <trkpt lat="44.72161" lon="3.28144">
        <ele>1048.5999755859</ele>
        <time>2019-05-25T07:10:27Z</time>
      </trkpt>
      <trkpt lat="44.72177" lon="3.28147">
        <ele>1048.4000244141</ele>
        <time>2019-05-25T07:10:29Z</time>
      </trkpt>
      <trkpt lat="44.72186" lon="3.2815">
        <ele>1048.1999511719</ele>
        <time>2019-05-25T07:10:30Z</time>
      </trkpt>
      <trkpt lat="44.72211" lon="3.28165">
        <ele>1047.8000488281</ele>
        <time>2019-05-25T07:10:33Z</time>
      </trkpt>
      <trkpt lat="44.72219" lon="3.2817">
        <ele>1047.5999755859</ele>
        <time>2019-05-25T07:10:34Z</time>
      </trkpt>
      <trkpt lat="44.72243" lon="3.2819">
        <ele>1047</ele>
        <time>2019-05-25T07:10:38Z</time>
      </trkpt>
      <trkpt lat="44.72262" lon="3.28201">
        <ele>1046.5999755859</ele>
        <time>2019-05-25T07:10:42Z</time>
      </trkpt>
      <trkpt lat="44.72266" lon="3.28202">
        <ele>1046.4000244141</ele>
        <time>2019-05-25T07:10:43Z</time>
      </trkpt>
      <trkpt lat="44.72283" lon="3.28208">
        <ele>1046.1999511719</ele>
        <time>2019-05-25T07:10:47Z</time>
      </trkpt>
      <trkpt lat="44.72296" lon="3.28214">
        <ele>1046</ele>
        <time>2019-05-25T07:10:51Z</time>
      </trkpt>
      <trkpt lat="44.72299" lon="3.28213">
        <ele>1046</ele>
        <time>2019-05-25T07:10:52Z</time>
      </trkpt>
      <trkpt lat="44.72301" lon="3.28209">
        <ele>1045.8000488281</ele>
        <time>2019-05-25T07:10:53Z</time>
      </trkpt>
      <trkpt lat="44.72302" lon="3.28202">
        <ele>1045.8000488281</ele>
        <time>2019-05-25T07:10:54Z</time>
      </trkpt>
      <trkpt lat="44.72308" lon="3.2817">
        <ele>1044.8000488281</ele>
        <time>2019-05-25T07:10:57Z</time>
      </trkpt>
      <trkpt lat="44.72315" lon="3.28135">
        <ele>1043.5999755859</ele>
        <time>2019-05-25T07:11:00Z</time>
      </trkpt>
      <trkpt lat="44.7232" lon="3.28116">
        <ele>1042.8000488281</ele>
        <time>2019-05-25T07:11:02Z</time>
      </trkpt>
      <trkpt lat="44.7233" lon="3.2809">
        <ele>1041.8000488281</ele>
        <time>2019-05-25T07:11:05Z</time>
      </trkpt>
      <trkpt lat="44.72331" lon="3.28081">
        <ele>1041.5999755859</ele>
        <time>2019-05-25T07:11:06Z</time>
      </trkpt>
      <trkpt lat="44.7233" lon="3.28072">
        <ele>1041.1999511719</ele>
        <time>2019-05-25T07:11:07Z</time>
      </trkpt>
      <trkpt lat="44.72327" lon="3.28064">
        <ele>1040.8000488281</ele>
        <time>2019-05-25T07:11:08Z</time>
      </trkpt>
      <trkpt lat="44.72322" lon="3.28056">
        <ele>1040.5999755859</ele>
        <time>2019-05-25T07:11:09Z</time>
      </trkpt>
      <trkpt lat="44.72303" lon="3.28033">
        <ele>1039.5999755859</ele>
        <time>2019-05-25T07:11:12Z</time>
      </trkpt>
      <trkpt lat="44.72287" lon="3.2802">
        <ele>1038.8000488281</ele>
        <time>2019-05-25T07:11:14Z</time>
      </trkpt>
      <trkpt lat="44.72271" lon="3.28013">
        <ele>1038.1999511719</ele>
        <time>2019-05-25T07:11:16Z</time>
      </trkpt>
      <trkpt lat="44.72264" lon="3.2801">
        <ele>1038</ele>
        <time>2019-05-25T07:11:17Z</time>
      </trkpt>
      <trkpt lat="44.72252" lon="3.28004">
        <ele>1037.5999755859</ele>
        <time>2019-05-25T07:11:19Z</time>
      </trkpt>
      <trkpt lat="44.72247" lon="3.28">
        <ele>1037.5999755859</ele>
        <time>2019-05-25T07:11:20Z</time>
      </trkpt>
      <trkpt lat="44.72218" lon="3.27971">
        <ele>1036.5999755859</ele>
        <time>2019-05-25T07:11:26Z</time>
      </trkpt>
      <trkpt lat="44.72183" lon="3.27936">
        <ele>1035.4000244141</ele>
        <time>2019-05-25T07:11:33Z</time>
      </trkpt>
      <trkpt lat="44.72151" lon="3.27915">
        <ele>1034.4000244141</ele>
        <time>2019-05-25T07:11:39Z</time>
      </trkpt>
      <trkpt lat="44.72147" lon="3.27912">
        <ele>1034.4000244141</ele>
        <time>2019-05-25T07:11:40Z</time>
      </trkpt>
      <trkpt lat="44.72142" lon="3.27902">
        <ele>1034</ele>
        <time>2019-05-25T07:11:42Z</time>
      </trkpt>
      <trkpt lat="44.72144" lon="3.2789">
        <ele>1033.5999755859</ele>
        <time>2019-05-25T07:11:44Z</time>
      </trkpt>
      <trkpt lat="44.72146" lon="3.27883">
        <ele>1033.4000244141</ele>
        <time>2019-05-25T07:11:45Z</time>
      </trkpt>
      <trkpt lat="44.72146" lon="3.27877">
        <ele>1033.1999511719</ele>
        <time>2019-05-25T07:11:46Z</time>
      </trkpt>
      <trkpt lat="44.72148" lon="3.27865">
        <ele>1033</ele>
        <time>2019-05-25T07:11:48Z</time>
      </trkpt>
      <trkpt lat="44.72148" lon="3.27852">
        <ele>1032.5999755859</ele>
        <time>2019-05-25T07:11:50Z</time>
      </trkpt>
      <trkpt lat="44.72145" lon="3.27839">
        <ele>1032.4000244141</ele>
        <time>2019-05-25T07:11:52Z</time>
      </trkpt>
      <trkpt lat="44.72143" lon="3.27828">
        <ele>1032.1999511719</ele>
        <time>2019-05-25T07:11:54Z</time>
      </trkpt>
      <trkpt lat="44.72141" lon="3.27823">
        <ele>1032</ele>
        <time>2019-05-25T07:11:55Z</time>
      </trkpt>
      <trkpt lat="44.72132" lon="3.27799">
        <ele>1031.8000488281</ele>
        <time>2019-05-25T07:12:01Z</time>
      </trkpt>
      <trkpt lat="44.72127" lon="3.2778">
        <ele>1031.5999755859</ele>
        <time>2019-05-25T07:12:07Z</time>
      </trkpt>
      <trkpt lat="44.72124" lon="3.27757">
        <ele>1031.4000244141</ele>
        <time>2019-05-25T07:12:15Z</time>
      </trkpt>
      <trkpt lat="44.72125" lon="3.27739">
        <ele>1031.5999755859</ele>
        <time>2019-05-25T07:12:22Z</time>
      </trkpt>
      <trkpt lat="44.72129" lon="3.27721">
        <ele>1031.8000488281</ele>
        <time>2019-05-25T07:12:29Z</time>
      </trkpt>
      <trkpt lat="44.72135" lon="3.27698">
        <ele>1032.1999511719</ele>
        <time>2019-05-25T07:12:37Z</time>
      </trkpt>
      <trkpt lat="44.72136" lon="3.27664">
        <ele>1032.8000488281</ele>
        <time>2019-05-25T07:12:47Z</time>
      </trkpt>
      <trkpt lat="44.7213" lon="3.27643">
        <ele>1033.1999511719</ele>
        <time>2019-05-25T07:12:53Z</time>
      </trkpt>
      <trkpt lat="44.7212" lon="3.2762">
        <ele>1033.4000244141</ele>
        <time>2019-05-25T07:12:59Z</time>
      </trkpt>
      <trkpt lat="44.7211" lon="3.276">
        <ele>1033.4000244141</ele>
        <time>2019-05-25T07:13:04Z</time>
      </trkpt>
      <trkpt lat="44.72088" lon="3.27558">
        <ele>1033.8000488281</ele>
        <time>2019-05-25T07:13:14Z</time>
      </trkpt>
      <trkpt lat="44.72076" lon="3.27527">
        <ele>1034</ele>
        <time>2019-05-25T07:13:21Z</time>
      </trkpt>
      <trkpt lat="44.7207" lon="3.27502">
        <ele>1034.4000244141</ele>
        <time>2019-05-25T07:13:27Z</time>
      </trkpt>
      <trkpt lat="44.72062" lon="3.27474">
        <ele>1034.8000488281</ele>
        <time>2019-05-25T07:13:34Z</time>
      </trkpt>
      <trkpt lat="44.72048" lon="3.27446">
        <ele>1035.1999511719</ele>
        <time>2019-05-25T07:13:41Z</time>
      </trkpt>
      <trkpt lat="44.72026" lon="3.27417">
        <ele>1035.5999755859</ele>
        <time>2019-05-25T07:13:48Z</time>
      </trkpt>
      <trkpt lat="44.72011" lon="3.27393">
        <ele>1035.8000488281</ele>
        <time>2019-05-25T07:13:53Z</time>
      </trkpt>
      <trkpt lat="44.72011" lon="3.27388">
        <ele>1035.8000488281</ele>
        <time>2019-05-25T07:13:54Z</time>
      </trkpt>
      <trkpt lat="44.72014" lon="3.27384">
        <ele>1035.8000488281</ele>
        <time>2019-05-25T07:13:55Z</time>
      </trkpt>
      <trkpt lat="44.72019" lon="3.27376">
        <ele>1035.8000488281</ele>
        <time>2019-05-25T07:13:57Z</time>
      </trkpt>
      <trkpt lat="44.7204" lon="3.27352">
        <ele>1036</ele>
        <time>2019-05-25T07:14:03Z</time>
      </trkpt>
      <trkpt lat="44.72042" lon="3.27337">
        <ele>1036.1999511719</ele>
        <time>2019-05-25T07:14:06Z</time>
      </trkpt>
      <trkpt lat="44.7204" lon="3.27332">
        <ele>1036.1999511719</ele>
        <time>2019-05-25T07:14:07Z</time>
      </trkpt>
      <trkpt lat="44.72032" lon="3.27304">
        <ele>1037</ele>
        <time>2019-05-25T07:14:14Z</time>
      </trkpt>
      <trkpt lat="44.7202" lon="3.27281">
        <ele>1037.8000488281</ele>
        <time>2019-05-25T07:14:21Z</time>
      </trkpt>
      <trkpt lat="44.72002" lon="3.27275">
        <ele>1038.1999511719</ele>
        <time>2019-05-25T07:14:26Z</time>
      </trkpt>
      <trkpt lat="44.7197" lon="3.27261">
        <ele>1038.8000488281</ele>
        <time>2019-05-25T07:14:34Z</time>
      </trkpt>
      <trkpt lat="44.71943" lon="3.27241">
        <ele>1039.1999511719</ele>
        <time>2019-05-25T07:14:41Z</time>
      </trkpt>
      <trkpt lat="44.71921" lon="3.27224">
        <ele>1039.8000488281</ele>
        <time>2019-05-25T07:14:47Z</time>
      </trkpt>
      <trkpt lat="44.71913" lon="3.27218">
        <ele>1040</ele>
        <time>2019-05-25T07:14:49Z</time>
      </trkpt>
      <trkpt lat="44.71906" lon="3.27212">
        <ele>1040.1999511719</ele>
        <time>2019-05-25T07:14:51Z</time>
      </trkpt>
      <trkpt lat="44.7189" lon="3.27201">
        <ele>1040.5999755859</ele>
        <time>2019-05-25T07:14:55Z</time>
      </trkpt>
      <trkpt lat="44.71878" lon="3.27193">
        <ele>1040.8000488281</ele>
        <time>2019-05-25T07:14:58Z</time>
      </trkpt>
      <trkpt lat="44.71861" lon="3.27184">
        <ele>1040.8000488281</ele>
        <time>2019-05-25T07:15:02Z</time>
      </trkpt>
      <trkpt lat="44.71816" lon="3.27162">
        <ele>1041.5999755859</ele>
        <time>2019-05-25T07:15:12Z</time>
      </trkpt>
      <trkpt lat="44.71775" lon="3.27148">
        <ele>1042</ele>
        <time>2019-05-25T07:15:21Z</time>
      </trkpt>
      <trkpt lat="44.71736" lon="3.2714">
        <ele>1042.5999755859</ele>
        <time>2019-05-25T07:15:29Z</time>
      </trkpt>
      <trkpt lat="44.71717" lon="3.27136">
        <ele>1042.8000488281</ele>
        <time>2019-05-25T07:15:33Z</time>
      </trkpt>
      <trkpt lat="44.71703" lon="3.2713">
        <ele>1043.1999511719</ele>
        <time>2019-05-25T07:15:36Z</time>
      </trkpt>
      <trkpt lat="44.71686" lon="3.27118">
        <ele>1043.4000244141</ele>
        <time>2019-05-25T07:15:40Z</time>
      </trkpt>
      <trkpt lat="44.71678" lon="3.2711">
        <ele>1043.4000244141</ele>
        <time>2019-05-25T07:15:42Z</time>
      </trkpt>
      <trkpt lat="44.71653" lon="3.27083">
        <ele>1043.8000488281</ele>
        <time>2019-05-25T07:15:49Z</time>
      </trkpt>
      <trkpt lat="44.71629" lon="3.27058">
        <ele>1044.5999755859</ele>
        <time>2019-05-25T07:15:57Z</time>
      </trkpt>
      <trkpt lat="44.71611" lon="3.27043">
        <ele>1045.4000244141</ele>
        <time>2019-05-25T07:16:04Z</time>
      </trkpt>
      <trkpt lat="44.71594" lon="3.27033">
        <ele>1046.1999511719</ele>
        <time>2019-05-25T07:16:10Z</time>
      </trkpt>
      <trkpt lat="44.71569" lon="3.27024">
        <ele>1047.4000244141</ele>
        <time>2019-05-25T07:16:19Z</time>
      </trkpt>
      <trkpt lat="44.71548" lon="3.27014">
        <ele>1048.5999755859</ele>
        <time>2019-05-25T07:16:27Z</time>
      </trkpt>
      <trkpt lat="44.71529" lon="3.26993">
        <ele>1050.1999511719</ele>
        <time>2019-05-25T07:16:36Z</time>
      </trkpt>
      <trkpt lat="44.71517" lon="3.26976">
        <ele>1051.4000244141</ele>
        <time>2019-05-25T07:16:43Z</time>
      </trkpt>
      <trkpt lat="44.71509" lon="3.26966">
        <ele>1052.4000244141</ele>
        <time>2019-05-25T07:16:49Z</time>
      </trkpt>
      <trkpt lat="44.71507" lon="3.26966">
        <ele>1052.5999755859</ele>
        <time>2019-05-25T07:16:51Z</time>
      </trkpt>
      <trkpt lat="44.71499" lon="3.26962">
        <ele>1055.4000244141</ele>
        <time>2019-05-25T07:17:12Z</time>
      </trkpt>
      <trkpt lat="44.71496" lon="3.26962">
        <ele>1055.8000488281</ele>
        <time>2019-05-25T07:17:14Z</time>
      </trkpt>
      <trkpt lat="44.71496" lon="3.26952">
        <ele>1056.1999511719</ele>
        <time>2019-05-25T07:17:18Z</time>
      </trkpt>
      <trkpt lat="44.71497" lon="3.26949">
        <ele>1056.4000244141</ele>
        <time>2019-05-25T07:17:20Z</time>
      </trkpt>
      <trkpt lat="44.71499" lon="3.2694">
        <ele>1056.8000488281</ele>
        <time>2019-05-25T07:17:25Z</time>
      </trkpt>
      <trkpt lat="44.71502" lon="3.26937">
        <ele>1057</ele>
        <time>2019-05-25T07:17:27Z</time>
      </trkpt>
      <trkpt lat="44.71506" lon="3.26922">
        <ele>1057.5999755859</ele>
        <time>2019-05-25T07:17:31Z</time>
      </trkpt>
      <trkpt lat="44.71515" lon="3.26899">
        <ele>1058.1999511719</ele>
        <time>2019-05-25T07:17:36Z</time>
      </trkpt>
      <trkpt lat="44.71525" lon="3.2687">
        <ele>1058.8000488281</ele>
        <time>2019-05-25T07:17:41Z</time>
      </trkpt>
      <trkpt lat="44.71539" lon="3.26827">
        <ele>1059</ele>
        <time>2019-05-25T07:17:47Z</time>
      </trkpt>
      <trkpt lat="44.71553" lon="3.26791">
        <ele>1059.1999511719</ele>
        <time>2019-05-25T07:17:52Z</time>
      </trkpt>
      <trkpt lat="44.71571" lon="3.26742">
        <ele>1059.4000244141</ele>
        <time>2019-05-25T07:17:59Z</time>
      </trkpt>
      <trkpt lat="44.71586" lon="3.26703">
        <ele>1059.5999755859</ele>
        <time>2019-05-25T07:18:05Z</time>
      </trkpt>
      <trkpt lat="44.71589" lon="3.26696">
        <ele>1059.5999755859</ele>
        <time>2019-05-25T07:18:06Z</time>
      </trkpt>
      <trkpt lat="44.71591" lon="3.2669">
        <ele>1059.5999755859</ele>
        <time>2019-05-25T07:18:07Z</time>
      </trkpt>
      <trkpt lat="44.71598" lon="3.2667">
        <ele>1059.5999755859</ele>
        <time>2019-05-25T07:18:10Z</time>
      </trkpt>
      <trkpt lat="44.71603" lon="3.26659">
        <ele>1059.5999755859</ele>
        <time>2019-05-25T07:18:12Z</time>
      </trkpt>
      <trkpt lat="44.71608" lon="3.26647">
        <ele>1059.5999755859</ele>
        <time>2019-05-25T07:18:14Z</time>
      </trkpt>
      <trkpt lat="44.71617" lon="3.26624">
        <ele>1059.4000244141</ele>
        <time>2019-05-25T07:18:18Z</time>
      </trkpt>
      <trkpt lat="44.7162" lon="3.26619">
        <ele>1059.4000244141</ele>
        <time>2019-05-25T07:18:19Z</time>
      </trkpt>
      <trkpt lat="44.71626" lon="3.26609">
        <ele>1059.4000244141</ele>
        <time>2019-05-25T07:18:21Z</time>
      </trkpt>
      <trkpt lat="44.7163" lon="3.26597">
        <ele>1059.1999511719</ele>
        <time>2019-05-25T07:18:23Z</time>
      </trkpt>
      <trkpt lat="44.71634" lon="3.26586">
        <ele>1059.1999511719</ele>
        <time>2019-05-25T07:18:25Z</time>
      </trkpt>
      <trkpt lat="44.71638" lon="3.26574">
        <ele>1059.1999511719</ele>
        <time>2019-05-25T07:18:27Z</time>
      </trkpt>
      <trkpt lat="44.71644" lon="3.26557">
        <ele>1059</ele>
        <time>2019-05-25T07:18:30Z</time>
      </trkpt>
      <trkpt lat="44.71653" lon="3.26529">
        <ele>1058.8000488281</ele>
        <time>2019-05-25T07:18:35Z</time>
      </trkpt>
      <trkpt lat="44.71664" lon="3.26502">
        <ele>1058.8000488281</ele>
        <time>2019-05-25T07:18:41Z</time>
      </trkpt>
      <trkpt lat="44.71671" lon="3.26486">
        <ele>1058.5999755859</ele>
        <time>2019-05-25T07:18:45Z</time>
      </trkpt>
      <trkpt lat="44.71681" lon="3.26459">
        <ele>1058.1999511719</ele>
        <time>2019-05-25T07:18:51Z</time>
      </trkpt>
      <trkpt lat="44.71689" lon="3.26441">
        <ele>1057.8000488281</ele>
        <time>2019-05-25T07:18:55Z</time>
      </trkpt>
      <trkpt lat="44.7169" lon="3.26437">
        <ele>1057.5999755859</ele>
        <time>2019-05-25T07:18:56Z</time>
      </trkpt>
      <trkpt lat="44.71695" lon="3.26429">
        <ele>1057.4000244141</ele>
        <time>2019-05-25T07:18:58Z</time>
      </trkpt>
      <trkpt lat="44.71705" lon="3.26411">
        <ele>1057.4000244141</ele>
        <time>2019-05-25T07:19:02Z</time>
      </trkpt>
      <trkpt lat="44.71723" lon="3.26384">
        <ele>1058</ele>
        <time>2019-05-25T07:19:08Z</time>
      </trkpt>
      <trkpt lat="44.71732" lon="3.26371">
        <ele>1058.1999511719</ele>
        <time>2019-05-25T07:19:11Z</time>
      </trkpt>
      <trkpt lat="44.71738" lon="3.26364">
        <ele>1058.4000244141</ele>
        <time>2019-05-25T07:19:13Z</time>
      </trkpt>
      <trkpt lat="44.71748" lon="3.26349">
        <ele>1058.5999755859</ele>
        <time>2019-05-25T07:19:16Z</time>
      </trkpt>
      <trkpt lat="44.71755" lon="3.2634">
        <ele>1058.8000488281</ele>
        <time>2019-05-25T07:19:18Z</time>
      </trkpt>
      <trkpt lat="44.71768" lon="3.26323">
        <ele>1059</ele>
        <time>2019-05-25T07:19:22Z</time>
      </trkpt>
      <trkpt lat="44.71775" lon="3.26313">
        <ele>1059</ele>
        <time>2019-05-25T07:19:24Z</time>
      </trkpt>
      <trkpt lat="44.71781" lon="3.26305">
        <ele>1059.1999511719</ele>
        <time>2019-05-25T07:19:26Z</time>
      </trkpt>
      <trkpt lat="44.71784" lon="3.26301">
        <ele>1059.1999511719</ele>
        <time>2019-05-25T07:19:27Z</time>
      </trkpt>
      <trkpt lat="44.71798" lon="3.26284">
        <ele>1059.4000244141</ele>
        <time>2019-05-25T07:19:32Z</time>
      </trkpt>
      <trkpt lat="44.7181" lon="3.26268">
        <ele>1059.8000488281</ele>
        <time>2019-05-25T07:19:36Z</time>
      </trkpt>
      <trkpt lat="44.71814" lon="3.26262">
        <ele>1059.8000488281</ele>
        <time>2019-05-25T07:19:37Z</time>
      </trkpt>
      <trkpt lat="44.7182" lon="3.26254">
        <ele>1060</ele>
        <time>2019-05-25T07:19:39Z</time>
      </trkpt>
      <trkpt lat="44.71836" lon="3.26234">
        <ele>1060.4000244141</ele>
        <time>2019-05-25T07:19:43Z</time>
      </trkpt>
      <trkpt lat="44.71845" lon="3.26222">
        <ele>1060.4000244141</ele>
        <time>2019-05-25T07:19:45Z</time>
      </trkpt>
      <trkpt lat="44.71854" lon="3.2621">
        <ele>1060.4000244141</ele>
        <time>2019-05-25T07:19:47Z</time>
      </trkpt>
      <trkpt lat="44.71868" lon="3.26193">
        <ele>1060.5999755859</ele>
        <time>2019-05-25T07:19:50Z</time>
      </trkpt>
      <trkpt lat="44.71877" lon="3.26181">
        <ele>1060.5999755859</ele>
        <time>2019-05-25T07:19:52Z</time>
      </trkpt>
      <trkpt lat="44.7188" lon="3.26174">
        <ele>1060.5999755859</ele>
        <time>2019-05-25T07:19:53Z</time>
      </trkpt>
      <trkpt lat="44.71892" lon="3.26157">
        <ele>1060.8000488281</ele>
        <time>2019-05-25T07:19:56Z</time>
      </trkpt>
      <trkpt lat="44.719" lon="3.26147">
        <ele>1061</ele>
        <time>2019-05-25T07:19:58Z</time>
      </trkpt>
      <trkpt lat="44.71916" lon="3.26126">
        <ele>1061.4000244141</ele>
        <time>2019-05-25T07:20:02Z</time>
      </trkpt>
      <trkpt lat="44.71938" lon="3.26095">
        <ele>1062</ele>
        <time>2019-05-25T07:20:08Z</time>
      </trkpt>
      <trkpt lat="44.7196" lon="3.26068">
        <ele>1062.8000488281</ele>
        <time>2019-05-25T07:20:14Z</time>
      </trkpt>
      <trkpt lat="44.71976" lon="3.2605">
        <ele>1063.1999511719</ele>
        <time>2019-05-25T07:20:18Z</time>
      </trkpt>
      <trkpt lat="44.71983" lon="3.26041">
        <ele>1063.5999755859</ele>
        <time>2019-05-25T07:20:20Z</time>
      </trkpt>
      <trkpt lat="44.72002" lon="3.26018">
        <ele>1064.1999511719</ele>
        <time>2019-05-25T07:20:25Z</time>
      </trkpt>
      <trkpt lat="44.72005" lon="3.26013">
        <ele>1064.4000244141</ele>
        <time>2019-05-25T07:20:26Z</time>
      </trkpt>
      <trkpt lat="44.72011" lon="3.26001">
        <ele>1064.8000488281</ele>
        <time>2019-05-25T07:20:28Z</time>
      </trkpt>
      <trkpt lat="44.72018" lon="3.25983">
        <ele>1065</ele>
        <time>2019-05-25T07:20:31Z</time>
      </trkpt>
      <trkpt lat="44.72026" lon="3.25953">
        <ele>1065.5999755859</ele>
        <time>2019-05-25T07:20:36Z</time>
      </trkpt>
      <trkpt lat="44.72029" lon="3.25941">
        <ele>1065.8000488281</ele>
        <time>2019-05-25T07:20:38Z</time>
      </trkpt>
      <trkpt lat="44.72039" lon="3.25901">
        <ele>1066.5999755859</ele>
        <time>2019-05-25T07:20:45Z</time>
      </trkpt>
      <trkpt lat="44.72045" lon="3.25881">
        <ele>1067</ele>
        <time>2019-05-25T07:20:49Z</time>
      </trkpt>
      <trkpt lat="44.72049" lon="3.25841">
        <ele>1067.5999755859</ele>
        <time>2019-05-25T07:20:57Z</time>
      </trkpt>
      <trkpt lat="44.72049" lon="3.2581">
        <ele>1068.1999511719</ele>
        <time>2019-05-25T07:21:03Z</time>
      </trkpt>
      <trkpt lat="44.72052" lon="3.25773">
        <ele>1069</ele>
        <time>2019-05-25T07:21:10Z</time>
      </trkpt>
      <trkpt lat="44.7206" lon="3.25736">
        <ele>1069.5999755859</ele>
        <time>2019-05-25T07:21:18Z</time>
      </trkpt>
      <trkpt lat="44.72071" lon="3.257">
        <ele>1070.4000244141</ele>
        <time>2019-05-25T07:21:26Z</time>
      </trkpt>
      <trkpt lat="44.72082" lon="3.2567">
        <ele>1071.1999511719</ele>
        <time>2019-05-25T07:21:33Z</time>
      </trkpt>
      <trkpt lat="44.72094" lon="3.2564">
        <ele>1071.8000488281</ele>
        <time>2019-05-25T07:21:40Z</time>
      </trkpt>
      <trkpt lat="44.72105" lon="3.25621">
        <ele>1072.4000244141</ele>
        <time>2019-05-25T07:21:45Z</time>
      </trkpt>
      <trkpt lat="44.72116" lon="3.25597">
        <ele>1073</ele>
        <time>2019-05-25T07:21:51Z</time>
      </trkpt>
      <trkpt lat="44.7213" lon="3.25569">
        <ele>1073.4000244141</ele>
        <time>2019-05-25T07:21:58Z</time>
      </trkpt>
      <trkpt lat="44.72144" lon="3.2554">
        <ele>1074.1999511719</ele>
        <time>2019-05-25T07:22:05Z</time>
      </trkpt>
      <trkpt lat="44.72157" lon="3.25502">
        <ele>1075</ele>
        <time>2019-05-25T07:22:13Z</time>
      </trkpt>
      <trkpt lat="44.72171" lon="3.2546">
        <ele>1075.8000488281</ele>
        <time>2019-05-25T07:22:22Z</time>
      </trkpt>
      <trkpt lat="44.72178" lon="3.25429">
        <ele>1076.1999511719</ele>
        <time>2019-05-25T07:22:28Z</time>
      </trkpt>
      <trkpt lat="44.72188" lon="3.25384">
        <ele>1076.8000488281</ele>
        <time>2019-05-25T07:22:37Z</time>
      </trkpt>
      <trkpt lat="44.72192" lon="3.25365">
        <ele>1077</ele>
        <time>2019-05-25T07:22:41Z</time>
      </trkpt>
      <trkpt lat="44.72198" lon="3.25342">
        <ele>1077</ele>
        <time>2019-05-25T07:22:46Z</time>
      </trkpt>
      <trkpt lat="44.72206" lon="3.25312">
        <ele>1077</ele>
        <time>2019-05-25T07:22:52Z</time>
      </trkpt>
      <trkpt lat="44.7221" lon="3.2529">
        <ele>1077.1999511719</ele>
        <time>2019-05-25T07:22:56Z</time>
      </trkpt>
      <trkpt lat="44.7221" lon="3.25263">
        <ele>1077.4000244141</ele>
        <time>2019-05-25T07:23:01Z</time>
      </trkpt>
      <trkpt lat="44.72211" lon="3.25247">
        <ele>1077.5999755859</ele>
        <time>2019-05-25T07:23:04Z</time>
      </trkpt>
      <trkpt lat="44.72215" lon="3.25228">
        <ele>1078</ele>
        <time>2019-05-25T07:23:08Z</time>
      </trkpt>
      <trkpt lat="44.7222" lon="3.25202">
        <ele>1078.1999511719</ele>
        <time>2019-05-25T07:23:13Z</time>
      </trkpt>
      <trkpt lat="44.72224" lon="3.25185">
        <ele>1078.4000244141</ele>
        <time>2019-05-25T07:23:17Z</time>
      </trkpt>
      <trkpt lat="44.72222" lon="3.25162">
        <ele>1079.1999511719</ele>
        <time>2019-05-25T07:23:22Z</time>
      </trkpt>
      <trkpt lat="44.72215" lon="3.25129">
        <ele>1079.8000488281</ele>
        <time>2019-05-25T07:23:29Z</time>
      </trkpt>
      <trkpt lat="44.72208" lon="3.25095">
        <ele>1080.5999755859</ele>
        <time>2019-05-25T07:23:36Z</time>
      </trkpt>
      <trkpt lat="44.72208" lon="3.25072">
        <ele>1081.1999511719</ele>
        <time>2019-05-25T07:23:41Z</time>
      </trkpt>
      <trkpt lat="44.72217" lon="3.25038">
        <ele>1081.8000488281</ele>
        <time>2019-05-25T07:23:49Z</time>
      </trkpt>
      <trkpt lat="44.72226" lon="3.25021">
        <ele>1082.1999511719</ele>
        <time>2019-05-25T07:23:54Z</time>
      </trkpt>
      <trkpt lat="44.72241" lon="3.24991">
        <ele>1083.4000244141</ele>
        <time>2019-05-25T07:24:03Z</time>
      </trkpt>
      <trkpt lat="44.72252" lon="3.24968">
        <ele>1084.5999755859</ele>
        <time>2019-05-25T07:24:11Z</time>
      </trkpt>
      <trkpt lat="44.72257" lon="3.24952">
        <ele>1085.1999511719</ele>
        <time>2019-05-25T07:24:16Z</time>
      </trkpt>
      <trkpt lat="44.72265" lon="3.24934">
        <ele>1086.1999511719</ele>
        <time>2019-05-25T07:24:23Z</time>
      </trkpt>
      <trkpt lat="44.7227" lon="3.2492">
        <ele>1087</ele>
        <time>2019-05-25T07:24:28Z</time>
      </trkpt>
      <trkpt lat="44.72276" lon="3.24907">
        <ele>1087.5999755859</ele>
        <time>2019-05-25T07:24:33Z</time>
      </trkpt>
      <trkpt lat="44.72282" lon="3.24891">
        <ele>1088.4000244141</ele>
        <time>2019-05-25T07:24:39Z</time>
      </trkpt>
      <trkpt lat="44.72287" lon="3.24878">
        <ele>1089</ele>
        <time>2019-05-25T07:24:44Z</time>
      </trkpt>
      <trkpt lat="44.72288" lon="3.24876">
        <ele>1089.1999511719</ele>
        <time>2019-05-25T07:24:45Z</time>
      </trkpt>
      <trkpt lat="44.72292" lon="3.24859">
        <ele>1090</ele>
        <time>2019-05-25T07:24:50Z</time>
      </trkpt>
      <trkpt lat="44.72296" lon="3.24836">
        <ele>1091</ele>
        <time>2019-05-25T07:24:57Z</time>
      </trkpt>
      <trkpt lat="44.723" lon="3.24811">
        <ele>1092.1999511719</ele>
        <time>2019-05-25T07:25:05Z</time>
      </trkpt>
      <trkpt lat="44.72306" lon="3.24785">
        <ele>1093.4000244141</ele>
        <time>2019-05-25T07:25:13Z</time>
      </trkpt>
      <trkpt lat="44.72312" lon="3.24758">
        <ele>1094.1999511719</ele>
        <time>2019-05-25T07:25:20Z</time>
      </trkpt>
      <trkpt lat="44.72324" lon="3.24723">
        <ele>1095</ele>
        <time>2019-05-25T07:25:27Z</time>
      </trkpt>
      <trkpt lat="44.72338" lon="3.24685">
        <ele>1095.5999755859</ele>
        <time>2019-05-25T07:25:33Z</time>
      </trkpt>
      <trkpt lat="44.72364" lon="3.24623">
        <ele>1096.4000244141</ele>
        <time>2019-05-25T07:25:42Z</time>
      </trkpt>
      <trkpt lat="44.72382" lon="3.24579">
        <ele>1097.1999511719</ele>
        <time>2019-05-25T07:25:49Z</time>
      </trkpt>
      <trkpt lat="44.72385" lon="3.24566">
        <ele>1097.4000244141</ele>
        <time>2019-05-25T07:25:51Z</time>
      </trkpt>
      <trkpt lat="44.72387" lon="3.24551">
        <ele>1097.8000488281</ele>
        <time>2019-05-25T07:25:53Z</time>
      </trkpt>
      <trkpt lat="44.72388" lon="3.24544">
        <ele>1097.8000488281</ele>
        <time>2019-05-25T07:25:54Z</time>
      </trkpt>
      <trkpt lat="44.72392" lon="3.24523">
        <ele>1098.1999511719</ele>
        <time>2019-05-25T07:25:57Z</time>
      </trkpt>
      <trkpt lat="44.72393" lon="3.24517">
        <ele>1098.1999511719</ele>
        <time>2019-05-25T07:25:58Z</time>
      </trkpt>
      <trkpt lat="44.72396" lon="3.24504">
        <ele>1098.5999755859</ele>
        <time>2019-05-25T07:26:00Z</time>
      </trkpt>
      <trkpt lat="44.72397" lon="3.24497">
        <ele>1098.8000488281</ele>
        <time>2019-05-25T07:26:01Z</time>
      </trkpt>
      <trkpt lat="44.72401" lon="3.24469">
        <ele>1099</ele>
        <time>2019-05-25T07:26:05Z</time>
      </trkpt>
      <trkpt lat="44.72402" lon="3.24454">
        <ele>1099.1999511719</ele>
        <time>2019-05-25T07:26:07Z</time>
      </trkpt>
      <trkpt lat="44.72403" lon="3.24447">
        <ele>1099.1999511719</ele>
        <time>2019-05-25T07:26:08Z</time>
      </trkpt>
      <trkpt lat="44.72404" lon="3.24441">
        <ele>1099.1999511719</ele>
        <time>2019-05-25T07:26:09Z</time>
      </trkpt>
      <trkpt lat="44.72412" lon="3.24409">
        <ele>1099.5999755859</ele>
        <time>2019-05-25T07:26:14Z</time>
      </trkpt>
      <trkpt lat="44.72414" lon="3.24404">
        <ele>1099.5999755859</ele>
        <time>2019-05-25T07:26:15Z</time>
      </trkpt>
      <trkpt lat="44.72422" lon="3.24387">
        <ele>1099.8000488281</ele>
        <time>2019-05-25T07:26:19Z</time>
      </trkpt>
      <trkpt lat="44.72433" lon="3.24363">
        <ele>1100.5999755859</ele>
        <time>2019-05-25T07:26:26Z</time>
      </trkpt>
      <trkpt lat="44.72443" lon="3.24343">
        <ele>1101.4000244141</ele>
        <time>2019-05-25T07:26:33Z</time>
      </trkpt>
      <trkpt lat="44.72449" lon="3.24324">
        <ele>1102.4000244141</ele>
        <time>2019-05-25T07:26:40Z</time>
      </trkpt>
      <trkpt lat="44.72455" lon="3.24304">
        <ele>1104</ele>
        <time>2019-05-25T07:26:47Z</time>
      </trkpt>
      <trkpt lat="44.72463" lon="3.24279">
        <ele>1105.4000244141</ele>
        <time>2019-05-25T07:26:55Z</time>
      </trkpt>
      <trkpt lat="44.72469" lon="3.2426">
        <ele>1106.1999511719</ele>
        <time>2019-05-25T07:27:01Z</time>
      </trkpt>
      <trkpt lat="44.72476" lon="3.24234">
        <ele>1107</ele>
        <time>2019-05-25T07:27:09Z</time>
      </trkpt>
      <trkpt lat="44.72482" lon="3.24217">
        <ele>1107.4000244141</ele>
        <time>2019-05-25T07:27:14Z</time>
      </trkpt>
      <trkpt lat="44.72492" lon="3.24193">
        <ele>1108.4000244141</ele>
        <time>2019-05-25T07:27:21Z</time>
      </trkpt>
      <trkpt lat="44.72503" lon="3.24169">
        <ele>1109</ele>
        <time>2019-05-25T07:27:28Z</time>
      </trkpt>
      <trkpt lat="44.72514" lon="3.24147">
        <ele>1109.5999755859</ele>
        <time>2019-05-25T07:27:34Z</time>
      </trkpt>
      <trkpt lat="44.7253" lon="3.24108">
        <ele>1110.4000244141</ele>
        <time>2019-05-25T07:27:44Z</time>
      </trkpt>
      <trkpt lat="44.7254" lon="3.24077">
        <ele>1111</ele>
        <time>2019-05-25T07:27:52Z</time>
      </trkpt>
      <trkpt lat="44.72547" lon="3.24046">
        <ele>1111.5999755859</ele>
        <time>2019-05-25T07:28:00Z</time>
      </trkpt>
      <trkpt lat="44.7255" lon="3.24018">
        <ele>1112.4000244141</ele>
        <time>2019-05-25T07:28:07Z</time>
      </trkpt>
      <trkpt lat="44.72554" lon="3.23983">
        <ele>1113.4000244141</ele>
        <time>2019-05-25T07:28:16Z</time>
      </trkpt>
      <trkpt lat="44.72557" lon="3.2396">
        <ele>1114</ele>
        <time>2019-05-25T07:28:23Z</time>
      </trkpt>
      <trkpt lat="44.72557" lon="3.23954">
        <ele>1114.1999511719</ele>
        <time>2019-05-25T07:28:26Z</time>
      </trkpt>
      <trkpt lat="44.7256" lon="3.23945">
        <ele>1118.1999511719</ele>
        <time>2019-05-25T07:29:26Z</time>
      </trkpt>
      <trkpt lat="44.7257" lon="3.23922">
        <ele>1118.4000244141</ele>
        <time>2019-05-25T07:29:32Z</time>
      </trkpt>
      <trkpt lat="44.72582" lon="3.23891">
        <ele>1118.8000488281</ele>
        <time>2019-05-25T07:29:40Z</time>
      </trkpt>
      <trkpt lat="44.72591" lon="3.23862">
        <ele>1119.5999755859</ele>
        <time>2019-05-25T07:29:47Z</time>
      </trkpt>
      <trkpt lat="44.72604" lon="3.23827">
        <ele>1120.4000244141</ele>
        <time>2019-05-25T07:29:56Z</time>
      </trkpt>
      <trkpt lat="44.72616" lon="3.23798">
        <ele>1120.8000488281</ele>
        <time>2019-05-25T07:30:03Z</time>
      </trkpt>
      <trkpt lat="44.7263" lon="3.23766">
        <ele>1121.4000244141</ele>
        <time>2019-05-25T07:30:11Z</time>
      </trkpt>
      <trkpt lat="44.72641" lon="3.23737">
        <ele>1121.8000488281</ele>
        <time>2019-05-25T07:30:18Z</time>
      </trkpt>
      <trkpt lat="44.7265" lon="3.23713">
        <ele>1122.4000244141</ele>
        <time>2019-05-25T07:30:24Z</time>
      </trkpt>
      <trkpt lat="44.72658" lon="3.23691">
        <ele>1123</ele>
        <time>2019-05-25T07:30:29Z</time>
      </trkpt>
      <trkpt lat="44.72669" lon="3.23662">
        <ele>1123.8000488281</ele>
        <time>2019-05-25T07:30:36Z</time>
      </trkpt>
      <trkpt lat="44.72669" lon="3.23649">
        <ele>1124</ele>
        <time>2019-05-25T07:30:39Z</time>
      </trkpt>
      <trkpt lat="44.72667" lon="3.23645">
        <ele>1124</ele>
        <time>2019-05-25T07:30:40Z</time>
      </trkpt>
      <trkpt lat="44.72665" lon="3.23642">
        <ele>1124</ele>
        <time>2019-05-25T07:30:41Z</time>
      </trkpt>
      <trkpt lat="44.72656" lon="3.23636">
        <ele>1124.4000244141</ele>
        <time>2019-05-25T07:30:44Z</time>
      </trkpt>
      <trkpt lat="44.72642" lon="3.23629">
        <ele>1125</ele>
        <time>2019-05-25T07:30:49Z</time>
      </trkpt>
      <trkpt lat="44.72624" lon="3.23617">
        <ele>1125.4000244141</ele>
        <time>2019-05-25T07:30:55Z</time>
      </trkpt>
      <trkpt lat="44.72602" lon="3.23597">
        <ele>1126</ele>
        <time>2019-05-25T07:31:01Z</time>
      </trkpt>
      <trkpt lat="44.72579" lon="3.23571">
        <ele>1126.4000244141</ele>
        <time>2019-05-25T07:31:06Z</time>
      </trkpt>
      <trkpt lat="44.72551" lon="3.23533">
        <ele>1126.5999755859</ele>
        <time>2019-05-25T07:31:12Z</time>
      </trkpt>
      <trkpt lat="44.72546" lon="3.23527">
        <ele>1126.5999755859</ele>
        <time>2019-05-25T07:31:13Z</time>
      </trkpt>
      <trkpt lat="44.72525" lon="3.23509">
        <ele>1126.8000488281</ele>
        <time>2019-05-25T07:31:17Z</time>
      </trkpt>
      <trkpt lat="44.72499" lon="3.23489">
        <ele>1127.1999511719</ele>
        <time>2019-05-25T07:31:23Z</time>
      </trkpt>
      <trkpt lat="44.72495" lon="3.23486">
        <ele>1127.1999511719</ele>
        <time>2019-05-25T07:31:24Z</time>
      </trkpt>
      <trkpt lat="44.72487" lon="3.2348">
        <ele>1127.4000244141</ele>
        <time>2019-05-25T07:31:26Z</time>
      </trkpt>
      <trkpt lat="44.7248" lon="3.23472">
        <ele>1127.1999511719</ele>
        <time>2019-05-25T07:31:28Z</time>
      </trkpt>
      <trkpt lat="44.72474" lon="3.23461">
        <ele>1127.1999511719</ele>
        <time>2019-05-25T07:31:30Z</time>
      </trkpt>
      <trkpt lat="44.72468" lon="3.2345">
        <ele>1127.1999511719</ele>
        <time>2019-05-25T07:31:32Z</time>
      </trkpt>
      <trkpt lat="44.72464" lon="3.23445">
        <ele>1127.1999511719</ele>
        <time>2019-05-25T07:31:33Z</time>
      </trkpt>
      <trkpt lat="44.72437" lon="3.23413">
        <ele>1126.8000488281</ele>
        <time>2019-05-25T07:31:40Z</time>
      </trkpt>
      <trkpt lat="44.72408" lon="3.23377">
        <ele>1126.5999755859</ele>
        <time>2019-05-25T07:31:47Z</time>
      </trkpt>
      <trkpt lat="44.72396" lon="3.23359">
        <ele>1126.4000244141</ele>
        <time>2019-05-25T07:31:50Z</time>
      </trkpt>
      <trkpt lat="44.72385" lon="3.23338">
        <ele>1126.1999511719</ele>
        <time>2019-05-25T07:31:53Z</time>
      </trkpt>
      <trkpt lat="44.72362" lon="3.23297">
        <ele>1126.1999511719</ele>
        <time>2019-05-25T07:31:58Z</time>
      </trkpt>
      <trkpt lat="44.72337" lon="3.23252">
        <ele>1125.8000488281</ele>
        <time>2019-05-25T07:32:03Z</time>
      </trkpt>
      <trkpt lat="44.72313" lon="3.2322">
        <ele>1125.5999755859</ele>
        <time>2019-05-25T07:32:07Z</time>
      </trkpt>
      <trkpt lat="44.72306" lon="3.23214">
        <ele>1125.5999755859</ele>
        <time>2019-05-25T07:32:08Z</time>
      </trkpt>
      <trkpt lat="44.72271" lon="3.23185">
        <ele>1125.8000488281</ele>
        <time>2019-05-25T07:32:14Z</time>
      </trkpt>
      <trkpt lat="44.72241" lon="3.23151">
        <ele>1125.8000488281</ele>
        <time>2019-05-25T07:32:20Z</time>
      </trkpt>
      <trkpt lat="44.72228" lon="3.23131">
        <ele>1125.8000488281</ele>
        <time>2019-05-25T07:32:23Z</time>
      </trkpt>
      <trkpt lat="44.72221" lon="3.23117">
        <ele>1125.8000488281</ele>
        <time>2019-05-25T07:32:25Z</time>
      </trkpt>
      <trkpt lat="44.72214" lon="3.23104">
        <ele>1125.8000488281</ele>
        <time>2019-05-25T07:32:27Z</time>
      </trkpt>
      <trkpt lat="44.72207" lon="3.23091">
        <ele>1125.5999755859</ele>
        <time>2019-05-25T07:32:29Z</time>
      </trkpt>
      <trkpt lat="44.72198" lon="3.2307">
        <ele>1125.4000244141</ele>
        <time>2019-05-25T07:32:32Z</time>
      </trkpt>
      <trkpt lat="44.72192" lon="3.23058">
        <ele>1125.1999511719</ele>
        <time>2019-05-25T07:32:34Z</time>
      </trkpt>
      <trkpt lat="44.72186" lon="3.23047">
        <ele>1124.8000488281</ele>
        <time>2019-05-25T07:32:36Z</time>
      </trkpt>
      <trkpt lat="44.7218" lon="3.23038">
        <ele>1124.5999755859</ele>
        <time>2019-05-25T07:32:38Z</time>
      </trkpt>
      <trkpt lat="44.7217" lon="3.23025">
        <ele>1124</ele>
        <time>2019-05-25T07:32:41Z</time>
      </trkpt>
      <trkpt lat="44.72167" lon="3.2302">
        <ele>1123.8000488281</ele>
        <time>2019-05-25T07:32:42Z</time>
      </trkpt>
      <trkpt lat="44.7216" lon="3.23009">
        <ele>1123</ele>
        <time>2019-05-25T07:32:45Z</time>
      </trkpt>
      <trkpt lat="44.72156" lon="3.23007">
        <ele>1122.5999755859</ele>
        <time>2019-05-25T07:32:46Z</time>
      </trkpt>
      <trkpt lat="44.72139" lon="3.23002">
        <ele>1121.8000488281</ele>
        <time>2019-05-25T07:32:51Z</time>
      </trkpt>
      <trkpt lat="44.72136" lon="3.23002">
        <ele>1121.8000488281</ele>
        <time>2019-05-25T07:32:52Z</time>
      </trkpt>
      <trkpt lat="44.72126" lon="3.22995">
        <ele>1122.4000244141</ele>
        <time>2019-05-25T07:32:56Z</time>
      </trkpt>
      <trkpt lat="44.72112" lon="3.22982">
        <ele>1123.4000244141</ele>
        <time>2019-05-25T07:33:04Z</time>
      </trkpt>
      <trkpt lat="44.72102" lon="3.22971">
        <ele>1124.1999511719</ele>
        <time>2019-05-25T07:33:12Z</time>
      </trkpt>
      <trkpt lat="44.72098" lon="3.22965">
        <ele>1124.4000244141</ele>
        <time>2019-05-25T07:33:16Z</time>
      </trkpt>
      <trkpt lat="44.72096" lon="3.22964">
        <ele>1124.5999755859</ele>
        <time>2019-05-25T07:33:17Z</time>
      </trkpt>
      <trkpt lat="44.72094" lon="3.22961">
        <ele>1125</ele>
        <time>2019-05-25T07:33:19Z</time>
      </trkpt>
      <trkpt lat="44.72091" lon="3.22958">
        <ele>1125.1999511719</ele>
        <time>2019-05-25T07:33:21Z</time>
      </trkpt>
      <trkpt lat="44.7209" lon="3.22957">
        <ele>1125.4000244141</ele>
        <time>2019-05-25T07:33:22Z</time>
      </trkpt>
      <trkpt lat="44.72087" lon="3.22955">
        <ele>1126</ele>
        <time>2019-05-25T07:33:24Z</time>
      </trkpt>
      <trkpt lat="44.72085" lon="3.22954">
        <ele>1126.1999511719</ele>
        <time>2019-05-25T07:33:25Z</time>
      </trkpt>
      <trkpt lat="44.72072" lon="3.22946">
        <ele>1128.4000244141</ele>
        <time>2019-05-25T07:33:32Z</time>
      </trkpt>
      <trkpt lat="44.7206" lon="3.22936">
        <ele>1130.1999511719</ele>
        <time>2019-05-25T07:33:40Z</time>
      </trkpt>
      <trkpt lat="44.72048" lon="3.22929">
        <ele>1131.5999755859</ele>
        <time>2019-05-25T07:33:48Z</time>
      </trkpt>
      <trkpt lat="44.72033" lon="3.22923">
        <ele>1133.5999755859</ele>
        <time>2019-05-25T07:33:57Z</time>
      </trkpt>
      <trkpt lat="44.72025" lon="3.22915">
        <ele>1134.8000488281</ele>
        <time>2019-05-25T07:34:03Z</time>
      </trkpt>
      <trkpt lat="44.72014" lon="3.22904">
        <ele>1136</ele>
        <time>2019-05-25T07:34:09Z</time>
      </trkpt>
      <trkpt lat="44.72002" lon="3.22889">
        <ele>1137.1999511719</ele>
        <time>2019-05-25T07:34:17Z</time>
      </trkpt>
      <trkpt lat="44.71995" lon="3.22878">
        <ele>1137.8000488281</ele>
        <time>2019-05-25T07:34:23Z</time>
      </trkpt>
      <trkpt lat="44.71987" lon="3.22867">
        <ele>1138.5999755859</ele>
        <time>2019-05-25T07:34:28Z</time>
      </trkpt>
      <trkpt lat="44.71982" lon="3.22859">
        <ele>1138.5999755859</ele>
        <time>2019-05-25T07:34:32Z</time>
      </trkpt>
      <trkpt lat="44.71979" lon="3.22854">
        <ele>1138.5999755859</ele>
        <time>2019-05-25T07:34:34Z</time>
      </trkpt>
      <trkpt lat="44.71973" lon="3.22846">
        <ele>1138.5999755859</ele>
        <time>2019-05-25T07:34:38Z</time>
      </trkpt>
      <trkpt lat="44.71965" lon="3.22832">
        <ele>1138.4000244141</ele>
        <time>2019-05-25T07:34:44Z</time>
      </trkpt>
      <trkpt lat="44.71959" lon="3.2282">
        <ele>1137.8000488281</ele>
        <time>2019-05-25T07:34:49Z</time>
      </trkpt>
      <trkpt lat="44.71958" lon="3.22817">
        <ele>1137.8000488281</ele>
        <time>2019-05-25T07:34:50Z</time>
      </trkpt>
      <trkpt lat="44.71947" lon="3.22804">
        <ele>1136.5999755859</ele>
        <time>2019-05-25T07:34:56Z</time>
      </trkpt>
      <trkpt lat="44.71934" lon="3.22792">
        <ele>1136.1999511719</ele>
        <time>2019-05-25T07:35:02Z</time>
      </trkpt>
      <trkpt lat="44.71921" lon="3.22779">
        <ele>1136.8000488281</ele>
        <time>2019-05-25T07:35:09Z</time>
      </trkpt>
      <trkpt lat="44.71908" lon="3.22768">
        <ele>1137.8000488281</ele>
        <time>2019-05-25T07:35:15Z</time>
      </trkpt>
      <trkpt lat="44.71882" lon="3.22747">
        <ele>1139.8000488281</ele>
        <time>2019-05-25T07:35:25Z</time>
      </trkpt>
      <trkpt lat="44.71864" lon="3.22732">
        <ele>1141</ele>
        <time>2019-05-25T07:35:32Z</time>
      </trkpt>
      <trkpt lat="44.71842" lon="3.22716">
        <ele>1142.4000244141</ele>
        <time>2019-05-25T07:35:39Z</time>
      </trkpt>
      <trkpt lat="44.71814" lon="3.227">
        <ele>1143.1999511719</ele>
        <time>2019-05-25T07:35:45Z</time>
      </trkpt>
      <trkpt lat="44.71788" lon="3.22691">
        <ele>1143.1999511719</ele>
        <time>2019-05-25T07:35:49Z</time>
      </trkpt>
      <trkpt lat="44.71763" lon="3.22683">
        <ele>1143.1999511719</ele>
        <time>2019-05-25T07:35:52Z</time>
      </trkpt>
      <trkpt lat="44.71747" lon="3.22672">
        <ele>1143.1999511719</ele>
        <time>2019-05-25T07:35:54Z</time>
      </trkpt>
      <trkpt lat="44.71703" lon="3.2263">
        <ele>1143</ele>
        <time>2019-05-25T07:36:00Z</time>
      </trkpt>
      <trkpt lat="44.71679" lon="3.22588">
        <ele>1142.5999755859</ele>
        <time>2019-05-25T07:36:04Z</time>
      </trkpt>
      <trkpt lat="44.71661" lon="3.22561">
        <ele>1141.8000488281</ele>
        <time>2019-05-25T07:36:07Z</time>
      </trkpt>
      <trkpt lat="44.71651" lon="3.22548">
        <ele>1141.1999511719</ele>
        <time>2019-05-25T07:36:09Z</time>
      </trkpt>
      <trkpt lat="44.71638" lon="3.22527">
        <ele>1140.1999511719</ele>
        <time>2019-05-25T07:36:12Z</time>
      </trkpt>
      <trkpt lat="44.71616" lon="3.22494">
        <ele>1138.4000244141</ele>
        <time>2019-05-25T07:36:16Z</time>
      </trkpt>
      <trkpt lat="44.71609" lon="3.22487">
        <ele>1137.8000488281</ele>
        <time>2019-05-25T07:36:17Z</time>
      </trkpt>
      <trkpt lat="44.71593" lon="3.22476">
        <ele>1137</ele>
        <time>2019-05-25T07:36:19Z</time>
      </trkpt>
      <trkpt lat="44.71565" lon="3.22471">
        <ele>1136</ele>
        <time>2019-05-25T07:36:22Z</time>
      </trkpt>
      <trkpt lat="44.71549" lon="3.2247">
        <ele>1135.4000244141</ele>
        <time>2019-05-25T07:36:24Z</time>
      </trkpt>
      <trkpt lat="44.71542" lon="3.22467">
        <ele>1135</ele>
        <time>2019-05-25T07:36:25Z</time>
      </trkpt>
      <trkpt lat="44.71537" lon="3.2246">
        <ele>1134.8000488281</ele>
        <time>2019-05-25T07:36:26Z</time>
      </trkpt>
      <trkpt lat="44.71533" lon="3.22452">
        <ele>1134.4000244141</ele>
        <time>2019-05-25T07:36:27Z</time>
      </trkpt>
      <trkpt lat="44.71531" lon="3.22442">
        <ele>1134.1999511719</ele>
        <time>2019-05-25T07:36:28Z</time>
      </trkpt>
      <trkpt lat="44.71531" lon="3.22421">
        <ele>1133.4000244141</ele>
        <time>2019-05-25T07:36:30Z</time>
      </trkpt>
      <trkpt lat="44.7153" lon="3.22364">
        <ele>1132</ele>
        <time>2019-05-25T07:36:35Z</time>
      </trkpt>
      <trkpt lat="44.71521" lon="3.22299">
        <ele>1130.5999755859</ele>
        <time>2019-05-25T07:36:41Z</time>
      </trkpt>
      <trkpt lat="44.71513" lon="3.22263">
        <ele>1129.8000488281</ele>
        <time>2019-05-25T07:36:45Z</time>
      </trkpt>
      <trkpt lat="44.71506" lon="3.22252">
        <ele>1129.1999511719</ele>
        <time>2019-05-25T07:36:47Z</time>
      </trkpt>
      <trkpt lat="44.71501" lon="3.22249">
        <ele>1128.8000488281</ele>
        <time>2019-05-25T07:36:48Z</time>
      </trkpt>
      <trkpt lat="44.71496" lon="3.22247">
        <ele>1128.5999755859</ele>
        <time>2019-05-25T07:36:49Z</time>
      </trkpt>
      <trkpt lat="44.71486" lon="3.22242">
        <ele>1128</ele>
        <time>2019-05-25T07:36:51Z</time>
      </trkpt>
      <trkpt lat="44.71481" lon="3.22231">
        <ele>1127.4000244141</ele>
        <time>2019-05-25T07:36:53Z</time>
      </trkpt>
      <trkpt lat="44.71479" lon="3.22225">
        <ele>1127.1999511719</ele>
        <time>2019-05-25T07:36:54Z</time>
      </trkpt>
      <trkpt lat="44.71478" lon="3.22219">
        <ele>1127.1999511719</ele>
        <time>2019-05-25T07:36:55Z</time>
      </trkpt>
      <trkpt lat="44.71474" lon="3.22209">
        <ele>1126.8000488281</ele>
        <time>2019-05-25T07:36:57Z</time>
      </trkpt>
      <trkpt lat="44.71471" lon="3.22205">
        <ele>1126.5999755859</ele>
        <time>2019-05-25T07:36:58Z</time>
      </trkpt>
      <trkpt lat="44.71453" lon="3.22177">
        <ele>1125.4000244141</ele>
        <time>2019-05-25T07:37:05Z</time>
      </trkpt>
      <trkpt lat="44.71442" lon="3.22157">
        <ele>1124.5999755859</ele>
        <time>2019-05-25T07:37:10Z</time>
      </trkpt>
      <trkpt lat="44.71426" lon="3.2213">
        <ele>1124</ele>
        <time>2019-05-25T07:37:17Z</time>
      </trkpt>
      <trkpt lat="44.71417" lon="3.2211">
        <ele>1123.4000244141</ele>
        <time>2019-05-25T07:37:22Z</time>
      </trkpt>
      <trkpt lat="44.71408" lon="3.2209">
        <ele>1123</ele>
        <time>2019-05-25T07:37:27Z</time>
      </trkpt>
      <trkpt lat="44.71397" lon="3.22069">
        <ele>1122.5999755859</ele>
        <time>2019-05-25T07:37:33Z</time>
      </trkpt>
      <trkpt lat="44.71396" lon="3.22066">
        <ele>1122.4000244141</ele>
        <time>2019-05-25T07:37:34Z</time>
      </trkpt>
      <trkpt lat="44.71379" lon="3.22046">
        <ele>1121.8000488281</ele>
        <time>2019-05-25T07:37:41Z</time>
      </trkpt>
      <trkpt lat="44.71369" lon="3.2203">
        <ele>1121.8000488281</ele>
        <time>2019-05-25T07:37:46Z</time>
      </trkpt>
      <trkpt lat="44.71358" lon="3.22014">
        <ele>1121.4000244141</ele>
        <time>2019-05-25T07:37:51Z</time>
      </trkpt>
      <trkpt lat="44.71343" lon="3.21999">
        <ele>1121.4000244141</ele>
        <time>2019-05-25T07:37:57Z</time>
      </trkpt>
      <trkpt lat="44.71326" lon="3.21987">
        <ele>1121.8000488281</ele>
        <time>2019-05-25T07:38:02Z</time>
      </trkpt>
      <trkpt lat="44.71312" lon="3.21975">
        <ele>1121.8000488281</ele>
        <time>2019-05-25T07:38:07Z</time>
      </trkpt>
      <trkpt lat="44.71295" lon="3.21961">
        <ele>1121.5999755859</ele>
        <time>2019-05-25T07:38:13Z</time>
      </trkpt>
      <trkpt lat="44.71283" lon="3.21948">
        <ele>1120.5999755859</ele>
        <time>2019-05-25T07:38:18Z</time>
      </trkpt>
      <trkpt lat="44.71278" lon="3.21944">
        <ele>1120.1999511719</ele>
        <time>2019-05-25T07:38:20Z</time>
      </trkpt>
      <trkpt lat="44.71272" lon="3.21941">
        <ele>1119.8000488281</ele>
        <time>2019-05-25T07:38:22Z</time>
      </trkpt>
      <trkpt lat="44.71253" lon="3.21934">
        <ele>1119</ele>
        <time>2019-05-25T07:38:27Z</time>
      </trkpt>
      <trkpt lat="44.7124" lon="3.21917">
        <ele>1118.1999511719</ele>
        <time>2019-05-25T07:38:32Z</time>
      </trkpt>
      <trkpt lat="44.71233" lon="3.21904">
        <ele>1118</ele>
        <time>2019-05-25T07:38:36Z</time>
      </trkpt>
      <trkpt lat="44.71231" lon="3.21902">
        <ele>1118</ele>
        <time>2019-05-25T07:38:37Z</time>
      </trkpt>
      <trkpt lat="44.71229" lon="3.21901">
        <ele>1118</ele>
        <time>2019-05-25T07:38:38Z</time>
      </trkpt>
      <trkpt lat="44.71224" lon="3.21899">
        <ele>1118.5999755859</ele>
        <time>2019-05-25T07:38:40Z</time>
      </trkpt>
      <trkpt lat="44.71214" lon="3.21877">
        <ele>1119.1999511719</ele>
        <time>2019-05-25T07:38:46Z</time>
      </trkpt>
      <trkpt lat="44.71201" lon="3.21847">
        <ele>1119.4000244141</ele>
        <time>2019-05-25T07:38:53Z</time>
      </trkpt>
      <trkpt lat="44.71187" lon="3.21831">
        <ele>1120</ele>
        <time>2019-05-25T07:38:58Z</time>
      </trkpt>
      <trkpt lat="44.71173" lon="3.21825">
        <ele>1120.1999511719</ele>
        <time>2019-05-25T07:39:03Z</time>
      </trkpt>
      <trkpt lat="44.71169" lon="3.21824">
        <ele>1120.1999511719</ele>
        <time>2019-05-25T07:39:05Z</time>
      </trkpt>
      <trkpt lat="44.71161" lon="3.21823">
        <ele>1120.5999755859</ele>
        <time>2019-05-25T07:39:08Z</time>
      </trkpt>
      <trkpt lat="44.71145" lon="3.21821">
        <ele>1121.1999511719</ele>
        <time>2019-05-25T07:39:14Z</time>
      </trkpt>
      <trkpt lat="44.71133" lon="3.21814">
        <ele>1121.5999755859</ele>
        <time>2019-05-25T07:39:19Z</time>
      </trkpt>
      <trkpt lat="44.71118" lon="3.21808">
        <ele>1121.5999755859</ele>
        <time>2019-05-25T07:39:25Z</time>
      </trkpt>
      <trkpt lat="44.71098" lon="3.218">
        <ele>1122.4000244141</ele>
        <time>2019-05-25T07:39:32Z</time>
      </trkpt>
      <trkpt lat="44.71087" lon="3.21794">
        <ele>1123</ele>
        <time>2019-05-25T07:39:36Z</time>
      </trkpt>
      <trkpt lat="44.71062" lon="3.21789">
        <ele>1124</ele>
        <time>2019-05-25T07:39:44Z</time>
      </trkpt>
      <trkpt lat="44.71041" lon="3.21786">
        <ele>1125</ele>
        <time>2019-05-25T07:39:51Z</time>
      </trkpt>
      <trkpt lat="44.71024" lon="3.21791">
        <ele>1126.1999511719</ele>
        <time>2019-05-25T07:39:57Z</time>
      </trkpt>
      <trkpt lat="44.71016" lon="3.21793">
        <ele>1126.8000488281</ele>
        <time>2019-05-25T07:40:00Z</time>
      </trkpt>
      <trkpt lat="44.71" lon="3.21798">
        <ele>1127.8000488281</ele>
        <time>2019-05-25T07:40:05Z</time>
      </trkpt>
      <trkpt lat="44.70981" lon="3.21803">
        <ele>1129</ele>
        <time>2019-05-25T07:40:11Z</time>
      </trkpt>
      <trkpt lat="44.70958" lon="3.2181">
        <ele>1130.4000244141</ele>
        <time>2019-05-25T07:40:19Z</time>
      </trkpt>
      <trkpt lat="44.70944" lon="3.21817">
        <ele>1131.4000244141</ele>
        <time>2019-05-25T07:40:25Z</time>
      </trkpt>
      <trkpt lat="44.7093" lon="3.21822">
        <ele>1132.4000244141</ele>
        <time>2019-05-25T07:40:31Z</time>
      </trkpt>
      <trkpt lat="44.70918" lon="3.21826">
        <ele>1133.4000244141</ele>
        <time>2019-05-25T07:40:37Z</time>
      </trkpt>
      <trkpt lat="44.70915" lon="3.21827">
        <ele>1133.8000488281</ele>
        <time>2019-05-25T07:40:39Z</time>
      </trkpt>
      <trkpt lat="44.70913" lon="3.21828">
        <ele>1134</ele>
        <time>2019-05-25T07:40:41Z</time>
      </trkpt>
      <trkpt lat="44.70908" lon="3.21829">
        <ele>1134.8000488281</ele>
        <time>2019-05-25T07:40:46Z</time>
      </trkpt>
      <trkpt lat="44.70904" lon="3.2183">
        <ele>1135.1999511719</ele>
        <time>2019-05-25T07:40:48Z</time>
      </trkpt>
      <trkpt lat="44.70888" lon="3.2184">
        <ele>1137</ele>
        <time>2019-05-25T07:41:00Z</time>
      </trkpt>
      <trkpt lat="44.70882" lon="3.21845">
        <ele>1137.8000488281</ele>
        <time>2019-05-25T07:41:03Z</time>
      </trkpt>
      <trkpt lat="44.70878" lon="3.21849">
        <ele>1138.4000244141</ele>
        <time>2019-05-25T07:41:06Z</time>
      </trkpt>
      <trkpt lat="44.70794" lon="3.21869">
        <ele>1153.8000488281</ele>
        <time>2019-05-25T07:42:08Z</time>
      </trkpt>
      <trkpt lat="44.70793" lon="3.21869">
        <ele>1154</ele>
        <time>2019-05-25T07:42:09Z</time>
      </trkpt>
      <trkpt lat="44.70791" lon="3.21869">
        <ele>1154.1999511719</ele>
        <time>2019-05-25T07:42:10Z</time>
      </trkpt>
      <trkpt lat="44.70784" lon="3.2187">
        <ele>1155.4000244141</ele>
        <time>2019-05-25T07:42:15Z</time>
      </trkpt>
      <trkpt lat="44.70776" lon="3.21871">
        <ele>1156.8000488281</ele>
        <time>2019-05-25T07:42:20Z</time>
      </trkpt>
      <trkpt lat="44.70772" lon="3.21872">
        <ele>1157.1999511719</ele>
        <time>2019-05-25T07:42:22Z</time>
      </trkpt>
      <trkpt lat="44.70759" lon="3.21872">
        <ele>1159</ele>
        <time>2019-05-25T07:42:29Z</time>
      </trkpt>
      <trkpt lat="44.70746" lon="3.21867">
        <ele>1160.8000488281</ele>
        <time>2019-05-25T07:42:36Z</time>
      </trkpt>
      <trkpt lat="44.70735" lon="3.21862">
        <ele>1162.1999511719</ele>
        <time>2019-05-25T07:42:42Z</time>
      </trkpt>
      <trkpt lat="44.70723" lon="3.21857">
        <ele>1163.5999755859</ele>
        <time>2019-05-25T07:42:48Z</time>
      </trkpt>
      <trkpt lat="44.70712" lon="3.21857">
        <ele>1164.4000244141</ele>
        <time>2019-05-25T07:42:54Z</time>
      </trkpt>
      <trkpt lat="44.7069" lon="3.21856">
        <ele>1166.1999511719</ele>
        <time>2019-05-25T07:43:03Z</time>
      </trkpt>
      <trkpt lat="44.70676" lon="3.21854">
        <ele>1167</ele>
        <time>2019-05-25T07:43:10Z</time>
      </trkpt>
      <trkpt lat="44.70656" lon="3.21856">
        <ele>1168.4000244141</ele>
        <time>2019-05-25T07:43:18Z</time>
      </trkpt>
      <trkpt lat="44.70633" lon="3.21857">
        <ele>1169.4000244141</ele>
        <time>2019-05-25T07:43:26Z</time>
      </trkpt>
      <trkpt lat="44.70614" lon="3.21857">
        <ele>1170.1999511719</ele>
        <time>2019-05-25T07:43:33Z</time>
      </trkpt>
      <trkpt lat="44.70585" lon="3.21858">
        <ele>1171.1999511719</ele>
        <time>2019-05-25T07:43:42Z</time>
      </trkpt>
      <trkpt lat="44.70566" lon="3.21858">
        <ele>1171.5999755859</ele>
        <time>2019-05-25T07:43:48Z</time>
      </trkpt>
      <trkpt lat="44.7054" lon="3.21851">
        <ele>1172.4000244141</ele>
        <time>2019-05-25T07:43:56Z</time>
      </trkpt>
      <trkpt lat="44.7051" lon="3.21841">
        <ele>1173.4000244141</ele>
        <time>2019-05-25T07:44:06Z</time>
      </trkpt>
      <trkpt lat="44.70484" lon="3.2183">
        <ele>1174.1999511719</ele>
        <time>2019-05-25T07:44:15Z</time>
      </trkpt>
      <trkpt lat="44.70467" lon="3.2182">
        <ele>1175</ele>
        <time>2019-05-25T07:44:21Z</time>
      </trkpt>
      <trkpt lat="44.70443" lon="3.21809">
        <ele>1176.1999511719</ele>
        <time>2019-05-25T07:44:29Z</time>
      </trkpt>
      <trkpt lat="44.70416" lon="3.21799">
        <ele>1177.5999755859</ele>
        <time>2019-05-25T07:44:38Z</time>
      </trkpt>
      <trkpt lat="44.7039" lon="3.2179">
        <ele>1179</ele>
        <time>2019-05-25T07:44:47Z</time>
      </trkpt>
      <trkpt lat="44.70364" lon="3.21782">
        <ele>1180.1999511719</ele>
        <time>2019-05-25T07:44:56Z</time>
      </trkpt>
      <trkpt lat="44.7034" lon="3.21779">
        <ele>1181.1999511719</ele>
        <time>2019-05-25T07:45:04Z</time>
      </trkpt>
      <trkpt lat="44.70312" lon="3.21772">
        <ele>1181.8000488281</ele>
        <time>2019-05-25T07:45:13Z</time>
      </trkpt>
      <trkpt lat="44.70284" lon="3.21764">
        <ele>1182.1999511719</ele>
        <time>2019-05-25T07:45:20Z</time>
      </trkpt>
      <trkpt lat="44.70257" lon="3.21757">
        <ele>1182.5999755859</ele>
        <time>2019-05-25T07:45:26Z</time>
      </trkpt>
      <trkpt lat="44.70222" lon="3.21753">
        <ele>1183</ele>
        <time>2019-05-25T07:45:33Z</time>
      </trkpt>
      <trkpt lat="44.70217" lon="3.21752">
        <ele>1183</ele>
        <time>2019-05-25T07:45:34Z</time>
      </trkpt>
      <trkpt lat="44.70207" lon="3.21754">
        <ele>1183</ele>
        <time>2019-05-25T07:45:36Z</time>
      </trkpt>
      <trkpt lat="44.70202" lon="3.21757">
        <ele>1183.1999511719</ele>
        <time>2019-05-25T07:45:37Z</time>
      </trkpt>
      <trkpt lat="44.70171" lon="3.21771">
        <ele>1183.4000244141</ele>
        <time>2019-05-25T07:45:44Z</time>
      </trkpt>
      <trkpt lat="44.70167" lon="3.21772">
        <ele>1183.5999755859</ele>
        <time>2019-05-25T07:45:45Z</time>
      </trkpt>
      <trkpt lat="44.70141" lon="3.21775">
        <ele>1183.5999755859</ele>
        <time>2019-05-25T07:45:50Z</time>
      </trkpt>
      <trkpt lat="44.70104" lon="3.21773">
        <ele>1184</ele>
        <time>2019-05-25T07:45:57Z</time>
      </trkpt>
      <trkpt lat="44.70099" lon="3.21772">
        <ele>1184</ele>
        <time>2019-05-25T07:45:58Z</time>
      </trkpt>
      <trkpt lat="44.70085" lon="3.21766">
        <ele>1184</ele>
        <time>2019-05-25T07:46:01Z</time>
      </trkpt>
      <trkpt lat="44.70069" lon="3.21758">
        <ele>1184</ele>
        <time>2019-05-25T07:46:04Z</time>
      </trkpt>
      <trkpt lat="44.70061" lon="3.21752">
        <ele>1184</ele>
        <time>2019-05-25T07:46:06Z</time>
      </trkpt>
      <trkpt lat="44.70051" lon="3.21746">
        <ele>1184.1999511719</ele>
        <time>2019-05-25T07:46:08Z</time>
      </trkpt>
      <trkpt lat="44.70045" lon="3.21739">
        <ele>1184</ele>
        <time>2019-05-25T07:46:10Z</time>
      </trkpt>
      <trkpt lat="44.70028" lon="3.21728">
        <ele>1184</ele>
        <time>2019-05-25T07:46:14Z</time>
      </trkpt>
      <trkpt lat="44.70024" lon="3.21724">
        <ele>1184</ele>
        <time>2019-05-25T07:46:15Z</time>
      </trkpt>
      <trkpt lat="44.70011" lon="3.21716">
        <ele>1184</ele>
        <time>2019-05-25T07:46:18Z</time>
      </trkpt>
      <trkpt lat="44.70003" lon="3.2171">
        <ele>1184</ele>
        <time>2019-05-25T07:46:20Z</time>
      </trkpt>
      <trkpt lat="44.69979" lon="3.21694">
        <ele>1184.1999511719</ele>
        <time>2019-05-25T07:46:26Z</time>
      </trkpt>
      <trkpt lat="44.69955" lon="3.21676">
        <ele>1184.1999511719</ele>
        <time>2019-05-25T07:46:32Z</time>
      </trkpt>
      <trkpt lat="44.69928" lon="3.21654">
        <ele>1184.5999755859</ele>
        <time>2019-05-25T07:46:39Z</time>
      </trkpt>
      <trkpt lat="44.69919" lon="3.21649">
        <ele>1184.5999755859</ele>
        <time>2019-05-25T07:46:41Z</time>
      </trkpt>
      <trkpt lat="44.69894" lon="3.21636">
        <ele>1184.8000488281</ele>
        <time>2019-05-25T07:46:47Z</time>
      </trkpt>
      <trkpt lat="44.69867" lon="3.21619">
        <ele>1185.1999511719</ele>
        <time>2019-05-25T07:46:54Z</time>
      </trkpt>
      <trkpt lat="44.69834" lon="3.21597">
        <ele>1186</ele>
        <time>2019-05-25T07:47:03Z</time>
      </trkpt>
      <trkpt lat="44.69815" lon="3.21585">
        <ele>1186.1999511719</ele>
        <time>2019-05-25T07:47:08Z</time>
      </trkpt>
      <trkpt lat="44.69806" lon="3.2158">
        <ele>1186.4000244141</ele>
        <time>2019-05-25T07:47:10Z</time>
      </trkpt>
      <trkpt lat="44.69779" lon="3.21564">
        <ele>1186.5999755859</ele>
        <time>2019-05-25T07:47:17Z</time>
      </trkpt>
      <trkpt lat="44.69746" lon="3.21542">
        <ele>1187.4000244141</ele>
        <time>2019-05-25T07:47:26Z</time>
      </trkpt>
      <trkpt lat="44.69726" lon="3.2153">
        <ele>1187.8000488281</ele>
        <time>2019-05-25T07:47:32Z</time>
      </trkpt>
      <trkpt lat="44.6971" lon="3.2152">
        <ele>1188.1999511719</ele>
        <time>2019-05-25T07:47:38Z</time>
      </trkpt>
      <trkpt lat="44.69688" lon="3.21506">
        <ele>1189.1999511719</ele>
        <time>2019-05-25T07:47:46Z</time>
      </trkpt>
      <trkpt lat="44.69667" lon="3.21494">
        <ele>1190</ele>
        <time>2019-05-25T07:47:54Z</time>
      </trkpt>
      <trkpt lat="44.69648" lon="3.21482">
        <ele>1190.8000488281</ele>
        <time>2019-05-25T07:48:01Z</time>
      </trkpt>
      <trkpt lat="44.69618" lon="3.21469">
        <ele>1191.5999755859</ele>
        <time>2019-05-25T07:48:11Z</time>
      </trkpt>
      <trkpt lat="44.69592" lon="3.21454">
        <ele>1192.5999755859</ele>
        <time>2019-05-25T07:48:20Z</time>
      </trkpt>
      <trkpt lat="44.69578" lon="3.21449">
        <ele>1193</ele>
        <time>2019-05-25T07:48:25Z</time>
      </trkpt>
      <trkpt lat="44.69559" lon="3.21444">
        <ele>1193.8000488281</ele>
        <time>2019-05-25T07:48:32Z</time>
      </trkpt>
      <trkpt lat="44.69539" lon="3.2144">
        <ele>1194.5999755859</ele>
        <time>2019-05-25T07:48:39Z</time>
      </trkpt>
      <trkpt lat="44.69522" lon="3.21435">
        <ele>1195.4000244141</ele>
        <time>2019-05-25T07:48:45Z</time>
      </trkpt>
      <trkpt lat="44.69503" lon="3.21429">
        <ele>1196</ele>
        <time>2019-05-25T07:48:51Z</time>
      </trkpt>
      <trkpt lat="44.69485" lon="3.21416">
        <ele>1196.5999755859</ele>
        <time>2019-05-25T07:48:58Z</time>
      </trkpt>
      <trkpt lat="44.69468" lon="3.21402">
        <ele>1197.1999511719</ele>
        <time>2019-05-25T07:49:04Z</time>
      </trkpt>
      <trkpt lat="44.69456" lon="3.21388">
        <ele>1197.5999755859</ele>
        <time>2019-05-25T07:49:09Z</time>
      </trkpt>
      <trkpt lat="44.69434" lon="3.21376">
        <ele>1198</ele>
        <time>2019-05-25T07:49:15Z</time>
      </trkpt>
      <trkpt lat="44.69412" lon="3.21369">
        <ele>1198.5999755859</ele>
        <time>2019-05-25T07:49:22Z</time>
      </trkpt>
      <trkpt lat="44.69397" lon="3.21362">
        <ele>1199</ele>
        <time>2019-05-25T07:49:27Z</time>
      </trkpt>
      <trkpt lat="44.69381" lon="3.21356">
        <ele>1199.1999511719</ele>
        <time>2019-05-25T07:49:32Z</time>
      </trkpt>
      <trkpt lat="44.69366" lon="3.21347">
        <ele>1199.4000244141</ele>
        <time>2019-05-25T07:49:37Z</time>
      </trkpt>
      <trkpt lat="44.6935" lon="3.21339">
        <ele>1199.4000244141</ele>
        <time>2019-05-25T07:49:42Z</time>
      </trkpt>
      <trkpt lat="44.69331" lon="3.21333">
        <ele>1199.4000244141</ele>
        <time>2019-05-25T07:49:47Z</time>
      </trkpt>
      <trkpt lat="44.69313" lon="3.21319">
        <ele>1199.5999755859</ele>
        <time>2019-05-25T07:49:53Z</time>
      </trkpt>
      <trkpt lat="44.69299" lon="3.21304">
        <ele>1200</ele>
        <time>2019-05-25T07:49:59Z</time>
      </trkpt>
      <trkpt lat="44.69279" lon="3.21285">
        <ele>1201</ele>
        <time>2019-05-25T07:50:07Z</time>
      </trkpt>
      <trkpt lat="44.69262" lon="3.21271">
        <ele>1201.8000488281</ele>
        <time>2019-05-25T07:50:14Z</time>
      </trkpt>
      <trkpt lat="44.69248" lon="3.21261">
        <ele>1202.1999511719</ele>
        <time>2019-05-25T07:50:19Z</time>
      </trkpt>
      <trkpt lat="44.69219" lon="3.21247">
        <ele>1202.8000488281</ele>
        <time>2019-05-25T07:50:27Z</time>
      </trkpt>
      <trkpt lat="44.69191" lon="3.21237">
        <ele>1203</ele>
        <time>2019-05-25T07:50:33Z</time>
      </trkpt>
      <trkpt lat="44.69161" lon="3.21228">
        <ele>1203.4000244141</ele>
        <time>2019-05-25T07:50:39Z</time>
      </trkpt>
      <trkpt lat="44.69122" lon="3.21215">
        <ele>1204</ele>
        <time>2019-05-25T07:50:47Z</time>
      </trkpt>
      <trkpt lat="44.69091" lon="3.21213">
        <ele>1204.1999511719</ele>
        <time>2019-05-25T07:50:52Z</time>
      </trkpt>
      <trkpt lat="44.69063" lon="3.2122">
        <ele>1204.1999511719</ele>
        <time>2019-05-25T07:50:56Z</time>
      </trkpt>
      <trkpt lat="44.69026" lon="3.2123">
        <ele>1204.1999511719</ele>
        <time>2019-05-25T07:51:01Z</time>
      </trkpt>
      <trkpt lat="44.68975" lon="3.21242">
        <ele>1204.1999511719</ele>
        <time>2019-05-25T07:51:08Z</time>
      </trkpt>
      <trkpt lat="44.68943" lon="3.21252">
        <ele>1204.1999511719</ele>
        <time>2019-05-25T07:51:13Z</time>
      </trkpt>
      <trkpt lat="44.68929" lon="3.21256">
        <ele>1204.1999511719</ele>
        <time>2019-05-25T07:51:15Z</time>
      </trkpt>
      <trkpt lat="44.68917" lon="3.21262">
        <ele>1204.1999511719</ele>
        <time>2019-05-25T07:51:17Z</time>
      </trkpt>
      <trkpt lat="44.6891" lon="3.21264">
        <ele>1204.1999511719</ele>
        <time>2019-05-25T07:51:18Z</time>
      </trkpt>
      <trkpt lat="44.68897" lon="3.21262">
        <ele>1204</ele>
        <time>2019-05-25T07:51:20Z</time>
      </trkpt>
      <trkpt lat="44.68885" lon="3.21254">
        <ele>1204</ele>
        <time>2019-05-25T07:51:22Z</time>
      </trkpt>
      <trkpt lat="44.68875" lon="3.21242">
        <ele>1203.8000488281</ele>
        <time>2019-05-25T07:51:24Z</time>
      </trkpt>
      <trkpt lat="44.68868" lon="3.21226">
        <ele>1203.8000488281</ele>
        <time>2019-05-25T07:51:26Z</time>
      </trkpt>
      <trkpt lat="44.68866" lon="3.21217">
        <ele>1203.8000488281</ele>
        <time>2019-05-25T07:51:27Z</time>
      </trkpt>
      <trkpt lat="44.68867" lon="3.21209">
        <ele>1203.8000488281</ele>
        <time>2019-05-25T07:51:28Z</time>
      </trkpt>
      <trkpt lat="44.68869" lon="3.21202">
        <ele>1203.8000488281</ele>
        <time>2019-05-25T07:51:29Z</time>
      </trkpt>
      <trkpt lat="44.68873" lon="3.21197">
        <ele>1203.8000488281</ele>
        <time>2019-05-25T07:51:30Z</time>
      </trkpt>
      <trkpt lat="44.68881" lon="3.21185">
        <ele>1203.5999755859</ele>
        <time>2019-05-25T07:51:32Z</time>
      </trkpt>
      <trkpt lat="44.68885" lon="3.21179">
        <ele>1203.5999755859</ele>
        <time>2019-05-25T07:51:33Z</time>
      </trkpt>
      <trkpt lat="44.68896" lon="3.21162">
        <ele>1203.5999755859</ele>
        <time>2019-05-25T07:51:36Z</time>
      </trkpt>
      <trkpt lat="44.68907" lon="3.21149">
        <ele>1203.8000488281</ele>
        <time>2019-05-25T07:51:39Z</time>
      </trkpt>
      <trkpt lat="44.68915" lon="3.21139">
        <ele>1203.8000488281</ele>
        <time>2019-05-25T07:51:41Z</time>
      </trkpt>
      <trkpt lat="44.6892" lon="3.21126">
        <ele>1203.8000488281</ele>
        <time>2019-05-25T07:51:43Z</time>
      </trkpt>
      <trkpt lat="44.68922" lon="3.21119">
        <ele>1203.8000488281</ele>
        <time>2019-05-25T07:51:44Z</time>
      </trkpt>
      <trkpt lat="44.68922" lon="3.21111">
        <ele>1203.8000488281</ele>
        <time>2019-05-25T07:51:45Z</time>
      </trkpt>
      <trkpt lat="44.68918" lon="3.21089">
        <ele>1204</ele>
        <time>2019-05-25T07:51:48Z</time>
      </trkpt>
      <trkpt lat="44.68918" lon="3.21067">
        <ele>1203.8000488281</ele>
        <time>2019-05-25T07:51:51Z</time>
      </trkpt>
      <trkpt lat="44.68919" lon="3.21052">
        <ele>1203.8000488281</ele>
        <time>2019-05-25T07:51:53Z</time>
      </trkpt>
      <trkpt lat="44.68918" lon="3.21013">
        <ele>1204</ele>
        <time>2019-05-25T07:51:59Z</time>
      </trkpt>
      <trkpt lat="44.68915" lon="3.20984">
        <ele>1204</ele>
        <time>2019-05-25T07:52:05Z</time>
      </trkpt>
      <trkpt lat="44.68914" lon="3.20964">
        <ele>1204.1999511719</ele>
        <time>2019-05-25T07:52:09Z</time>
      </trkpt>
      <trkpt lat="44.68915" lon="3.2095">
        <ele>1204.1999511719</ele>
        <time>2019-05-25T07:52:12Z</time>
      </trkpt>
      <trkpt lat="44.68915" lon="3.20944">
        <ele>1204.1999511719</ele>
        <time>2019-05-25T07:52:13Z</time>
      </trkpt>
      <trkpt lat="44.68914" lon="3.20922">
        <ele>1204.5999755859</ele>
        <time>2019-05-25T07:52:18Z</time>
      </trkpt>
      <trkpt lat="44.68915" lon="3.20892">
        <ele>1204.5999755859</ele>
        <time>2019-05-25T07:52:24Z</time>
      </trkpt>
      <trkpt lat="44.68915" lon="3.20869">
        <ele>1204.5999755859</ele>
        <time>2019-05-25T07:52:29Z</time>
      </trkpt>
      <trkpt lat="44.68916" lon="3.20828">
        <ele>1205</ele>
        <time>2019-05-25T07:52:37Z</time>
      </trkpt>
      <trkpt lat="44.68915" lon="3.208">
        <ele>1205.1999511719</ele>
        <time>2019-05-25T07:52:43Z</time>
      </trkpt>
      <trkpt lat="44.6891" lon="3.20764">
        <ele>1205.4000244141</ele>
        <time>2019-05-25T07:52:51Z</time>
      </trkpt>
      <trkpt lat="44.68898" lon="3.20738">
        <ele>1206</ele>
        <time>2019-05-25T07:52:58Z</time>
      </trkpt>
      <trkpt lat="44.68886" lon="3.20717">
        <ele>1206.1999511719</ele>
        <time>2019-05-25T07:53:05Z</time>
      </trkpt>
      <trkpt lat="44.68875" lon="3.20703">
        <ele>1206.8000488281</ele>
        <time>2019-05-25T07:53:10Z</time>
      </trkpt>
      <trkpt lat="44.68866" lon="3.20687">
        <ele>1207.1999511719</ele>
        <time>2019-05-25T07:53:15Z</time>
      </trkpt>
      <trkpt lat="44.68855" lon="3.20672">
        <ele>1207.5999755859</ele>
        <time>2019-05-25T07:53:20Z</time>
      </trkpt>
      <trkpt lat="44.68852" lon="3.20662">
        <ele>1207.8000488281</ele>
        <time>2019-05-25T07:53:23Z</time>
      </trkpt>
      <trkpt lat="44.6885" lon="3.20659">
        <ele>1208</ele>
        <time>2019-05-25T07:53:24Z</time>
      </trkpt>
      <trkpt lat="44.68848" lon="3.20656">
        <ele>1208</ele>
        <time>2019-05-25T07:53:25Z</time>
      </trkpt>
      <trkpt lat="44.68842" lon="3.20646">
        <ele>1208.4000244141</ele>
        <time>2019-05-25T07:53:28Z</time>
      </trkpt>
      <trkpt lat="44.68826" lon="3.2063">
        <ele>1209</ele>
        <time>2019-05-25T07:53:34Z</time>
      </trkpt>
      <trkpt lat="44.68806" lon="3.20614">
        <ele>1209.4000244141</ele>
        <time>2019-05-25T07:53:41Z</time>
      </trkpt>
      <trkpt lat="44.6879" lon="3.20601">
        <ele>1209.5999755859</ele>
        <time>2019-05-25T07:53:46Z</time>
      </trkpt>
      <trkpt lat="44.68777" lon="3.20591">
        <ele>1209.8000488281</ele>
        <time>2019-05-25T07:53:49Z</time>
      </trkpt>
      <trkpt lat="44.68768" lon="3.20586">
        <ele>1209.8000488281</ele>
        <time>2019-05-25T07:53:51Z</time>
      </trkpt>
      <trkpt lat="44.68737" lon="3.20565">
        <ele>1210</ele>
        <time>2019-05-25T07:53:57Z</time>
      </trkpt>
      <trkpt lat="44.68707" lon="3.2054">
        <ele>1209.8000488281</ele>
        <time>2019-05-25T07:54:03Z</time>
      </trkpt>
      <trkpt lat="44.68692" lon="3.20528">
        <ele>1209.8000488281</ele>
        <time>2019-05-25T07:54:06Z</time>
      </trkpt>
      <trkpt lat="44.6868" lon="3.20514">
        <ele>1209.8000488281</ele>
        <time>2019-05-25T07:54:09Z</time>
      </trkpt>
      <trkpt lat="44.68673" lon="3.20502">
        <ele>1209.8000488281</ele>
        <time>2019-05-25T07:54:11Z</time>
      </trkpt>
      <trkpt lat="44.68662" lon="3.20493">
        <ele>1209.5999755859</ele>
        <time>2019-05-25T07:54:13Z</time>
      </trkpt>
      <trkpt lat="44.68634" lon="3.20473">
        <ele>1209.4000244141</ele>
        <time>2019-05-25T07:54:18Z</time>
      </trkpt>
      <trkpt lat="44.68624" lon="3.20464">
        <ele>1209.4000244141</ele>
        <time>2019-05-25T07:54:20Z</time>
      </trkpt>
      <trkpt lat="44.68612" lon="3.20455">
        <ele>1209.4000244141</ele>
        <time>2019-05-25T07:54:22Z</time>
      </trkpt>
      <trkpt lat="44.68578" lon="3.20429">
        <ele>1209.1999511719</ele>
        <time>2019-05-25T07:54:28Z</time>
      </trkpt>
      <trkpt lat="44.68569" lon="3.20415">
        <ele>1209.1999511719</ele>
        <time>2019-05-25T07:54:30Z</time>
      </trkpt>
      <trkpt lat="44.68563" lon="3.20401">
        <ele>1209</ele>
        <time>2019-05-25T07:54:32Z</time>
      </trkpt>
      <trkpt lat="44.68553" lon="3.2037">
        <ele>1209</ele>
        <time>2019-05-25T07:54:36Z</time>
      </trkpt>
      <trkpt lat="44.68549" lon="3.20355">
        <ele>1209.1999511719</ele>
        <time>2019-05-25T07:54:38Z</time>
      </trkpt>
      <trkpt lat="44.68538" lon="3.20312">
        <ele>1209</ele>
        <time>2019-05-25T07:54:44Z</time>
      </trkpt>
      <trkpt lat="44.68514" lon="3.20266">
        <ele>1209</ele>
        <time>2019-05-25T07:54:52Z</time>
      </trkpt>
      <trkpt lat="44.68505" lon="3.20251">
        <ele>1209</ele>
        <time>2019-05-25T07:54:55Z</time>
      </trkpt>
      <trkpt lat="44.68498" lon="3.20242">
        <ele>1209</ele>
        <time>2019-05-25T07:54:57Z</time>
      </trkpt>
      <trkpt lat="44.68492" lon="3.20232">
        <ele>1209</ele>
        <time>2019-05-25T07:54:59Z</time>
      </trkpt>
      <trkpt lat="44.68483" lon="3.20216">
        <ele>1209</ele>
        <time>2019-05-25T07:55:02Z</time>
      </trkpt>
      <trkpt lat="44.68466" lon="3.20185">
        <ele>1209.1999511719</ele>
        <time>2019-05-25T07:55:08Z</time>
      </trkpt>
      <trkpt lat="44.68463" lon="3.2018">
        <ele>1209.1999511719</ele>
        <time>2019-05-25T07:55:09Z</time>
      </trkpt>
      <trkpt lat="44.68458" lon="3.20169">
        <ele>1209.4000244141</ele>
        <time>2019-05-25T07:55:11Z</time>
      </trkpt>
      <trkpt lat="44.68453" lon="3.20158">
        <ele>1209.4000244141</ele>
        <time>2019-05-25T07:55:13Z</time>
      </trkpt>
      <trkpt lat="44.68448" lon="3.20148">
        <ele>1209.4000244141</ele>
        <time>2019-05-25T07:55:15Z</time>
      </trkpt>
      <trkpt lat="44.68443" lon="3.20137">
        <ele>1209.4000244141</ele>
        <time>2019-05-25T07:55:17Z</time>
      </trkpt>
      <trkpt lat="44.68439" lon="3.20126">
        <ele>1209.5999755859</ele>
        <time>2019-05-25T07:55:19Z</time>
      </trkpt>
      <trkpt lat="44.68436" lon="3.20121">
        <ele>1209.5999755859</ele>
        <time>2019-05-25T07:55:20Z</time>
      </trkpt>
      <trkpt lat="44.68421" lon="3.20097">
        <ele>1209.8000488281</ele>
        <time>2019-05-25T07:55:25Z</time>
      </trkpt>
      <trkpt lat="44.68415" lon="3.20088">
        <ele>1210</ele>
        <time>2019-05-25T07:55:27Z</time>
      </trkpt>
      <trkpt lat="44.68412" lon="3.20084">
        <ele>1210</ele>
        <time>2019-05-25T07:55:28Z</time>
      </trkpt>
      <trkpt lat="44.68397" lon="3.20061">
        <ele>1210.1999511719</ele>
        <time>2019-05-25T07:55:33Z</time>
      </trkpt>
      <trkpt lat="44.68395" lon="3.20056">
        <ele>1210.1999511719</ele>
        <time>2019-05-25T07:55:34Z</time>
      </trkpt>
      <trkpt lat="44.68385" lon="3.20032">
        <ele>1210.5999755859</ele>
        <time>2019-05-25T07:55:39Z</time>
      </trkpt>
      <trkpt lat="44.68374" lon="3.20006">
        <ele>1211.1999511719</ele>
        <time>2019-05-25T07:55:45Z</time>
      </trkpt>
      <trkpt lat="44.6836" lon="3.19986">
        <ele>1211.5999755859</ele>
        <time>2019-05-25T07:55:51Z</time>
      </trkpt>
      <trkpt lat="44.68339" lon="3.19966">
        <ele>1212.1999511719</ele>
        <time>2019-05-25T07:55:59Z</time>
      </trkpt>
      <trkpt lat="44.68311" lon="3.19946">
        <ele>1213</ele>
        <time>2019-05-25T07:56:09Z</time>
      </trkpt>
      <trkpt lat="44.68282" lon="3.19924">
        <ele>1213.4000244141</ele>
        <time>2019-05-25T07:56:17Z</time>
      </trkpt>
      <trkpt lat="44.68273" lon="3.19919">
        <ele>1213.4000244141</ele>
        <time>2019-05-25T07:56:19Z</time>
      </trkpt>
      <trkpt lat="44.68256" lon="3.19908">
        <ele>1213.5999755859</ele>
        <time>2019-05-25T07:56:23Z</time>
      </trkpt>
      <trkpt lat="44.68251" lon="3.19905">
        <ele>1213.5999755859</ele>
        <time>2019-05-25T07:56:24Z</time>
      </trkpt>
      <trkpt lat="44.68228" lon="3.19896">
        <ele>1213.5999755859</ele>
        <time>2019-05-25T07:56:29Z</time>
      </trkpt>
      <trkpt lat="44.68215" lon="3.19891">
        <ele>1213.8000488281</ele>
        <time>2019-05-25T07:56:32Z</time>
      </trkpt>
      <trkpt lat="44.68202" lon="3.19886">
        <ele>1214</ele>
        <time>2019-05-25T07:56:35Z</time>
      </trkpt>
      <trkpt lat="44.68165" lon="3.19874">
        <ele>1214.1999511719</ele>
        <time>2019-05-25T07:56:43Z</time>
      </trkpt>
      <trkpt lat="44.68123" lon="3.19862">
        <ele>1214.8000488281</ele>
        <time>2019-05-25T07:56:53Z</time>
      </trkpt>
      <trkpt lat="44.68078" lon="3.19847">
        <ele>1215.4000244141</ele>
        <time>2019-05-25T07:57:04Z</time>
      </trkpt>
      <trkpt lat="44.68044" lon="3.19834">
        <ele>1215.8000488281</ele>
        <time>2019-05-25T07:57:13Z</time>
      </trkpt>
      <trkpt lat="44.68028" lon="3.19829">
        <ele>1216</ele>
        <time>2019-05-25T07:57:17Z</time>
      </trkpt>
      <trkpt lat="44.68019" lon="3.19828">
        <ele>1216.1999511719</ele>
        <time>2019-05-25T07:57:19Z</time>
      </trkpt>
      <trkpt lat="44.67988" lon="3.19825">
        <ele>1216.1999511719</ele>
        <time>2019-05-25T07:57:25Z</time>
      </trkpt>
      <trkpt lat="44.67966" lon="3.19825">
        <ele>1216</ele>
        <time>2019-05-25T07:57:28Z</time>
      </trkpt>
      <trkpt lat="44.67958" lon="3.19822">
        <ele>1215.8000488281</ele>
        <time>2019-05-25T07:57:29Z</time>
      </trkpt>
      <trkpt lat="44.67949" lon="3.19818">
        <ele>1215.8000488281</ele>
        <time>2019-05-25T07:57:30Z</time>
      </trkpt>
      <trkpt lat="44.67935" lon="3.19805">
        <ele>1215.5999755859</ele>
        <time>2019-05-25T07:57:32Z</time>
      </trkpt>
      <trkpt lat="44.67892" lon="3.19754">
        <ele>1214.8000488281</ele>
        <time>2019-05-25T07:57:39Z</time>
      </trkpt>
      <trkpt lat="44.67879" lon="3.19747">
        <ele>1214.8000488281</ele>
        <time>2019-05-25T07:57:41Z</time>
      </trkpt>
      <trkpt lat="44.67873" lon="3.19745">
        <ele>1214.8000488281</ele>
        <time>2019-05-25T07:57:42Z</time>
      </trkpt>
      <trkpt lat="44.67842" lon="3.19742">
        <ele>1214.8000488281</ele>
        <time>2019-05-25T07:57:47Z</time>
      </trkpt>
      <trkpt lat="44.67835" lon="3.19741">
        <ele>1214.8000488281</ele>
        <time>2019-05-25T07:57:48Z</time>
      </trkpt>
      <trkpt lat="44.67797" lon="3.19734">
        <ele>1214.5999755859</ele>
        <time>2019-05-25T07:57:54Z</time>
      </trkpt>
      <trkpt lat="44.67762" lon="3.19732">
        <ele>1214.1999511719</ele>
        <time>2019-05-25T07:57:59Z</time>
      </trkpt>
      <trkpt lat="44.67755" lon="3.19734">
        <ele>1214.1999511719</ele>
        <time>2019-05-25T07:58:00Z</time>
      </trkpt>
      <trkpt lat="44.67748" lon="3.19737">
        <ele>1214</ele>
        <time>2019-05-25T07:58:01Z</time>
      </trkpt>
      <trkpt lat="44.67728" lon="3.19751">
        <ele>1213.8000488281</ele>
        <time>2019-05-25T07:58:04Z</time>
      </trkpt>
      <trkpt lat="44.67721" lon="3.19755">
        <ele>1213.5999755859</ele>
        <time>2019-05-25T07:58:05Z</time>
      </trkpt>
      <trkpt lat="44.677" lon="3.19766">
        <ele>1213.1999511719</ele>
        <time>2019-05-25T07:58:08Z</time>
      </trkpt>
      <trkpt lat="44.67692" lon="3.19767">
        <ele>1213</ele>
        <time>2019-05-25T07:58:09Z</time>
      </trkpt>
      <trkpt lat="44.67646" lon="3.19766">
        <ele>1212.4000244141</ele>
        <time>2019-05-25T07:58:15Z</time>
      </trkpt>
      <trkpt lat="44.67603" lon="3.19773">
        <ele>1211.8000488281</ele>
        <time>2019-05-25T07:58:21Z</time>
      </trkpt>
      <trkpt lat="44.67558" lon="3.19779">
        <ele>1210.8000488281</ele>
        <time>2019-05-25T07:58:27Z</time>
      </trkpt>
      <trkpt lat="44.67525" lon="3.19796">
        <ele>1210</ele>
        <time>2019-05-25T07:58:31Z</time>
      </trkpt>
      <trkpt lat="44.67498" lon="3.19801">
        <ele>1209.1999511719</ele>
        <time>2019-05-25T07:58:34Z</time>
      </trkpt>
      <trkpt lat="44.67467" lon="3.19793">
        <ele>1208.1999511719</ele>
        <time>2019-05-25T07:58:37Z</time>
      </trkpt>
      <trkpt lat="44.67459" lon="3.1979">
        <ele>1207.8000488281</ele>
        <time>2019-05-25T07:58:38Z</time>
      </trkpt>
      <trkpt lat="44.67443" lon="3.19779">
        <ele>1207.1999511719</ele>
        <time>2019-05-25T07:58:40Z</time>
      </trkpt>
      <trkpt lat="44.67416" lon="3.19761">
        <ele>1206.1999511719</ele>
        <time>2019-05-25T07:58:44Z</time>
      </trkpt>
      <trkpt lat="44.6741" lon="3.19764">
        <ele>1205.4000244141</ele>
        <time>2019-05-25T07:58:46Z</time>
      </trkpt>
      <trkpt lat="44.67409" lon="3.19781">
        <ele>1204.8000488281</ele>
        <time>2019-05-25T07:58:48Z</time>
      </trkpt>
      <trkpt lat="44.67409" lon="3.19788">
        <ele>1204.5999755859</ele>
        <time>2019-05-25T07:58:49Z</time>
      </trkpt>
      <trkpt lat="44.67407" lon="3.19791">
        <ele>1204.1999511719</ele>
        <time>2019-05-25T07:58:50Z</time>
      </trkpt>
      <trkpt lat="44.674" lon="3.19792">
        <ele>1203.5999755859</ele>
        <time>2019-05-25T07:58:52Z</time>
      </trkpt>
      <trkpt lat="44.67395" lon="3.19791">
        <ele>1203.4000244141</ele>
        <time>2019-05-25T07:58:53Z</time>
      </trkpt>
      <trkpt lat="44.67372" lon="3.19787">
        <ele>1202.8000488281</ele>
        <time>2019-05-25T07:58:56Z</time>
      </trkpt>
      <trkpt lat="44.67341" lon="3.19795">
        <ele>1202</ele>
        <time>2019-05-25T07:58:58Z</time>
      </trkpt>
      <trkpt lat="44.67321" lon="3.19801">
        <ele>1201.1999511719</ele>
        <time>2019-05-25T07:59:00Z</time>
      </trkpt>
      <trkpt lat="44.67287" lon="3.19814">
        <ele>1198.8000488281</ele>
        <time>2019-05-25T07:59:04Z</time>
      </trkpt>
      <trkpt lat="44.67275" lon="3.19812">
        <ele>1197.8000488281</ele>
        <time>2019-05-25T07:59:06Z</time>
      </trkpt>
      <trkpt lat="44.67269" lon="3.1981">
        <ele>1197.1999511719</ele>
        <time>2019-05-25T07:59:07Z</time>
      </trkpt>
      <trkpt lat="44.67264" lon="3.19805">
        <ele>1196.5999755859</ele>
        <time>2019-05-25T07:59:08Z</time>
      </trkpt>
      <trkpt lat="44.67252" lon="3.1979">
        <ele>1195.4000244141</ele>
        <time>2019-05-25T07:59:10Z</time>
      </trkpt>
      <trkpt lat="44.67245" lon="3.19783">
        <ele>1194.8000488281</ele>
        <time>2019-05-25T07:59:11Z</time>
      </trkpt>
      <trkpt lat="44.67229" lon="3.19773">
        <ele>1193.8000488281</ele>
        <time>2019-05-25T07:59:13Z</time>
      </trkpt>
      <trkpt lat="44.67199" lon="3.19766">
        <ele>1191.8000488281</ele>
        <time>2019-05-25T07:59:16Z</time>
      </trkpt>
      <trkpt lat="44.67156" lon="3.19747">
        <ele>1189.1999511719</ele>
        <time>2019-05-25T07:59:20Z</time>
      </trkpt>
      <trkpt lat="44.67133" lon="3.19735">
        <ele>1187</ele>
        <time>2019-05-25T07:59:23Z</time>
      </trkpt>
      <trkpt lat="44.67109" lon="3.1974">
        <ele>1185</ele>
        <time>2019-05-25T07:59:26Z</time>
      </trkpt>
      <trkpt lat="44.67091" lon="3.19746">
        <ele>1183.5999755859</ele>
        <time>2019-05-25T07:59:28Z</time>
      </trkpt>
      <trkpt lat="44.6707" lon="3.19748">
        <ele>1182.4000244141</ele>
        <time>2019-05-25T07:59:30Z</time>
      </trkpt>
      <trkpt lat="44.6705" lon="3.19752">
        <ele>1181</ele>
        <time>2019-05-25T07:59:32Z</time>
      </trkpt>
      <trkpt lat="44.67041" lon="3.19758">
        <ele>1180.1999511719</ele>
        <time>2019-05-25T07:59:33Z</time>
      </trkpt>
      <trkpt lat="44.67034" lon="3.19768">
        <ele>1179.5999755859</ele>
        <time>2019-05-25T07:59:34Z</time>
      </trkpt>
      <trkpt lat="44.67029" lon="3.19779">
        <ele>1178.8000488281</ele>
        <time>2019-05-25T07:59:35Z</time>
      </trkpt>
      <trkpt lat="44.67015" lon="3.19814">
        <ele>1177</ele>
        <time>2019-05-25T07:59:38Z</time>
      </trkpt>
      <trkpt lat="44.6701" lon="3.19823">
        <ele>1176.4000244141</ele>
        <time>2019-05-25T07:59:39Z</time>
      </trkpt>
      <trkpt lat="44.67003" lon="3.1983">
        <ele>1175.8000488281</ele>
        <time>2019-05-25T07:59:40Z</time>
      </trkpt>
      <trkpt lat="44.66986" lon="3.19834">
        <ele>1174.5999755859</ele>
        <time>2019-05-25T07:59:42Z</time>
      </trkpt>
      <trkpt lat="44.66968" lon="3.19835">
        <ele>1173.4000244141</ele>
        <time>2019-05-25T07:59:44Z</time>
      </trkpt>
      <trkpt lat="44.6696" lon="3.19839">
        <ele>1172.8000488281</ele>
        <time>2019-05-25T07:59:45Z</time>
      </trkpt>
      <trkpt lat="44.66954" lon="3.19846">
        <ele>1172</ele>
        <time>2019-05-25T07:59:46Z</time>
      </trkpt>
      <trkpt lat="44.66949" lon="3.19855">
        <ele>1171.4000244141</ele>
        <time>2019-05-25T07:59:47Z</time>
      </trkpt>
      <trkpt lat="44.66918" lon="3.19914">
        <ele>1167.8000488281</ele>
        <time>2019-05-25T07:59:53Z</time>
      </trkpt>
      <trkpt lat="44.66876" lon="3.19962">
        <ele>1164.4000244141</ele>
        <time>2019-05-25T07:59:59Z</time>
      </trkpt>
      <trkpt lat="44.6683" lon="3.20004">
        <ele>1161.4000244141</ele>
        <time>2019-05-25T08:00:05Z</time>
      </trkpt>
      <trkpt lat="44.66822" lon="3.2001">
        <ele>1161</ele>
        <time>2019-05-25T08:00:06Z</time>
      </trkpt>
      <trkpt lat="44.66777" lon="3.20028">
        <ele>1158.5999755859</ele>
        <time>2019-05-25T08:00:11Z</time>
      </trkpt>
      <trkpt lat="44.66769" lon="3.20033">
        <ele>1158</ele>
        <time>2019-05-25T08:00:12Z</time>
      </trkpt>
      <trkpt lat="44.66746" lon="3.2005">
        <ele>1156.4000244141</ele>
        <time>2019-05-25T08:00:15Z</time>
      </trkpt>
      <trkpt lat="44.66708" lon="3.20092">
        <ele>1153.4000244141</ele>
        <time>2019-05-25T08:00:21Z</time>
      </trkpt>
      <trkpt lat="44.66673" lon="3.20135">
        <ele>1150.5999755859</ele>
        <time>2019-05-25T08:00:27Z</time>
      </trkpt>
      <trkpt lat="44.66668" lon="3.20144">
        <ele>1150.1999511719</ele>
        <time>2019-05-25T08:00:28Z</time>
      </trkpt>
      <trkpt lat="44.66648" lon="3.20185">
        <ele>1148</ele>
        <time>2019-05-25T08:00:32Z</time>
      </trkpt>
      <trkpt lat="44.66643" lon="3.20222">
        <ele>1146.5999755859</ele>
        <time>2019-05-25T08:00:35Z</time>
      </trkpt>
      <trkpt lat="44.66641" lon="3.20231">
        <ele>1146.1999511719</ele>
        <time>2019-05-25T08:00:36Z</time>
      </trkpt>
      <trkpt lat="44.66635" lon="3.20242">
        <ele>1145.4000244141</ele>
        <time>2019-05-25T08:00:38Z</time>
      </trkpt>
      <trkpt lat="44.66624" lon="3.20243">
        <ele>1144.4000244141</ele>
        <time>2019-05-25T08:00:40Z</time>
      </trkpt>
      <trkpt lat="44.66618" lon="3.20243">
        <ele>1144</ele>
        <time>2019-05-25T08:00:41Z</time>
      </trkpt>
      <trkpt lat="44.666" lon="3.20246">
        <ele>1143</ele>
        <time>2019-05-25T08:00:44Z</time>
      </trkpt>
      <trkpt lat="44.66589" lon="3.20253">
        <ele>1142.1999511719</ele>
        <time>2019-05-25T08:00:46Z</time>
      </trkpt>
      <trkpt lat="44.66558" lon="3.20281">
        <ele>1139.8000488281</ele>
        <time>2019-05-25T08:00:52Z</time>
      </trkpt>
      <trkpt lat="44.66554" lon="3.20285">
        <ele>1139.5999755859</ele>
        <time>2019-05-25T08:00:53Z</time>
      </trkpt>
      <trkpt lat="44.66537" lon="3.20295">
        <ele>1138.5999755859</ele>
        <time>2019-05-25T08:00:56Z</time>
      </trkpt>
      <trkpt lat="44.66509" lon="3.20305">
        <ele>1137.4000244141</ele>
        <time>2019-05-25T08:01:01Z</time>
      </trkpt>
      <trkpt lat="44.66498" lon="3.20313">
        <ele>1136.5999755859</ele>
        <time>2019-05-25T08:01:03Z</time>
      </trkpt>
      <trkpt lat="44.66484" lon="3.20328">
        <ele>1135.8000488281</ele>
        <time>2019-05-25T08:01:06Z</time>
      </trkpt>
      <trkpt lat="44.6648" lon="3.20333">
        <ele>1135.5999755859</ele>
        <time>2019-05-25T08:01:07Z</time>
      </trkpt>
      <trkpt lat="44.66467" lon="3.20357">
        <ele>1134.5999755859</ele>
        <time>2019-05-25T08:01:11Z</time>
      </trkpt>
      <trkpt lat="44.66458" lon="3.20373">
        <ele>1134.4000244141</ele>
        <time>2019-05-25T08:01:14Z</time>
      </trkpt>
      <trkpt lat="44.6645" lon="3.2038">
        <ele>1134.1999511719</ele>
        <time>2019-05-25T08:01:16Z</time>
      </trkpt>
      <trkpt lat="44.66425" lon="3.20386">
        <ele>1133.5999755859</ele>
        <time>2019-05-25T08:01:21Z</time>
      </trkpt>
      <trkpt lat="44.66389" lon="3.20394">
        <ele>1132.8000488281</ele>
        <time>2019-05-25T08:01:28Z</time>
      </trkpt>
      <trkpt lat="44.66351" lon="3.20403">
        <ele>1131.8000488281</ele>
        <time>2019-05-25T08:01:35Z</time>
      </trkpt>
      <trkpt lat="44.66332" lon="3.20409">
        <ele>1131.1999511719</ele>
        <time>2019-05-25T08:01:38Z</time>
      </trkpt>
      <trkpt lat="44.66319" lon="3.20417">
        <ele>1131</ele>
        <time>2019-05-25T08:01:40Z</time>
      </trkpt>
      <trkpt lat="44.66284" lon="3.20437">
        <ele>1130.1999511719</ele>
        <time>2019-05-25T08:01:46Z</time>
      </trkpt>
      <trkpt lat="44.66275" lon="3.20439">
        <ele>1129.8000488281</ele>
        <time>2019-05-25T08:01:49Z</time>
      </trkpt>
      <trkpt lat="44.66275" lon="3.20439">
        <ele>1129.4000244141</ele>
        <time>2019-05-25T08:01:51Z</time>
      </trkpt>
      <trkpt lat="44.6627" lon="3.20437">
        <ele>1120.4000244141</ele>
        <time>2019-05-25T08:05:53Z</time>
      </trkpt>
      <trkpt lat="44.66259" lon="3.2044">
        <ele>1120.1999511719</ele>
        <time>2019-05-25T08:05:56Z</time>
      </trkpt>
      <trkpt lat="44.66256" lon="3.20436">
        <ele>1120</ele>
        <time>2019-05-25T08:05:57Z</time>
      </trkpt>
      <trkpt lat="44.66254" lon="3.20431">
        <ele>1120</ele>
        <time>2019-05-25T08:05:58Z</time>
      </trkpt>
      <trkpt lat="44.66256" lon="3.20416">
        <ele>1120</ele>
        <time>2019-05-25T08:06:00Z</time>
      </trkpt>
      <trkpt lat="44.66268" lon="3.20376">
        <ele>1119.4000244141</ele>
        <time>2019-05-25T08:06:05Z</time>
      </trkpt>
      <trkpt lat="44.66269" lon="3.20355">
        <ele>1118.8000488281</ele>
        <time>2019-05-25T08:06:07Z</time>
      </trkpt>
      <trkpt lat="44.66266" lon="3.20344">
        <ele>1118.4000244141</ele>
        <time>2019-05-25T08:06:08Z</time>
      </trkpt>
      <trkpt lat="44.66262" lon="3.20333">
        <ele>1118.1999511719</ele>
        <time>2019-05-25T08:06:09Z</time>
      </trkpt>
      <trkpt lat="44.66251" lon="3.20314">
        <ele>1117.8000488281</ele>
        <time>2019-05-25T08:06:11Z</time>
      </trkpt>
      <trkpt lat="44.66229" lon="3.20273">
        <ele>1117.4000244141</ele>
        <time>2019-05-25T08:06:16Z</time>
      </trkpt>
      <trkpt lat="44.6622" lon="3.20249">
        <ele>1117.1999511719</ele>
        <time>2019-05-25T08:06:20Z</time>
      </trkpt>
      <trkpt lat="44.66219" lon="3.20236">
        <ele>1117.4000244141</ele>
        <time>2019-05-25T08:06:24Z</time>
      </trkpt>
      <trkpt lat="44.66218" lon="3.20219">
        <ele>1117.5999755859</ele>
        <time>2019-05-25T08:06:31Z</time>
      </trkpt>
      <trkpt lat="44.66222" lon="3.20204">
        <ele>1118</ele>
        <time>2019-05-25T08:06:38Z</time>
      </trkpt>
      <trkpt lat="44.6623" lon="3.20187">
        <ele>1118.1999511719</ele>
        <time>2019-05-25T08:06:46Z</time>
      </trkpt>
      <trkpt lat="44.66239" lon="3.20173">
        <ele>1118.5999755859</ele>
        <time>2019-05-25T08:06:54Z</time>
      </trkpt>
      <trkpt lat="44.66248" lon="3.2016">
        <ele>1119.1999511719</ele>
        <time>2019-05-25T08:07:02Z</time>
      </trkpt>
      <trkpt lat="44.66258" lon="3.20146">
        <ele>1119.8000488281</ele>
        <time>2019-05-25T08:07:11Z</time>
      </trkpt>
      <trkpt lat="44.66267" lon="3.20134">
        <ele>1120.5999755859</ele>
        <time>2019-05-25T08:07:18Z</time>
      </trkpt>
      <trkpt lat="44.66277" lon="3.20123">
        <ele>1121.1999511719</ele>
        <time>2019-05-25T08:07:26Z</time>
      </trkpt>
      <trkpt lat="44.66283" lon="3.20112">
        <ele>1121.8000488281</ele>
        <time>2019-05-25T08:07:33Z</time>
      </trkpt>
      <trkpt lat="44.66288" lon="3.20102">
        <ele>1122.1999511719</ele>
        <time>2019-05-25T08:07:38Z</time>
      </trkpt>
      <trkpt lat="44.6629" lon="3.20098">
        <ele>1122.4000244141</ele>
        <time>2019-05-25T08:07:40Z</time>
      </trkpt>
      <trkpt lat="44.66294" lon="3.20088">
        <ele>1123</ele>
        <time>2019-05-25T08:07:46Z</time>
      </trkpt>
      <trkpt lat="44.66299" lon="3.20075">
        <ele>1123.5999755859</ele>
        <time>2019-05-25T08:07:53Z</time>
      </trkpt>
      <trkpt lat="44.66301" lon="3.20061">
        <ele>1124.4000244141</ele>
        <time>2019-05-25T08:08:00Z</time>
      </trkpt>
      <trkpt lat="44.66302" lon="3.2006">
        <ele>1124.5999755859</ele>
        <time>2019-05-25T08:08:01Z</time>
      </trkpt>
      <trkpt lat="44.66305" lon="3.20046">
        <ele>1125.1999511719</ele>
        <time>2019-05-25T08:08:08Z</time>
      </trkpt>
      <trkpt lat="44.66308" lon="3.20026">
        <ele>1126.1999511719</ele>
        <time>2019-05-25T08:08:17Z</time>
      </trkpt>
      <trkpt lat="44.66306" lon="3.20009">
        <ele>1127</ele>
        <time>2019-05-25T08:08:25Z</time>
      </trkpt>
      <trkpt lat="44.66301" lon="3.19996">
        <ele>1128</ele>
        <time>2019-05-25T08:08:32Z</time>
      </trkpt>
      <trkpt lat="44.66294" lon="3.19977">
        <ele>1129</ele>
        <time>2019-05-25T08:08:42Z</time>
      </trkpt>
      <trkpt lat="44.66286" lon="3.19959">
        <ele>1130.1999511719</ele>
        <time>2019-05-25T08:08:52Z</time>
      </trkpt>
      <trkpt lat="44.6628" lon="3.19942">
        <ele>1131.5999755859</ele>
        <time>2019-05-25T08:09:01Z</time>
      </trkpt>
      <trkpt lat="44.66273" lon="3.19928">
        <ele>1132.8000488281</ele>
        <time>2019-05-25T08:09:09Z</time>
      </trkpt>
      <trkpt lat="44.66263" lon="3.19913">
        <ele>1134</ele>
        <time>2019-05-25T08:09:18Z</time>
      </trkpt>
      <trkpt lat="44.66254" lon="3.19902">
        <ele>1135.4000244141</ele>
        <time>2019-05-25T08:09:26Z</time>
      </trkpt>
      <trkpt lat="44.66244" lon="3.19888">
        <ele>1136.1999511719</ele>
        <time>2019-05-25T08:09:35Z</time>
      </trkpt>
      <trkpt lat="44.66239" lon="3.19883">
        <ele>1136.8000488281</ele>
        <time>2019-05-25T08:09:40Z</time>
      </trkpt>
      <trkpt lat="44.66238" lon="3.19882">
        <ele>1136.8000488281</ele>
        <time>2019-05-25T08:09:41Z</time>
      </trkpt>
      <trkpt lat="44.66227" lon="3.1987">
        <ele>1138.1999511719</ele>
        <time>2019-05-25T08:09:49Z</time>
      </trkpt>
      <trkpt lat="44.66213" lon="3.19857">
        <ele>1139.4000244141</ele>
        <time>2019-05-25T08:09:57Z</time>
      </trkpt>
      <trkpt lat="44.66199" lon="3.19841">
        <ele>1140.1999511719</ele>
        <time>2019-05-25T08:10:04Z</time>
      </trkpt>
      <trkpt lat="44.6619" lon="3.19814">
        <ele>1141</ele>
        <time>2019-05-25T08:10:11Z</time>
      </trkpt>
      <trkpt lat="44.6619" lon="3.19781">
        <ele>1141.8000488281</ele>
        <time>2019-05-25T08:10:19Z</time>
      </trkpt>
      <trkpt lat="44.66191" lon="3.19754">
        <ele>1142.5999755859</ele>
        <time>2019-05-25T08:10:25Z</time>
      </trkpt>
      <trkpt lat="44.66192" lon="3.19708">
        <ele>1143.1999511719</ele>
        <time>2019-05-25T08:10:33Z</time>
      </trkpt>
      <trkpt lat="44.66194" lon="3.19689">
        <ele>1143.4000244141</ele>
        <time>2019-05-25T08:10:36Z</time>
      </trkpt>
      <trkpt lat="44.66195" lon="3.19675">
        <ele>1143.5999755859</ele>
        <time>2019-05-25T08:10:38Z</time>
      </trkpt>
      <trkpt lat="44.66194" lon="3.19662">
        <ele>1143.8000488281</ele>
        <time>2019-05-25T08:10:40Z</time>
      </trkpt>
      <trkpt lat="44.6619" lon="3.19644">
        <ele>1144</ele>
        <time>2019-05-25T08:10:43Z</time>
      </trkpt>
      <trkpt lat="44.66179" lon="3.19619">
        <ele>1144.5999755859</ele>
        <time>2019-05-25T08:10:49Z</time>
      </trkpt>
      <trkpt lat="44.66162" lon="3.19585">
        <ele>1145.5999755859</ele>
        <time>2019-05-25T08:10:57Z</time>
      </trkpt>
      <trkpt lat="44.66153" lon="3.19571">
        <ele>1146</ele>
        <time>2019-05-25T08:11:00Z</time>
      </trkpt>
      <trkpt lat="44.66145" lon="3.19556">
        <ele>1146.1999511719</ele>
        <time>2019-05-25T08:11:03Z</time>
      </trkpt>
      <trkpt lat="44.66126" lon="3.19524">
        <ele>1146.4000244141</ele>
        <time>2019-05-25T08:11:08Z</time>
      </trkpt>
      <trkpt lat="44.66105" lon="3.19487">
        <ele>1146</ele>
        <time>2019-05-25T08:11:12Z</time>
      </trkpt>
      <trkpt lat="44.66091" lon="3.19468">
        <ele>1145.8000488281</ele>
        <time>2019-05-25T08:11:14Z</time>
      </trkpt>
      <trkpt lat="44.66082" lon="3.1946">
        <ele>1145.5999755859</ele>
        <time>2019-05-25T08:11:15Z</time>
      </trkpt>
      <trkpt lat="44.66072" lon="3.19455">
        <ele>1145.4000244141</ele>
        <time>2019-05-25T08:11:16Z</time>
      </trkpt>
      <trkpt lat="44.66051" lon="3.1945">
        <ele>1145.1999511719</ele>
        <time>2019-05-25T08:11:18Z</time>
      </trkpt>
      <trkpt lat="44.66032" lon="3.19447">
        <ele>1144.8000488281</ele>
        <time>2019-05-25T08:11:20Z</time>
      </trkpt>
      <trkpt lat="44.66017" lon="3.19433">
        <ele>1144</ele>
        <time>2019-05-25T08:11:22Z</time>
      </trkpt>
      <trkpt lat="44.66008" lon="3.19407">
        <ele>1143</ele>
        <time>2019-05-25T08:11:24Z</time>
      </trkpt>
      <trkpt lat="44.6599" lon="3.1935">
        <ele>1141.4000244141</ele>
        <time>2019-05-25T08:11:28Z</time>
      </trkpt>
      <trkpt lat="44.65957" lon="3.19283">
        <ele>1139.5999755859</ele>
        <time>2019-05-25T08:11:33Z</time>
      </trkpt>
      <trkpt lat="44.65946" lon="3.19264">
        <ele>1139</ele>
        <time>2019-05-25T08:11:35Z</time>
      </trkpt>
      <trkpt lat="44.65943" lon="3.19255">
        <ele>1138.8000488281</ele>
        <time>2019-05-25T08:11:36Z</time>
      </trkpt>
      <trkpt lat="44.65943" lon="3.19245">
        <ele>1138.5999755859</ele>
        <time>2019-05-25T08:11:37Z</time>
      </trkpt>
      <trkpt lat="44.65945" lon="3.19236">
        <ele>1138.5999755859</ele>
        <time>2019-05-25T08:11:38Z</time>
      </trkpt>
      <trkpt lat="44.65948" lon="3.19228">
        <ele>1138.4000244141</ele>
        <time>2019-05-25T08:11:39Z</time>
      </trkpt>
      <trkpt lat="44.65957" lon="3.19209">
        <ele>1138</ele>
        <time>2019-05-25T08:11:42Z</time>
      </trkpt>
      <trkpt lat="44.65964" lon="3.19195">
        <ele>1137.5999755859</ele>
        <time>2019-05-25T08:11:46Z</time>
      </trkpt>
      <trkpt lat="44.65969" lon="3.19179">
        <ele>1137</ele>
        <time>2019-05-25T08:11:53Z</time>
      </trkpt>
      <trkpt lat="44.65969" lon="3.19176">
        <ele>1137</ele>
        <time>2019-05-25T08:11:54Z</time>
      </trkpt>
      <trkpt lat="44.65965" lon="3.1917">
        <ele>1136.5999755859</ele>
        <time>2019-05-25T08:11:57Z</time>
      </trkpt>
      <trkpt lat="44.65952" lon="3.19168">
        <ele>1136.4000244141</ele>
        <time>2019-05-25T08:12:02Z</time>
      </trkpt>
      <trkpt lat="44.65938" lon="3.1917">
        <ele>1136</ele>
        <time>2019-05-25T08:12:08Z</time>
      </trkpt>
      <trkpt lat="44.65926" lon="3.19172">
        <ele>1136</ele>
        <time>2019-05-25T08:12:13Z</time>
      </trkpt>
      <trkpt lat="44.65924" lon="3.19172">
        <ele>1135.8000488281</ele>
        <time>2019-05-25T08:12:14Z</time>
      </trkpt>
      <trkpt lat="44.65908" lon="3.19173">
        <ele>1136</ele>
        <time>2019-05-25T08:12:21Z</time>
      </trkpt>
      <trkpt lat="44.65892" lon="3.19174">
        <ele>1136.4000244141</ele>
        <time>2019-05-25T08:12:29Z</time>
      </trkpt>
      <trkpt lat="44.65881" lon="3.19177">
        <ele>1136.1999511719</ele>
        <time>2019-05-25T08:12:35Z</time>
      </trkpt>
      <trkpt lat="44.65879" lon="3.19177">
        <ele>1136.1999511719</ele>
        <time>2019-05-25T08:12:37Z</time>
      </trkpt>
      <trkpt lat="44.65878" lon="3.19173">
        <ele>1136.4000244141</ele>
        <time>2019-05-25T08:12:39Z</time>
      </trkpt>
      <trkpt lat="44.65878" lon="3.19173">
        <ele>1136.4000244141</ele>
        <time>2019-05-25T08:12:40Z</time>
      </trkpt>
      <trkpt lat="44.65878" lon="3.1917">
        <ele>1136.5999755859</ele>
        <time>2019-05-25T08:12:42Z</time>
      </trkpt>
      <trkpt lat="44.6588" lon="3.19167">
        <ele>1136.5999755859</ele>
        <time>2019-05-25T08:12:44Z</time>
      </trkpt>
      <trkpt lat="44.65886" lon="3.1916">
        <ele>1136.5999755859</ele>
        <time>2019-05-25T08:12:48Z</time>
      </trkpt>
      <trkpt lat="44.65894" lon="3.19152">
        <ele>1136.8000488281</ele>
        <time>2019-05-25T08:12:54Z</time>
      </trkpt>
      <trkpt lat="44.65899" lon="3.19145">
        <ele>1137</ele>
        <time>2019-05-25T08:12:58Z</time>
      </trkpt>
      <trkpt lat="44.659" lon="3.19142">
        <ele>1137</ele>
        <time>2019-05-25T08:12:59Z</time>
      </trkpt>
      <trkpt lat="44.659" lon="3.19139">
        <ele>1137</ele>
        <time>2019-05-25T08:13:01Z</time>
      </trkpt>
      <trkpt lat="44.65903" lon="3.19058">
        <ele>1140.4000244141</ele>
        <time>2019-05-25T08:13:49Z</time>
      </trkpt>
      <trkpt lat="44.65904" lon="3.19055">
        <ele>1140.4000244141</ele>
        <time>2019-05-25T08:13:50Z</time>
      </trkpt>
      <trkpt lat="44.65909" lon="3.19043">
        <ele>1140.5999755859</ele>
        <time>2019-05-25T08:13:54Z</time>
      </trkpt>
      <trkpt lat="44.65912" lon="3.19031">
        <ele>1141</ele>
        <time>2019-05-25T08:13:59Z</time>
      </trkpt>
      <trkpt lat="44.65914" lon="3.19014">
        <ele>1141.4000244141</ele>
        <time>2019-05-25T08:14:05Z</time>
      </trkpt>
      <trkpt lat="44.65918" lon="3.19003">
        <ele>1141.5999755859</ele>
        <time>2019-05-25T08:14:08Z</time>
      </trkpt>
      <trkpt lat="44.65923" lon="3.1899">
        <ele>1141.5999755859</ele>
        <time>2019-05-25T08:14:12Z</time>
      </trkpt>
      <trkpt lat="44.65925" lon="3.18973">
        <ele>1141.8000488281</ele>
        <time>2019-05-25T08:14:17Z</time>
      </trkpt>
      <trkpt lat="44.6593" lon="3.18955">
        <ele>1142</ele>
        <time>2019-05-25T08:14:22Z</time>
      </trkpt>
      <trkpt lat="44.65935" lon="3.1894">
        <ele>1142.1999511719</ele>
        <time>2019-05-25T08:14:27Z</time>
      </trkpt>
      <trkpt lat="44.65939" lon="3.18925">
        <ele>1142.5999755859</ele>
        <time>2019-05-25T08:14:32Z</time>
      </trkpt>
      <trkpt lat="44.65946" lon="3.18913">
        <ele>1142.8000488281</ele>
        <time>2019-05-25T08:14:36Z</time>
      </trkpt>
      <trkpt lat="44.65947" lon="3.18909">
        <ele>1142.8000488281</ele>
        <time>2019-05-25T08:14:37Z</time>
      </trkpt>
      <trkpt lat="44.65958" lon="3.18892">
        <ele>1143.1999511719</ele>
        <time>2019-05-25T08:14:42Z</time>
      </trkpt>
      <trkpt lat="44.65964" lon="3.18879">
        <ele>1143.4000244141</ele>
        <time>2019-05-25T08:14:47Z</time>
      </trkpt>
      <trkpt lat="44.65966" lon="3.18877">
        <ele>1143.4000244141</ele>
        <time>2019-05-25T08:14:48Z</time>
      </trkpt>
      <trkpt lat="44.65969" lon="3.18871">
        <ele>1143.1999511719</ele>
        <time>2019-05-25T08:14:51Z</time>
      </trkpt>
      <trkpt lat="44.65975" lon="3.18864">
        <ele>1143.4000244141</ele>
        <time>2019-05-25T08:14:53Z</time>
      </trkpt>
      <trkpt lat="44.65982" lon="3.18853">
        <ele>1143.4000244141</ele>
        <time>2019-05-25T08:14:57Z</time>
      </trkpt>
      <trkpt lat="44.65987" lon="3.18837">
        <ele>1144</ele>
        <time>2019-05-25T08:15:02Z</time>
      </trkpt>
      <trkpt lat="44.65993" lon="3.18828">
        <ele>1144.1999511719</ele>
        <time>2019-05-25T08:15:06Z</time>
      </trkpt>
      <trkpt lat="44.65998" lon="3.18821">
        <ele>1144.4000244141</ele>
        <time>2019-05-25T08:15:09Z</time>
      </trkpt>
      <trkpt lat="44.66009" lon="3.18811">
        <ele>1144.8000488281</ele>
        <time>2019-05-25T08:15:14Z</time>
      </trkpt>
      <trkpt lat="44.6601" lon="3.18809">
        <ele>1144.8000488281</ele>
        <time>2019-05-25T08:15:15Z</time>
      </trkpt>
      <trkpt lat="44.66015" lon="3.18797">
        <ele>1145.4000244141</ele>
        <time>2019-05-25T08:15:19Z</time>
      </trkpt>
      <trkpt lat="44.66017" lon="3.18793">
        <ele>1145.5999755859</ele>
        <time>2019-05-25T08:15:21Z</time>
      </trkpt>
      <trkpt lat="44.66019" lon="3.18788">
        <ele>1145.8000488281</ele>
        <time>2019-05-25T08:15:23Z</time>
      </trkpt>
      <trkpt lat="44.66022" lon="3.18779">
        <ele>1146.1999511719</ele>
        <time>2019-05-25T08:15:26Z</time>
      </trkpt>
      <trkpt lat="44.66022" lon="3.1877">
        <ele>1146.1999511719</ele>
        <time>2019-05-25T08:15:29Z</time>
      </trkpt>
      <trkpt lat="44.66027" lon="3.18753">
        <ele>1146.5999755859</ele>
        <time>2019-05-25T08:15:32Z</time>
      </trkpt>
      <trkpt lat="44.66027" lon="3.18746">
        <ele>1146.5999755859</ele>
        <time>2019-05-25T08:15:33Z</time>
      </trkpt>
      <trkpt lat="44.66025" lon="3.18732">
        <ele>1146.8000488281</ele>
        <time>2019-05-25T08:15:35Z</time>
      </trkpt>
      <trkpt lat="44.66022" lon="3.18714">
        <ele>1146.8000488281</ele>
        <time>2019-05-25T08:15:38Z</time>
      </trkpt>
      <trkpt lat="44.6602" lon="3.18708">
        <ele>1146.8000488281</ele>
        <time>2019-05-25T08:15:39Z</time>
      </trkpt>
      <trkpt lat="44.66019" lon="3.18695">
        <ele>1147</ele>
        <time>2019-05-25T08:15:41Z</time>
      </trkpt>
      <trkpt lat="44.66017" lon="3.18682">
        <ele>1147</ele>
        <time>2019-05-25T08:15:43Z</time>
      </trkpt>
      <trkpt lat="44.66008" lon="3.18654">
        <ele>1147.4000244141</ele>
        <time>2019-05-25T08:15:48Z</time>
      </trkpt>
      <trkpt lat="44.66007" lon="3.18648">
        <ele>1147.4000244141</ele>
        <time>2019-05-25T08:15:49Z</time>
      </trkpt>
      <trkpt lat="44.66007" lon="3.18629">
        <ele>1147.4000244141</ele>
        <time>2019-05-25T08:15:52Z</time>
      </trkpt>
      <trkpt lat="44.66008" lon="3.18622">
        <ele>1147.5999755859</ele>
        <time>2019-05-25T08:15:53Z</time>
      </trkpt>
      <trkpt lat="44.66013" lon="3.18598">
        <ele>1148</ele>
        <time>2019-05-25T08:15:58Z</time>
      </trkpt>
      <trkpt lat="44.66013" lon="3.18583">
        <ele>1148.5999755859</ele>
        <time>2019-05-25T08:16:04Z</time>
      </trkpt>
      <trkpt lat="44.66011" lon="3.18563">
        <ele>1149.5999755859</ele>
        <time>2019-05-25T08:16:12Z</time>
      </trkpt>
      <trkpt lat="44.66012" lon="3.18543">
        <ele>1150.4000244141</ele>
        <time>2019-05-25T08:16:20Z</time>
      </trkpt>
      <trkpt lat="44.66012" lon="3.18524">
        <ele>1151</ele>
        <time>2019-05-25T08:16:27Z</time>
      </trkpt>
      <trkpt lat="44.66011" lon="3.18508">
        <ele>1151.5999755859</ele>
        <time>2019-05-25T08:16:32Z</time>
      </trkpt>
      <trkpt lat="44.6601" lon="3.18506">
        <ele>1151.5999755859</ele>
        <time>2019-05-25T08:16:33Z</time>
      </trkpt>
      <trkpt lat="44.66009" lon="3.18491">
        <ele>1152.1999511719</ele>
        <time>2019-05-25T08:16:38Z</time>
      </trkpt>
      <trkpt lat="44.66006" lon="3.18472">
        <ele>1152.8000488281</ele>
        <time>2019-05-25T08:16:44Z</time>
      </trkpt>
      <trkpt lat="44.66006" lon="3.18441">
        <ele>1153.4000244141</ele>
        <time>2019-05-25T08:16:52Z</time>
      </trkpt>
      <trkpt lat="44.66004" lon="3.18401">
        <ele>1154.1999511719</ele>
        <time>2019-05-25T08:17:02Z</time>
      </trkpt>
      <trkpt lat="44.66003" lon="3.18374">
        <ele>1154.8000488281</ele>
        <time>2019-05-25T08:17:09Z</time>
      </trkpt>
      <trkpt lat="44.65996" lon="3.18347">
        <ele>1155.5999755859</ele>
        <time>2019-05-25T08:17:16Z</time>
      </trkpt>
      <trkpt lat="44.66002" lon="3.18335">
        <ele>1155.8000488281</ele>
        <time>2019-05-25T08:17:20Z</time>
      </trkpt>
      <trkpt lat="44.6602" lon="3.18316">
        <ele>1156.5999755859</ele>
        <time>2019-05-25T08:17:28Z</time>
      </trkpt>
      <trkpt lat="44.66033" lon="3.18298">
        <ele>1157.1999511719</ele>
        <time>2019-05-25T08:17:35Z</time>
      </trkpt>
      <trkpt lat="44.66032" lon="3.18292">
        <ele>1157.5999755859</ele>
        <time>2019-05-25T08:17:37Z</time>
      </trkpt>
      <trkpt lat="44.66028" lon="3.18286">
        <ele>1157.8000488281</ele>
        <time>2019-05-25T08:17:39Z</time>
      </trkpt>
      <trkpt lat="44.66012" lon="3.18267">
        <ele>1158.5999755859</ele>
        <time>2019-05-25T08:17:47Z</time>
      </trkpt>
      <trkpt lat="44.65998" lon="3.1825">
        <ele>1159.1999511719</ele>
        <time>2019-05-25T08:17:55Z</time>
      </trkpt>
      <trkpt lat="44.65986" lon="3.18235">
        <ele>1160</ele>
        <time>2019-05-25T08:18:02Z</time>
      </trkpt>
      <trkpt lat="44.65976" lon="3.18225">
        <ele>1160.8000488281</ele>
        <time>2019-05-25T08:18:07Z</time>
      </trkpt>
      <trkpt lat="44.65969" lon="3.18213">
        <ele>1161.4000244141</ele>
        <time>2019-05-25T08:18:12Z</time>
      </trkpt>
      <trkpt lat="44.6596" lon="3.18202">
        <ele>1162.1999511719</ele>
        <time>2019-05-25T08:18:18Z</time>
      </trkpt>
      <trkpt lat="44.65955" lon="3.18197">
        <ele>1162.5999755859</ele>
        <time>2019-05-25T08:18:21Z</time>
      </trkpt>
      <trkpt lat="44.65952" lon="3.18193">
        <ele>1162.8000488281</ele>
        <time>2019-05-25T08:18:23Z</time>
      </trkpt>
      <trkpt lat="44.65941" lon="3.18185">
        <ele>1163.4000244141</ele>
        <time>2019-05-25T08:18:29Z</time>
      </trkpt>
      <trkpt lat="44.65931" lon="3.18172">
        <ele>1164.5999755859</ele>
        <time>2019-05-25T08:18:36Z</time>
      </trkpt>
      <trkpt lat="44.65918" lon="3.18164">
        <ele>1165</ele>
        <time>2019-05-25T08:18:40Z</time>
      </trkpt>
      <trkpt lat="44.65889" lon="3.18164">
        <ele>1165.5999755859</ele>
        <time>2019-05-25T08:18:46Z</time>
      </trkpt>
      <trkpt lat="44.65878" lon="3.18166">
        <ele>1165.5999755859</ele>
        <time>2019-05-25T08:18:48Z</time>
      </trkpt>
      <trkpt lat="44.65864" lon="3.18173">
        <ele>1165.8000488281</ele>
        <time>2019-05-25T08:18:51Z</time>
      </trkpt>
      <trkpt lat="44.65844" lon="3.18193">
        <ele>1166.1999511719</ele>
        <time>2019-05-25T08:18:56Z</time>
      </trkpt>
      <trkpt lat="44.65826" lon="3.18212">
        <ele>1167</ele>
        <time>2019-05-25T08:19:02Z</time>
      </trkpt>
      <trkpt lat="44.65816" lon="3.18217">
        <ele>1167.4000244141</ele>
        <time>2019-05-25T08:19:06Z</time>
      </trkpt>
      <trkpt lat="44.65814" lon="3.18218">
        <ele>1167.4000244141</ele>
        <time>2019-05-25T08:19:07Z</time>
      </trkpt>
      <trkpt lat="44.65808" lon="3.18224">
        <ele>1167.8000488281</ele>
        <time>2019-05-25T08:19:10Z</time>
      </trkpt>
      <trkpt lat="44.65791" lon="3.18241">
        <ele>1169</ele>
        <time>2019-05-25T08:19:18Z</time>
      </trkpt>
      <trkpt lat="44.65784" lon="3.1825">
        <ele>1169.5999755859</ele>
        <time>2019-05-25T08:19:23Z</time>
      </trkpt>
      <trkpt lat="44.65776" lon="3.18258">
        <ele>1170.4000244141</ele>
        <time>2019-05-25T08:19:28Z</time>
      </trkpt>
      <trkpt lat="44.65762" lon="3.18271">
        <ele>1171.4000244141</ele>
        <time>2019-05-25T08:19:36Z</time>
      </trkpt>
      <trkpt lat="44.65748" lon="3.18271">
        <ele>1172</ele>
        <time>2019-05-25T08:19:42Z</time>
      </trkpt>
      <trkpt lat="44.65734" lon="3.18267">
        <ele>1173</ele>
        <time>2019-05-25T08:19:49Z</time>
      </trkpt>
      <trkpt lat="44.65727" lon="3.18266">
        <ele>1173.1999511719</ele>
        <time>2019-05-25T08:19:52Z</time>
      </trkpt>
      <trkpt lat="44.65722" lon="3.18264">
        <ele>1173.5999755859</ele>
        <time>2019-05-25T08:19:54Z</time>
      </trkpt>
      <trkpt lat="44.65708" lon="3.18261">
        <ele>1174.1999511719</ele>
        <time>2019-05-25T08:20:00Z</time>
      </trkpt>
      <trkpt lat="44.65704" lon="3.1826">
        <ele>1174.5999755859</ele>
        <time>2019-05-25T08:20:02Z</time>
      </trkpt>
      <trkpt lat="44.65699" lon="3.18261">
        <ele>1175</ele>
        <time>2019-05-25T08:20:05Z</time>
      </trkpt>
      <trkpt lat="44.65689" lon="3.18264">
        <ele>1176</ele>
        <time>2019-05-25T08:20:11Z</time>
      </trkpt>
      <trkpt lat="44.65679" lon="3.18263">
        <ele>1176.5999755859</ele>
        <time>2019-05-25T08:20:16Z</time>
      </trkpt>
      <trkpt lat="44.65665" lon="3.18262">
        <ele>1177.4000244141</ele>
        <time>2019-05-25T08:20:22Z</time>
      </trkpt>
      <trkpt lat="44.65653" lon="3.18259">
        <ele>1178.4000244141</ele>
        <time>2019-05-25T08:20:28Z</time>
      </trkpt>
      <trkpt lat="44.65639" lon="3.18253">
        <ele>1179.4000244141</ele>
        <time>2019-05-25T08:20:35Z</time>
      </trkpt>
      <trkpt lat="44.6563" lon="3.18251">
        <ele>1180</ele>
        <time>2019-05-25T08:20:39Z</time>
      </trkpt>
      <trkpt lat="44.65625" lon="3.1825">
        <ele>1180</ele>
        <time>2019-05-25T08:20:40Z</time>
      </trkpt>
      <trkpt lat="44.65613" lon="3.18249">
        <ele>1180.1999511719</ele>
        <time>2019-05-25T08:20:42Z</time>
      </trkpt>
      <trkpt lat="44.65607" lon="3.18248">
        <ele>1180.4000244141</ele>
        <time>2019-05-25T08:20:43Z</time>
      </trkpt>
      <trkpt lat="44.65585" lon="3.18245">
        <ele>1180.5999755859</ele>
        <time>2019-05-25T08:20:47Z</time>
      </trkpt>
      <trkpt lat="44.65579" lon="3.18245">
        <ele>1180.8000488281</ele>
        <time>2019-05-25T08:20:48Z</time>
      </trkpt>
      <trkpt lat="44.65539" lon="3.18245">
        <ele>1181.1999511719</ele>
        <time>2019-05-25T08:20:55Z</time>
      </trkpt>
      <trkpt lat="44.65533" lon="3.18245">
        <ele>1181.4000244141</ele>
        <time>2019-05-25T08:20:56Z</time>
      </trkpt>
      <trkpt lat="44.65517" lon="3.18244">
        <ele>1181.4000244141</ele>
        <time>2019-05-25T08:20:59Z</time>
      </trkpt>
      <trkpt lat="44.65511" lon="3.18243">
        <ele>1181.4000244141</ele>
        <time>2019-05-25T08:21:00Z</time>
      </trkpt>
      <trkpt lat="44.65493" lon="3.18243">
        <ele>1181.1999511719</ele>
        <time>2019-05-25T08:21:03Z</time>
      </trkpt>
      <trkpt lat="44.65482" lon="3.18243">
        <ele>1181.5999755859</ele>
        <time>2019-05-25T08:21:07Z</time>
      </trkpt>
      <trkpt lat="44.65473" lon="3.18244">
        <ele>1182.1999511719</ele>
        <time>2019-05-25T08:21:13Z</time>
      </trkpt>
      <trkpt lat="44.65463" lon="3.18245">
        <ele>1183</ele>
        <time>2019-05-25T08:21:21Z</time>
      </trkpt>
      <trkpt lat="44.65453" lon="3.18245">
        <ele>1183.4000244141</ele>
        <time>2019-05-25T08:21:27Z</time>
      </trkpt>
      <trkpt lat="44.65433" lon="3.18241">
        <ele>1185.4000244141</ele>
        <time>2019-05-25T08:21:42Z</time>
      </trkpt>
      <trkpt lat="44.65432" lon="3.18241">
        <ele>1185.5999755859</ele>
        <time>2019-05-25T08:21:43Z</time>
      </trkpt>
      <trkpt lat="44.65429" lon="3.18241">
        <ele>1185.8000488281</ele>
        <time>2019-05-25T08:21:45Z</time>
      </trkpt>
      <trkpt lat="44.65425" lon="3.18241">
        <ele>1186.1999511719</ele>
        <time>2019-05-25T08:21:48Z</time>
      </trkpt>
      <trkpt lat="44.65423" lon="3.1824">
        <ele>1186.4000244141</ele>
        <time>2019-05-25T08:21:49Z</time>
      </trkpt>
      <trkpt lat="44.65415" lon="3.18239">
        <ele>1186.8000488281</ele>
        <time>2019-05-25T08:21:53Z</time>
      </trkpt>
      <trkpt lat="44.65412" lon="3.18239">
        <ele>1187.1999511719</ele>
        <time>2019-05-25T08:21:55Z</time>
      </trkpt>
      <trkpt lat="44.65404" lon="3.18239">
        <ele>1188</ele>
        <time>2019-05-25T08:22:01Z</time>
      </trkpt>
      <trkpt lat="44.65403" lon="3.18238">
        <ele>1188</ele>
        <time>2019-05-25T08:22:02Z</time>
      </trkpt>
      <trkpt lat="44.65391" lon="3.18237">
        <ele>1189.4000244141</ele>
        <time>2019-05-25T08:22:09Z</time>
      </trkpt>
      <trkpt lat="44.65387" lon="3.18237">
        <ele>1189.8000488281</ele>
        <time>2019-05-25T08:22:11Z</time>
      </trkpt>
      <trkpt lat="44.65374" lon="3.18237">
        <ele>1190.5999755859</ele>
        <time>2019-05-25T08:22:18Z</time>
      </trkpt>
      <trkpt lat="44.65356" lon="3.18236">
        <ele>1191.1999511719</ele>
        <time>2019-05-25T08:22:23Z</time>
      </trkpt>
      <trkpt lat="44.65339" lon="3.18238">
        <ele>1191.5999755859</ele>
        <time>2019-05-25T08:22:28Z</time>
      </trkpt>
      <trkpt lat="44.65325" lon="3.1824">
        <ele>1192</ele>
        <time>2019-05-25T08:22:33Z</time>
      </trkpt>
      <trkpt lat="44.65317" lon="3.18241">
        <ele>1192.5999755859</ele>
        <time>2019-05-25T08:22:38Z</time>
      </trkpt>
      <trkpt lat="44.65307" lon="3.18238">
        <ele>1193.4000244141</ele>
        <time>2019-05-25T08:22:43Z</time>
      </trkpt>
      <trkpt lat="44.65289" lon="3.18228">
        <ele>1194.1999511719</ele>
        <time>2019-05-25T08:22:49Z</time>
      </trkpt>
      <trkpt lat="44.6527" lon="3.18214">
        <ele>1194.5999755859</ele>
        <time>2019-05-25T08:22:55Z</time>
      </trkpt>
      <trkpt lat="44.65251" lon="3.18201">
        <ele>1195</ele>
        <time>2019-05-25T08:23:00Z</time>
      </trkpt>
      <trkpt lat="44.65229" lon="3.18178">
        <ele>1195.4000244141</ele>
        <time>2019-05-25T08:23:05Z</time>
      </trkpt>
      <trkpt lat="44.65211" lon="3.18149">
        <ele>1195.8000488281</ele>
        <time>2019-05-25T08:23:10Z</time>
      </trkpt>
      <trkpt lat="44.652" lon="3.18129">
        <ele>1196</ele>
        <time>2019-05-25T08:23:14Z</time>
      </trkpt>
      <trkpt lat="44.65191" lon="3.18114">
        <ele>1196.1999511719</ele>
        <time>2019-05-25T08:23:17Z</time>
      </trkpt>
      <trkpt lat="44.65177" lon="3.18083">
        <ele>1196.5999755859</ele>
        <time>2019-05-25T08:23:23Z</time>
      </trkpt>
      <trkpt lat="44.65172" lon="3.18072">
        <ele>1196.5999755859</ele>
        <time>2019-05-25T08:23:25Z</time>
      </trkpt>
      <trkpt lat="44.65167" lon="3.18061">
        <ele>1196.5999755859</ele>
        <time>2019-05-25T08:23:27Z</time>
      </trkpt>
      <trkpt lat="44.65158" lon="3.1804">
        <ele>1196.5999755859</ele>
        <time>2019-05-25T08:23:31Z</time>
      </trkpt>
      <trkpt lat="44.65146" lon="3.18011">
        <ele>1196.5999755859</ele>
        <time>2019-05-25T08:23:36Z</time>
      </trkpt>
      <trkpt lat="44.65143" lon="3.18005">
        <ele>1196.5999755859</ele>
        <time>2019-05-25T08:23:37Z</time>
      </trkpt>
      <trkpt lat="44.65139" lon="3.18002">
        <ele>1196.5999755859</ele>
        <time>2019-05-25T08:23:38Z</time>
      </trkpt>
      <trkpt lat="44.65135" lon="3.18002">
        <ele>1196.5999755859</ele>
        <time>2019-05-25T08:23:39Z</time>
      </trkpt>
      <trkpt lat="44.65133" lon="3.18004">
        <ele>1196.5999755859</ele>
        <time>2019-05-25T08:23:40Z</time>
      </trkpt>
      <trkpt lat="44.65131" lon="3.18013">
        <ele>1196.5999755859</ele>
        <time>2019-05-25T08:23:42Z</time>
      </trkpt>
      <trkpt lat="44.65129" lon="3.18038">
        <ele>1196.5999755859</ele>
        <time>2019-05-25T08:23:46Z</time>
      </trkpt>
      <trkpt lat="44.65129" lon="3.18045">
        <ele>1196.5999755859</ele>
        <time>2019-05-25T08:23:47Z</time>
      </trkpt>
      <trkpt lat="44.65127" lon="3.1807">
        <ele>1196.5999755859</ele>
        <time>2019-05-25T08:23:52Z</time>
      </trkpt>
      <trkpt lat="44.65124" lon="3.18088">
        <ele>1196.4000244141</ele>
        <time>2019-05-25T08:23:56Z</time>
      </trkpt>
      <trkpt lat="44.6512" lon="3.18108">
        <ele>1196.1999511719</ele>
        <time>2019-05-25T08:24:00Z</time>
      </trkpt>
      <trkpt lat="44.65118" lon="3.18119">
        <ele>1196</ele>
        <time>2019-05-25T08:24:02Z</time>
      </trkpt>
      <trkpt lat="44.65117" lon="3.18136">
        <ele>1196</ele>
        <time>2019-05-25T08:24:05Z</time>
      </trkpt>
      <trkpt lat="44.65118" lon="3.18169">
        <ele>1196</ele>
        <time>2019-05-25T08:24:11Z</time>
      </trkpt>
      <trkpt lat="44.65125" lon="3.18192">
        <ele>1196</ele>
        <time>2019-05-25T08:24:16Z</time>
      </trkpt>
      <trkpt lat="44.65128" lon="3.182">
        <ele>1195.8000488281</ele>
        <time>2019-05-25T08:24:18Z</time>
      </trkpt>
      <trkpt lat="44.65129" lon="3.18209">
        <ele>1195.8000488281</ele>
        <time>2019-05-25T08:24:20Z</time>
      </trkpt>
      <trkpt lat="44.65132" lon="3.18216">
        <ele>1195.5999755859</ele>
        <time>2019-05-25T08:24:22Z</time>
      </trkpt>
      <trkpt lat="44.65133" lon="3.18224">
        <ele>1195.1999511719</ele>
        <time>2019-05-25T08:24:24Z</time>
      </trkpt>
      <trkpt lat="44.65134" lon="3.18229">
        <ele>1195</ele>
        <time>2019-05-25T08:24:26Z</time>
      </trkpt>
      <trkpt lat="44.65133" lon="3.18233">
        <ele>1195</ele>
        <time>2019-05-25T08:24:27Z</time>
      </trkpt>
      <trkpt lat="44.65138" lon="3.18253">
        <ele>1194.8000488281</ele>
        <time>2019-05-25T08:24:31Z</time>
      </trkpt>
      <trkpt lat="44.65142" lon="3.18272">
        <ele>1194.4000244141</ele>
        <time>2019-05-25T08:24:35Z</time>
      </trkpt>
      <trkpt lat="44.65142" lon="3.18276">
        <ele>1194.4000244141</ele>
        <time>2019-05-25T08:24:36Z</time>
      </trkpt>
      <trkpt lat="44.65144" lon="3.18287">
        <ele>1194.1999511719</ele>
        <time>2019-05-25T08:24:38Z</time>
      </trkpt>
      <trkpt lat="44.65145" lon="3.18296">
        <ele>1194.1999511719</ele>
        <time>2019-05-25T08:24:40Z</time>
      </trkpt>
      <trkpt lat="44.65145" lon="3.18301">
        <ele>1194.1999511719</ele>
        <time>2019-05-25T08:24:41Z</time>
      </trkpt>
      <trkpt lat="44.65147" lon="3.1832">
        <ele>1194.1999511719</ele>
        <time>2019-05-25T08:24:45Z</time>
      </trkpt>
      <trkpt lat="44.65147" lon="3.18346">
        <ele>1194</ele>
        <time>2019-05-25T08:24:50Z</time>
      </trkpt>
      <trkpt lat="44.65148" lon="3.18363">
        <ele>1193.8000488281</ele>
        <time>2019-05-25T08:24:53Z</time>
      </trkpt>
      <trkpt lat="44.65147" lon="3.18368">
        <ele>1193.8000488281</ele>
        <time>2019-05-25T08:24:54Z</time>
      </trkpt>
      <trkpt lat="44.65147" lon="3.18391">
        <ele>1194</ele>
        <time>2019-05-25T08:24:59Z</time>
      </trkpt>
      <trkpt lat="44.65149" lon="3.18401">
        <ele>1194.1999511719</ele>
        <time>2019-05-25T08:25:01Z</time>
      </trkpt>
      <trkpt lat="44.6515" lon="3.18406">
        <ele>1194.1999511719</ele>
        <time>2019-05-25T08:25:02Z</time>
      </trkpt>
      <trkpt lat="44.65152" lon="3.18421">
        <ele>1194.4000244141</ele>
        <time>2019-05-25T08:25:05Z</time>
      </trkpt>
      <trkpt lat="44.65154" lon="3.18426">
        <ele>1194.4000244141</ele>
        <time>2019-05-25T08:25:06Z</time>
      </trkpt>
      <trkpt lat="44.65155" lon="3.18432">
        <ele>1194.4000244141</ele>
        <time>2019-05-25T08:25:07Z</time>
      </trkpt>
      <trkpt lat="44.65155" lon="3.18443">
        <ele>1194.5999755859</ele>
        <time>2019-05-25T08:25:09Z</time>
      </trkpt>
      <trkpt lat="44.65151" lon="3.18471">
        <ele>1194.8000488281</ele>
        <time>2019-05-25T08:25:15Z</time>
      </trkpt>
      <trkpt lat="44.65151" lon="3.18476">
        <ele>1194.8000488281</ele>
        <time>2019-05-25T08:25:16Z</time>
      </trkpt>
      <trkpt lat="44.65153" lon="3.18486">
        <ele>1194.8000488281</ele>
        <time>2019-05-25T08:25:18Z</time>
      </trkpt>
      <trkpt lat="44.65156" lon="3.18508">
        <ele>1194.5999755859</ele>
        <time>2019-05-25T08:25:22Z</time>
      </trkpt>
      <trkpt lat="44.65162" lon="3.18538">
        <ele>1194.5999755859</ele>
        <time>2019-05-25T08:25:26Z</time>
      </trkpt>
      <trkpt lat="44.65161" lon="3.18546">
        <ele>1194.4000244141</ele>
        <time>2019-05-25T08:25:27Z</time>
      </trkpt>
      <trkpt lat="44.6516" lon="3.18553">
        <ele>1194.4000244141</ele>
        <time>2019-05-25T08:25:28Z</time>
      </trkpt>
      <trkpt lat="44.65153" lon="3.1857">
        <ele>1194.4000244141</ele>
        <time>2019-05-25T08:25:31Z</time>
      </trkpt>
      <trkpt lat="44.65144" lon="3.18587">
        <ele>1194.4000244141</ele>
        <time>2019-05-25T08:25:34Z</time>
      </trkpt>
      <trkpt lat="44.65138" lon="3.186">
        <ele>1194.1999511719</ele>
        <time>2019-05-25T08:25:36Z</time>
      </trkpt>
      <trkpt lat="44.65121" lon="3.18645">
        <ele>1194.8000488281</ele>
        <time>2019-05-25T08:25:43Z</time>
      </trkpt>
      <trkpt lat="44.65115" lon="3.18663">
        <ele>1195</ele>
        <time>2019-05-25T08:25:46Z</time>
      </trkpt>
      <trkpt lat="44.65112" lon="3.18675">
        <ele>1195</ele>
        <time>2019-05-25T08:25:48Z</time>
      </trkpt>
      <trkpt lat="44.65111" lon="3.18682">
        <ele>1195.1999511719</ele>
        <time>2019-05-25T08:25:49Z</time>
      </trkpt>
      <trkpt lat="44.65108" lon="3.18696">
        <ele>1195.1999511719</ele>
        <time>2019-05-25T08:25:51Z</time>
      </trkpt>
      <trkpt lat="44.65108" lon="3.18712">
        <ele>1195</ele>
        <time>2019-05-25T08:25:53Z</time>
      </trkpt>
      <trkpt lat="44.65109" lon="3.1872">
        <ele>1195</ele>
        <time>2019-05-25T08:25:54Z</time>
      </trkpt>
      <trkpt lat="44.65118" lon="3.18769">
        <ele>1194.5999755859</ele>
        <time>2019-05-25T08:25:59Z</time>
      </trkpt>
      <trkpt lat="44.65119" lon="3.1879">
        <ele>1194.5999755859</ele>
        <time>2019-05-25T08:26:01Z</time>
      </trkpt>
      <trkpt lat="44.65115" lon="3.18805">
        <ele>1194.4000244141</ele>
        <time>2019-05-25T08:26:03Z</time>
      </trkpt>
      <trkpt lat="44.65109" lon="3.18807">
        <ele>1194.4000244141</ele>
        <time>2019-05-25T08:26:05Z</time>
      </trkpt>
      <trkpt lat="44.65106" lon="3.18799">
        <ele>1194.1999511719</ele>
        <time>2019-05-25T08:26:07Z</time>
      </trkpt>
      <trkpt lat="44.65106" lon="3.18792">
        <ele>1194</ele>
        <time>2019-05-25T08:26:08Z</time>
      </trkpt>
      <trkpt lat="44.65106" lon="3.18786">
        <ele>1194</ele>
        <time>2019-05-25T08:26:09Z</time>
      </trkpt>
      <trkpt lat="44.65102" lon="3.18756">
        <ele>1193.5999755859</ele>
        <time>2019-05-25T08:26:14Z</time>
      </trkpt>
      <trkpt lat="44.65101" lon="3.1875">
        <ele>1193.4000244141</ele>
        <time>2019-05-25T08:26:15Z</time>
      </trkpt>
      <trkpt lat="44.65091" lon="3.1872">
        <ele>1193.1999511719</ele>
        <time>2019-05-25T08:26:21Z</time>
      </trkpt>
      <trkpt lat="44.65079" lon="3.18691">
        <ele>1193</ele>
        <time>2019-05-25T08:26:27Z</time>
      </trkpt>
      <trkpt lat="44.6507" lon="3.18683">
        <ele>1192.5999755859</ele>
        <time>2019-05-25T08:26:29Z</time>
      </trkpt>
      <trkpt lat="44.65065" lon="3.18682">
        <ele>1192.5999755859</ele>
        <time>2019-05-25T08:26:30Z</time>
      </trkpt>
      <trkpt lat="44.6505" lon="3.1868">
        <ele>1192.8000488281</ele>
        <time>2019-05-25T08:26:34Z</time>
      </trkpt>
      <trkpt lat="44.6504" lon="3.18677">
        <ele>1192.8000488281</ele>
        <time>2019-05-25T08:26:40Z</time>
      </trkpt>
      <trkpt lat="44.65033" lon="3.18674">
        <ele>1193.1999511719</ele>
        <time>2019-05-25T08:26:45Z</time>
      </trkpt>
      <trkpt lat="44.65023" lon="3.18672">
        <ele>1193.5999755859</ele>
        <time>2019-05-25T08:26:51Z</time>
      </trkpt>
      <trkpt lat="44.65014" lon="3.1867">
        <ele>1193.8000488281</ele>
        <time>2019-05-25T08:26:57Z</time>
      </trkpt>
      <trkpt lat="44.65005" lon="3.18668">
        <ele>1194.1999511719</ele>
        <time>2019-05-25T08:27:03Z</time>
      </trkpt>
      <trkpt lat="44.64997" lon="3.18667">
        <ele>1194.8000488281</ele>
        <time>2019-05-25T08:27:09Z</time>
      </trkpt>
      <trkpt lat="44.64988" lon="3.18668">
        <ele>1195.4000244141</ele>
        <time>2019-05-25T08:27:16Z</time>
      </trkpt>
      <trkpt lat="44.64981" lon="3.1867">
        <ele>1196</ele>
        <time>2019-05-25T08:27:21Z</time>
      </trkpt>
      <trkpt lat="44.64971" lon="3.18676">
        <ele>1196.5999755859</ele>
        <time>2019-05-25T08:27:28Z</time>
      </trkpt>
      <trkpt lat="44.64964" lon="3.18685">
        <ele>1197</ele>
        <time>2019-05-25T08:27:33Z</time>
      </trkpt>
      <trkpt lat="44.64956" lon="3.187">
        <ele>1197.8000488281</ele>
        <time>2019-05-25T08:27:39Z</time>
      </trkpt>
      <trkpt lat="44.64947" lon="3.18713">
        <ele>1198.4000244141</ele>
        <time>2019-05-25T08:27:45Z</time>
      </trkpt>
      <trkpt lat="44.64942" lon="3.18721">
        <ele>1198.5999755859</ele>
        <time>2019-05-25T08:27:48Z</time>
      </trkpt>
      <trkpt lat="44.64939" lon="3.18729">
        <ele>1198.8000488281</ele>
        <time>2019-05-25T08:27:51Z</time>
      </trkpt>
      <trkpt lat="44.64936" lon="3.18735">
        <ele>1198.8000488281</ele>
        <time>2019-05-25T08:27:53Z</time>
      </trkpt>
      <trkpt lat="44.64933" lon="3.18741">
        <ele>1199</ele>
        <time>2019-05-25T08:27:55Z</time>
      </trkpt>
      <trkpt lat="44.64927" lon="3.18754">
        <ele>1199</ele>
        <time>2019-05-25T08:27:59Z</time>
      </trkpt>
      <trkpt lat="44.64919" lon="3.18771">
        <ele>1198.5999755859</ele>
        <time>2019-05-25T08:28:04Z</time>
      </trkpt>
      <trkpt lat="44.64915" lon="3.18784">
        <ele>1198.5999755859</ele>
        <time>2019-05-25T08:28:07Z</time>
      </trkpt>
      <trkpt lat="44.64912" lon="3.18809">
        <ele>1198</ele>
        <time>2019-05-25T08:28:11Z</time>
      </trkpt>
      <trkpt lat="44.64909" lon="3.18823">
        <ele>1197.5999755859</ele>
        <time>2019-05-25T08:28:13Z</time>
      </trkpt>
      <trkpt lat="44.64903" lon="3.18836">
        <ele>1197.1999511719</ele>
        <time>2019-05-25T08:28:15Z</time>
      </trkpt>
      <trkpt lat="44.64896" lon="3.18848">
        <ele>1196.8000488281</ele>
        <time>2019-05-25T08:28:17Z</time>
      </trkpt>
      <trkpt lat="44.64887" lon="3.18856">
        <ele>1196.4000244141</ele>
        <time>2019-05-25T08:28:19Z</time>
      </trkpt>
      <trkpt lat="44.64876" lon="3.18863">
        <ele>1195.5999755859</ele>
        <time>2019-05-25T08:28:23Z</time>
      </trkpt>
      <trkpt lat="44.64861" lon="3.18866">
        <ele>1194.8000488281</ele>
        <time>2019-05-25T08:28:27Z</time>
      </trkpt>
      <trkpt lat="44.64853" lon="3.18867">
        <ele>1194.1999511719</ele>
        <time>2019-05-25T08:28:29Z</time>
      </trkpt>
      <trkpt lat="44.64841" lon="3.1887">
        <ele>1194</ele>
        <time>2019-05-25T08:28:31Z</time>
      </trkpt>
      <trkpt lat="44.64803" lon="3.18887">
        <ele>1192.5999755859</ele>
        <time>2019-05-25T08:28:37Z</time>
      </trkpt>
      <trkpt lat="44.64781" lon="3.18898">
        <ele>1191.5999755859</ele>
        <time>2019-05-25T08:28:41Z</time>
      </trkpt>
      <trkpt lat="44.64777" lon="3.18902">
        <ele>1191.4000244141</ele>
        <time>2019-05-25T08:28:42Z</time>
      </trkpt>
      <trkpt lat="44.64765" lon="3.18906">
        <ele>1190.4000244141</ele>
        <time>2019-05-25T08:28:46Z</time>
      </trkpt>
      <trkpt lat="44.64747" lon="3.18902">
        <ele>1188.5999755859</ele>
        <time>2019-05-25T08:28:51Z</time>
      </trkpt>
      <trkpt lat="44.64727" lon="3.18899">
        <ele>1187.4000244141</ele>
        <time>2019-05-25T08:28:54Z</time>
      </trkpt>
      <trkpt lat="44.64703" lon="3.18898">
        <ele>1186.5999755859</ele>
        <time>2019-05-25T08:28:57Z</time>
      </trkpt>
      <trkpt lat="44.64695" lon="3.189">
        <ele>1186.1999511719</ele>
        <time>2019-05-25T08:28:58Z</time>
      </trkpt>
      <trkpt lat="44.64688" lon="3.18902">
        <ele>1186</ele>
        <time>2019-05-25T08:28:59Z</time>
      </trkpt>
      <trkpt lat="44.64674" lon="3.18906">
        <ele>1185.4000244141</ele>
        <time>2019-05-25T08:29:01Z</time>
      </trkpt>
      <trkpt lat="44.64667" lon="3.18907">
        <ele>1185.1999511719</ele>
        <time>2019-05-25T08:29:02Z</time>
      </trkpt>
      <trkpt lat="44.64654" lon="3.18911">
        <ele>1185</ele>
        <time>2019-05-25T08:29:04Z</time>
      </trkpt>
      <trkpt lat="44.64636" lon="3.18912">
        <ele>1184.1999511719</ele>
        <time>2019-05-25T08:29:07Z</time>
      </trkpt>
      <trkpt lat="44.64628" lon="3.1891">
        <ele>1183.8000488281</ele>
        <time>2019-05-25T08:29:09Z</time>
      </trkpt>
      <trkpt lat="44.64625" lon="3.18911">
        <ele>1183.8000488281</ele>
        <time>2019-05-25T08:29:10Z</time>
      </trkpt>
      <trkpt lat="44.64608" lon="3.18917">
        <ele>1182.4000244141</ele>
        <time>2019-05-25T08:29:15Z</time>
      </trkpt>
      <trkpt lat="44.64598" lon="3.18924">
        <ele>1182</ele>
        <time>2019-05-25T08:29:19Z</time>
      </trkpt>
      <trkpt lat="44.64594" lon="3.18925">
        <ele>1181.8000488281</ele>
        <time>2019-05-25T08:29:20Z</time>
      </trkpt>
      <trkpt lat="44.6458" lon="3.18934">
        <ele>1181</ele>
        <time>2019-05-25T08:29:24Z</time>
      </trkpt>
      <trkpt lat="44.64574" lon="3.18948">
        <ele>1181.8000488281</ele>
        <time>2019-05-25T08:29:28Z</time>
      </trkpt>
      <trkpt lat="44.64571" lon="3.18961">
        <ele>1182.8000488281</ele>
        <time>2019-05-25T08:29:32Z</time>
      </trkpt>
      <trkpt lat="44.64565" lon="3.18965">
        <ele>1183</ele>
        <time>2019-05-25T08:29:35Z</time>
      </trkpt>
      <trkpt lat="44.64555" lon="3.18972">
        <ele>1183.5999755859</ele>
        <time>2019-05-25T08:29:39Z</time>
      </trkpt>
      <trkpt lat="44.64543" lon="3.18981">
        <ele>1183.5999755859</ele>
        <time>2019-05-25T08:29:44Z</time>
      </trkpt>
      <trkpt lat="44.6454" lon="3.18981">
        <ele>1183.8000488281</ele>
        <time>2019-05-25T08:29:45Z</time>
      </trkpt>
      <trkpt lat="44.64535" lon="3.1898">
        <ele>1184.1999511719</ele>
        <time>2019-05-25T08:29:47Z</time>
      </trkpt>
      <trkpt lat="44.64525" lon="3.18983">
        <ele>1185</ele>
        <time>2019-05-25T08:29:50Z</time>
      </trkpt>
      <trkpt lat="44.64518" lon="3.18982">
        <ele>1185.1999511719</ele>
        <time>2019-05-25T08:29:52Z</time>
      </trkpt>
      <trkpt lat="44.64516" lon="3.18981">
        <ele>1185.4000244141</ele>
        <time>2019-05-25T08:29:53Z</time>
      </trkpt>
      <trkpt lat="44.64512" lon="3.18979">
        <ele>1185.5999755859</ele>
        <time>2019-05-25T08:29:55Z</time>
      </trkpt>
      <trkpt lat="44.6451" lon="3.18978">
        <ele>1185.8000488281</ele>
        <time>2019-05-25T08:29:56Z</time>
      </trkpt>
      <trkpt lat="44.64507" lon="3.18976">
        <ele>1186</ele>
        <time>2019-05-25T08:29:57Z</time>
      </trkpt>
      <trkpt lat="44.64499" lon="3.18976">
        <ele>1186.1999511719</ele>
        <time>2019-05-25T08:29:59Z</time>
      </trkpt>
      <trkpt lat="44.64497" lon="3.18973">
        <ele>1186.4000244141</ele>
        <time>2019-05-25T08:30:00Z</time>
      </trkpt>
      <trkpt lat="44.64494" lon="3.1897">
        <ele>1186.5999755859</ele>
        <time>2019-05-25T08:30:02Z</time>
      </trkpt>
      <trkpt lat="44.64487" lon="3.18968">
        <ele>1187</ele>
        <time>2019-05-25T08:30:04Z</time>
      </trkpt>
      <trkpt lat="44.64451" lon="3.18964">
        <ele>1187.1999511719</ele>
        <time>2019-05-25T08:30:08Z</time>
      </trkpt>
      <trkpt lat="44.64434" lon="3.18963">
        <ele>1187.4000244141</ele>
        <time>2019-05-25T08:30:10Z</time>
      </trkpt>
      <trkpt lat="44.6442" lon="3.18965">
        <ele>1187.8000488281</ele>
        <time>2019-05-25T08:30:12Z</time>
      </trkpt>
      <trkpt lat="44.64407" lon="3.18969">
        <ele>1188.1999511719</ele>
        <time>2019-05-25T08:30:14Z</time>
      </trkpt>
      <trkpt lat="44.644" lon="3.18972">
        <ele>1188.4000244141</ele>
        <time>2019-05-25T08:30:15Z</time>
      </trkpt>
      <trkpt lat="44.6438" lon="3.18984">
        <ele>1188.5999755859</ele>
        <time>2019-05-25T08:30:18Z</time>
      </trkpt>
      <trkpt lat="44.64372" lon="3.18985">
        <ele>1188.8000488281</ele>
        <time>2019-05-25T08:30:19Z</time>
      </trkpt>
      <trkpt lat="44.64363" lon="3.1898">
        <ele>1188.8000488281</ele>
        <time>2019-05-25T08:30:21Z</time>
      </trkpt>
      <trkpt lat="44.64359" lon="3.18974">
        <ele>1189</ele>
        <time>2019-05-25T08:30:22Z</time>
      </trkpt>
      <trkpt lat="44.64355" lon="3.18969">
        <ele>1189</ele>
        <time>2019-05-25T08:30:23Z</time>
      </trkpt>
      <trkpt lat="44.6434" lon="3.18961">
        <ele>1189.4000244141</ele>
        <time>2019-05-25T08:30:26Z</time>
      </trkpt>
      <trkpt lat="44.64334" lon="3.18958">
        <ele>1189.4000244141</ele>
        <time>2019-05-25T08:30:27Z</time>
      </trkpt>
      <trkpt lat="44.64322" lon="3.18951">
        <ele>1189.5999755859</ele>
        <time>2019-05-25T08:30:29Z</time>
      </trkpt>
      <trkpt lat="44.64317" lon="3.18946">
        <ele>1189.5999755859</ele>
        <time>2019-05-25T08:30:30Z</time>
      </trkpt>
      <trkpt lat="44.64311" lon="3.18942">
        <ele>1189.5999755859</ele>
        <time>2019-05-25T08:30:31Z</time>
      </trkpt>
      <trkpt lat="44.64302" lon="3.18931">
        <ele>1189.8000488281</ele>
        <time>2019-05-25T08:30:33Z</time>
      </trkpt>
      <trkpt lat="44.64294" lon="3.18921">
        <ele>1189.8000488281</ele>
        <time>2019-05-25T08:30:35Z</time>
      </trkpt>
      <trkpt lat="44.64286" lon="3.18911">
        <ele>1190</ele>
        <time>2019-05-25T08:30:37Z</time>
      </trkpt>
      <trkpt lat="44.64281" lon="3.18906">
        <ele>1190.1999511719</ele>
        <time>2019-05-25T08:30:38Z</time>
      </trkpt>
      <trkpt lat="44.64278" lon="3.18901">
        <ele>1190.1999511719</ele>
        <time>2019-05-25T08:30:39Z</time>
      </trkpt>
      <trkpt lat="44.6427" lon="3.18892">
        <ele>1190.4000244141</ele>
        <time>2019-05-25T08:30:41Z</time>
      </trkpt>
      <trkpt lat="44.64263" lon="3.1889">
        <ele>1191</ele>
        <time>2019-05-25T08:30:44Z</time>
      </trkpt>
      <trkpt lat="44.6426" lon="3.18893">
        <ele>1191.1999511719</ele>
        <time>2019-05-25T08:30:45Z</time>
      </trkpt>
      <trkpt lat="44.64251" lon="3.18904">
        <ele>1191.1999511719</ele>
        <time>2019-05-25T08:30:47Z</time>
      </trkpt>
      <trkpt lat="44.64237" lon="3.18917">
        <ele>1191.4000244141</ele>
        <time>2019-05-25T08:30:50Z</time>
      </trkpt>
      <trkpt lat="44.64227" lon="3.1893">
        <ele>1191.8000488281</ele>
        <time>2019-05-25T08:30:54Z</time>
      </trkpt>
      <trkpt lat="44.6421" lon="3.18932">
        <ele>1192.1999511719</ele>
        <time>2019-05-25T08:30:57Z</time>
      </trkpt>
      <trkpt lat="44.64204" lon="3.18932">
        <ele>1192.4000244141</ele>
        <time>2019-05-25T08:30:58Z</time>
      </trkpt>
      <trkpt lat="44.64188" lon="3.18927">
        <ele>1192.8000488281</ele>
        <time>2019-05-25T08:31:01Z</time>
      </trkpt>
      <trkpt lat="44.64172" lon="3.18924">
        <ele>1193.1999511719</ele>
        <time>2019-05-25T08:31:05Z</time>
      </trkpt>
      <trkpt lat="44.64169" lon="3.18924">
        <ele>1193.4000244141</ele>
        <time>2019-05-25T08:31:06Z</time>
      </trkpt>
      <trkpt lat="44.6416" lon="3.18921">
        <ele>1193.8000488281</ele>
        <time>2019-05-25T08:31:09Z</time>
      </trkpt>
      <trkpt lat="44.64144" lon="3.1892">
        <ele>1194.8000488281</ele>
        <time>2019-05-25T08:31:14Z</time>
      </trkpt>
      <trkpt lat="44.64142" lon="3.18919">
        <ele>1195</ele>
        <time>2019-05-25T08:31:15Z</time>
      </trkpt>
      <trkpt lat="44.64137" lon="3.18918">
        <ele>1195.4000244141</ele>
        <time>2019-05-25T08:31:17Z</time>
      </trkpt>
      <trkpt lat="44.64132" lon="3.18917">
        <ele>1195.4000244141</ele>
        <time>2019-05-25T08:31:18Z</time>
      </trkpt>
      <trkpt lat="44.64125" lon="3.18915">
        <ele>1195.5999755859</ele>
        <time>2019-05-25T08:31:20Z</time>
      </trkpt>
      <trkpt lat="44.64118" lon="3.1891">
        <ele>1195.8000488281</ele>
        <time>2019-05-25T08:31:23Z</time>
      </trkpt>
      <trkpt lat="44.64098" lon="3.18895">
        <ele>1196.5999755859</ele>
        <time>2019-05-25T08:31:31Z</time>
      </trkpt>
      <trkpt lat="44.64095" lon="3.18893">
        <ele>1196.5999755859</ele>
        <time>2019-05-25T08:31:32Z</time>
      </trkpt>
      <trkpt lat="44.6409" lon="3.18888">
        <ele>1196.8000488281</ele>
        <time>2019-05-25T08:31:34Z</time>
      </trkpt>
      <trkpt lat="44.64083" lon="3.1888">
        <ele>1196.8000488281</ele>
        <time>2019-05-25T08:31:37Z</time>
      </trkpt>
      <trkpt lat="44.64076" lon="3.18862">
        <ele>1197</ele>
        <time>2019-05-25T08:31:41Z</time>
      </trkpt>
      <trkpt lat="44.64072" lon="3.18845">
        <ele>1197.1999511719</ele>
        <time>2019-05-25T08:31:45Z</time>
      </trkpt>
      <trkpt lat="44.64072" lon="3.18841">
        <ele>1197.4000244141</ele>
        <time>2019-05-25T08:31:46Z</time>
      </trkpt>
      <trkpt lat="44.64071" lon="3.18834">
        <ele>1197.4000244141</ele>
        <time>2019-05-25T08:31:48Z</time>
      </trkpt>
      <trkpt lat="44.6407" lon="3.18818">
        <ele>1197.4000244141</ele>
        <time>2019-05-25T08:31:52Z</time>
      </trkpt>
      <trkpt lat="44.64071" lon="3.18814">
        <ele>1197.4000244141</ele>
        <time>2019-05-25T08:31:53Z</time>
      </trkpt>
      <trkpt lat="44.64071" lon="3.1881">
        <ele>1197.4000244141</ele>
        <time>2019-05-25T08:31:54Z</time>
      </trkpt>
      <trkpt lat="44.64067" lon="3.18802">
        <ele>1197.4000244141</ele>
        <time>2019-05-25T08:31:56Z</time>
      </trkpt>
      <trkpt lat="44.64059" lon="3.18787">
        <ele>1197.5999755859</ele>
        <time>2019-05-25T08:31:58Z</time>
      </trkpt>
      <trkpt lat="44.64056" lon="3.18779">
        <ele>1197.5999755859</ele>
        <time>2019-05-25T08:31:59Z</time>
      </trkpt>
      <trkpt lat="44.64049" lon="3.18752">
        <ele>1197.4000244141</ele>
        <time>2019-05-25T08:32:02Z</time>
      </trkpt>
      <trkpt lat="44.64046" lon="3.18742">
        <ele>1197.1999511719</ele>
        <time>2019-05-25T08:32:03Z</time>
      </trkpt>
      <trkpt lat="44.64044" lon="3.18733">
        <ele>1197.1999511719</ele>
        <time>2019-05-25T08:32:04Z</time>
      </trkpt>
      <trkpt lat="44.64039" lon="3.18715">
        <ele>1197</ele>
        <time>2019-05-25T08:32:06Z</time>
      </trkpt>
      <trkpt lat="44.64036" lon="3.18697">
        <ele>1196.8000488281</ele>
        <time>2019-05-25T08:32:08Z</time>
      </trkpt>
      <trkpt lat="44.64035" lon="3.18679">
        <ele>1196.8000488281</ele>
        <time>2019-05-25T08:32:10Z</time>
      </trkpt>
      <trkpt lat="44.64036" lon="3.18655">
        <ele>1196.4000244141</ele>
        <time>2019-05-25T08:32:14Z</time>
      </trkpt>
      <trkpt lat="44.64037" lon="3.18641">
        <ele>1196.1999511719</ele>
        <time>2019-05-25T08:32:17Z</time>
      </trkpt>
      <trkpt lat="44.64036" lon="3.1862">
        <ele>1195.8000488281</ele>
        <time>2019-05-25T08:32:22Z</time>
      </trkpt>
      <trkpt lat="44.64033" lon="3.18608">
        <ele>1195.4000244141</ele>
        <time>2019-05-25T08:32:25Z</time>
      </trkpt>
      <trkpt lat="44.6403" lon="3.18605">
        <ele>1195.4000244141</ele>
        <time>2019-05-25T08:32:26Z</time>
      </trkpt>
      <trkpt lat="44.64028" lon="3.18605">
        <ele>1195.1999511719</ele>
        <time>2019-05-25T08:32:27Z</time>
      </trkpt>
      <trkpt lat="44.64021" lon="3.18605">
        <ele>1195</ele>
        <time>2019-05-25T08:32:29Z</time>
      </trkpt>
      <trkpt lat="44.63999" lon="3.18615">
        <ele>1194.5999755859</ele>
        <time>2019-05-25T08:32:34Z</time>
      </trkpt>
      <trkpt lat="44.63985" lon="3.18625">
        <ele>1194.1999511719</ele>
        <time>2019-05-25T08:32:38Z</time>
      </trkpt>
      <trkpt lat="44.63974" lon="3.18636">
        <ele>1193.8000488281</ele>
        <time>2019-05-25T08:32:41Z</time>
      </trkpt>
      <trkpt lat="44.63961" lon="3.18657">
        <ele>1193.1999511719</ele>
        <time>2019-05-25T08:32:46Z</time>
      </trkpt>
      <trkpt lat="44.63957" lon="3.18666">
        <ele>1193</ele>
        <time>2019-05-25T08:32:48Z</time>
      </trkpt>
      <trkpt lat="44.63954" lon="3.18676">
        <ele>1192.8000488281</ele>
        <time>2019-05-25T08:32:50Z</time>
      </trkpt>
      <trkpt lat="44.63956" lon="3.18688">
        <ele>1192.4000244141</ele>
        <time>2019-05-25T08:32:52Z</time>
      </trkpt>
      <trkpt lat="44.63958" lon="3.18699">
        <ele>1192.1999511719</ele>
        <time>2019-05-25T08:32:54Z</time>
      </trkpt>
      <trkpt lat="44.63952" lon="3.18725">
        <ele>1191.4000244141</ele>
        <time>2019-05-25T08:32:59Z</time>
      </trkpt>
      <trkpt lat="44.6395" lon="3.18729">
        <ele>1191.4000244141</ele>
        <time>2019-05-25T08:33:00Z</time>
      </trkpt>
      <trkpt lat="44.63946" lon="3.18735">
        <ele>1191</ele>
        <time>2019-05-25T08:33:02Z</time>
      </trkpt>
      <trkpt lat="44.63935" lon="3.18753">
        <ele>1190.1999511719</ele>
        <time>2019-05-25T08:33:08Z</time>
      </trkpt>
      <trkpt lat="44.63921" lon="3.18765">
        <ele>1189</ele>
        <time>2019-05-25T08:33:13Z</time>
      </trkpt>
      <trkpt lat="44.63906" lon="3.18791">
        <ele>1186.8000488281</ele>
        <time>2019-05-25T08:33:21Z</time>
      </trkpt>
      <trkpt lat="44.63896" lon="3.18813">
        <ele>1185.4000244141</ele>
        <time>2019-05-25T08:33:26Z</time>
      </trkpt>
      <trkpt lat="44.63884" lon="3.18842">
        <ele>1183</ele>
        <time>2019-05-25T08:33:33Z</time>
      </trkpt>
      <trkpt lat="44.63874" lon="3.18866">
        <ele>1180.8000488281</ele>
        <time>2019-05-25T08:33:38Z</time>
      </trkpt>
      <trkpt lat="44.63865" lon="3.18887">
        <ele>1178.4000244141</ele>
        <time>2019-05-25T08:33:43Z</time>
      </trkpt>
      <trkpt lat="44.63853" lon="3.18905">
        <ele>1175.8000488281</ele>
        <time>2019-05-25T08:33:48Z</time>
      </trkpt>
      <trkpt lat="44.6384" lon="3.18928">
        <ele>1172.5999755859</ele>
        <time>2019-05-25T08:33:54Z</time>
      </trkpt>
      <trkpt lat="44.63828" lon="3.18948">
        <ele>1169.5999755859</ele>
        <time>2019-05-25T08:33:59Z</time>
      </trkpt>
      <trkpt lat="44.63813" lon="3.1897">
        <ele>1165.8000488281</ele>
        <time>2019-05-25T08:34:05Z</time>
      </trkpt>
      <trkpt lat="44.63801" lon="3.18999">
        <ele>1165.1999511719</ele>
        <time>2019-05-25T08:34:11Z</time>
      </trkpt>
      <trkpt lat="44.6379" lon="3.19019">
        <ele>1163.8000488281</ele>
        <time>2019-05-25T08:34:17Z</time>
      </trkpt>
      <trkpt lat="44.63781" lon="3.19028">
        <ele>1162</ele>
        <time>2019-05-25T08:34:20Z</time>
      </trkpt>
      <trkpt lat="44.63778" lon="3.19031">
        <ele>1161.4000244141</ele>
        <time>2019-05-25T08:34:21Z</time>
      </trkpt>
      <trkpt lat="44.63775" lon="3.19035">
        <ele>1160.8000488281</ele>
        <time>2019-05-25T08:34:22Z</time>
      </trkpt>
      <trkpt lat="44.63769" lon="3.19042">
        <ele>1159.8000488281</ele>
        <time>2019-05-25T08:34:24Z</time>
      </trkpt>
      <trkpt lat="44.63769" lon="3.19046">
        <ele>1160</ele>
        <time>2019-05-25T08:34:25Z</time>
      </trkpt>
      <trkpt lat="44.6378" lon="3.19094">
        <ele>1166.8000488281</ele>
        <time>2019-05-25T08:34:32Z</time>
      </trkpt>
      <trkpt lat="44.63772" lon="3.19137">
        <ele>1169.1999511719</ele>
        <time>2019-05-25T08:34:39Z</time>
      </trkpt>
      <trkpt lat="44.63761" lon="3.19166">
        <ele>1170.8000488281</ele>
        <time>2019-05-25T08:34:45Z</time>
      </trkpt>
      <trkpt lat="44.63751" lon="3.19184">
        <ele>1171.4000244141</ele>
        <time>2019-05-25T08:34:49Z</time>
      </trkpt>
      <trkpt lat="44.63748" lon="3.19188">
        <ele>1171.5999755859</ele>
        <time>2019-05-25T08:34:50Z</time>
      </trkpt>
      <trkpt lat="44.63745" lon="3.19192">
        <ele>1171.5999755859</ele>
        <time>2019-05-25T08:34:51Z</time>
      </trkpt>
      <trkpt lat="44.63736" lon="3.192">
        <ele>1171.8000488281</ele>
        <time>2019-05-25T08:34:53Z</time>
      </trkpt>
      <trkpt lat="44.63721" lon="3.19206">
        <ele>1172.4000244141</ele>
        <time>2019-05-25T08:34:56Z</time>
      </trkpt>
      <trkpt lat="44.63715" lon="3.19208">
        <ele>1172.5999755859</ele>
        <time>2019-05-25T08:34:57Z</time>
      </trkpt>
      <trkpt lat="44.6371" lon="3.19209">
        <ele>1172.8000488281</ele>
        <time>2019-05-25T08:34:58Z</time>
      </trkpt>
      <trkpt lat="44.63686" lon="3.19211">
        <ele>1173.8000488281</ele>
        <time>2019-05-25T08:35:02Z</time>
      </trkpt>
      <trkpt lat="44.63677" lon="3.19214">
        <ele>1174.4000244141</ele>
        <time>2019-05-25T08:35:04Z</time>
      </trkpt>
      <trkpt lat="44.63654" lon="3.19223">
        <ele>1174.8000488281</ele>
        <time>2019-05-25T08:35:08Z</time>
      </trkpt>
      <trkpt lat="44.63625" lon="3.19233">
        <ele>1175.4000244141</ele>
        <time>2019-05-25T08:35:13Z</time>
      </trkpt>
      <trkpt lat="44.6362" lon="3.19233">
        <ele>1175.4000244141</ele>
        <time>2019-05-25T08:35:14Z</time>
      </trkpt>
      <trkpt lat="44.63602" lon="3.19235">
        <ele>1175.5999755859</ele>
        <time>2019-05-25T08:35:17Z</time>
      </trkpt>
      <trkpt lat="44.63578" lon="3.19242">
        <ele>1175.5999755859</ele>
        <time>2019-05-25T08:35:21Z</time>
      </trkpt>
      <trkpt lat="44.63572" lon="3.19244">
        <ele>1175.5999755859</ele>
        <time>2019-05-25T08:35:22Z</time>
      </trkpt>
      <trkpt lat="44.63562" lon="3.19248">
        <ele>1175.5999755859</ele>
        <time>2019-05-25T08:35:24Z</time>
      </trkpt>
      <trkpt lat="44.63549" lon="3.19256">
        <ele>1175.4000244141</ele>
        <time>2019-05-25T08:35:26Z</time>
      </trkpt>
      <trkpt lat="44.63542" lon="3.19257">
        <ele>1175.5999755859</ele>
        <time>2019-05-25T08:35:27Z</time>
      </trkpt>
      <trkpt lat="44.63508" lon="3.19255">
        <ele>1175.8000488281</ele>
        <time>2019-05-25T08:35:32Z</time>
      </trkpt>
      <trkpt lat="44.63501" lon="3.19256">
        <ele>1176</ele>
        <time>2019-05-25T08:35:33Z</time>
      </trkpt>
      <trkpt lat="44.63489" lon="3.19257">
        <ele>1176</ele>
        <time>2019-05-25T08:35:35Z</time>
      </trkpt>
      <trkpt lat="44.63479" lon="3.19261">
        <ele>1176</ele>
        <time>2019-05-25T08:35:37Z</time>
      </trkpt>
      <trkpt lat="44.63474" lon="3.19263">
        <ele>1176</ele>
        <time>2019-05-25T08:35:38Z</time>
      </trkpt>
      <trkpt lat="44.63463" lon="3.1926">
        <ele>1176.1999511719</ele>
        <time>2019-05-25T08:35:40Z</time>
      </trkpt>
      <trkpt lat="44.63436" lon="3.19243">
        <ele>1176.1999511719</ele>
        <time>2019-05-25T08:35:45Z</time>
      </trkpt>
      <trkpt lat="44.634" lon="3.19227">
        <ele>1176.1999511719</ele>
        <time>2019-05-25T08:35:51Z</time>
      </trkpt>
      <trkpt lat="44.63374" lon="3.19209">
        <ele>1176.5999755859</ele>
        <time>2019-05-25T08:35:57Z</time>
      </trkpt>
      <trkpt lat="44.6337" lon="3.19206">
        <ele>1176.5999755859</ele>
        <time>2019-05-25T08:35:58Z</time>
      </trkpt>
      <trkpt lat="44.63345" lon="3.19187">
        <ele>1177</ele>
        <time>2019-05-25T08:36:04Z</time>
      </trkpt>
      <trkpt lat="44.63326" lon="3.19176">
        <ele>1177.4000244141</ele>
        <time>2019-05-25T08:36:09Z</time>
      </trkpt>
      <trkpt lat="44.63307" lon="3.19169">
        <ele>1177.8000488281</ele>
        <time>2019-05-25T08:36:13Z</time>
      </trkpt>
      <trkpt lat="44.63277" lon="3.19161">
        <ele>1178</ele>
        <time>2019-05-25T08:36:19Z</time>
      </trkpt>
      <trkpt lat="44.63244" lon="3.19151">
        <ele>1178.5999755859</ele>
        <time>2019-05-25T08:36:26Z</time>
      </trkpt>
      <trkpt lat="44.63225" lon="3.19139">
        <ele>1179.1999511719</ele>
        <time>2019-05-25T08:36:31Z</time>
      </trkpt>
      <trkpt lat="44.63206" lon="3.19112">
        <ele>1179.5999755859</ele>
        <time>2019-05-25T08:36:37Z</time>
      </trkpt>
      <trkpt lat="44.63198" lon="3.19097">
        <ele>1179.8000488281</ele>
        <time>2019-05-25T08:36:40Z</time>
      </trkpt>
      <trkpt lat="44.63191" lon="3.19089">
        <ele>1180</ele>
        <time>2019-05-25T08:36:42Z</time>
      </trkpt>
      <trkpt lat="44.63187" lon="3.19085">
        <ele>1180</ele>
        <time>2019-05-25T08:36:43Z</time>
      </trkpt>
      <trkpt lat="44.63183" lon="3.19082">
        <ele>1180</ele>
        <time>2019-05-25T08:36:44Z</time>
      </trkpt>
      <trkpt lat="44.63163" lon="3.19071">
        <ele>1180.1999511719</ele>
        <time>2019-05-25T08:36:48Z</time>
      </trkpt>
      <trkpt lat="44.63145" lon="3.19058">
        <ele>1180.4000244141</ele>
        <time>2019-05-25T08:36:52Z</time>
      </trkpt>
      <trkpt lat="44.63141" lon="3.19053">
        <ele>1180.4000244141</ele>
        <time>2019-05-25T08:36:53Z</time>
      </trkpt>
      <trkpt lat="44.63133" lon="3.19042">
        <ele>1180.5999755859</ele>
        <time>2019-05-25T08:36:55Z</time>
      </trkpt>
      <trkpt lat="44.63124" lon="3.19033">
        <ele>1180.5999755859</ele>
        <time>2019-05-25T08:36:57Z</time>
      </trkpt>
      <trkpt lat="44.63119" lon="3.1903">
        <ele>1180.5999755859</ele>
        <time>2019-05-25T08:36:58Z</time>
      </trkpt>
      <trkpt lat="44.63113" lon="3.19028">
        <ele>1180.5999755859</ele>
        <time>2019-05-25T08:36:59Z</time>
      </trkpt>
      <trkpt lat="44.63102" lon="3.19029">
        <ele>1180.5999755859</ele>
        <time>2019-05-25T08:37:01Z</time>
      </trkpt>
      <trkpt lat="44.63092" lon="3.19041">
        <ele>1180.5999755859</ele>
        <time>2019-05-25T08:37:03Z</time>
      </trkpt>
      <trkpt lat="44.63089" lon="3.19049">
        <ele>1180.5999755859</ele>
        <time>2019-05-25T08:37:04Z</time>
      </trkpt>
      <trkpt lat="44.63068" lon="3.19093">
        <ele>1180.4000244141</ele>
        <time>2019-05-25T08:37:09Z</time>
      </trkpt>
      <trkpt lat="44.63062" lon="3.19102">
        <ele>1180.1999511719</ele>
        <time>2019-05-25T08:37:10Z</time>
      </trkpt>
      <trkpt lat="44.63046" lon="3.19115">
        <ele>1179.8000488281</ele>
        <time>2019-05-25T08:37:12Z</time>
      </trkpt>
      <trkpt lat="44.63019" lon="3.19122">
        <ele>1179.4000244141</ele>
        <time>2019-05-25T08:37:15Z</time>
      </trkpt>
      <trkpt lat="44.63" lon="3.19126">
        <ele>1179.1999511719</ele>
        <time>2019-05-25T08:37:17Z</time>
      </trkpt>
      <trkpt lat="44.62983" lon="3.19138">
        <ele>1179</ele>
        <time>2019-05-25T08:37:19Z</time>
      </trkpt>
      <trkpt lat="44.62936" lon="3.19182">
        <ele>1178.4000244141</ele>
        <time>2019-05-25T08:37:25Z</time>
      </trkpt>
      <trkpt lat="44.62906" lon="3.19206">
        <ele>1178.1999511719</ele>
        <time>2019-05-25T08:37:29Z</time>
      </trkpt>
      <trkpt lat="44.62891" lon="3.19211">
        <ele>1178.1999511719</ele>
        <time>2019-05-25T08:37:31Z</time>
      </trkpt>
      <trkpt lat="44.62875" lon="3.19212">
        <ele>1178</ele>
        <time>2019-05-25T08:37:33Z</time>
      </trkpt>
      <trkpt lat="44.62863" lon="3.19217">
        <ele>1178</ele>
        <time>2019-05-25T08:37:35Z</time>
      </trkpt>
      <trkpt lat="44.62858" lon="3.1922">
        <ele>1178</ele>
        <time>2019-05-25T08:37:36Z</time>
      </trkpt>
      <trkpt lat="44.62851" lon="3.19232">
        <ele>1178</ele>
        <time>2019-05-25T08:37:38Z</time>
      </trkpt>
      <trkpt lat="44.62842" lon="3.19275">
        <ele>1177.8000488281</ele>
        <time>2019-05-25T08:37:43Z</time>
      </trkpt>
      <trkpt lat="44.62838" lon="3.19303">
        <ele>1177.4000244141</ele>
        <time>2019-05-25T08:37:46Z</time>
      </trkpt>
      <trkpt lat="44.6284" lon="3.19322">
        <ele>1177.4000244141</ele>
        <time>2019-05-25T08:37:48Z</time>
      </trkpt>
      <trkpt lat="44.62846" lon="3.1934">
        <ele>1177.4000244141</ele>
        <time>2019-05-25T08:37:50Z</time>
      </trkpt>
      <trkpt lat="44.62859" lon="3.19366">
        <ele>1177</ele>
        <time>2019-05-25T08:37:53Z</time>
      </trkpt>
      <trkpt lat="44.62882" lon="3.19419">
        <ele>1176.5999755859</ele>
        <time>2019-05-25T08:37:59Z</time>
      </trkpt>
      <trkpt lat="44.62885" lon="3.19428">
        <ele>1176.5999755859</ele>
        <time>2019-05-25T08:38:00Z</time>
      </trkpt>
      <trkpt lat="44.62893" lon="3.19476">
        <ele>1176.4000244141</ele>
        <time>2019-05-25T08:38:05Z</time>
      </trkpt>
      <trkpt lat="44.62898" lon="3.19512">
        <ele>1176.1999511719</ele>
        <time>2019-05-25T08:38:09Z</time>
      </trkpt>
      <trkpt lat="44.62904" lon="3.19536">
        <ele>1176</ele>
        <time>2019-05-25T08:38:12Z</time>
      </trkpt>
      <trkpt lat="44.6291" lon="3.19553">
        <ele>1176</ele>
        <time>2019-05-25T08:38:14Z</time>
      </trkpt>
      <trkpt lat="44.6292" lon="3.19576">
        <ele>1176</ele>
        <time>2019-05-25T08:38:17Z</time>
      </trkpt>
      <trkpt lat="44.62939" lon="3.19619">
        <ele>1175.5999755859</ele>
        <time>2019-05-25T08:38:23Z</time>
      </trkpt>
      <trkpt lat="44.62954" lon="3.19646">
        <ele>1175.5999755859</ele>
        <time>2019-05-25T08:38:27Z</time>
      </trkpt>
      <trkpt lat="44.62957" lon="3.19652">
        <ele>1175.5999755859</ele>
        <time>2019-05-25T08:38:28Z</time>
      </trkpt>
      <trkpt lat="44.6296" lon="3.19659">
        <ele>1175.5999755859</ele>
        <time>2019-05-25T08:38:29Z</time>
      </trkpt>
      <trkpt lat="44.62966" lon="3.19671">
        <ele>1175.5999755859</ele>
        <time>2019-05-25T08:38:31Z</time>
      </trkpt>
      <trkpt lat="44.62974" lon="3.1969">
        <ele>1175.5999755859</ele>
        <time>2019-05-25T08:38:34Z</time>
      </trkpt>
      <trkpt lat="44.62978" lon="3.19703">
        <ele>1175.5999755859</ele>
        <time>2019-05-25T08:38:36Z</time>
      </trkpt>
      <trkpt lat="44.62987" lon="3.19745">
        <ele>1175.4000244141</ele>
        <time>2019-05-25T08:38:42Z</time>
      </trkpt>
      <trkpt lat="44.62991" lon="3.19766">
        <ele>1175.4000244141</ele>
        <time>2019-05-25T08:38:45Z</time>
      </trkpt>
      <trkpt lat="44.62994" lon="3.1978">
        <ele>1175.4000244141</ele>
        <time>2019-05-25T08:38:47Z</time>
      </trkpt>
      <trkpt lat="44.63" lon="3.19807">
        <ele>1175.4000244141</ele>
        <time>2019-05-25T08:38:51Z</time>
      </trkpt>
      <trkpt lat="44.63002" lon="3.19814">
        <ele>1175.5999755859</ele>
        <time>2019-05-25T08:38:52Z</time>
      </trkpt>
      <trkpt lat="44.63006" lon="3.19828">
        <ele>1175.5999755859</ele>
        <time>2019-05-25T08:38:54Z</time>
      </trkpt>
      <trkpt lat="44.63011" lon="3.19851">
        <ele>1175.5999755859</ele>
        <time>2019-05-25T08:38:57Z</time>
      </trkpt>
      <trkpt lat="44.63013" lon="3.19866">
        <ele>1175.8000488281</ele>
        <time>2019-05-25T08:38:59Z</time>
      </trkpt>
      <trkpt lat="44.63026" lon="3.19908">
        <ele>1175.5999755859</ele>
        <time>2019-05-25T08:39:03Z</time>
      </trkpt>
      <trkpt lat="44.63049" lon="3.19971">
        <ele>1174.8000488281</ele>
        <time>2019-05-25T08:39:09Z</time>
      </trkpt>
      <trkpt lat="44.63069" lon="3.20001">
        <ele>1174.5999755859</ele>
        <time>2019-05-25T08:39:13Z</time>
      </trkpt>
      <trkpt lat="44.63099" lon="3.2004">
        <ele>1174.8000488281</ele>
        <time>2019-05-25T08:39:20Z</time>
      </trkpt>
      <trkpt lat="44.63109" lon="3.20057">
        <ele>1174.5999755859</ele>
        <time>2019-05-25T08:39:23Z</time>
      </trkpt>
      <trkpt lat="44.63123" lon="3.2009">
        <ele>1174.4000244141</ele>
        <time>2019-05-25T08:39:28Z</time>
      </trkpt>
      <trkpt lat="44.63133" lon="3.20142">
        <ele>1174.1999511719</ele>
        <time>2019-05-25T08:39:35Z</time>
      </trkpt>
      <trkpt lat="44.63144" lon="3.20187">
        <ele>1174.1999511719</ele>
        <time>2019-05-25T08:39:41Z</time>
      </trkpt>
      <trkpt lat="44.63155" lon="3.20245">
        <ele>1174</ele>
        <time>2019-05-25T08:39:48Z</time>
      </trkpt>
      <trkpt lat="44.63161" lon="3.2027">
        <ele>1173.8000488281</ele>
        <time>2019-05-25T08:39:51Z</time>
      </trkpt>
      <trkpt lat="44.63168" lon="3.20284">
        <ele>1173.5999755859</ele>
        <time>2019-05-25T08:39:53Z</time>
      </trkpt>
      <trkpt lat="44.63187" lon="3.20307">
        <ele>1173</ele>
        <time>2019-05-25T08:39:57Z</time>
      </trkpt>
      <trkpt lat="44.63193" lon="3.20311">
        <ele>1173</ele>
        <time>2019-05-25T08:39:58Z</time>
      </trkpt>
      <trkpt lat="44.63205" lon="3.20317">
        <ele>1172.8000488281</ele>
        <time>2019-05-25T08:40:00Z</time>
      </trkpt>
      <trkpt lat="44.63218" lon="3.20317">
        <ele>1172.5999755859</ele>
        <time>2019-05-25T08:40:02Z</time>
      </trkpt>
      <trkpt lat="44.63229" lon="3.20308">
        <ele>1172.5999755859</ele>
        <time>2019-05-25T08:40:04Z</time>
      </trkpt>
      <trkpt lat="44.63234" lon="3.20302">
        <ele>1172.4000244141</ele>
        <time>2019-05-25T08:40:05Z</time>
      </trkpt>
      <trkpt lat="44.63242" lon="3.2029">
        <ele>1172.4000244141</ele>
        <time>2019-05-25T08:40:07Z</time>
      </trkpt>
      <trkpt lat="44.63252" lon="3.20282">
        <ele>1172.1999511719</ele>
        <time>2019-05-25T08:40:09Z</time>
      </trkpt>
      <trkpt lat="44.63257" lon="3.20279">
        <ele>1172.1999511719</ele>
        <time>2019-05-25T08:40:10Z</time>
      </trkpt>
      <trkpt lat="44.63262" lon="3.20276">
        <ele>1172</ele>
        <time>2019-05-25T08:40:11Z</time>
      </trkpt>
      <trkpt lat="44.63272" lon="3.20276">
        <ele>1172</ele>
        <time>2019-05-25T08:40:13Z</time>
      </trkpt>
      <trkpt lat="44.63278" lon="3.20276">
        <ele>1172</ele>
        <time>2019-05-25T08:40:14Z</time>
      </trkpt>
      <trkpt lat="44.63292" lon="3.20272">
        <ele>1171.8000488281</ele>
        <time>2019-05-25T08:40:17Z</time>
      </trkpt>
      <trkpt lat="44.63316" lon="3.20265">
        <ele>1171.5999755859</ele>
        <time>2019-05-25T08:40:23Z</time>
      </trkpt>
      <trkpt lat="44.63334" lon="3.20261">
        <ele>1171.5999755859</ele>
        <time>2019-05-25T08:40:29Z</time>
      </trkpt>
      <trkpt lat="44.63351" lon="3.2026">
        <ele>1171.8000488281</ele>
        <time>2019-05-25T08:40:35Z</time>
      </trkpt>
      <trkpt lat="44.63365" lon="3.20258">
        <ele>1172</ele>
        <time>2019-05-25T08:40:40Z</time>
      </trkpt>
      <trkpt lat="44.63381" lon="3.20258">
        <ele>1172.1999511719</ele>
        <time>2019-05-25T08:40:46Z</time>
      </trkpt>
      <trkpt lat="44.63403" lon="3.20258">
        <ele>1172.8000488281</ele>
        <time>2019-05-25T08:40:54Z</time>
      </trkpt>
      <trkpt lat="44.63418" lon="3.20257">
        <ele>1173</ele>
        <time>2019-05-25T08:41:00Z</time>
      </trkpt>
      <trkpt lat="44.63434" lon="3.20257">
        <ele>1173.5999755859</ele>
        <time>2019-05-25T08:41:08Z</time>
      </trkpt>
      <trkpt lat="44.63449" lon="3.20257">
        <ele>1174.5999755859</ele>
        <time>2019-05-25T08:41:17Z</time>
      </trkpt>
      <trkpt lat="44.63462" lon="3.2026">
        <ele>1175.1999511719</ele>
        <time>2019-05-25T08:41:24Z</time>
      </trkpt>
      <trkpt lat="44.63474" lon="3.20267">
        <ele>1176</ele>
        <time>2019-05-25T08:41:31Z</time>
      </trkpt>
      <trkpt lat="44.63486" lon="3.20274">
        <ele>1176.5999755859</ele>
        <time>2019-05-25T08:41:38Z</time>
      </trkpt>
      <trkpt lat="44.63499" lon="3.20285">
        <ele>1177</ele>
        <time>2019-05-25T08:41:45Z</time>
      </trkpt>
      <trkpt lat="44.63515" lon="3.20296">
        <ele>1177.5999755859</ele>
        <time>2019-05-25T08:41:52Z</time>
      </trkpt>
      <trkpt lat="44.63532" lon="3.20307">
        <ele>1178.1999511719</ele>
        <time>2019-05-25T08:41:59Z</time>
      </trkpt>
      <trkpt lat="44.63551" lon="3.20321">
        <ele>1179.1999511719</ele>
        <time>2019-05-25T08:42:07Z</time>
      </trkpt>
      <trkpt lat="44.63573" lon="3.20338">
        <ele>1180</ele>
        <time>2019-05-25T08:42:16Z</time>
      </trkpt>
      <trkpt lat="44.63589" lon="3.2035">
        <ele>1180.5999755859</ele>
        <time>2019-05-25T08:42:22Z</time>
      </trkpt>
      <trkpt lat="44.63611" lon="3.20368">
        <ele>1181.1999511719</ele>
        <time>2019-05-25T08:42:30Z</time>
      </trkpt>
      <trkpt lat="44.63625" lon="3.20386">
        <ele>1181.8000488281</ele>
        <time>2019-05-25T08:42:36Z</time>
      </trkpt>
      <trkpt lat="44.63635" lon="3.20398">
        <ele>1182.1999511719</ele>
        <time>2019-05-25T08:42:40Z</time>
      </trkpt>
      <trkpt lat="44.63645" lon="3.2041">
        <ele>1182.4000244141</ele>
        <time>2019-05-25T08:42:44Z</time>
      </trkpt>
      <trkpt lat="44.63652" lon="3.20424">
        <ele>1182.8000488281</ele>
        <time>2019-05-25T08:42:48Z</time>
      </trkpt>
      <trkpt lat="44.6367" lon="3.20448">
        <ele>1183.5999755859</ele>
        <time>2019-05-25T08:42:55Z</time>
      </trkpt>
      <trkpt lat="44.63684" lon="3.2047">
        <ele>1184.1999511719</ele>
        <time>2019-05-25T08:43:01Z</time>
      </trkpt>
      <trkpt lat="44.63698" lon="3.20486">
        <ele>1184.5999755859</ele>
        <time>2019-05-25T08:43:06Z</time>
      </trkpt>
      <trkpt lat="44.63712" lon="3.20499">
        <ele>1185</ele>
        <time>2019-05-25T08:43:11Z</time>
      </trkpt>
      <trkpt lat="44.63729" lon="3.20518">
        <ele>1185.5999755859</ele>
        <time>2019-05-25T08:43:18Z</time>
      </trkpt>
      <trkpt lat="44.63746" lon="3.20533">
        <ele>1186.4000244141</ele>
        <time>2019-05-25T08:43:24Z</time>
      </trkpt>
      <trkpt lat="44.6376" lon="3.20547">
        <ele>1187.1999511719</ele>
        <time>2019-05-25T08:43:30Z</time>
      </trkpt>
      <trkpt lat="44.63769" lon="3.20562">
        <ele>1187.5999755859</ele>
        <time>2019-05-25T08:43:35Z</time>
      </trkpt>
      <trkpt lat="44.63781" lon="3.20578">
        <ele>1188.1999511719</ele>
        <time>2019-05-25T08:43:40Z</time>
      </trkpt>
      <trkpt lat="44.63794" lon="3.20589">
        <ele>1188.8000488281</ele>
        <time>2019-05-25T08:43:44Z</time>
      </trkpt>
      <trkpt lat="44.63813" lon="3.20598">
        <ele>1189.1999511719</ele>
        <time>2019-05-25T08:43:48Z</time>
      </trkpt>
      <trkpt lat="44.63824" lon="3.20604">
        <ele>1189.4000244141</ele>
        <time>2019-05-25T08:43:50Z</time>
      </trkpt>
      <trkpt lat="44.6383" lon="3.20606">
        <ele>1189.5999755859</ele>
        <time>2019-05-25T08:43:51Z</time>
      </trkpt>
      <trkpt lat="44.63854" lon="3.20612">
        <ele>1190</ele>
        <time>2019-05-25T08:43:55Z</time>
      </trkpt>
      <trkpt lat="44.63895" lon="3.20623">
        <ele>1190.5999755859</ele>
        <time>2019-05-25T08:44:01Z</time>
      </trkpt>
      <trkpt lat="44.63916" lon="3.20626">
        <ele>1190.8000488281</ele>
        <time>2019-05-25T08:44:04Z</time>
      </trkpt>
      <trkpt lat="44.63944" lon="3.20632">
        <ele>1191</ele>
        <time>2019-05-25T08:44:08Z</time>
      </trkpt>
      <trkpt lat="44.63976" lon="3.20638">
        <ele>1191.1999511719</ele>
        <time>2019-05-25T08:44:13Z</time>
      </trkpt>
      <trkpt lat="44.63999" lon="3.20641">
        <ele>1191.1999511719</ele>
        <time>2019-05-25T08:44:17Z</time>
      </trkpt>
      <trkpt lat="44.6401" lon="3.20644">
        <ele>1191.1999511719</ele>
        <time>2019-05-25T08:44:19Z</time>
      </trkpt>
      <trkpt lat="44.64022" lon="3.20647">
        <ele>1191.1999511719</ele>
        <time>2019-05-25T08:44:21Z</time>
      </trkpt>
      <trkpt lat="44.64033" lon="3.20651">
        <ele>1191.1999511719</ele>
        <time>2019-05-25T08:44:23Z</time>
      </trkpt>
      <trkpt lat="44.64058" lon="3.20661">
        <ele>1191</ele>
        <time>2019-05-25T08:44:27Z</time>
      </trkpt>
      <trkpt lat="44.64064" lon="3.20663">
        <ele>1190.8000488281</ele>
        <time>2019-05-25T08:44:28Z</time>
      </trkpt>
      <trkpt lat="44.64077" lon="3.20668">
        <ele>1190.8000488281</ele>
        <time>2019-05-25T08:44:30Z</time>
      </trkpt>
      <trkpt lat="44.64089" lon="3.20667">
        <ele>1190.5999755859</ele>
        <time>2019-05-25T08:44:32Z</time>
      </trkpt>
      <trkpt lat="44.64099" lon="3.20661">
        <ele>1190.4000244141</ele>
        <time>2019-05-25T08:44:34Z</time>
      </trkpt>
      <trkpt lat="44.64104" lon="3.20656">
        <ele>1190.1999511719</ele>
        <time>2019-05-25T08:44:35Z</time>
      </trkpt>
      <trkpt lat="44.64121" lon="3.20645">
        <ele>1189.8000488281</ele>
        <time>2019-05-25T08:44:38Z</time>
      </trkpt>
      <trkpt lat="44.64129" lon="3.2064">
        <ele>1189.4000244141</ele>
        <time>2019-05-25T08:44:40Z</time>
      </trkpt>
      <trkpt lat="44.64131" lon="3.20639">
        <ele>1189.1999511719</ele>
        <time>2019-05-25T08:44:41Z</time>
      </trkpt>
      <trkpt lat="44.64134" lon="3.2064">
        <ele>1188.8000488281</ele>
        <time>2019-05-25T08:44:43Z</time>
      </trkpt>
      <trkpt lat="44.64134" lon="3.20641">
        <ele>1181.4000244141</ele>
        <time>2019-05-25T08:46:55Z</time>
      </trkpt>
      <trkpt lat="44.64136" lon="3.20646">
        <ele>1181.1999511719</ele>
        <time>2019-05-25T08:46:57Z</time>
      </trkpt>
      <trkpt lat="44.64142" lon="3.20652">
        <ele>1181.1999511719</ele>
        <time>2019-05-25T08:47:00Z</time>
      </trkpt>
      <trkpt lat="44.64144" lon="3.20655">
        <ele>1181</ele>
        <time>2019-05-25T08:47:01Z</time>
      </trkpt>
      <trkpt lat="44.64154" lon="3.20671">
        <ele>1181</ele>
        <time>2019-05-25T08:47:05Z</time>
      </trkpt>
      <trkpt lat="44.64161" lon="3.2068">
        <ele>1180.8000488281</ele>
        <time>2019-05-25T08:47:07Z</time>
      </trkpt>
      <trkpt lat="44.64165" lon="3.20692">
        <ele>1180.5999755859</ele>
        <time>2019-05-25T08:47:09Z</time>
      </trkpt>
      <trkpt lat="44.6417" lon="3.20718">
        <ele>1180.4000244141</ele>
        <time>2019-05-25T08:47:12Z</time>
      </trkpt>
      <trkpt lat="44.64171" lon="3.20728">
        <ele>1180.1999511719</ele>
        <time>2019-05-25T08:47:13Z</time>
      </trkpt>
      <trkpt lat="44.64173" lon="3.2075">
        <ele>1180</ele>
        <time>2019-05-25T08:47:15Z</time>
      </trkpt>
      <trkpt lat="44.64174" lon="3.20773">
        <ele>1179.5999755859</ele>
        <time>2019-05-25T08:47:17Z</time>
      </trkpt>
      <trkpt lat="44.64178" lon="3.20813">
        <ele>1178.5999755859</ele>
        <time>2019-05-25T08:47:21Z</time>
      </trkpt>
      <trkpt lat="44.64183" lon="3.20828">
        <ele>1178.1999511719</ele>
        <time>2019-05-25T08:47:23Z</time>
      </trkpt>
      <trkpt lat="44.64186" lon="3.20835">
        <ele>1178</ele>
        <time>2019-05-25T08:47:24Z</time>
      </trkpt>
      <trkpt lat="44.64189" lon="3.20843">
        <ele>1177.8000488281</ele>
        <time>2019-05-25T08:47:25Z</time>
      </trkpt>
      <trkpt lat="44.642" lon="3.2086">
        <ele>1177.1999511719</ele>
        <time>2019-05-25T08:47:27Z</time>
      </trkpt>
      <trkpt lat="44.64211" lon="3.20886">
        <ele>1176.5999755859</ele>
        <time>2019-05-25T08:47:30Z</time>
      </trkpt>
      <trkpt lat="44.64216" lon="3.20894">
        <ele>1176.4000244141</ele>
        <time>2019-05-25T08:47:31Z</time>
      </trkpt>
      <trkpt lat="44.64222" lon="3.20903">
        <ele>1176.1999511719</ele>
        <time>2019-05-25T08:47:32Z</time>
      </trkpt>
      <trkpt lat="44.64227" lon="3.2091">
        <ele>1176</ele>
        <time>2019-05-25T08:47:33Z</time>
      </trkpt>
      <trkpt lat="44.64231" lon="3.20916">
        <ele>1175.5999755859</ele>
        <time>2019-05-25T08:47:34Z</time>
      </trkpt>
      <trkpt lat="44.6424" lon="3.20926">
        <ele>1175</ele>
        <time>2019-05-25T08:47:36Z</time>
      </trkpt>
      <trkpt lat="44.64243" lon="3.20931">
        <ele>1174.5999755859</ele>
        <time>2019-05-25T08:47:37Z</time>
      </trkpt>
      <trkpt lat="44.64248" lon="3.20945">
        <ele>1173.4000244141</ele>
        <time>2019-05-25T08:47:40Z</time>
      </trkpt>
      <trkpt lat="44.64256" lon="3.20958">
        <ele>1172.5999755859</ele>
        <time>2019-05-25T08:47:42Z</time>
      </trkpt>
      <trkpt lat="44.64264" lon="3.20969">
        <ele>1171.8000488281</ele>
        <time>2019-05-25T08:47:44Z</time>
      </trkpt>
      <trkpt lat="44.64285" lon="3.20999">
        <ele>1169.8000488281</ele>
        <time>2019-05-25T08:47:49Z</time>
      </trkpt>
      <trkpt lat="44.64301" lon="3.21024">
        <ele>1168.5999755859</ele>
        <time>2019-05-25T08:47:53Z</time>
      </trkpt>
      <trkpt lat="44.64305" lon="3.21031">
        <ele>1168.1999511719</ele>
        <time>2019-05-25T08:47:54Z</time>
      </trkpt>
      <trkpt lat="44.64313" lon="3.21046">
        <ele>1167.1999511719</ele>
        <time>2019-05-25T08:47:57Z</time>
      </trkpt>
      <trkpt lat="44.64314" lon="3.21052">
        <ele>1166.8000488281</ele>
        <time>2019-05-25T08:47:58Z</time>
      </trkpt>
      <trkpt lat="44.64312" lon="3.21061">
        <ele>1166.4000244141</ele>
        <time>2019-05-25T08:48:00Z</time>
      </trkpt>
      <trkpt lat="44.64312" lon="3.21064">
        <ele>1166</ele>
        <time>2019-05-25T08:48:01Z</time>
      </trkpt>
      <trkpt lat="44.64316" lon="3.21067">
        <ele>1165.4000244141</ele>
        <time>2019-05-25T08:48:03Z</time>
      </trkpt>
      <trkpt lat="44.64327" lon="3.21064">
        <ele>1164.4000244141</ele>
        <time>2019-05-25T08:48:06Z</time>
      </trkpt>
      <trkpt lat="44.64351" lon="3.2106">
        <ele>1162.8000488281</ele>
        <time>2019-05-25T08:48:11Z</time>
      </trkpt>
      <trkpt lat="44.64375" lon="3.21058">
        <ele>1161.4000244141</ele>
        <time>2019-05-25T08:48:15Z</time>
      </trkpt>
      <trkpt lat="44.64388" lon="3.21057">
        <ele>1160.8000488281</ele>
        <time>2019-05-25T08:48:17Z</time>
      </trkpt>
      <trkpt lat="44.64421" lon="3.21052">
        <ele>1159.4000244141</ele>
        <time>2019-05-25T08:48:22Z</time>
      </trkpt>
      <trkpt lat="44.64433" lon="3.21046">
        <ele>1158.8000488281</ele>
        <time>2019-05-25T08:48:24Z</time>
      </trkpt>
      <trkpt lat="44.64444" lon="3.21037">
        <ele>1158.1999511719</ele>
        <time>2019-05-25T08:48:26Z</time>
      </trkpt>
      <trkpt lat="44.64454" lon="3.21028">
        <ele>1157.5999755859</ele>
        <time>2019-05-25T08:48:28Z</time>
      </trkpt>
      <trkpt lat="44.64463" lon="3.21027">
        <ele>1157</ele>
        <time>2019-05-25T08:48:30Z</time>
      </trkpt>
      <trkpt lat="44.64469" lon="3.21032">
        <ele>1156.1999511719</ele>
        <time>2019-05-25T08:48:32Z</time>
      </trkpt>
      <trkpt lat="44.64469" lon="3.21037">
        <ele>1156</ele>
        <time>2019-05-25T08:48:33Z</time>
      </trkpt>
      <trkpt lat="44.64464" lon="3.2105">
        <ele>1155.5999755859</ele>
        <time>2019-05-25T08:48:35Z</time>
      </trkpt>
      <trkpt lat="44.6446" lon="3.21055">
        <ele>1155.4000244141</ele>
        <time>2019-05-25T08:48:36Z</time>
      </trkpt>
      <trkpt lat="44.64452" lon="3.21067">
        <ele>1154.8000488281</ele>
        <time>2019-05-25T08:48:38Z</time>
      </trkpt>
      <trkpt lat="44.64443" lon="3.21078">
        <ele>1154.1999511719</ele>
        <time>2019-05-25T08:48:40Z</time>
      </trkpt>
      <trkpt lat="44.6444" lon="3.21086">
        <ele>1154</ele>
        <time>2019-05-25T08:48:41Z</time>
      </trkpt>
      <trkpt lat="44.64439" lon="3.21095">
        <ele>1153.5999755859</ele>
        <time>2019-05-25T08:48:42Z</time>
      </trkpt>
      <trkpt lat="44.6444" lon="3.21113">
        <ele>1153</ele>
        <time>2019-05-25T08:48:44Z</time>
      </trkpt>
      <trkpt lat="44.64448" lon="3.2113">
        <ele>1152.4000244141</ele>
        <time>2019-05-25T08:48:46Z</time>
      </trkpt>
      <trkpt lat="44.64452" lon="3.21138">
        <ele>1152.1999511719</ele>
        <time>2019-05-25T08:48:47Z</time>
      </trkpt>
      <trkpt lat="44.64475" lon="3.21175">
        <ele>1150.8000488281</ele>
        <time>2019-05-25T08:48:52Z</time>
      </trkpt>
      <trkpt lat="44.64477" lon="3.21184">
        <ele>1150.5999755859</ele>
        <time>2019-05-25T08:48:53Z</time>
      </trkpt>
      <trkpt lat="44.64484" lon="3.21219">
        <ele>1149.4000244141</ele>
        <time>2019-05-25T08:48:57Z</time>
      </trkpt>
      <trkpt lat="44.64486" lon="3.21227">
        <ele>1149.1999511719</ele>
        <time>2019-05-25T08:48:58Z</time>
      </trkpt>
      <trkpt lat="44.64493" lon="3.21252">
        <ele>1148.5999755859</ele>
        <time>2019-05-25T08:49:01Z</time>
      </trkpt>
      <trkpt lat="44.64495" lon="3.21269">
        <ele>1148.1999511719</ele>
        <time>2019-05-25T08:49:03Z</time>
      </trkpt>
      <trkpt lat="44.64494" lon="3.21287">
        <ele>1147.8000488281</ele>
        <time>2019-05-25T08:49:05Z</time>
      </trkpt>
      <trkpt lat="44.64493" lon="3.21295">
        <ele>1147.5999755859</ele>
        <time>2019-05-25T08:49:06Z</time>
      </trkpt>
      <trkpt lat="44.64493" lon="3.21315">
        <ele>1147</ele>
        <time>2019-05-25T08:49:08Z</time>
      </trkpt>
      <trkpt lat="44.64495" lon="3.21347">
        <ele>1146.4000244141</ele>
        <time>2019-05-25T08:49:11Z</time>
      </trkpt>
      <trkpt lat="44.64498" lon="3.21368">
        <ele>1146</ele>
        <time>2019-05-25T08:49:13Z</time>
      </trkpt>
      <trkpt lat="44.64506" lon="3.21388">
        <ele>1145.4000244141</ele>
        <time>2019-05-25T08:49:15Z</time>
      </trkpt>
      <trkpt lat="44.64518" lon="3.21402">
        <ele>1145</ele>
        <time>2019-05-25T08:49:17Z</time>
      </trkpt>
      <trkpt lat="44.64525" lon="3.21407">
        <ele>1144.8000488281</ele>
        <time>2019-05-25T08:49:18Z</time>
      </trkpt>
      <trkpt lat="44.64559" lon="3.21427">
        <ele>1143.5999755859</ele>
        <time>2019-05-25T08:49:23Z</time>
      </trkpt>
      <trkpt lat="44.64592" lon="3.21437">
        <ele>1142.5999755859</ele>
        <time>2019-05-25T08:49:28Z</time>
      </trkpt>
      <trkpt lat="44.64639" lon="3.21442">
        <ele>1141.1999511719</ele>
        <time>2019-05-25T08:49:35Z</time>
      </trkpt>
      <trkpt lat="44.64666" lon="3.21445">
        <ele>1140.5999755859</ele>
        <time>2019-05-25T08:49:39Z</time>
      </trkpt>
      <trkpt lat="44.64672" lon="3.21447">
        <ele>1140.4000244141</ele>
        <time>2019-05-25T08:49:40Z</time>
      </trkpt>
      <trkpt lat="44.64685" lon="3.21453">
        <ele>1140</ele>
        <time>2019-05-25T08:49:42Z</time>
      </trkpt>
      <trkpt lat="44.64709" lon="3.21466">
        <ele>1139.4000244141</ele>
        <time>2019-05-25T08:49:46Z</time>
      </trkpt>
      <trkpt lat="44.64727" lon="3.21477">
        <ele>1139.1999511719</ele>
        <time>2019-05-25T08:49:49Z</time>
      </trkpt>
      <trkpt lat="44.64756" lon="3.21503">
        <ele>1139</ele>
        <time>2019-05-25T08:49:55Z</time>
      </trkpt>
      <trkpt lat="44.64782" lon="3.2153">
        <ele>1138.5999755859</ele>
        <time>2019-05-25T08:50:00Z</time>
      </trkpt>
      <trkpt lat="44.64816" lon="3.21563">
        <ele>1137.5999755859</ele>
        <time>2019-05-25T08:50:06Z</time>
      </trkpt>
      <trkpt lat="44.6485" lon="3.21602">
        <ele>1136.4000244141</ele>
        <time>2019-05-25T08:50:12Z</time>
      </trkpt>
      <trkpt lat="44.6486" lon="3.21614">
        <ele>1135.8000488281</ele>
        <time>2019-05-25T08:50:14Z</time>
      </trkpt>
      <trkpt lat="44.64874" lon="3.21618">
        <ele>1135.4000244141</ele>
        <time>2019-05-25T08:50:16Z</time>
      </trkpt>
      <trkpt lat="44.64888" lon="3.21613">
        <ele>1135.1999511719</ele>
        <time>2019-05-25T08:50:18Z</time>
      </trkpt>
      <trkpt lat="44.64895" lon="3.21609">
        <ele>1135</ele>
        <time>2019-05-25T08:50:19Z</time>
      </trkpt>
      <trkpt lat="44.64901" lon="3.21605">
        <ele>1134.8000488281</ele>
        <time>2019-05-25T08:50:20Z</time>
      </trkpt>
      <trkpt lat="44.64913" lon="3.21597">
        <ele>1134.4000244141</ele>
        <time>2019-05-25T08:50:22Z</time>
      </trkpt>
      <trkpt lat="44.64919" lon="3.21596">
        <ele>1134.1999511719</ele>
        <time>2019-05-25T08:50:23Z</time>
      </trkpt>
      <trkpt lat="44.64925" lon="3.21597">
        <ele>1134</ele>
        <time>2019-05-25T08:50:24Z</time>
      </trkpt>
      <trkpt lat="44.64937" lon="3.21605">
        <ele>1133.5999755859</ele>
        <time>2019-05-25T08:50:26Z</time>
      </trkpt>
      <trkpt lat="44.64959" lon="3.2163">
        <ele>1132.5999755859</ele>
        <time>2019-05-25T08:50:31Z</time>
      </trkpt>
      <trkpt lat="44.64971" lon="3.21646">
        <ele>1132</ele>
        <time>2019-05-25T08:50:34Z</time>
      </trkpt>
      <trkpt lat="44.64974" lon="3.21653">
        <ele>1131.8000488281</ele>
        <time>2019-05-25T08:50:35Z</time>
      </trkpt>
      <trkpt lat="44.64977" lon="3.21659">
        <ele>1131.5999755859</ele>
        <time>2019-05-25T08:50:36Z</time>
      </trkpt>
      <trkpt lat="44.6498" lon="3.21675">
        <ele>1131.4000244141</ele>
        <time>2019-05-25T08:50:38Z</time>
      </trkpt>
      <trkpt lat="44.64979" lon="3.21683">
        <ele>1131.4000244141</ele>
        <time>2019-05-25T08:50:39Z</time>
      </trkpt>
      <trkpt lat="44.64978" lon="3.21691">
        <ele>1131.1999511719</ele>
        <time>2019-05-25T08:50:40Z</time>
      </trkpt>
      <trkpt lat="44.64971" lon="3.21705">
        <ele>1131</ele>
        <time>2019-05-25T08:50:42Z</time>
      </trkpt>
      <trkpt lat="44.64964" lon="3.2172">
        <ele>1130.8000488281</ele>
        <time>2019-05-25T08:50:44Z</time>
      </trkpt>
      <trkpt lat="44.64956" lon="3.21733">
        <ele>1130.4000244141</ele>
        <time>2019-05-25T08:50:46Z</time>
      </trkpt>
      <trkpt lat="44.64952" lon="3.21738">
        <ele>1130.4000244141</ele>
        <time>2019-05-25T08:50:47Z</time>
      </trkpt>
      <trkpt lat="44.64946" lon="3.21742">
        <ele>1130.1999511719</ele>
        <time>2019-05-25T08:50:48Z</time>
      </trkpt>
      <trkpt lat="44.64932" lon="3.21755">
        <ele>1129.8000488281</ele>
        <time>2019-05-25T08:50:51Z</time>
      </trkpt>
      <trkpt lat="44.64908" lon="3.21775">
        <ele>1129.1999511719</ele>
        <time>2019-05-25T08:50:56Z</time>
      </trkpt>
      <trkpt lat="44.64903" lon="3.2178">
        <ele>1129</ele>
        <time>2019-05-25T08:50:57Z</time>
      </trkpt>
      <trkpt lat="44.64896" lon="3.21791">
        <ele>1128.8000488281</ele>
        <time>2019-05-25T08:50:59Z</time>
      </trkpt>
      <trkpt lat="44.64893" lon="3.21797">
        <ele>1128.8000488281</ele>
        <time>2019-05-25T08:51:00Z</time>
      </trkpt>
      <trkpt lat="44.64887" lon="3.21809">
        <ele>1128.8000488281</ele>
        <time>2019-05-25T08:51:02Z</time>
      </trkpt>
      <trkpt lat="44.64882" lon="3.2182">
        <ele>1128.5999755859</ele>
        <time>2019-05-25T08:51:04Z</time>
      </trkpt>
      <trkpt lat="44.64879" lon="3.21825">
        <ele>1128.5999755859</ele>
        <time>2019-05-25T08:51:05Z</time>
      </trkpt>
      <trkpt lat="44.64873" lon="3.21834">
        <ele>1128.4000244141</ele>
        <time>2019-05-25T08:51:07Z</time>
      </trkpt>
      <trkpt lat="44.64864" lon="3.21845">
        <ele>1128.4000244141</ele>
        <time>2019-05-25T08:51:10Z</time>
      </trkpt>
      <trkpt lat="44.64845" lon="3.21852">
        <ele>1128.1999511719</ele>
        <time>2019-05-25T08:51:15Z</time>
      </trkpt>
      <trkpt lat="44.64836" lon="3.21858">
        <ele>1128.1999511719</ele>
        <time>2019-05-25T08:51:17Z</time>
      </trkpt>
      <trkpt lat="44.64833" lon="3.21865">
        <ele>1128.1999511719</ele>
        <time>2019-05-25T08:51:18Z</time>
      </trkpt>
      <trkpt lat="44.6483" lon="3.21873">
        <ele>1128</ele>
        <time>2019-05-25T08:51:19Z</time>
      </trkpt>
      <trkpt lat="44.64824" lon="3.21886">
        <ele>1127.8000488281</ele>
        <time>2019-05-25T08:51:21Z</time>
      </trkpt>
      <trkpt lat="44.64821" lon="3.21895">
        <ele>1127.4000244141</ele>
        <time>2019-05-25T08:51:23Z</time>
      </trkpt>
      <trkpt lat="44.64822" lon="3.21899">
        <ele>1127.4000244141</ele>
        <time>2019-05-25T08:51:24Z</time>
      </trkpt>
      <trkpt lat="44.64834" lon="3.2191">
        <ele>1127</ele>
        <time>2019-05-25T08:51:27Z</time>
      </trkpt>
      <trkpt lat="44.64847" lon="3.2192">
        <ele>1126.5999755859</ele>
        <time>2019-05-25T08:51:29Z</time>
      </trkpt>
      <trkpt lat="44.64856" lon="3.21923">
        <ele>1126.4000244141</ele>
        <time>2019-05-25T08:51:30Z</time>
      </trkpt>
      <trkpt lat="44.64864" lon="3.21924">
        <ele>1126.1999511719</ele>
        <time>2019-05-25T08:51:31Z</time>
      </trkpt>
      <trkpt lat="44.64881" lon="3.21921">
        <ele>1125.8000488281</ele>
        <time>2019-05-25T08:51:33Z</time>
      </trkpt>
      <trkpt lat="44.64896" lon="3.21916">
        <ele>1125.1999511719</ele>
        <time>2019-05-25T08:51:35Z</time>
      </trkpt>
      <trkpt lat="44.64904" lon="3.21915">
        <ele>1124.8000488281</ele>
        <time>2019-05-25T08:51:36Z</time>
      </trkpt>
      <trkpt lat="44.64936" lon="3.21912">
        <ele>1123.8000488281</ele>
        <time>2019-05-25T08:51:40Z</time>
      </trkpt>
      <trkpt lat="44.64943" lon="3.21909">
        <ele>1123.5999755859</ele>
        <time>2019-05-25T08:51:41Z</time>
      </trkpt>
      <trkpt lat="44.64949" lon="3.21905">
        <ele>1123.4000244141</ele>
        <time>2019-05-25T08:51:42Z</time>
      </trkpt>
      <trkpt lat="44.64962" lon="3.21892">
        <ele>1122.8000488281</ele>
        <time>2019-05-25T08:51:44Z</time>
      </trkpt>
      <trkpt lat="44.64967" lon="3.21885">
        <ele>1122.5999755859</ele>
        <time>2019-05-25T08:51:45Z</time>
      </trkpt>
      <trkpt lat="44.64977" lon="3.21868">
        <ele>1122</ele>
        <time>2019-05-25T08:51:47Z</time>
      </trkpt>
      <trkpt lat="44.64991" lon="3.21842">
        <ele>1121.1999511719</ele>
        <time>2019-05-25T08:51:50Z</time>
      </trkpt>
      <trkpt lat="44.65003" lon="3.21827">
        <ele>1120.8000488281</ele>
        <time>2019-05-25T08:51:52Z</time>
      </trkpt>
      <trkpt lat="44.65016" lon="3.21821">
        <ele>1120</ele>
        <time>2019-05-25T08:51:54Z</time>
      </trkpt>
      <trkpt lat="44.65029" lon="3.21832">
        <ele>1119.4000244141</ele>
        <time>2019-05-25T08:51:56Z</time>
      </trkpt>
      <trkpt lat="44.6504" lon="3.21867">
        <ele>1118</ele>
        <time>2019-05-25T08:51:59Z</time>
      </trkpt>
      <trkpt lat="44.65048" lon="3.21895">
        <ele>1116.8000488281</ele>
        <time>2019-05-25T08:52:01Z</time>
      </trkpt>
      <trkpt lat="44.6505" lon="3.2191">
        <ele>1116.4000244141</ele>
        <time>2019-05-25T08:52:02Z</time>
      </trkpt>
      <trkpt lat="44.65051" lon="3.21927">
        <ele>1115.8000488281</ele>
        <time>2019-05-25T08:52:03Z</time>
      </trkpt>
      <trkpt lat="44.65052" lon="3.21974">
        <ele>1114.1999511719</ele>
        <time>2019-05-25T08:52:06Z</time>
      </trkpt>
      <trkpt lat="44.65059" lon="3.21999">
        <ele>1113.1999511719</ele>
        <time>2019-05-25T08:52:08Z</time>
      </trkpt>
      <trkpt lat="44.65065" lon="3.22007">
        <ele>1112.5999755859</ele>
        <time>2019-05-25T08:52:09Z</time>
      </trkpt>
      <trkpt lat="44.65073" lon="3.22013">
        <ele>1112</ele>
        <time>2019-05-25T08:52:10Z</time>
      </trkpt>
      <trkpt lat="44.65091" lon="3.22022">
        <ele>1111.1999511719</ele>
        <time>2019-05-25T08:52:12Z</time>
      </trkpt>
      <trkpt lat="44.651" lon="3.22026">
        <ele>1110.5999755859</ele>
        <time>2019-05-25T08:52:13Z</time>
      </trkpt>
      <trkpt lat="44.65128" lon="3.22036">
        <ele>1109.5999755859</ele>
        <time>2019-05-25T08:52:16Z</time>
      </trkpt>
      <trkpt lat="44.65149" lon="3.22059">
        <ele>1108.4000244141</ele>
        <time>2019-05-25T08:52:19Z</time>
      </trkpt>
      <trkpt lat="44.65181" lon="3.22104">
        <ele>1106.1999511719</ele>
        <time>2019-05-25T08:52:24Z</time>
      </trkpt>
      <trkpt lat="44.65188" lon="3.22129">
        <ele>1105.5999755859</ele>
        <time>2019-05-25T08:52:26Z</time>
      </trkpt>
      <trkpt lat="44.65189" lon="3.22142">
        <ele>1105.1999511719</ele>
        <time>2019-05-25T08:52:27Z</time>
      </trkpt>
      <trkpt lat="44.65191" lon="3.22192">
        <ele>1104</ele>
        <time>2019-05-25T08:52:31Z</time>
      </trkpt>
      <trkpt lat="44.65185" lon="3.22212">
        <ele>1103.4000244141</ele>
        <time>2019-05-25T08:52:33Z</time>
      </trkpt>
      <trkpt lat="44.65167" lon="3.22236">
        <ele>1102.4000244141</ele>
        <time>2019-05-25T08:52:36Z</time>
      </trkpt>
      <trkpt lat="44.6516" lon="3.22256">
        <ele>1101.8000488281</ele>
        <time>2019-05-25T08:52:38Z</time>
      </trkpt>
      <trkpt lat="44.65157" lon="3.22266">
        <ele>1101.5999755859</ele>
        <time>2019-05-25T08:52:39Z</time>
      </trkpt>
      <trkpt lat="44.65152" lon="3.22305">
        <ele>1100.5999755859</ele>
        <time>2019-05-25T08:52:43Z</time>
      </trkpt>
      <trkpt lat="44.65155" lon="3.22322">
        <ele>1100.1999511719</ele>
        <time>2019-05-25T08:52:45Z</time>
      </trkpt>
      <trkpt lat="44.65157" lon="3.22329">
        <ele>1100.1999511719</ele>
        <time>2019-05-25T08:52:46Z</time>
      </trkpt>
      <trkpt lat="44.65169" lon="3.22364">
        <ele>1099.1999511719</ele>
        <time>2019-05-25T08:52:52Z</time>
      </trkpt>
      <trkpt lat="44.65176" lon="3.22392">
        <ele>1098.5999755859</ele>
        <time>2019-05-25T08:52:58Z</time>
      </trkpt>
      <trkpt lat="44.65181" lon="3.22416">
        <ele>1098</ele>
        <time>2019-05-25T08:53:04Z</time>
      </trkpt>
      <trkpt lat="44.65186" lon="3.22438">
        <ele>1097.5999755859</ele>
        <time>2019-05-25T08:53:11Z</time>
      </trkpt>
      <trkpt lat="44.65189" lon="3.22456">
        <ele>1097.4000244141</ele>
        <time>2019-05-25T08:53:17Z</time>
      </trkpt>
      <trkpt lat="44.65189" lon="3.22478">
        <ele>1097.4000244141</ele>
        <time>2019-05-25T08:53:24Z</time>
      </trkpt>
      <trkpt lat="44.6519" lon="3.22506">
        <ele>1097.1999511719</ele>
        <time>2019-05-25T08:53:33Z</time>
      </trkpt>
      <trkpt lat="44.65195" lon="3.22535">
        <ele>1097.4000244141</ele>
        <time>2019-05-25T08:53:43Z</time>
      </trkpt>
      <trkpt lat="44.65204" lon="3.2256">
        <ele>1097.8000488281</ele>
        <time>2019-05-25T08:53:52Z</time>
      </trkpt>
      <trkpt lat="44.65213" lon="3.22573">
        <ele>1098</ele>
        <time>2019-05-25T08:53:58Z</time>
      </trkpt>
      <trkpt lat="44.65221" lon="3.22583">
        <ele>1098</ele>
        <time>2019-05-25T08:54:03Z</time>
      </trkpt>
      <trkpt lat="44.65234" lon="3.22597">
        <ele>1098.4000244141</ele>
        <time>2019-05-25T08:54:10Z</time>
      </trkpt>
      <trkpt lat="44.65244" lon="3.22607">
        <ele>1098.8000488281</ele>
        <time>2019-05-25T08:54:16Z</time>
      </trkpt>
      <trkpt lat="44.65254" lon="3.2262">
        <ele>1099.1999511719</ele>
        <time>2019-05-25T08:54:22Z</time>
      </trkpt>
      <trkpt lat="44.65265" lon="3.22641">
        <ele>1099.8000488281</ele>
        <time>2019-05-25T08:54:29Z</time>
      </trkpt>
      <trkpt lat="44.65272" lon="3.22661">
        <ele>1100.4000244141</ele>
        <time>2019-05-25T08:54:35Z</time>
      </trkpt>
      <trkpt lat="44.65275" lon="3.22684">
        <ele>1101.1999511719</ele>
        <time>2019-05-25T08:54:42Z</time>
      </trkpt>
      <trkpt lat="44.65278" lon="3.227">
        <ele>1101.8000488281</ele>
        <time>2019-05-25T08:54:47Z</time>
      </trkpt>
      <trkpt lat="44.65284" lon="3.22709">
        <ele>1102.1999511719</ele>
        <time>2019-05-25T08:54:51Z</time>
      </trkpt>
      <trkpt lat="44.653" lon="3.22713">
        <ele>1103</ele>
        <time>2019-05-25T08:54:57Z</time>
      </trkpt>
      <trkpt lat="44.65314" lon="3.22718">
        <ele>1103.5999755859</ele>
        <time>2019-05-25T08:55:02Z</time>
      </trkpt>
      <trkpt lat="44.65316" lon="3.22721">
        <ele>1103.8000488281</ele>
        <time>2019-05-25T08:55:03Z</time>
      </trkpt>
      <trkpt lat="44.65318" lon="3.22729">
        <ele>1104</ele>
        <time>2019-05-25T08:55:05Z</time>
      </trkpt>
      <trkpt lat="44.65319" lon="3.22732">
        <ele>1104.1999511719</ele>
        <time>2019-05-25T08:55:06Z</time>
      </trkpt>
      <trkpt lat="44.65322" lon="3.22757">
        <ele>1105.1999511719</ele>
        <time>2019-05-25T08:55:12Z</time>
      </trkpt>
      <trkpt lat="44.6532" lon="3.22773">
        <ele>1106</ele>
        <time>2019-05-25T08:55:16Z</time>
      </trkpt>
      <trkpt lat="44.65312" lon="3.22803">
        <ele>1107.4000244141</ele>
        <time>2019-05-25T08:55:24Z</time>
      </trkpt>
      <trkpt lat="44.65305" lon="3.22825">
        <ele>1108</ele>
        <time>2019-05-25T08:55:29Z</time>
      </trkpt>
      <trkpt lat="44.65296" lon="3.22842">
        <ele>1108.4000244141</ele>
        <time>2019-05-25T08:55:34Z</time>
      </trkpt>
      <trkpt lat="44.65282" lon="3.22851">
        <ele>1108.8000488281</ele>
        <time>2019-05-25T08:55:38Z</time>
      </trkpt>
      <trkpt lat="44.65278" lon="3.22853">
        <ele>1109</ele>
        <time>2019-05-25T08:55:39Z</time>
      </trkpt>
      <trkpt lat="44.65258" lon="3.22864">
        <ele>1109.4000244141</ele>
        <time>2019-05-25T08:55:44Z</time>
      </trkpt>
      <trkpt lat="44.65235" lon="3.22877">
        <ele>1109.8000488281</ele>
        <time>2019-05-25T08:55:49Z</time>
      </trkpt>
      <trkpt lat="44.65199" lon="3.22895">
        <ele>1110</ele>
        <time>2019-05-25T08:55:55Z</time>
      </trkpt>
      <trkpt lat="44.6515" lon="3.22926">
        <ele>1109.8000488281</ele>
        <time>2019-05-25T08:56:02Z</time>
      </trkpt>
      <trkpt lat="44.65102" lon="3.22959">
        <ele>1109.5999755859</ele>
        <time>2019-05-25T08:56:08Z</time>
      </trkpt>
      <trkpt lat="44.65061" lon="3.22985">
        <ele>1108.8000488281</ele>
        <time>2019-05-25T08:56:12Z</time>
      </trkpt>
      <trkpt lat="44.65007" lon="3.23015">
        <ele>1107.5999755859</ele>
        <time>2019-05-25T08:56:17Z</time>
      </trkpt>
      <trkpt lat="44.64985" lon="3.23025">
        <ele>1107</ele>
        <time>2019-05-25T08:56:19Z</time>
      </trkpt>
      <trkpt lat="44.64937" lon="3.23049">
        <ele>1106.1999511719</ele>
        <time>2019-05-25T08:56:24Z</time>
      </trkpt>
      <trkpt lat="44.64886" lon="3.23079">
        <ele>1105.5999755859</ele>
        <time>2019-05-25T08:56:30Z</time>
      </trkpt>
      <trkpt lat="44.64848" lon="3.23099">
        <ele>1105</ele>
        <time>2019-05-25T08:56:34Z</time>
      </trkpt>
      <trkpt lat="44.64838" lon="3.23103">
        <ele>1104.8000488281</ele>
        <time>2019-05-25T08:56:35Z</time>
      </trkpt>
      <trkpt lat="44.64795" lon="3.23116">
        <ele>1103.8000488281</ele>
        <time>2019-05-25T08:56:39Z</time>
      </trkpt>
      <trkpt lat="44.6475" lon="3.23116">
        <ele>1102.8000488281</ele>
        <time>2019-05-25T08:56:43Z</time>
      </trkpt>
      <trkpt lat="44.64698" lon="3.23121">
        <ele>1101.5999755859</ele>
        <time>2019-05-25T08:56:47Z</time>
      </trkpt>
      <trkpt lat="44.64634" lon="3.23133">
        <ele>1100</ele>
        <time>2019-05-25T08:56:52Z</time>
      </trkpt>
      <trkpt lat="44.64569" lon="3.23139">
        <ele>1098.1999511719</ele>
        <time>2019-05-25T08:56:57Z</time>
      </trkpt>
      <trkpt lat="44.64533" lon="3.23123">
        <ele>1097.1999511719</ele>
        <time>2019-05-25T08:57:00Z</time>
      </trkpt>
      <trkpt lat="44.64503" lon="3.23098">
        <ele>1096.1999511719</ele>
        <time>2019-05-25T08:57:03Z</time>
      </trkpt>
      <trkpt lat="44.64471" lon="3.23089">
        <ele>1095.4000244141</ele>
        <time>2019-05-25T08:57:06Z</time>
      </trkpt>
      <trkpt lat="44.6443" lon="3.23072">
        <ele>1094.1999511719</ele>
        <time>2019-05-25T08:57:10Z</time>
      </trkpt>
      <trkpt lat="44.64409" lon="3.23066">
        <ele>1093.5999755859</ele>
        <time>2019-05-25T08:57:13Z</time>
      </trkpt>
      <trkpt lat="44.64401" lon="3.23068">
        <ele>1092.8000488281</ele>
        <time>2019-05-25T08:57:16Z</time>
      </trkpt>
      <trkpt lat="44.64392" lon="3.23069">
        <ele>1092.1999511719</ele>
        <time>2019-05-25T08:57:18Z</time>
      </trkpt>
      <trkpt lat="44.6438" lon="3.23074">
        <ele>1091.5999755859</ele>
        <time>2019-05-25T08:57:20Z</time>
      </trkpt>
      <trkpt lat="44.64375" lon="3.2308">
        <ele>1091.4000244141</ele>
        <time>2019-05-25T08:57:21Z</time>
      </trkpt>
      <trkpt lat="44.64371" lon="3.23085">
        <ele>1091.1999511719</ele>
        <time>2019-05-25T08:57:22Z</time>
      </trkpt>
      <trkpt lat="44.64362" lon="3.23098">
        <ele>1090.5999755859</ele>
        <time>2019-05-25T08:57:24Z</time>
      </trkpt>
      <trkpt lat="44.64359" lon="3.23106">
        <ele>1090.4000244141</ele>
        <time>2019-05-25T08:57:25Z</time>
      </trkpt>
      <trkpt lat="44.64354" lon="3.23121">
        <ele>1090</ele>
        <time>2019-05-25T08:57:27Z</time>
      </trkpt>
      <trkpt lat="44.64349" lon="3.23135">
        <ele>1089.4000244141</ele>
        <time>2019-05-25T08:57:29Z</time>
      </trkpt>
      <trkpt lat="44.64347" lon="3.23149">
        <ele>1089</ele>
        <time>2019-05-25T08:57:31Z</time>
      </trkpt>
      <trkpt lat="44.64346" lon="3.23162">
        <ele>1088.4000244141</ele>
        <time>2019-05-25T08:57:33Z</time>
      </trkpt>
      <trkpt lat="44.64347" lon="3.23176">
        <ele>1088</ele>
        <time>2019-05-25T08:57:35Z</time>
      </trkpt>
      <trkpt lat="44.64347" lon="3.23191">
        <ele>1087.8000488281</ele>
        <time>2019-05-25T08:57:37Z</time>
      </trkpt>
      <trkpt lat="44.64347" lon="3.23199">
        <ele>1087.8000488281</ele>
        <time>2019-05-25T08:57:38Z</time>
      </trkpt>
      <trkpt lat="44.6435" lon="3.23217">
        <ele>1087.5999755859</ele>
        <time>2019-05-25T08:57:40Z</time>
      </trkpt>
      <trkpt lat="44.64352" lon="3.23226">
        <ele>1087.4000244141</ele>
        <time>2019-05-25T08:57:41Z</time>
      </trkpt>
      <trkpt lat="44.64349" lon="3.2325">
        <ele>1087.1999511719</ele>
        <time>2019-05-25T08:57:44Z</time>
      </trkpt>
      <trkpt lat="44.64349" lon="3.23258">
        <ele>1087</ele>
        <time>2019-05-25T08:57:45Z</time>
      </trkpt>
      <trkpt lat="44.64351" lon="3.23266">
        <ele>1087</ele>
        <time>2019-05-25T08:57:46Z</time>
      </trkpt>
      <trkpt lat="44.64356" lon="3.2328">
        <ele>1086.8000488281</ele>
        <time>2019-05-25T08:57:48Z</time>
      </trkpt>
      <trkpt lat="44.64361" lon="3.23295">
        <ele>1086.8000488281</ele>
        <time>2019-05-25T08:57:50Z</time>
      </trkpt>
      <trkpt lat="44.64364" lon="3.2331">
        <ele>1086.5999755859</ele>
        <time>2019-05-25T08:57:52Z</time>
      </trkpt>
      <trkpt lat="44.64363" lon="3.23324">
        <ele>1086.5999755859</ele>
        <time>2019-05-25T08:57:54Z</time>
      </trkpt>
      <trkpt lat="44.64362" lon="3.23331">
        <ele>1086.5999755859</ele>
        <time>2019-05-25T08:57:55Z</time>
      </trkpt>
      <trkpt lat="44.64362" lon="3.23338">
        <ele>1086.5999755859</ele>
        <time>2019-05-25T08:57:56Z</time>
      </trkpt>
      <trkpt lat="44.64362" lon="3.23353">
        <ele>1086.5999755859</ele>
        <time>2019-05-25T08:57:58Z</time>
      </trkpt>
      <trkpt lat="44.64361" lon="3.23358">
        <ele>1086.4000244141</ele>
        <time>2019-05-25T08:57:59Z</time>
      </trkpt>
      <trkpt lat="44.64364" lon="3.23369">
        <ele>1086.1999511719</ele>
        <time>2019-05-25T08:58:01Z</time>
      </trkpt>
      <trkpt lat="44.64364" lon="3.23371">
        <ele>1086</ele>
        <time>2019-05-25T08:58:02Z</time>
      </trkpt>
      <trkpt lat="44.64367" lon="3.23368">
        <ele>1085.5999755859</ele>
        <time>2019-05-25T08:58:05Z</time>
      </trkpt>
      <trkpt lat="44.64373" lon="3.23354">
        <ele>1085.5999755859</ele>
        <time>2019-05-25T08:58:11Z</time>
      </trkpt>
      <trkpt lat="44.64376" lon="3.23355">
        <ele>1085.5999755859</ele>
        <time>2019-05-25T08:58:13Z</time>
      </trkpt>
      <trkpt lat="44.64379" lon="3.23357">
        <ele>1085.4000244141</ele>
        <time>2019-05-25T08:58:17Z</time>
      </trkpt>
      <trkpt lat="44.64383" lon="3.23354">
        <ele>1085.1999511719</ele>
        <time>2019-05-25T08:58:20Z</time>
      </trkpt>
      <trkpt lat="44.64385" lon="3.23353">
        <ele>1085</ele>
        <time>2019-05-25T08:58:21Z</time>
      </trkpt>
      <trkpt lat="44.64394" lon="3.23353">
        <ele>1085.1999511719</ele>
        <time>2019-05-25T08:58:26Z</time>
      </trkpt>
      <trkpt lat="44.64395" lon="3.23354">
        <ele>1085.4000244141</ele>
        <time>2019-05-25T08:58:27Z</time>
      </trkpt>
      <trkpt lat="44.64395" lon="3.23356">
        <ele>1085.5999755859</ele>
        <time>2019-05-25T08:58:28Z</time>
      </trkpt>
      <trkpt lat="44.64393" lon="3.23358">
        <ele>1085.5999755859</ele>
        <time>2019-05-25T08:58:30Z</time>
      </trkpt>
      <trkpt lat="44.64391" lon="3.23359">
        <ele>1085.5999755859</ele>
        <time>2019-05-25T08:58:31Z</time>
      </trkpt>
      <trkpt lat="44.64387" lon="3.23365">
        <ele>1085.5999755859</ele>
        <time>2019-05-25T08:58:34Z</time>
      </trkpt>
      <trkpt lat="44.64387" lon="3.23368">
        <ele>1085.8000488281</ele>
        <time>2019-05-25T08:58:35Z</time>
      </trkpt>
      <trkpt lat="44.64386" lon="3.2337">
        <ele>1085.8000488281</ele>
        <time>2019-05-25T08:58:36Z</time>
      </trkpt>
      <trkpt lat="44.6438" lon="3.23372">
        <ele>1085.8000488281</ele>
        <time>2019-05-25T08:58:38Z</time>
      </trkpt>
      <trkpt lat="44.64374" lon="3.23375">
        <ele>1085.5999755859</ele>
        <time>2019-05-25T08:58:41Z</time>
      </trkpt>
      <trkpt lat="44.64374" lon="3.2338">
        <ele>1085.5999755859</ele>
        <time>2019-05-25T08:58:43Z</time>
      </trkpt>
      <trkpt lat="44.64375" lon="3.23383">
        <ele>1085.5999755859</ele>
        <time>2019-05-25T08:58:44Z</time>
      </trkpt>
      <trkpt lat="44.64377" lon="3.23385">
        <ele>1085.5999755859</ele>
        <time>2019-05-25T08:58:45Z</time>
      </trkpt>
      <trkpt lat="44.64381" lon="3.23391">
        <ele>1085.4000244141</ele>
        <time>2019-05-25T08:58:48Z</time>
      </trkpt>
      <trkpt lat="44.6438" lon="3.23396">
        <ele>1085.5999755859</ele>
        <time>2019-05-25T08:58:50Z</time>
      </trkpt>
      <trkpt lat="44.64377" lon="3.23397">
        <ele>1085.5999755859</ele>
        <time>2019-05-25T08:58:53Z</time>
      </trkpt>
      <trkpt lat="44.64395" lon="3.2343">
        <ele>1086</ele>
        <time>2019-05-25T08:59:34Z</time>
      </trkpt>
      <trkpt lat="44.64392" lon="3.2343">
        <ele>1086</ele>
        <time>2019-05-25T08:59:35Z</time>
      </trkpt>
      <trkpt lat="44.64384" lon="3.23431">
        <ele>1085.8000488281</ele>
        <time>2019-05-25T08:59:38Z</time>
      </trkpt>
      <trkpt lat="44.64382" lon="3.23435">
        <ele>1085.4000244141</ele>
        <time>2019-05-25T08:59:40Z</time>
      </trkpt>
      <trkpt lat="44.64389" lon="3.23436">
        <ele>1085.4000244141</ele>
        <time>2019-05-25T08:59:48Z</time>
      </trkpt>
      <trkpt lat="44.6439" lon="3.23438">
        <ele>1085.4000244141</ele>
        <time>2019-05-25T08:59:49Z</time>
      </trkpt>
      <trkpt lat="44.64392" lon="3.23442">
        <ele>1085.5999755859</ele>
        <time>2019-05-25T08:59:52Z</time>
      </trkpt>
      <trkpt lat="44.64385" lon="3.23456">
        <ele>1086.1999511719</ele>
        <time>2019-05-25T09:00:40Z</time>
      </trkpt>
      <trkpt lat="44.64361" lon="3.23489">
        <ele>1084.5999755859</ele>
        <time>2019-05-25T09:00:47Z</time>
      </trkpt>
      <trkpt lat="44.64356" lon="3.23497">
        <ele>1084.4000244141</ele>
        <time>2019-05-25T09:00:49Z</time>
      </trkpt>
      <trkpt lat="44.64355" lon="3.23501">
        <ele>1084.1999511719</ele>
        <time>2019-05-25T09:00:50Z</time>
      </trkpt>
      <trkpt lat="44.64355" lon="3.23506">
        <ele>1084.1999511719</ele>
        <time>2019-05-25T09:00:51Z</time>
      </trkpt>
      <trkpt lat="44.64356" lon="3.23515">
        <ele>1084</ele>
        <time>2019-05-25T09:00:53Z</time>
      </trkpt>
      <trkpt lat="44.64361" lon="3.23536">
        <ele>1083.5999755859</ele>
        <time>2019-05-25T09:00:58Z</time>
      </trkpt>
      <trkpt lat="44.64361" lon="3.2356">
        <ele>1083</ele>
        <time>2019-05-25T09:01:04Z</time>
      </trkpt>
      <trkpt lat="44.64361" lon="3.23572">
        <ele>1082.8000488281</ele>
        <time>2019-05-25T09:01:08Z</time>
      </trkpt>
      <trkpt lat="44.6436" lon="3.23575">
        <ele>1082.8000488281</ele>
        <time>2019-05-25T09:01:09Z</time>
      </trkpt>
      <trkpt lat="44.64358" lon="3.2358">
        <ele>1082.8000488281</ele>
        <time>2019-05-25T09:01:12Z</time>
      </trkpt>
      <trkpt lat="44.64363" lon="3.23615">
        <ele>1077.8000488281</ele>
        <time>2019-05-25T09:19:19Z</time>
      </trkpt>
      <trkpt lat="44.64362" lon="3.23624">
        <ele>1077.8000488281</ele>
        <time>2019-05-25T09:19:22Z</time>
      </trkpt>
      <trkpt lat="44.6436" lon="3.23636">
        <ele>1078.1999511719</ele>
        <time>2019-05-25T09:19:26Z</time>
      </trkpt>
      <trkpt lat="44.64357" lon="3.23637">
        <ele>1078.1999511719</ele>
        <time>2019-05-25T09:19:27Z</time>
      </trkpt>
      <trkpt lat="44.64342" lon="3.2364">
        <ele>1078.4000244141</ele>
        <time>2019-05-25T09:19:32Z</time>
      </trkpt>
      <trkpt lat="44.64334" lon="3.23647">
        <ele>1078.4000244141</ele>
        <time>2019-05-25T09:19:34Z</time>
      </trkpt>
      <trkpt lat="44.64329" lon="3.23657">
        <ele>1078.4000244141</ele>
        <time>2019-05-25T09:19:36Z</time>
      </trkpt>
      <trkpt lat="44.6432" lon="3.23677">
        <ele>1078.8000488281</ele>
        <time>2019-05-25T09:19:41Z</time>
      </trkpt>
      <trkpt lat="44.64316" lon="3.23688">
        <ele>1078.8000488281</ele>
        <time>2019-05-25T09:19:45Z</time>
      </trkpt>
      <trkpt lat="44.64311" lon="3.23703">
        <ele>1078.8000488281</ele>
        <time>2019-05-25T09:19:50Z</time>
      </trkpt>
      <trkpt lat="44.64309" lon="3.23717">
        <ele>1079</ele>
        <time>2019-05-25T09:19:55Z</time>
      </trkpt>
      <trkpt lat="44.64307" lon="3.23723">
        <ele>1079.1999511719</ele>
        <time>2019-05-25T09:19:59Z</time>
      </trkpt>
      <trkpt lat="44.64304" lon="3.23727">
        <ele>1080</ele>
        <time>2019-05-25T09:20:27Z</time>
      </trkpt>
      <trkpt lat="44.64304" lon="3.23732">
        <ele>1080</ele>
        <time>2019-05-25T09:20:29Z</time>
      </trkpt>
      <trkpt lat="44.64304" lon="3.23735">
        <ele>1080.1999511719</ele>
        <time>2019-05-25T09:20:31Z</time>
      </trkpt>
      <trkpt lat="44.64303" lon="3.23738">
        <ele>1080.1999511719</ele>
        <time>2019-05-25T09:20:32Z</time>
      </trkpt>
      <trkpt lat="44.64296" lon="3.23762">
        <ele>1080.1999511719</ele>
        <time>2019-05-25T09:20:38Z</time>
      </trkpt>
      <trkpt lat="44.64289" lon="3.23795">
        <ele>1080.5999755859</ele>
        <time>2019-05-25T09:20:45Z</time>
      </trkpt>
      <trkpt lat="44.64281" lon="3.23823">
        <ele>1080.8000488281</ele>
        <time>2019-05-25T09:20:50Z</time>
      </trkpt>
      <trkpt lat="44.64278" lon="3.2383">
        <ele>1080.8000488281</ele>
        <time>2019-05-25T09:20:51Z</time>
      </trkpt>
      <trkpt lat="44.6427" lon="3.23846">
        <ele>1080.5999755859</ele>
        <time>2019-05-25T09:20:53Z</time>
      </trkpt>
      <trkpt lat="44.6426" lon="3.23862">
        <ele>1080.5999755859</ele>
        <time>2019-05-25T09:20:55Z</time>
      </trkpt>
      <trkpt lat="44.6423" lon="3.23899">
        <ele>1080</ele>
        <time>2019-05-25T09:21:00Z</time>
      </trkpt>
      <trkpt lat="44.64223" lon="3.23916">
        <ele>1079.8000488281</ele>
        <time>2019-05-25T09:21:02Z</time>
      </trkpt>
      <trkpt lat="44.6422" lon="3.23925">
        <ele>1079.5999755859</ele>
        <time>2019-05-25T09:21:03Z</time>
      </trkpt>
      <trkpt lat="44.64216" lon="3.2394">
        <ele>1079.4000244141</ele>
        <time>2019-05-25T09:21:05Z</time>
      </trkpt>
      <trkpt lat="44.64209" lon="3.2396">
        <ele>1079.1999511719</ele>
        <time>2019-05-25T09:21:08Z</time>
      </trkpt>
      <trkpt lat="44.64202" lon="3.2397">
        <ele>1079</ele>
        <time>2019-05-25T09:21:10Z</time>
      </trkpt>
      <trkpt lat="44.64194" lon="3.23978">
        <ele>1078.8000488281</ele>
        <time>2019-05-25T09:21:12Z</time>
      </trkpt>
      <trkpt lat="44.64189" lon="3.23981">
        <ele>1078.8000488281</ele>
        <time>2019-05-25T09:21:13Z</time>
      </trkpt>
      <trkpt lat="44.64179" lon="3.23987">
        <ele>1078.5999755859</ele>
        <time>2019-05-25T09:21:15Z</time>
      </trkpt>
      <trkpt lat="44.64167" lon="3.23991">
        <ele>1078.4000244141</ele>
        <time>2019-05-25T09:21:17Z</time>
      </trkpt>
      <trkpt lat="44.64155" lon="3.23996">
        <ele>1078.4000244141</ele>
        <time>2019-05-25T09:21:19Z</time>
      </trkpt>
      <trkpt lat="44.64144" lon="3.24006">
        <ele>1078.1999511719</ele>
        <time>2019-05-25T09:21:21Z</time>
      </trkpt>
      <trkpt lat="44.64128" lon="3.24032">
        <ele>1078</ele>
        <time>2019-05-25T09:21:25Z</time>
      </trkpt>
      <trkpt lat="44.64124" lon="3.24038">
        <ele>1078</ele>
        <time>2019-05-25T09:21:26Z</time>
      </trkpt>
      <trkpt lat="44.64114" lon="3.24047">
        <ele>1077.8000488281</ele>
        <time>2019-05-25T09:21:28Z</time>
      </trkpt>
      <trkpt lat="44.64108" lon="3.2405">
        <ele>1077.8000488281</ele>
        <time>2019-05-25T09:21:29Z</time>
      </trkpt>
      <trkpt lat="44.64068" lon="3.24072">
        <ele>1077.1999511719</ele>
        <time>2019-05-25T09:21:36Z</time>
      </trkpt>
      <trkpt lat="44.64027" lon="3.24096">
        <ele>1077.1999511719</ele>
        <time>2019-05-25T09:21:44Z</time>
      </trkpt>
      <trkpt lat="44.64003" lon="3.24105">
        <ele>1077.1999511719</ele>
        <time>2019-05-25T09:21:50Z</time>
      </trkpt>
      <trkpt lat="44.63994" lon="3.24117">
        <ele>1077.1999511719</ele>
        <time>2019-05-25T09:21:54Z</time>
      </trkpt>
      <trkpt lat="44.63998" lon="3.24129">
        <ele>1077.1999511719</ele>
        <time>2019-05-25T09:21:57Z</time>
      </trkpt>
      <trkpt lat="44.6401" lon="3.24139">
        <ele>1077.4000244141</ele>
        <time>2019-05-25T09:22:02Z</time>
      </trkpt>
      <trkpt lat="44.64023" lon="3.24147">
        <ele>1077.5999755859</ele>
        <time>2019-05-25T09:22:09Z</time>
      </trkpt>
      <trkpt lat="44.64036" lon="3.24152">
        <ele>1078.4000244141</ele>
        <time>2019-05-25T09:22:17Z</time>
      </trkpt>
      <trkpt lat="44.64047" lon="3.24157">
        <ele>1079.1999511719</ele>
        <time>2019-05-25T09:22:25Z</time>
      </trkpt>
      <trkpt lat="44.64058" lon="3.24162">
        <ele>1080.1999511719</ele>
        <time>2019-05-25T09:22:33Z</time>
      </trkpt>
      <trkpt lat="44.64063" lon="3.24165">
        <ele>1080.8000488281</ele>
        <time>2019-05-25T09:22:37Z</time>
      </trkpt>
      <trkpt lat="44.64068" lon="3.24168">
        <ele>1081.4000244141</ele>
        <time>2019-05-25T09:22:41Z</time>
      </trkpt>
      <trkpt lat="44.64069" lon="3.24168">
        <ele>1081.4000244141</ele>
        <time>2019-05-25T09:22:42Z</time>
      </trkpt>
      <trkpt lat="44.64078" lon="3.24173">
        <ele>1082.4000244141</ele>
        <time>2019-05-25T09:22:49Z</time>
      </trkpt>
      <trkpt lat="44.64088" lon="3.24177">
        <ele>1083.5999755859</ele>
        <time>2019-05-25T09:22:56Z</time>
      </trkpt>
      <trkpt lat="44.64097" lon="3.24179">
        <ele>1084.4000244141</ele>
        <time>2019-05-25T09:23:02Z</time>
      </trkpt>
      <trkpt lat="44.64103" lon="3.2418">
        <ele>1085.4000244141</ele>
        <time>2019-05-25T09:23:07Z</time>
      </trkpt>
      <trkpt lat="44.64113" lon="3.24186">
        <ele>1086.4000244141</ele>
        <time>2019-05-25T09:23:15Z</time>
      </trkpt>
      <trkpt lat="44.64123" lon="3.24191">
        <ele>1087.5999755859</ele>
        <time>2019-05-25T09:23:23Z</time>
      </trkpt>
      <trkpt lat="44.64137" lon="3.24195">
        <ele>1088.8000488281</ele>
        <time>2019-05-25T09:23:33Z</time>
      </trkpt>
      <trkpt lat="44.64147" lon="3.24198">
        <ele>1089.8000488281</ele>
        <time>2019-05-25T09:23:41Z</time>
      </trkpt>
      <trkpt lat="44.64159" lon="3.24201">
        <ele>1091</ele>
        <time>2019-05-25T09:23:51Z</time>
      </trkpt>
      <trkpt lat="44.64162" lon="3.24202">
        <ele>1091.1999511719</ele>
        <time>2019-05-25T09:23:53Z</time>
      </trkpt>
      <trkpt lat="44.64164" lon="3.24203">
        <ele>1091.5999755859</ele>
        <time>2019-05-25T09:23:55Z</time>
      </trkpt>
      <trkpt lat="44.64167" lon="3.24203">
        <ele>1091.8000488281</ele>
        <time>2019-05-25T09:23:57Z</time>
      </trkpt>
      <trkpt lat="44.64175" lon="3.24206">
        <ele>1092.5999755859</ele>
        <time>2019-05-25T09:24:03Z</time>
      </trkpt>
      <trkpt lat="44.64187" lon="3.24208">
        <ele>1093.5999755859</ele>
        <time>2019-05-25T09:24:13Z</time>
      </trkpt>
      <trkpt lat="44.64194" lon="3.24209">
        <ele>1094.1999511719</ele>
        <time>2019-05-25T09:24:18Z</time>
      </trkpt>
      <trkpt lat="44.642" lon="3.2421">
        <ele>1095</ele>
        <time>2019-05-25T09:24:23Z</time>
      </trkpt>
      <trkpt lat="44.64205" lon="3.24211">
        <ele>1095.4000244141</ele>
        <time>2019-05-25T09:24:26Z</time>
      </trkpt>
      <trkpt lat="44.64217" lon="3.24213">
        <ele>1096.8000488281</ele>
        <time>2019-05-25T09:24:36Z</time>
      </trkpt>
      <trkpt lat="44.64225" lon="3.24215">
        <ele>1098</ele>
        <time>2019-05-25T09:24:43Z</time>
      </trkpt>
      <trkpt lat="44.64226" lon="3.24216">
        <ele>1098.1999511719</ele>
        <time>2019-05-25T09:24:44Z</time>
      </trkpt>
      <trkpt lat="44.64232" lon="3.24216">
        <ele>1098.8000488281</ele>
        <time>2019-05-25T09:24:49Z</time>
      </trkpt>
      <trkpt lat="44.64237" lon="3.24217">
        <ele>1099.5999755859</ele>
        <time>2019-05-25T09:24:53Z</time>
      </trkpt>
      <trkpt lat="44.64238" lon="3.24217">
        <ele>1099.8000488281</ele>
        <time>2019-05-25T09:24:54Z</time>
      </trkpt>
      <trkpt lat="44.6424" lon="3.24218">
        <ele>1100</ele>
        <time>2019-05-25T09:24:55Z</time>
      </trkpt>
      <trkpt lat="44.64254" lon="3.24221">
        <ele>1101.8000488281</ele>
        <time>2019-05-25T09:25:07Z</time>
      </trkpt>
      <trkpt lat="44.64258" lon="3.24222">
        <ele>1102.1999511719</ele>
        <time>2019-05-25T09:25:10Z</time>
      </trkpt>
      <trkpt lat="44.64268" lon="3.24225">
        <ele>1103.1999511719</ele>
        <time>2019-05-25T09:25:18Z</time>
      </trkpt>
      <trkpt lat="44.64281" lon="3.24229">
        <ele>1105</ele>
        <time>2019-05-25T09:25:29Z</time>
      </trkpt>
      <trkpt lat="44.64289" lon="3.2423">
        <ele>1105.8000488281</ele>
        <time>2019-05-25T09:25:35Z</time>
      </trkpt>
      <trkpt lat="44.64299" lon="3.24234">
        <ele>1107</ele>
        <time>2019-05-25T09:25:43Z</time>
      </trkpt>
      <trkpt lat="44.64308" lon="3.24236">
        <ele>1108</ele>
        <time>2019-05-25T09:25:50Z</time>
      </trkpt>
      <trkpt lat="44.64321" lon="3.2424">
        <ele>1109.8000488281</ele>
        <time>2019-05-25T09:26:00Z</time>
      </trkpt>
      <trkpt lat="44.64333" lon="3.24243">
        <ele>1111.8000488281</ele>
        <time>2019-05-25T09:26:10Z</time>
      </trkpt>
      <trkpt lat="44.64341" lon="3.24245">
        <ele>1112.8000488281</ele>
        <time>2019-05-25T09:26:16Z</time>
      </trkpt>
      <trkpt lat="44.64354" lon="3.24248">
        <ele>1114.4000244141</ele>
        <time>2019-05-25T09:26:26Z</time>
      </trkpt>
      <trkpt lat="44.64366" lon="3.2425">
        <ele>1115.8000488281</ele>
        <time>2019-05-25T09:26:34Z</time>
      </trkpt>
      <trkpt lat="44.64382" lon="3.24253">
        <ele>1117</ele>
        <time>2019-05-25T09:26:42Z</time>
      </trkpt>
      <trkpt lat="44.64407" lon="3.24257">
        <ele>1117.8000488281</ele>
        <time>2019-05-25T09:26:49Z</time>
      </trkpt>
      <trkpt lat="44.64424" lon="3.24261">
        <ele>1118.1999511719</ele>
        <time>2019-05-25T09:26:53Z</time>
      </trkpt>
      <trkpt lat="44.64432" lon="3.24263">
        <ele>1118.4000244141</ele>
        <time>2019-05-25T09:26:55Z</time>
      </trkpt>
      <trkpt lat="44.64468" lon="3.24275">
        <ele>1119.4000244141</ele>
        <time>2019-05-25T09:27:04Z</time>
      </trkpt>
      <trkpt lat="44.64496" lon="3.24288">
        <ele>1119.8000488281</ele>
        <time>2019-05-25T09:27:10Z</time>
      </trkpt>
      <trkpt lat="44.64529" lon="3.24304">
        <ele>1119.8000488281</ele>
        <time>2019-05-25T09:27:15Z</time>
      </trkpt>
      <trkpt lat="44.64575" lon="3.2432">
        <ele>1119.8000488281</ele>
        <time>2019-05-25T09:27:22Z</time>
      </trkpt>
      <trkpt lat="44.6461" lon="3.24332">
        <ele>1120</ele>
        <time>2019-05-25T09:27:28Z</time>
      </trkpt>
      <trkpt lat="44.64636" lon="3.24341">
        <ele>1120</ele>
        <time>2019-05-25T09:27:33Z</time>
      </trkpt>
      <trkpt lat="44.6464" lon="3.24343">
        <ele>1120</ele>
        <time>2019-05-25T09:27:34Z</time>
      </trkpt>
      <trkpt lat="44.64658" lon="3.24346">
        <ele>1120</ele>
        <time>2019-05-25T09:27:37Z</time>
      </trkpt>
      <trkpt lat="44.64664" lon="3.24346">
        <ele>1120</ele>
        <time>2019-05-25T09:27:38Z</time>
      </trkpt>
      <trkpt lat="44.64678" lon="3.24342">
        <ele>1120</ele>
        <time>2019-05-25T09:27:41Z</time>
      </trkpt>
      <trkpt lat="44.64696" lon="3.24342">
        <ele>1120.4000244141</ele>
        <time>2019-05-25T09:27:47Z</time>
      </trkpt>
      <trkpt lat="44.64715" lon="3.24343">
        <ele>1120.5999755859</ele>
        <time>2019-05-25T09:27:53Z</time>
      </trkpt>
      <trkpt lat="44.64737" lon="3.24345">
        <ele>1121.1999511719</ele>
        <time>2019-05-25T09:28:00Z</time>
      </trkpt>
      <trkpt lat="44.64754" lon="3.2434">
        <ele>1121.5999755859</ele>
        <time>2019-05-25T09:28:06Z</time>
      </trkpt>
      <trkpt lat="44.64766" lon="3.24332">
        <ele>1121.8000488281</ele>
        <time>2019-05-25T09:28:11Z</time>
      </trkpt>
      <trkpt lat="44.64772" lon="3.24328">
        <ele>1122</ele>
        <time>2019-05-25T09:28:14Z</time>
      </trkpt>
      <trkpt lat="44.64778" lon="3.24324">
        <ele>1122.1999511719</ele>
        <time>2019-05-25T09:28:16Z</time>
      </trkpt>
      <trkpt lat="44.64782" lon="3.24318">
        <ele>1122.4000244141</ele>
        <time>2019-05-25T09:28:18Z</time>
      </trkpt>
      <trkpt lat="44.64792" lon="3.24303">
        <ele>1123</ele>
        <time>2019-05-25T09:28:23Z</time>
      </trkpt>
      <trkpt lat="44.64801" lon="3.24293">
        <ele>1123.5999755859</ele>
        <time>2019-05-25T09:28:27Z</time>
      </trkpt>
      <trkpt lat="44.64806" lon="3.24289">
        <ele>1124</ele>
        <time>2019-05-25T09:28:29Z</time>
      </trkpt>
      <trkpt lat="44.6481" lon="3.24283">
        <ele>1124.1999511719</ele>
        <time>2019-05-25T09:28:31Z</time>
      </trkpt>
      <trkpt lat="44.64824" lon="3.2427">
        <ele>1125</ele>
        <time>2019-05-25T09:28:36Z</time>
      </trkpt>
      <trkpt lat="44.64837" lon="3.2426">
        <ele>1125.5999755859</ele>
        <time>2019-05-25T09:28:41Z</time>
      </trkpt>
      <trkpt lat="44.64848" lon="3.2425">
        <ele>1126.1999511719</ele>
        <time>2019-05-25T09:28:45Z</time>
      </trkpt>
      <trkpt lat="44.64861" lon="3.24236">
        <ele>1127</ele>
        <time>2019-05-25T09:28:50Z</time>
      </trkpt>
      <trkpt lat="44.64871" lon="3.24221">
        <ele>1128</ele>
        <time>2019-05-25T09:28:55Z</time>
      </trkpt>
      <trkpt lat="44.64882" lon="3.24209">
        <ele>1128.8000488281</ele>
        <time>2019-05-25T09:29:01Z</time>
      </trkpt>
      <trkpt lat="44.64891" lon="3.242">
        <ele>1129.5999755859</ele>
        <time>2019-05-25T09:29:06Z</time>
      </trkpt>
      <trkpt lat="44.64901" lon="3.24189">
        <ele>1130.1999511719</ele>
        <time>2019-05-25T09:29:11Z</time>
      </trkpt>
      <trkpt lat="44.64902" lon="3.24187">
        <ele>1130.4000244141</ele>
        <time>2019-05-25T09:29:12Z</time>
      </trkpt>
      <trkpt lat="44.64902" lon="3.24177">
        <ele>1130.5999755859</ele>
        <time>2019-05-25T09:29:15Z</time>
      </trkpt>
      <trkpt lat="44.64897" lon="3.24155">
        <ele>1131.1999511719</ele>
        <time>2019-05-25T09:29:21Z</time>
      </trkpt>
      <trkpt lat="44.64893" lon="3.24126">
        <ele>1131.4000244141</ele>
        <time>2019-05-25T09:29:26Z</time>
      </trkpt>
      <trkpt lat="44.6489" lon="3.24096">
        <ele>1131.8000488281</ele>
        <time>2019-05-25T09:29:30Z</time>
      </trkpt>
      <trkpt lat="44.64889" lon="3.24087">
        <ele>1131.8000488281</ele>
        <time>2019-05-25T09:29:31Z</time>
      </trkpt>
      <trkpt lat="44.64888" lon="3.2408">
        <ele>1131.8000488281</ele>
        <time>2019-05-25T09:29:32Z</time>
      </trkpt>
      <trkpt lat="44.64883" lon="3.24062">
        <ele>1131.5999755859</ele>
        <time>2019-05-25T09:29:34Z</time>
      </trkpt>
      <trkpt lat="44.64879" lon="3.24053">
        <ele>1131.5999755859</ele>
        <time>2019-05-25T09:29:35Z</time>
      </trkpt>
      <trkpt lat="44.64858" lon="3.23997">
        <ele>1131</ele>
        <time>2019-05-25T09:29:40Z</time>
      </trkpt>
      <trkpt lat="44.64831" lon="3.23937">
        <ele>1129.8000488281</ele>
        <time>2019-05-25T09:29:45Z</time>
      </trkpt>
      <trkpt lat="44.64815" lon="3.23892">
        <ele>1129</ele>
        <time>2019-05-25T09:29:49Z</time>
      </trkpt>
      <trkpt lat="44.64803" lon="3.23842">
        <ele>1128.1999511719</ele>
        <time>2019-05-25T09:29:53Z</time>
      </trkpt>
      <trkpt lat="44.64794" lon="3.23804">
        <ele>1127.1999511719</ele>
        <time>2019-05-25T09:29:56Z</time>
      </trkpt>
      <trkpt lat="44.6479" lon="3.23796">
        <ele>1126.8000488281</ele>
        <time>2019-05-25T09:29:57Z</time>
      </trkpt>
      <trkpt lat="44.64785" lon="3.2379">
        <ele>1126.5999755859</ele>
        <time>2019-05-25T09:29:58Z</time>
      </trkpt>
      <trkpt lat="44.64767" lon="3.23769">
        <ele>1125.5999755859</ele>
        <time>2019-05-25T09:30:01Z</time>
      </trkpt>
      <trkpt lat="44.64743" lon="3.2374">
        <ele>1124.5999755859</ele>
        <time>2019-05-25T09:30:05Z</time>
      </trkpt>
      <trkpt lat="44.64736" lon="3.23734">
        <ele>1124.4000244141</ele>
        <time>2019-05-25T09:30:06Z</time>
      </trkpt>
      <trkpt lat="44.64719" lon="3.2372">
        <ele>1123.8000488281</ele>
        <time>2019-05-25T09:30:09Z</time>
      </trkpt>
      <trkpt lat="44.647" lon="3.23699">
        <ele>1122.8000488281</ele>
        <time>2019-05-25T09:30:12Z</time>
      </trkpt>
      <trkpt lat="44.64671" lon="3.23663">
        <ele>1120.8000488281</ele>
        <time>2019-05-25T09:30:16Z</time>
      </trkpt>
      <trkpt lat="44.64641" lon="3.23618">
        <ele>1118.4000244141</ele>
        <time>2019-05-25T09:30:20Z</time>
      </trkpt>
      <trkpt lat="44.64604" lon="3.23562">
        <ele>1115.5999755859</ele>
        <time>2019-05-25T09:30:25Z</time>
      </trkpt>
      <trkpt lat="44.64593" lon="3.2354">
        <ele>1114.4000244141</ele>
        <time>2019-05-25T09:30:27Z</time>
      </trkpt>
      <trkpt lat="44.64584" lon="3.23517">
        <ele>1113.4000244141</ele>
        <time>2019-05-25T09:30:29Z</time>
      </trkpt>
      <trkpt lat="44.64563" lon="3.23478">
        <ele>1111.8000488281</ele>
        <time>2019-05-25T09:30:33Z</time>
      </trkpt>
      <trkpt lat="44.64533" lon="3.23441">
        <ele>1109.8000488281</ele>
        <time>2019-05-25T09:30:38Z</time>
      </trkpt>
      <trkpt lat="44.64509" lon="3.23409">
        <ele>1108.1999511719</ele>
        <time>2019-05-25T09:30:42Z</time>
      </trkpt>
      <trkpt lat="44.64504" lon="3.23401">
        <ele>1107.8000488281</ele>
        <time>2019-05-25T09:30:43Z</time>
      </trkpt>
      <trkpt lat="44.64499" lon="3.23393">
        <ele>1107.4000244141</ele>
        <time>2019-05-25T09:30:44Z</time>
      </trkpt>
      <trkpt lat="44.64488" lon="3.23367">
        <ele>1106.4000244141</ele>
        <time>2019-05-25T09:30:47Z</time>
      </trkpt>
      <trkpt lat="44.64482" lon="3.2335">
        <ele>1105.5999755859</ele>
        <time>2019-05-25T09:30:49Z</time>
      </trkpt>
      <trkpt lat="44.64475" lon="3.23322">
        <ele>1104.5999755859</ele>
        <time>2019-05-25T09:30:52Z</time>
      </trkpt>
      <trkpt lat="44.64464" lon="3.23292">
        <ele>1103.1999511719</ele>
        <time>2019-05-25T09:30:56Z</time>
      </trkpt>
      <trkpt lat="44.64462" lon="3.23285">
        <ele>1103</ele>
        <time>2019-05-25T09:30:57Z</time>
      </trkpt>
      <trkpt lat="44.6446" lon="3.23278">
        <ele>1102.5999755859</ele>
        <time>2019-05-25T09:30:58Z</time>
      </trkpt>
      <trkpt lat="44.6445" lon="3.23238">
        <ele>1101.1999511719</ele>
        <time>2019-05-25T09:31:03Z</time>
      </trkpt>
      <trkpt lat="44.64447" lon="3.23232">
        <ele>1101</ele>
        <time>2019-05-25T09:31:04Z</time>
      </trkpt>
      <trkpt lat="44.6444" lon="3.2322">
        <ele>1100.4000244141</ele>
        <time>2019-05-25T09:31:06Z</time>
      </trkpt>
      <trkpt lat="44.64423" lon="3.23192">
        <ele>1099.1999511719</ele>
        <time>2019-05-25T09:31:11Z</time>
      </trkpt>
      <trkpt lat="44.64421" lon="3.23186">
        <ele>1099</ele>
        <time>2019-05-25T09:31:12Z</time>
      </trkpt>
      <trkpt lat="44.64419" lon="3.23173">
        <ele>1098.8000488281</ele>
        <time>2019-05-25T09:31:14Z</time>
      </trkpt>
      <trkpt lat="44.64423" lon="3.23157">
        <ele>1098.5999755859</ele>
        <time>2019-05-25T09:31:17Z</time>
      </trkpt>
      <trkpt lat="44.64418" lon="3.2314">
        <ele>1098.1999511719</ele>
        <time>2019-05-25T09:31:20Z</time>
      </trkpt>
      <trkpt lat="44.64416" lon="3.23131">
        <ele>1098</ele>
        <time>2019-05-25T09:31:22Z</time>
      </trkpt>
      <trkpt lat="44.64418" lon="3.23121">
        <ele>1097.8000488281</ele>
        <time>2019-05-25T09:31:24Z</time>
      </trkpt>
      <trkpt lat="44.64419" lon="3.23118">
        <ele>1097.8000488281</ele>
        <time>2019-05-25T09:31:25Z</time>
      </trkpt>
      <trkpt lat="44.64423" lon="3.23118">
        <ele>1097.1999511719</ele>
        <time>2019-05-25T09:31:27Z</time>
      </trkpt>
      <trkpt lat="44.64424" lon="3.23119">
        <ele>1097.1999511719</ele>
        <time>2019-05-25T09:31:28Z</time>
      </trkpt>
      <trkpt lat="44.64431" lon="3.23117">
        <ele>1096.1999511719</ele>
        <time>2019-05-25T09:31:32Z</time>
      </trkpt>
      <trkpt lat="44.64438" lon="3.23114">
        <ele>1095.8000488281</ele>
        <time>2019-05-25T09:31:34Z</time>
      </trkpt>
      <trkpt lat="44.64441" lon="3.23113">
        <ele>1095.8000488281</ele>
        <time>2019-05-25T09:31:35Z</time>
      </trkpt>
      <trkpt lat="44.64445" lon="3.23109">
        <ele>1095.4000244141</ele>
        <time>2019-05-25T09:31:37Z</time>
      </trkpt>
      <trkpt lat="44.64447" lon="3.23107">
        <ele>1094.8000488281</ele>
        <time>2019-05-25T09:31:38Z</time>
      </trkpt>
      <trkpt lat="44.64448" lon="3.23104">
        <ele>1094.5999755859</ele>
        <time>2019-05-25T09:31:39Z</time>
      </trkpt>
      <trkpt lat="44.64453" lon="3.23096">
        <ele>1094</ele>
        <time>2019-05-25T09:31:41Z</time>
      </trkpt>
      <trkpt lat="44.64457" lon="3.23092">
        <ele>1093.5999755859</ele>
        <time>2019-05-25T09:31:42Z</time>
      </trkpt>
      <trkpt lat="44.64454" lon="3.23086">
        <ele>1093</ele>
        <time>2019-05-25T09:31:44Z</time>
      </trkpt>
      <trkpt lat="44.64441" lon="3.23079">
        <ele>1092.1999511719</ele>
        <time>2019-05-25T09:31:47Z</time>
      </trkpt>
      <trkpt lat="44.64432" lon="3.23075">
        <ele>1091.8000488281</ele>
        <time>2019-05-25T09:31:49Z</time>
      </trkpt>
      <trkpt lat="44.64418" lon="3.2307">
        <ele>1091.1999511719</ele>
        <time>2019-05-25T09:31:52Z</time>
      </trkpt>
      <trkpt lat="44.64413" lon="3.2307">
        <ele>1090.8000488281</ele>
        <time>2019-05-25T09:31:53Z</time>
      </trkpt>
      <trkpt lat="44.64397" lon="3.23067">
        <ele>1090.1999511719</ele>
        <time>2019-05-25T09:31:56Z</time>
      </trkpt>
      <trkpt lat="44.64387" lon="3.2307">
        <ele>1089.8000488281</ele>
        <time>2019-05-25T09:31:58Z</time>
      </trkpt>
      <trkpt lat="44.64378" lon="3.23075">
        <ele>1089.4000244141</ele>
        <time>2019-05-25T09:32:00Z</time>
      </trkpt>
      <trkpt lat="44.6437" lon="3.23083">
        <ele>1089.1999511719</ele>
        <time>2019-05-25T09:32:02Z</time>
      </trkpt>
      <trkpt lat="44.64363" lon="3.23094">
        <ele>1088.8000488281</ele>
        <time>2019-05-25T09:32:04Z</time>
      </trkpt>
      <trkpt lat="44.64358" lon="3.23107">
        <ele>1088.4000244141</ele>
        <time>2019-05-25T09:32:06Z</time>
      </trkpt>
      <trkpt lat="44.64354" lon="3.23122">
        <ele>1088.1999511719</ele>
        <time>2019-05-25T09:32:08Z</time>
      </trkpt>
      <trkpt lat="44.6435" lon="3.23143">
        <ele>1087.5999755859</ele>
        <time>2019-05-25T09:32:11Z</time>
      </trkpt>
      <trkpt lat="44.6435" lon="3.2315">
        <ele>1087.5999755859</ele>
        <time>2019-05-25T09:32:12Z</time>
      </trkpt>
      <trkpt lat="44.64348" lon="3.23168">
        <ele>1087.1999511719</ele>
        <time>2019-05-25T09:32:15Z</time>
      </trkpt>
      <trkpt lat="44.64347" lon="3.23174">
        <ele>1087.1999511719</ele>
        <time>2019-05-25T09:32:16Z</time>
      </trkpt>
      <trkpt lat="44.64346" lon="3.23186">
        <ele>1087</ele>
        <time>2019-05-25T09:32:18Z</time>
      </trkpt>
      <trkpt lat="44.64347" lon="3.23205">
        <ele>1086.8000488281</ele>
        <time>2019-05-25T09:32:20Z</time>
      </trkpt>
      <trkpt lat="44.64347" lon="3.23221">
        <ele>1086.5999755859</ele>
        <time>2019-05-25T09:32:22Z</time>
      </trkpt>
      <trkpt lat="44.64348" lon="3.23229">
        <ele>1086.5999755859</ele>
        <time>2019-05-25T09:32:23Z</time>
      </trkpt>
      <trkpt lat="44.64346" lon="3.23254">
        <ele>1086.4000244141</ele>
        <time>2019-05-25T09:32:26Z</time>
      </trkpt>
      <trkpt lat="44.6435" lon="3.23268">
        <ele>1086.1999511719</ele>
        <time>2019-05-25T09:32:28Z</time>
      </trkpt>
      <trkpt lat="44.64363" lon="3.23306">
        <ele>1085.5999755859</ele>
        <time>2019-05-25T09:32:33Z</time>
      </trkpt>
      <trkpt lat="44.64366" lon="3.23327">
        <ele>1085.4000244141</ele>
        <time>2019-05-25T09:32:36Z</time>
      </trkpt>
      <trkpt lat="44.64367" lon="3.23342">
        <ele>1085.1999511719</ele>
        <time>2019-05-25T09:32:38Z</time>
      </trkpt>
      <trkpt lat="44.64368" lon="3.23348">
        <ele>1085</ele>
        <time>2019-05-25T09:32:39Z</time>
      </trkpt>
      <trkpt lat="44.64366" lon="3.23362">
        <ele>1085</ele>
        <time>2019-05-25T09:32:41Z</time>
      </trkpt>
      <trkpt lat="44.64365" lon="3.23369">
        <ele>1084.5999755859</ele>
        <time>2019-05-25T09:32:43Z</time>
      </trkpt>
      <trkpt lat="44.64366" lon="3.23371">
        <ele>1084.4000244141</ele>
        <time>2019-05-25T09:32:44Z</time>
      </trkpt>
      <trkpt lat="44.64368" lon="3.23372">
        <ele>1084.4000244141</ele>
        <time>2019-05-25T09:32:45Z</time>
      </trkpt>
      <trkpt lat="44.64369" lon="3.23372">
        <ele>1084.1999511719</ele>
        <time>2019-05-25T09:32:46Z</time>
      </trkpt>
      <trkpt lat="44.64374" lon="3.23364">
        <ele>1083.5999755859</ele>
        <time>2019-05-25T09:32:51Z</time>
      </trkpt>
      <trkpt lat="44.64375" lon="3.23362">
        <ele>1083.5999755859</ele>
        <time>2019-05-25T09:32:52Z</time>
      </trkpt>
      <trkpt lat="44.64376" lon="3.23361">
        <ele>1083.4000244141</ele>
        <time>2019-05-25T09:32:53Z</time>
      </trkpt>
      <trkpt lat="44.64377" lon="3.23357">
        <ele>1083</ele>
        <time>2019-05-25T09:32:55Z</time>
      </trkpt>
      <trkpt lat="44.64379" lon="3.23354">
        <ele>1082.5999755859</ele>
        <time>2019-05-25T09:32:57Z</time>
      </trkpt>
      <trkpt lat="44.64382" lon="3.23355">
        <ele>1082.5999755859</ele>
        <time>2019-05-25T09:32:59Z</time>
      </trkpt>
      <trkpt lat="44.64384" lon="3.23358">
        <ele>1082.4000244141</ele>
        <time>2019-05-25T09:33:01Z</time>
      </trkpt>
      <trkpt lat="44.64388" lon="3.23356">
        <ele>1082</ele>
        <time>2019-05-25T09:33:05Z</time>
      </trkpt>
      <trkpt lat="44.6439" lon="3.23352">
        <ele>1081.8000488281</ele>
        <time>2019-05-25T09:33:07Z</time>
      </trkpt>
      <trkpt lat="44.64393" lon="3.23349">
        <ele>1081.5999755859</ele>
        <time>2019-05-25T09:33:09Z</time>
      </trkpt>
      <trkpt lat="44.64396" lon="3.23345">
        <ele>1081.4000244141</ele>
        <time>2019-05-25T09:33:11Z</time>
      </trkpt>
      <trkpt lat="44.644" lon="3.23348">
        <ele>1081.5999755859</ele>
        <time>2019-05-25T09:33:13Z</time>
      </trkpt>
      <trkpt lat="44.64403" lon="3.23353">
        <ele>1081.8000488281</ele>
        <time>2019-05-25T09:33:15Z</time>
      </trkpt>
      <trkpt lat="44.64403" lon="3.23361">
        <ele>1082</ele>
        <time>2019-05-25T09:33:18Z</time>
      </trkpt>
      <trkpt lat="44.64401" lon="3.23364">
        <ele>1081.8000488281</ele>
        <time>2019-05-25T09:33:19Z</time>
      </trkpt>
      <trkpt lat="44.644" lon="3.23369">
        <ele>1081.5999755859</ele>
        <time>2019-05-25T09:33:21Z</time>
      </trkpt>
      <trkpt lat="44.644" lon="3.23373">
        <ele>1081.4000244141</ele>
        <time>2019-05-25T09:33:23Z</time>
      </trkpt>
      <trkpt lat="44.64396" lon="3.23375">
        <ele>1081.1999511719</ele>
        <time>2019-05-25T09:33:25Z</time>
      </trkpt>
      <trkpt lat="44.64389" lon="3.23378">
        <ele>1081</ele>
        <time>2019-05-25T09:33:27Z</time>
      </trkpt>
      <trkpt lat="44.64383" lon="3.23386">
        <ele>1080.5999755859</ele>
        <time>2019-05-25T09:33:30Z</time>
      </trkpt>
      <trkpt lat="44.64384" lon="3.23388">
        <ele>1080.4000244141</ele>
        <time>2019-05-25T09:33:31Z</time>
      </trkpt>
      <trkpt lat="44.64386" lon="3.23392">
        <ele>1080</ele>
        <time>2019-05-25T09:33:33Z</time>
      </trkpt>
      <trkpt lat="44.64388" lon="3.23395">
        <ele>1080</ele>
        <time>2019-05-25T09:33:35Z</time>
      </trkpt>
      <trkpt lat="44.64388" lon="3.23397">
        <ele>1079.8000488281</ele>
        <time>2019-05-25T09:33:36Z</time>
      </trkpt>
      <trkpt lat="44.64388" lon="3.23399">
        <ele>1079.8000488281</ele>
        <time>2019-05-25T09:33:37Z</time>
      </trkpt>
      <trkpt lat="44.64389" lon="3.23408">
        <ele>1079.8000488281</ele>
        <time>2019-05-25T09:33:39Z</time>
      </trkpt>
      <trkpt lat="44.64391" lon="3.23412">
        <ele>1080.5999755859</ele>
        <time>2019-05-25T09:33:41Z</time>
      </trkpt>
      <trkpt lat="44.64395" lon="3.23417">
        <ele>1081</ele>
        <time>2019-05-25T09:33:44Z</time>
      </trkpt>
      <trkpt lat="44.64397" lon="3.23417">
        <ele>1081</ele>
        <time>2019-05-25T09:33:45Z</time>
      </trkpt>
      <trkpt lat="44.64405" lon="3.2341">
        <ele>1080.5999755859</ele>
        <time>2019-05-25T09:33:58Z</time>
      </trkpt>
      <trkpt lat="44.64404" lon="3.23412">
        <ele>1080.5999755859</ele>
        <time>2019-05-25T09:33:59Z</time>
      </trkpt>
      <trkpt lat="44.64404" lon="3.23414">
        <ele>1080.5999755859</ele>
        <time>2019-05-25T09:34:00Z</time>
      </trkpt>
      <trkpt lat="44.64404" lon="3.23418">
        <ele>1080.5999755859</ele>
        <time>2019-05-25T09:34:02Z</time>
      </trkpt>
      <trkpt lat="44.64393" lon="3.2343">
        <ele>1080.5999755859</ele>
        <time>2019-05-25T09:34:12Z</time>
      </trkpt>
      <trkpt lat="44.64386" lon="3.2343">
        <ele>1080.5999755859</ele>
        <time>2019-05-25T09:34:14Z</time>
      </trkpt>
      <trkpt lat="44.64384" lon="3.23431">
        <ele>1080.5999755859</ele>
        <time>2019-05-25T09:34:15Z</time>
      </trkpt>
      <trkpt lat="44.64383" lon="3.23434">
        <ele>1080.4000244141</ele>
        <time>2019-05-25T09:34:16Z</time>
      </trkpt>
      <trkpt lat="44.64392" lon="3.23439">
        <ele>1081.1999511719</ele>
        <time>2019-05-25T09:34:24Z</time>
      </trkpt>
      <trkpt lat="44.64394" lon="3.2344">
        <ele>1081.4000244141</ele>
        <time>2019-05-25T09:34:25Z</time>
      </trkpt>
      <trkpt lat="44.64396" lon="3.23444">
        <ele>1082</ele>
        <time>2019-05-25T09:34:28Z</time>
      </trkpt>
      <trkpt lat="44.64393" lon="3.23447">
        <ele>1082.1999511719</ele>
        <time>2019-05-25T09:34:32Z</time>
      </trkpt>
      <trkpt lat="44.64388" lon="3.23457">
        <ele>1082.4000244141</ele>
        <time>2019-05-25T09:34:35Z</time>
      </trkpt>
      <trkpt lat="44.64384" lon="3.23461">
        <ele>1082.5999755859</ele>
        <time>2019-05-25T09:34:36Z</time>
      </trkpt>
      <trkpt lat="44.64376" lon="3.23472">
        <ele>1082.5999755859</ele>
        <time>2019-05-25T09:34:38Z</time>
      </trkpt>
      <trkpt lat="44.6436" lon="3.23492">
        <ele>1082.5999755859</ele>
        <time>2019-05-25T09:34:42Z</time>
      </trkpt>
      <trkpt lat="44.64356" lon="3.23498">
        <ele>1082.4000244141</ele>
        <time>2019-05-25T09:34:44Z</time>
      </trkpt>
      <trkpt lat="44.64356" lon="3.23501">
        <ele>1082.4000244141</ele>
        <time>2019-05-25T09:34:45Z</time>
      </trkpt>
      <trkpt lat="44.64362" lon="3.23498">
        <ele>1082.1999511719</ele>
        <time>2019-05-25T09:34:49Z</time>
      </trkpt>
      <trkpt lat="44.64364" lon="3.23498">
        <ele>1082.1999511719</ele>
        <time>2019-05-25T09:34:51Z</time>
      </trkpt>
      <trkpt lat="44.64375" lon="3.23506">
        <ele>1078.8000488281</ele>
        <time>2019-05-25T09:42:42Z</time>
      </trkpt>
      <trkpt lat="44.64376" lon="3.23507">
        <ele>1078.8000488281</ele>
        <time>2019-05-25T09:42:43Z</time>
      </trkpt>
      <trkpt lat="44.64379" lon="3.2351">
        <ele>1078.8000488281</ele>
        <time>2019-05-25T09:42:45Z</time>
      </trkpt>
      <trkpt lat="44.64379" lon="3.23514">
        <ele>1078.8000488281</ele>
        <time>2019-05-25T09:42:47Z</time>
      </trkpt>
      <trkpt lat="44.64379" lon="3.23517">
        <ele>1078.8000488281</ele>
        <time>2019-05-25T09:42:48Z</time>
      </trkpt>
      <trkpt lat="44.64375" lon="3.23526">
        <ele>1078.8000488281</ele>
        <time>2019-05-25T09:42:52Z</time>
      </trkpt>
      <trkpt lat="44.6437" lon="3.23542">
        <ele>1078.8000488281</ele>
        <time>2019-05-25T09:42:57Z</time>
      </trkpt>
      <trkpt lat="44.64367" lon="3.23552">
        <ele>1078.5999755859</ele>
        <time>2019-05-25T09:43:00Z</time>
      </trkpt>
      <trkpt lat="44.64368" lon="3.23559">
        <ele>1078.5999755859</ele>
        <time>2019-05-25T09:43:02Z</time>
      </trkpt>
      <trkpt lat="44.64369" lon="3.23576">
        <ele>1078.1999511719</ele>
        <time>2019-05-25T09:43:08Z</time>
      </trkpt>
      <trkpt lat="44.64366" lon="3.23598">
        <ele>1078.1999511719</ele>
        <time>2019-05-25T09:43:17Z</time>
      </trkpt>
      <trkpt lat="44.64366" lon="3.23612">
        <ele>1078</ele>
        <time>2019-05-25T09:43:23Z</time>
      </trkpt>
      <trkpt lat="44.64365" lon="3.23615">
        <ele>1077.8000488281</ele>
        <time>2019-05-25T09:43:25Z</time>
      </trkpt>
      <trkpt lat="44.64364" lon="3.23621">
        <ele>1077.5999755859</ele>
        <time>2019-05-25T09:43:28Z</time>
      </trkpt>
      <trkpt lat="44.64362" lon="3.23636">
        <ele>1077.1999511719</ele>
        <time>2019-05-25T09:43:34Z</time>
      </trkpt>
      <trkpt lat="44.64361" lon="3.23638">
        <ele>1077.1999511719</ele>
        <time>2019-05-25T09:43:35Z</time>
      </trkpt>
      <trkpt lat="44.64359" lon="3.23639">
        <ele>1077.1999511719</ele>
        <time>2019-05-25T09:43:36Z</time>
      </trkpt>
      <trkpt lat="44.64358" lon="3.23639">
        <ele>1077.1999511719</ele>
        <time>2019-05-25T09:43:37Z</time>
      </trkpt>
      <trkpt lat="44.64345" lon="3.23644">
        <ele>1075.5999755859</ele>
        <time>2019-05-25T09:44:08Z</time>
      </trkpt>
      <trkpt lat="44.64342" lon="3.23645">
        <ele>1075.4000244141</ele>
        <time>2019-05-25T09:44:09Z</time>
      </trkpt>
      <trkpt lat="44.64338" lon="3.23648">
        <ele>1075.4000244141</ele>
        <time>2019-05-25T09:44:10Z</time>
      </trkpt>
      <trkpt lat="44.6433" lon="3.23659">
        <ele>1075.4000244141</ele>
        <time>2019-05-25T09:44:13Z</time>
      </trkpt>
      <trkpt lat="44.64322" lon="3.2368">
        <ele>1075.4000244141</ele>
        <time>2019-05-25T09:44:19Z</time>
      </trkpt>
      <trkpt lat="44.64315" lon="3.23695">
        <ele>1075.4000244141</ele>
        <time>2019-05-25T09:44:24Z</time>
      </trkpt>
      <trkpt lat="44.64311" lon="3.2371">
        <ele>1075.5999755859</ele>
        <time>2019-05-25T09:44:29Z</time>
      </trkpt>
      <trkpt lat="44.64306" lon="3.23727">
        <ele>1075.8000488281</ele>
        <time>2019-05-25T09:44:35Z</time>
      </trkpt>
      <trkpt lat="44.643" lon="3.23747">
        <ele>1076</ele>
        <time>2019-05-25T09:44:41Z</time>
      </trkpt>
      <trkpt lat="44.64295" lon="3.23777">
        <ele>1076.1999511719</ele>
        <time>2019-05-25T09:44:48Z</time>
      </trkpt>
      <trkpt lat="44.64286" lon="3.2381">
        <ele>1076.4000244141</ele>
        <time>2019-05-25T09:44:54Z</time>
      </trkpt>
      <trkpt lat="44.64279" lon="3.23834">
        <ele>1076.1999511719</ele>
        <time>2019-05-25T09:44:57Z</time>
      </trkpt>
      <trkpt lat="44.64275" lon="3.23842">
        <ele>1076.1999511719</ele>
        <time>2019-05-25T09:44:58Z</time>
      </trkpt>
      <trkpt lat="44.64251" lon="3.23877">
        <ele>1076</ele>
        <time>2019-05-25T09:45:02Z</time>
      </trkpt>
      <trkpt lat="44.64231" lon="3.23899">
        <ele>1076</ele>
        <time>2019-05-25T09:45:05Z</time>
      </trkpt>
      <trkpt lat="44.64226" lon="3.23909">
        <ele>1076</ele>
        <time>2019-05-25T09:45:06Z</time>
      </trkpt>
      <trkpt lat="44.6421" lon="3.23954">
        <ele>1076.1999511719</ele>
        <time>2019-05-25T09:45:11Z</time>
      </trkpt>
      <trkpt lat="44.64202" lon="3.23967">
        <ele>1076.1999511719</ele>
        <time>2019-05-25T09:45:13Z</time>
      </trkpt>
      <trkpt lat="44.64193" lon="3.23977">
        <ele>1076.1999511719</ele>
        <time>2019-05-25T09:45:15Z</time>
      </trkpt>
      <trkpt lat="44.64183" lon="3.23985">
        <ele>1076.4000244141</ele>
        <time>2019-05-25T09:45:17Z</time>
      </trkpt>
      <trkpt lat="44.6417" lon="3.23989">
        <ele>1076.1999511719</ele>
        <time>2019-05-25T09:45:19Z</time>
      </trkpt>
      <trkpt lat="44.64163" lon="3.23992">
        <ele>1076.1999511719</ele>
        <time>2019-05-25T09:45:20Z</time>
      </trkpt>
      <trkpt lat="44.6415" lon="3.24">
        <ele>1076.1999511719</ele>
        <time>2019-05-25T09:45:22Z</time>
      </trkpt>
      <trkpt lat="44.64145" lon="3.24006">
        <ele>1076.1999511719</ele>
        <time>2019-05-25T09:45:23Z</time>
      </trkpt>
      <trkpt lat="44.6414" lon="3.24012">
        <ele>1076.1999511719</ele>
        <time>2019-05-25T09:45:24Z</time>
      </trkpt>
      <trkpt lat="44.64122" lon="3.24039">
        <ele>1076.1999511719</ele>
        <time>2019-05-25T09:45:28Z</time>
      </trkpt>
      <trkpt lat="44.6411" lon="3.24048">
        <ele>1076.1999511719</ele>
        <time>2019-05-25T09:45:30Z</time>
      </trkpt>
      <trkpt lat="44.64098" lon="3.24055">
        <ele>1076.4000244141</ele>
        <time>2019-05-25T09:45:32Z</time>
      </trkpt>
      <trkpt lat="44.64063" lon="3.24076">
        <ele>1076.1999511719</ele>
        <time>2019-05-25T09:45:38Z</time>
      </trkpt>
      <trkpt lat="44.64026" lon="3.24096">
        <ele>1076.1999511719</ele>
        <time>2019-05-25T09:45:45Z</time>
      </trkpt>
      <trkpt lat="44.64006" lon="3.24103">
        <ele>1076.4000244141</ele>
        <time>2019-05-25T09:45:50Z</time>
      </trkpt>
      <trkpt lat="44.63996" lon="3.24106">
        <ele>1076.4000244141</ele>
        <time>2019-05-25T09:45:55Z</time>
      </trkpt>
      <trkpt lat="44.63995" lon="3.24107">
        <ele>1076.1999511719</ele>
        <time>2019-05-25T09:45:57Z</time>
      </trkpt>
      <trkpt lat="44.63991" lon="3.24109">
        <ele>1076.1999511719</ele>
        <time>2019-05-25T09:46:09Z</time>
      </trkpt>
      <trkpt lat="44.63988" lon="3.24109">
        <ele>1076</ele>
        <time>2019-05-25T09:46:11Z</time>
      </trkpt>
      <trkpt lat="44.63974" lon="3.24112">
        <ele>1076.1999511719</ele>
        <time>2019-05-25T09:46:16Z</time>
      </trkpt>
      <trkpt lat="44.63957" lon="3.24122">
        <ele>1076.5999755859</ele>
        <time>2019-05-25T09:46:22Z</time>
      </trkpt>
      <trkpt lat="44.63942" lon="3.24142">
        <ele>1076.5999755859</ele>
        <time>2019-05-25T09:46:28Z</time>
      </trkpt>
      <trkpt lat="44.63934" lon="3.24171">
        <ele>1076.5999755859</ele>
        <time>2019-05-25T09:46:34Z</time>
      </trkpt>
      <trkpt lat="44.63931" lon="3.24182">
        <ele>1076.5999755859</ele>
        <time>2019-05-25T09:46:36Z</time>
      </trkpt>
      <trkpt lat="44.63928" lon="3.24206">
        <ele>1076.8000488281</ele>
        <time>2019-05-25T09:46:40Z</time>
      </trkpt>
      <trkpt lat="44.63925" lon="3.24241">
        <ele>1077.1999511719</ele>
        <time>2019-05-25T09:46:46Z</time>
      </trkpt>
      <trkpt lat="44.63919" lon="3.24284">
        <ele>1077.5999755859</ele>
        <time>2019-05-25T09:46:54Z</time>
      </trkpt>
      <trkpt lat="44.63919" lon="3.24304">
        <ele>1077.8000488281</ele>
        <time>2019-05-25T09:46:58Z</time>
      </trkpt>
      <trkpt lat="44.6392" lon="3.2431">
        <ele>1077.8000488281</ele>
        <time>2019-05-25T09:46:59Z</time>
      </trkpt>
      <trkpt lat="44.63922" lon="3.24315">
        <ele>1077.8000488281</ele>
        <time>2019-05-25T09:47:00Z</time>
      </trkpt>
      <trkpt lat="44.63927" lon="3.24325">
        <ele>1078</ele>
        <time>2019-05-25T09:47:02Z</time>
      </trkpt>
      <trkpt lat="44.6393" lon="3.24329">
        <ele>1078</ele>
        <time>2019-05-25T09:47:03Z</time>
      </trkpt>
      <trkpt lat="44.6395" lon="3.24349">
        <ele>1078.5999755859</ele>
        <time>2019-05-25T09:47:10Z</time>
      </trkpt>
      <trkpt lat="44.63962" lon="3.2436">
        <ele>1079</ele>
        <time>2019-05-25T09:47:15Z</time>
      </trkpt>
      <trkpt lat="44.63965" lon="3.24367">
        <ele>1079.1999511719</ele>
        <time>2019-05-25T09:47:17Z</time>
      </trkpt>
      <trkpt lat="44.63965" lon="3.24377">
        <ele>1079.4000244141</ele>
        <time>2019-05-25T09:47:19Z</time>
      </trkpt>
      <trkpt lat="44.63956" lon="3.24396">
        <ele>1079.8000488281</ele>
        <time>2019-05-25T09:47:24Z</time>
      </trkpt>
      <trkpt lat="44.63938" lon="3.24422">
        <ele>1080.4000244141</ele>
        <time>2019-05-25T09:47:31Z</time>
      </trkpt>
      <trkpt lat="44.63924" lon="3.24453">
        <ele>1080.8000488281</ele>
        <time>2019-05-25T09:47:37Z</time>
      </trkpt>
      <trkpt lat="44.6392" lon="3.24461">
        <ele>1080.8000488281</ele>
        <time>2019-05-25T09:47:38Z</time>
      </trkpt>
      <trkpt lat="44.63915" lon="3.24479">
        <ele>1080.8000488281</ele>
        <time>2019-05-25T09:47:40Z</time>
      </trkpt>
      <trkpt lat="44.63915" lon="3.24502">
        <ele>1080.4000244141</ele>
        <time>2019-05-25T09:47:42Z</time>
      </trkpt>
      <trkpt lat="44.63918" lon="3.24514">
        <ele>1080.1999511719</ele>
        <time>2019-05-25T09:47:43Z</time>
      </trkpt>
      <trkpt lat="44.63926" lon="3.24537">
        <ele>1080</ele>
        <time>2019-05-25T09:47:45Z</time>
      </trkpt>
      <trkpt lat="44.63938" lon="3.24559">
        <ele>1079.5999755859</ele>
        <time>2019-05-25T09:47:47Z</time>
      </trkpt>
      <trkpt lat="44.63945" lon="3.24568">
        <ele>1079.5999755859</ele>
        <time>2019-05-25T09:47:48Z</time>
      </trkpt>
      <trkpt lat="44.6396" lon="3.24581">
        <ele>1079.5999755859</ele>
        <time>2019-05-25T09:47:50Z</time>
      </trkpt>
      <trkpt lat="44.63975" lon="3.24585">
        <ele>1079.8000488281</ele>
        <time>2019-05-25T09:47:52Z</time>
      </trkpt>
      <trkpt lat="44.63982" lon="3.24584">
        <ele>1079.8000488281</ele>
        <time>2019-05-25T09:47:53Z</time>
      </trkpt>
      <trkpt lat="44.64006" lon="3.24578">
        <ele>1080.1999511719</ele>
        <time>2019-05-25T09:47:57Z</time>
      </trkpt>
      <trkpt lat="44.64033" lon="3.24568">
        <ele>1080.4000244141</ele>
        <time>2019-05-25T09:48:03Z</time>
      </trkpt>
      <trkpt lat="44.64059" lon="3.24558">
        <ele>1080.8000488281</ele>
        <time>2019-05-25T09:48:10Z</time>
      </trkpt>
      <trkpt lat="44.6408" lon="3.24552">
        <ele>1081</ele>
        <time>2019-05-25T09:48:16Z</time>
      </trkpt>
      <trkpt lat="44.64104" lon="3.24544">
        <ele>1081.8000488281</ele>
        <time>2019-05-25T09:48:23Z</time>
      </trkpt>
      <trkpt lat="44.64126" lon="3.2453">
        <ele>1082.4000244141</ele>
        <time>2019-05-25T09:48:30Z</time>
      </trkpt>
      <trkpt lat="44.6415" lon="3.2451">
        <ele>1083.4000244141</ele>
        <time>2019-05-25T09:48:39Z</time>
      </trkpt>
      <trkpt lat="44.64176" lon="3.24491">
        <ele>1084.4000244141</ele>
        <time>2019-05-25T09:48:48Z</time>
      </trkpt>
      <trkpt lat="44.64193" lon="3.24478">
        <ele>1084.8000488281</ele>
        <time>2019-05-25T09:48:54Z</time>
      </trkpt>
      <trkpt lat="44.64213" lon="3.24464">
        <ele>1085.4000244141</ele>
        <time>2019-05-25T09:49:01Z</time>
      </trkpt>
      <trkpt lat="44.64235" lon="3.24452">
        <ele>1086.4000244141</ele>
        <time>2019-05-25T09:49:08Z</time>
      </trkpt>
      <trkpt lat="44.64268" lon="3.24446">
        <ele>1087.5999755859</ele>
        <time>2019-05-25T09:49:18Z</time>
      </trkpt>
      <trkpt lat="44.64295" lon="3.24449">
        <ele>1088.4000244141</ele>
        <time>2019-05-25T09:49:26Z</time>
      </trkpt>
      <trkpt lat="44.64325" lon="3.2446">
        <ele>1089.5999755859</ele>
        <time>2019-05-25T09:49:35Z</time>
      </trkpt>
      <trkpt lat="44.6435" lon="3.24474">
        <ele>1090.5999755859</ele>
        <time>2019-05-25T09:49:42Z</time>
      </trkpt>
      <trkpt lat="44.64373" lon="3.24486">
        <ele>1091.4000244141</ele>
        <time>2019-05-25T09:49:49Z</time>
      </trkpt>
      <trkpt lat="44.64412" lon="3.24494">
        <ele>1093</ele>
        <time>2019-05-25T09:50:00Z</time>
      </trkpt>
      <trkpt lat="44.64432" lon="3.245">
        <ele>1093.8000488281</ele>
        <time>2019-05-25T09:50:06Z</time>
      </trkpt>
      <trkpt lat="44.64448" lon="3.24508">
        <ele>1094.5999755859</ele>
        <time>2019-05-25T09:50:12Z</time>
      </trkpt>
      <trkpt lat="44.64461" lon="3.24513">
        <ele>1094.8000488281</ele>
        <time>2019-05-25T09:50:15Z</time>
      </trkpt>
      <trkpt lat="44.64472" lon="3.24524">
        <ele>1095</ele>
        <time>2019-05-25T09:50:17Z</time>
      </trkpt>
      <trkpt lat="44.64478" lon="3.24531">
        <ele>1095</ele>
        <time>2019-05-25T09:50:18Z</time>
      </trkpt>
      <trkpt lat="44.645" lon="3.24551">
        <ele>1095</ele>
        <time>2019-05-25T09:50:21Z</time>
      </trkpt>
      <trkpt lat="44.64508" lon="3.24556">
        <ele>1095</ele>
        <time>2019-05-25T09:50:22Z</time>
      </trkpt>
      <trkpt lat="44.64526" lon="3.24566">
        <ele>1095</ele>
        <time>2019-05-25T09:50:24Z</time>
      </trkpt>
      <trkpt lat="44.64541" lon="3.24578">
        <ele>1095</ele>
        <time>2019-05-25T09:50:26Z</time>
      </trkpt>
      <trkpt lat="44.64571" lon="3.24607">
        <ele>1095.1999511719</ele>
        <time>2019-05-25T09:50:31Z</time>
      </trkpt>
      <trkpt lat="44.64589" lon="3.2464">
        <ele>1095.4000244141</ele>
        <time>2019-05-25T09:50:36Z</time>
      </trkpt>
      <trkpt lat="44.64606" lon="3.24674">
        <ele>1095.8000488281</ele>
        <time>2019-05-25T09:50:42Z</time>
      </trkpt>
      <trkpt lat="44.64609" lon="3.24678">
        <ele>1096</ele>
        <time>2019-05-25T09:50:43Z</time>
      </trkpt>
      <trkpt lat="44.64622" lon="3.24693">
        <ele>1096.1999511719</ele>
        <time>2019-05-25T09:50:47Z</time>
      </trkpt>
      <trkpt lat="44.64639" lon="3.24706">
        <ele>1096.8000488281</ele>
        <time>2019-05-25T09:50:53Z</time>
      </trkpt>
      <trkpt lat="44.64656" lon="3.24714">
        <ele>1097.4000244141</ele>
        <time>2019-05-25T09:51:00Z</time>
      </trkpt>
      <trkpt lat="44.64676" lon="3.24724">
        <ele>1098.4000244141</ele>
        <time>2019-05-25T09:51:08Z</time>
      </trkpt>
      <trkpt lat="44.64695" lon="3.24732">
        <ele>1099.1999511719</ele>
        <time>2019-05-25T09:51:16Z</time>
      </trkpt>
      <trkpt lat="44.64714" lon="3.24735">
        <ele>1100.1999511719</ele>
        <time>2019-05-25T09:51:24Z</time>
      </trkpt>
      <trkpt lat="44.64727" lon="3.2473">
        <ele>1101</ele>
        <time>2019-05-25T09:51:30Z</time>
      </trkpt>
      <trkpt lat="44.64743" lon="3.24721">
        <ele>1102</ele>
        <time>2019-05-25T09:51:38Z</time>
      </trkpt>
      <trkpt lat="44.64758" lon="3.2472">
        <ele>1103</ele>
        <time>2019-05-25T09:51:45Z</time>
      </trkpt>
      <trkpt lat="44.64778" lon="3.24727">
        <ele>1104.1999511719</ele>
        <time>2019-05-25T09:51:55Z</time>
      </trkpt>
      <trkpt lat="44.64794" lon="3.2474">
        <ele>1105.8000488281</ele>
        <time>2019-05-25T09:52:04Z</time>
      </trkpt>
      <trkpt lat="44.64807" lon="3.24757">
        <ele>1107.1999511719</ele>
        <time>2019-05-25T09:52:12Z</time>
      </trkpt>
      <trkpt lat="44.64818" lon="3.24775">
        <ele>1108.4000244141</ele>
        <time>2019-05-25T09:52:19Z</time>
      </trkpt>
      <trkpt lat="44.64827" lon="3.2479">
        <ele>1109.1999511719</ele>
        <time>2019-05-25T09:52:25Z</time>
      </trkpt>
      <trkpt lat="44.64836" lon="3.24804">
        <ele>1110.1999511719</ele>
        <time>2019-05-25T09:52:31Z</time>
      </trkpt>
      <trkpt lat="44.64847" lon="3.24823">
        <ele>1111.1999511719</ele>
        <time>2019-05-25T09:52:38Z</time>
      </trkpt>
      <trkpt lat="44.6486" lon="3.24837">
        <ele>1112.1999511719</ele>
        <time>2019-05-25T09:52:45Z</time>
      </trkpt>
      <trkpt lat="44.64877" lon="3.24834">
        <ele>1113.4000244141</ele>
        <time>2019-05-25T09:52:52Z</time>
      </trkpt>
      <trkpt lat="44.64879" lon="3.24835">
        <ele>1113.5999755859</ele>
        <time>2019-05-25T09:52:53Z</time>
      </trkpt>
      <trkpt lat="44.64887" lon="3.24844">
        <ele>1114</ele>
        <time>2019-05-25T09:52:56Z</time>
      </trkpt>
      <trkpt lat="44.64907" lon="3.24869">
        <ele>1115</ele>
        <time>2019-05-25T09:53:03Z</time>
      </trkpt>
      <trkpt lat="44.64923" lon="3.24891">
        <ele>1115.8000488281</ele>
        <time>2019-05-25T09:53:09Z</time>
      </trkpt>
      <trkpt lat="44.64936" lon="3.24898">
        <ele>1116.4000244141</ele>
        <time>2019-05-25T09:53:13Z</time>
      </trkpt>
      <trkpt lat="44.64964" lon="3.24909">
        <ele>1117.4000244141</ele>
        <time>2019-05-25T09:53:20Z</time>
      </trkpt>
      <trkpt lat="44.64992" lon="3.24923">
        <ele>1117.8000488281</ele>
        <time>2019-05-25T09:53:25Z</time>
      </trkpt>
      <trkpt lat="44.65028" lon="3.24941">
        <ele>1118</ele>
        <time>2019-05-25T09:53:30Z</time>
      </trkpt>
      <trkpt lat="44.65086" lon="3.24966">
        <ele>1118</ele>
        <time>2019-05-25T09:53:38Z</time>
      </trkpt>
      <trkpt lat="44.65092" lon="3.24967">
        <ele>1118</ele>
        <time>2019-05-25T09:53:39Z</time>
      </trkpt>
      <trkpt lat="44.65106" lon="3.24973">
        <ele>1118</ele>
        <time>2019-05-25T09:53:41Z</time>
      </trkpt>
      <trkpt lat="44.65112" lon="3.24977">
        <ele>1118</ele>
        <time>2019-05-25T09:53:42Z</time>
      </trkpt>
      <trkpt lat="44.65141" lon="3.24999">
        <ele>1118.1999511719</ele>
        <time>2019-05-25T09:53:48Z</time>
      </trkpt>
      <trkpt lat="44.65152" lon="3.25013">
        <ele>1118.8000488281</ele>
        <time>2019-05-25T09:53:53Z</time>
      </trkpt>
      <trkpt lat="44.65162" lon="3.25023">
        <ele>1119.5999755859</ele>
        <time>2019-05-25T09:53:59Z</time>
      </trkpt>
      <trkpt lat="44.65169" lon="3.25029">
        <ele>1120.1999511719</ele>
        <time>2019-05-25T09:54:03Z</time>
      </trkpt>
      <trkpt lat="44.65177" lon="3.25037">
        <ele>1121</ele>
        <time>2019-05-25T09:54:09Z</time>
      </trkpt>
      <trkpt lat="44.65189" lon="3.2505">
        <ele>1121.8000488281</ele>
        <time>2019-05-25T09:54:17Z</time>
      </trkpt>
      <trkpt lat="44.65198" lon="3.25058">
        <ele>1122.4000244141</ele>
        <time>2019-05-25T09:54:22Z</time>
      </trkpt>
      <trkpt lat="44.65213" lon="3.2507">
        <ele>1123</ele>
        <time>2019-05-25T09:54:28Z</time>
      </trkpt>
      <trkpt lat="44.65232" lon="3.25085">
        <ele>1123.1999511719</ele>
        <time>2019-05-25T09:54:32Z</time>
      </trkpt>
      <trkpt lat="44.65262" lon="3.25113">
        <ele>1123</ele>
        <time>2019-05-25T09:54:37Z</time>
      </trkpt>
      <trkpt lat="44.65289" lon="3.25141">
        <ele>1122.8000488281</ele>
        <time>2019-05-25T09:54:41Z</time>
      </trkpt>
      <trkpt lat="44.6532" lon="3.25172">
        <ele>1122</ele>
        <time>2019-05-25T09:54:45Z</time>
      </trkpt>
      <trkpt lat="44.6533" lon="3.25181">
        <ele>1121.5999755859</ele>
        <time>2019-05-25T09:54:46Z</time>
      </trkpt>
      <trkpt lat="44.6535" lon="3.25195">
        <ele>1121</ele>
        <time>2019-05-25T09:54:48Z</time>
      </trkpt>
      <trkpt lat="44.6539" lon="3.25226">
        <ele>1119.5999755859</ele>
        <time>2019-05-25T09:54:52Z</time>
      </trkpt>
      <trkpt lat="44.65425" lon="3.25264">
        <ele>1118.1999511719</ele>
        <time>2019-05-25T09:54:56Z</time>
      </trkpt>
      <trkpt lat="44.65466" lon="3.25306">
        <ele>1116.8000488281</ele>
        <time>2019-05-25T09:55:01Z</time>
      </trkpt>
      <trkpt lat="44.6551" lon="3.25353">
        <ele>1115.1999511719</ele>
        <time>2019-05-25T09:55:07Z</time>
      </trkpt>
      <trkpt lat="44.65531" lon="3.25376">
        <ele>1114.4000244141</ele>
        <time>2019-05-25T09:55:10Z</time>
      </trkpt>
      <trkpt lat="44.65537" lon="3.25383">
        <ele>1114.1999511719</ele>
        <time>2019-05-25T09:55:11Z</time>
      </trkpt>
      <trkpt lat="44.65588" lon="3.25435">
        <ele>1111.4000244141</ele>
        <time>2019-05-25T09:55:18Z</time>
      </trkpt>
      <trkpt lat="44.65623" lon="3.25473">
        <ele>1109.4000244141</ele>
        <time>2019-05-25T09:55:23Z</time>
      </trkpt>
      <trkpt lat="44.6565" lon="3.25506">
        <ele>1108.1999511719</ele>
        <time>2019-05-25T09:55:28Z</time>
      </trkpt>
      <trkpt lat="44.65667" lon="3.25529">
        <ele>1107</ele>
        <time>2019-05-25T09:55:33Z</time>
      </trkpt>
      <trkpt lat="44.65678" lon="3.25554">
        <ele>1106</ele>
        <time>2019-05-25T09:55:39Z</time>
      </trkpt>
      <trkpt lat="44.65675" lon="3.25573">
        <ele>1105.5999755859</ele>
        <time>2019-05-25T09:55:43Z</time>
      </trkpt>
      <trkpt lat="44.65663" lon="3.2559">
        <ele>1104.8000488281</ele>
        <time>2019-05-25T09:55:48Z</time>
      </trkpt>
      <trkpt lat="44.65649" lon="3.25616">
        <ele>1104</ele>
        <time>2019-05-25T09:55:55Z</time>
      </trkpt>
      <trkpt lat="44.65644" lon="3.25641">
        <ele>1103.5999755859</ele>
        <time>2019-05-25T09:56:02Z</time>
      </trkpt>
      <trkpt lat="44.65645" lon="3.25666">
        <ele>1103.4000244141</ele>
        <time>2019-05-25T09:56:09Z</time>
      </trkpt>
      <trkpt lat="44.65645" lon="3.25669">
        <ele>1103.4000244141</ele>
        <time>2019-05-25T09:56:10Z</time>
      </trkpt>
      <trkpt lat="44.65648" lon="3.25681">
        <ele>1103.1999511719</ele>
        <time>2019-05-25T09:56:13Z</time>
      </trkpt>
      <trkpt lat="44.65647" lon="3.25706">
        <ele>1102.8000488281</ele>
        <time>2019-05-25T09:56:20Z</time>
      </trkpt>
      <trkpt lat="44.65642" lon="3.25721">
        <ele>1102.5999755859</ele>
        <time>2019-05-25T09:56:25Z</time>
      </trkpt>
      <trkpt lat="44.65638" lon="3.25753">
        <ele>1102.1999511719</ele>
        <time>2019-05-25T09:56:34Z</time>
      </trkpt>
      <trkpt lat="44.65638" lon="3.2577">
        <ele>1102.4000244141</ele>
        <time>2019-05-25T09:56:39Z</time>
      </trkpt>
      <trkpt lat="44.6564" lon="3.25781">
        <ele>1102.8000488281</ele>
        <time>2019-05-25T09:56:42Z</time>
      </trkpt>
      <trkpt lat="44.65637" lon="3.25787">
        <ele>1102.8000488281</ele>
        <time>2019-05-25T09:56:44Z</time>
      </trkpt>
      <trkpt lat="44.65628" lon="3.25798">
        <ele>1102.8000488281</ele>
        <time>2019-05-25T09:56:49Z</time>
      </trkpt>
      <trkpt lat="44.65616" lon="3.25811">
        <ele>1102.8000488281</ele>
        <time>2019-05-25T09:56:56Z</time>
      </trkpt>
      <trkpt lat="44.65603" lon="3.25823">
        <ele>1103.1999511719</ele>
        <time>2019-05-25T09:57:03Z</time>
      </trkpt>
      <trkpt lat="44.65587" lon="3.25833">
        <ele>1103.8000488281</ele>
        <time>2019-05-25T09:57:10Z</time>
      </trkpt>
      <trkpt lat="44.65571" lon="3.25835">
        <ele>1103.8000488281</ele>
        <time>2019-05-25T09:57:17Z</time>
      </trkpt>
      <trkpt lat="44.65556" lon="3.25842">
        <ele>1104.4000244141</ele>
        <time>2019-05-25T09:57:24Z</time>
      </trkpt>
      <trkpt lat="44.65545" lon="3.2585">
        <ele>1105.1999511719</ele>
        <time>2019-05-25T09:57:31Z</time>
      </trkpt>
      <trkpt lat="44.6554" lon="3.25857">
        <ele>1105.8000488281</ele>
        <time>2019-05-25T09:57:35Z</time>
      </trkpt>
      <trkpt lat="44.65538" lon="3.25861">
        <ele>1106</ele>
        <time>2019-05-25T09:57:37Z</time>
      </trkpt>
      <trkpt lat="44.65535" lon="3.25877">
        <ele>1106.5999755859</ele>
        <time>2019-05-25T09:57:44Z</time>
      </trkpt>
      <trkpt lat="44.65533" lon="3.2589">
        <ele>1107.1999511719</ele>
        <time>2019-05-25T09:57:50Z</time>
      </trkpt>
      <trkpt lat="44.65532" lon="3.25892">
        <ele>1107.4000244141</ele>
        <time>2019-05-25T09:57:51Z</time>
      </trkpt>
      <trkpt lat="44.65529" lon="3.25893">
        <ele>1107.5999755859</ele>
        <time>2019-05-25T09:57:53Z</time>
      </trkpt>
      <trkpt lat="44.65527" lon="3.25893">
        <ele>1107.8000488281</ele>
        <time>2019-05-25T09:57:55Z</time>
      </trkpt>
      <trkpt lat="44.65519" lon="3.25898">
        <ele>1108.8000488281</ele>
        <time>2019-05-25T09:58:01Z</time>
      </trkpt>
      <trkpt lat="44.65508" lon="3.259">
        <ele>1109.8000488281</ele>
        <time>2019-05-25T09:58:08Z</time>
      </trkpt>
      <trkpt lat="44.65502" lon="3.25909">
        <ele>1110.5999755859</ele>
        <time>2019-05-25T09:58:14Z</time>
      </trkpt>
      <trkpt lat="44.65494" lon="3.25917">
        <ele>1111.5999755859</ele>
        <time>2019-05-25T09:58:21Z</time>
      </trkpt>
      <trkpt lat="44.65486" lon="3.25925">
        <ele>1112.4000244141</ele>
        <time>2019-05-25T09:58:27Z</time>
      </trkpt>
      <trkpt lat="44.6548" lon="3.25929">
        <ele>1113.1999511719</ele>
        <time>2019-05-25T09:58:32Z</time>
      </trkpt>
      <trkpt lat="44.65471" lon="3.25936">
        <ele>1113.5999755859</ele>
        <time>2019-05-25T09:58:38Z</time>
      </trkpt>
      <trkpt lat="44.65463" lon="3.25942">
        <ele>1114</ele>
        <time>2019-05-25T09:58:43Z</time>
      </trkpt>
      <trkpt lat="44.6546" lon="3.25944">
        <ele>1114.1999511719</ele>
        <time>2019-05-25T09:58:45Z</time>
      </trkpt>
      <trkpt lat="44.65455" lon="3.25948">
        <ele>1114.4000244141</ele>
        <time>2019-05-25T09:58:48Z</time>
      </trkpt>
      <trkpt lat="44.65451" lon="3.25951">
        <ele>1114.5999755859</ele>
        <time>2019-05-25T09:58:51Z</time>
      </trkpt>
      <trkpt lat="44.65447" lon="3.25954">
        <ele>1114.8000488281</ele>
        <time>2019-05-25T09:58:53Z</time>
      </trkpt>
      <trkpt lat="44.65443" lon="3.25956">
        <ele>1114.8000488281</ele>
        <time>2019-05-25T09:58:55Z</time>
      </trkpt>
      <trkpt lat="44.65443" lon="3.25956">
        <ele>1114.8000488281</ele>
        <time>2019-05-25T09:58:56Z</time>
      </trkpt>
      <trkpt lat="44.65435" lon="3.25972">
        <ele>1115.5999755859</ele>
        <time>2019-05-25T09:59:04Z</time>
      </trkpt>
      <trkpt lat="44.65433" lon="3.25979">
        <ele>1115.8000488281</ele>
        <time>2019-05-25T09:59:06Z</time>
      </trkpt>
      <trkpt lat="44.65426" lon="3.25994">
        <ele>1116.4000244141</ele>
        <time>2019-05-25T09:59:11Z</time>
      </trkpt>
      <trkpt lat="44.65419" lon="3.26012">
        <ele>1117.1999511719</ele>
        <time>2019-05-25T09:59:17Z</time>
      </trkpt>
      <trkpt lat="44.65417" lon="3.26014">
        <ele>1117.4000244141</ele>
        <time>2019-05-25T09:59:18Z</time>
      </trkpt>
      <trkpt lat="44.65411" lon="3.26021">
        <ele>1117.8000488281</ele>
        <time>2019-05-25T09:59:21Z</time>
      </trkpt>
      <trkpt lat="44.65402" lon="3.26028">
        <ele>1118.1999511719</ele>
        <time>2019-05-25T09:59:26Z</time>
      </trkpt>
      <trkpt lat="44.65389" lon="3.26031">
        <ele>1118.8000488281</ele>
        <time>2019-05-25T09:59:32Z</time>
      </trkpt>
      <trkpt lat="44.65379" lon="3.26033">
        <ele>1119.4000244141</ele>
        <time>2019-05-25T09:59:36Z</time>
      </trkpt>
      <trkpt lat="44.65361" lon="3.26037">
        <ele>1119.8000488281</ele>
        <time>2019-05-25T09:59:41Z</time>
      </trkpt>
      <trkpt lat="44.65346" lon="3.26043">
        <ele>1120</ele>
        <time>2019-05-25T09:59:45Z</time>
      </trkpt>
      <trkpt lat="44.65341" lon="3.26045">
        <ele>1120</ele>
        <time>2019-05-25T09:59:46Z</time>
      </trkpt>
      <trkpt lat="44.65314" lon="3.26055">
        <ele>1120.1999511719</ele>
        <time>2019-05-25T09:59:52Z</time>
      </trkpt>
      <trkpt lat="44.65301" lon="3.26067">
        <ele>1120.1999511719</ele>
        <time>2019-05-25T09:59:55Z</time>
      </trkpt>
      <trkpt lat="44.65297" lon="3.26072">
        <ele>1120.1999511719</ele>
        <time>2019-05-25T09:59:56Z</time>
      </trkpt>
      <trkpt lat="44.65289" lon="3.26081">
        <ele>1120</ele>
        <time>2019-05-25T09:59:58Z</time>
      </trkpt>
      <trkpt lat="44.65284" lon="3.26087">
        <ele>1119.8000488281</ele>
        <time>2019-05-25T09:59:59Z</time>
      </trkpt>
      <trkpt lat="44.6527" lon="3.26104">
        <ele>1119.4000244141</ele>
        <time>2019-05-25T10:00:02Z</time>
      </trkpt>
      <trkpt lat="44.65267" lon="3.2611">
        <ele>1119.4000244141</ele>
        <time>2019-05-25T10:00:03Z</time>
      </trkpt>
      <trkpt lat="44.65259" lon="3.26123">
        <ele>1119</ele>
        <time>2019-05-25T10:00:05Z</time>
      </trkpt>
      <trkpt lat="44.65252" lon="3.26136">
        <ele>1118.5999755859</ele>
        <time>2019-05-25T10:00:07Z</time>
      </trkpt>
      <trkpt lat="44.65248" lon="3.26142">
        <ele>1118.4000244141</ele>
        <time>2019-05-25T10:00:08Z</time>
      </trkpt>
      <trkpt lat="44.65239" lon="3.26163">
        <ele>1117.8000488281</ele>
        <time>2019-05-25T10:00:11Z</time>
      </trkpt>
      <trkpt lat="44.65229" lon="3.2618">
        <ele>1117.4000244141</ele>
        <time>2019-05-25T10:00:14Z</time>
      </trkpt>
      <trkpt lat="44.65225" lon="3.26186">
        <ele>1117.1999511719</ele>
        <time>2019-05-25T10:00:15Z</time>
      </trkpt>
      <trkpt lat="44.65221" lon="3.2619">
        <ele>1117</ele>
        <time>2019-05-25T10:00:16Z</time>
      </trkpt>
      <trkpt lat="44.65204" lon="3.26204">
        <ele>1116.8000488281</ele>
        <time>2019-05-25T10:00:19Z</time>
      </trkpt>
      <trkpt lat="44.65194" lon="3.26214">
        <ele>1116.8000488281</ele>
        <time>2019-05-25T10:00:21Z</time>
      </trkpt>
      <trkpt lat="44.65188" lon="3.26222">
        <ele>1116.5999755859</ele>
        <time>2019-05-25T10:00:23Z</time>
      </trkpt>
      <trkpt lat="44.65178" lon="3.26254">
        <ele>1115.8000488281</ele>
        <time>2019-05-25T10:00:29Z</time>
      </trkpt>
      <trkpt lat="44.6517" lon="3.26283">
        <ele>1115.4000244141</ele>
        <time>2019-05-25T10:00:34Z</time>
      </trkpt>
      <trkpt lat="44.65165" lon="3.26301">
        <ele>1115.8000488281</ele>
        <time>2019-05-25T10:00:37Z</time>
      </trkpt>
      <trkpt lat="44.65162" lon="3.26314">
        <ele>1115.5999755859</ele>
        <time>2019-05-25T10:00:39Z</time>
      </trkpt>
      <trkpt lat="44.65159" lon="3.26337">
        <ele>1115.5999755859</ele>
        <time>2019-05-25T10:00:43Z</time>
      </trkpt>
      <trkpt lat="44.65158" lon="3.26354">
        <ele>1115.1999511719</ele>
        <time>2019-05-25T10:00:46Z</time>
      </trkpt>
      <trkpt lat="44.65158" lon="3.26361">
        <ele>1115</ele>
        <time>2019-05-25T10:00:47Z</time>
      </trkpt>
      <trkpt lat="44.65157" lon="3.2639">
        <ele>1114.8000488281</ele>
        <time>2019-05-25T10:00:51Z</time>
      </trkpt>
      <trkpt lat="44.65157" lon="3.26396">
        <ele>1114.5999755859</ele>
        <time>2019-05-25T10:00:52Z</time>
      </trkpt>
      <trkpt lat="44.65161" lon="3.26417">
        <ele>1114.4000244141</ele>
        <time>2019-05-25T10:00:56Z</time>
      </trkpt>
      <trkpt lat="44.65161" lon="3.26435">
        <ele>1114</ele>
        <time>2019-05-25T10:01:00Z</time>
      </trkpt>
      <trkpt lat="44.65159" lon="3.26447">
        <ele>1113.5999755859</ele>
        <time>2019-05-25T10:01:02Z</time>
      </trkpt>
      <trkpt lat="44.65159" lon="3.2646">
        <ele>1113.4000244141</ele>
        <time>2019-05-25T10:01:04Z</time>
      </trkpt>
      <trkpt lat="44.65158" lon="3.26474">
        <ele>1113</ele>
        <time>2019-05-25T10:01:06Z</time>
      </trkpt>
      <trkpt lat="44.65155" lon="3.26485">
        <ele>1112.8000488281</ele>
        <time>2019-05-25T10:01:08Z</time>
      </trkpt>
      <trkpt lat="44.65147" lon="3.2651">
        <ele>1112.8000488281</ele>
        <time>2019-05-25T10:01:12Z</time>
      </trkpt>
      <trkpt lat="44.6514" lon="3.2653">
        <ele>1112.4000244141</ele>
        <time>2019-05-25T10:01:16Z</time>
      </trkpt>
      <trkpt lat="44.65138" lon="3.26536">
        <ele>1112.1999511719</ele>
        <time>2019-05-25T10:01:17Z</time>
      </trkpt>
      <trkpt lat="44.65129" lon="3.26556">
        <ele>1111.1999511719</ele>
        <time>2019-05-25T10:01:21Z</time>
      </trkpt>
      <trkpt lat="44.65126" lon="3.2656">
        <ele>1111</ele>
        <time>2019-05-25T10:01:22Z</time>
      </trkpt>
      <trkpt lat="44.65112" lon="3.26575">
        <ele>1110.4000244141</ele>
        <time>2019-05-25T10:01:26Z</time>
      </trkpt>
      <trkpt lat="44.65098" lon="3.26589">
        <ele>1109.8000488281</ele>
        <time>2019-05-25T10:01:29Z</time>
      </trkpt>
      <trkpt lat="44.65086" lon="3.26606">
        <ele>1109.4000244141</ele>
        <time>2019-05-25T10:01:32Z</time>
      </trkpt>
      <trkpt lat="44.65081" lon="3.26617">
        <ele>1109.1999511719</ele>
        <time>2019-05-25T10:01:34Z</time>
      </trkpt>
      <trkpt lat="44.65076" lon="3.26636">
        <ele>1108.8000488281</ele>
        <time>2019-05-25T10:01:38Z</time>
      </trkpt>
      <trkpt lat="44.6507" lon="3.2665">
        <ele>1108.1999511719</ele>
        <time>2019-05-25T10:01:41Z</time>
      </trkpt>
      <trkpt lat="44.65067" lon="3.26656">
        <ele>1108.1999511719</ele>
        <time>2019-05-25T10:01:42Z</time>
      </trkpt>
      <trkpt lat="44.65064" lon="3.26661">
        <ele>1108</ele>
        <time>2019-05-25T10:01:43Z</time>
      </trkpt>
      <trkpt lat="44.65052" lon="3.26677">
        <ele>1107.5999755859</ele>
        <time>2019-05-25T10:01:46Z</time>
      </trkpt>
      <trkpt lat="44.65045" lon="3.26688">
        <ele>1107.4000244141</ele>
        <time>2019-05-25T10:01:48Z</time>
      </trkpt>
      <trkpt lat="44.65038" lon="3.26701">
        <ele>1107</ele>
        <time>2019-05-25T10:01:50Z</time>
      </trkpt>
      <trkpt lat="44.65028" lon="3.26723">
        <ele>1106.5999755859</ele>
        <time>2019-05-25T10:01:53Z</time>
      </trkpt>
      <trkpt lat="44.65021" lon="3.2674">
        <ele>1106.1999511719</ele>
        <time>2019-05-25T10:01:55Z</time>
      </trkpt>
      <trkpt lat="44.65013" lon="3.26767">
        <ele>1105.5999755859</ele>
        <time>2019-05-25T10:01:58Z</time>
      </trkpt>
      <trkpt lat="44.65013" lon="3.26777">
        <ele>1105.5999755859</ele>
        <time>2019-05-25T10:01:59Z</time>
      </trkpt>
      <trkpt lat="44.65018" lon="3.26824">
        <ele>1104.8000488281</ele>
        <time>2019-05-25T10:02:04Z</time>
      </trkpt>
      <trkpt lat="44.65017" lon="3.26843">
        <ele>1104.4000244141</ele>
        <time>2019-05-25T10:02:06Z</time>
      </trkpt>
      <trkpt lat="44.65017" lon="3.26862">
        <ele>1104.1999511719</ele>
        <time>2019-05-25T10:02:08Z</time>
      </trkpt>
      <trkpt lat="44.65021" lon="3.26914">
        <ele>1103.8000488281</ele>
        <time>2019-05-25T10:02:13Z</time>
      </trkpt>
      <trkpt lat="44.65022" lon="3.26983">
        <ele>1103.5999755859</ele>
        <time>2019-05-25T10:02:20Z</time>
      </trkpt>
      <trkpt lat="44.65023" lon="3.27058">
        <ele>1103.5999755859</ele>
        <time>2019-05-25T10:02:28Z</time>
      </trkpt>
      <trkpt lat="44.65024" lon="3.27101">
        <ele>1103.4000244141</ele>
        <time>2019-05-25T10:02:33Z</time>
      </trkpt>
      <trkpt lat="44.65024" lon="3.27128">
        <ele>1103.4000244141</ele>
        <time>2019-05-25T10:02:36Z</time>
      </trkpt>
      <trkpt lat="44.65027" lon="3.272">
        <ele>1103.4000244141</ele>
        <time>2019-05-25T10:02:45Z</time>
      </trkpt>
      <trkpt lat="44.6503" lon="3.2722">
        <ele>1103.5999755859</ele>
        <time>2019-05-25T10:02:48Z</time>
      </trkpt>
      <trkpt lat="44.65033" lon="3.27233">
        <ele>1103.5999755859</ele>
        <time>2019-05-25T10:02:50Z</time>
      </trkpt>
      <trkpt lat="44.65037" lon="3.27251">
        <ele>1103.8000488281</ele>
        <time>2019-05-25T10:02:53Z</time>
      </trkpt>
      <trkpt lat="44.6504" lon="3.27263">
        <ele>1104</ele>
        <time>2019-05-25T10:02:55Z</time>
      </trkpt>
      <trkpt lat="44.65041" lon="3.27269">
        <ele>1104</ele>
        <time>2019-05-25T10:02:56Z</time>
      </trkpt>
      <trkpt lat="44.65045" lon="3.27285">
        <ele>1104.1999511719</ele>
        <time>2019-05-25T10:02:59Z</time>
      </trkpt>
      <trkpt lat="44.65052" lon="3.27306">
        <ele>1104.4000244141</ele>
        <time>2019-05-25T10:03:03Z</time>
      </trkpt>
      <trkpt lat="44.6506" lon="3.27327">
        <ele>1104.5999755859</ele>
        <time>2019-05-25T10:03:07Z</time>
      </trkpt>
      <trkpt lat="44.65066" lon="3.27338">
        <ele>1104.8000488281</ele>
        <time>2019-05-25T10:03:09Z</time>
      </trkpt>
      <trkpt lat="44.65086" lon="3.27375">
        <ele>1104.8000488281</ele>
        <time>2019-05-25T10:03:15Z</time>
      </trkpt>
      <trkpt lat="44.65115" lon="3.27416">
        <ele>1104.5999755859</ele>
        <time>2019-05-25T10:03:21Z</time>
      </trkpt>
      <trkpt lat="44.6516" lon="3.27474">
        <ele>1104</ele>
        <time>2019-05-25T10:03:29Z</time>
      </trkpt>
      <trkpt lat="44.65165" lon="3.27481">
        <ele>1104</ele>
        <time>2019-05-25T10:03:30Z</time>
      </trkpt>
      <trkpt lat="44.65202" lon="3.27529">
        <ele>1103.8000488281</ele>
        <time>2019-05-25T10:03:37Z</time>
      </trkpt>
      <trkpt lat="44.65208" lon="3.27534">
        <ele>1103.5999755859</ele>
        <time>2019-05-25T10:03:38Z</time>
      </trkpt>
      <trkpt lat="44.65229" lon="3.27545">
        <ele>1103.4000244141</ele>
        <time>2019-05-25T10:03:41Z</time>
      </trkpt>
      <trkpt lat="44.65236" lon="3.27549">
        <ele>1103.4000244141</ele>
        <time>2019-05-25T10:03:42Z</time>
      </trkpt>
      <trkpt lat="44.65264" lon="3.27571">
        <ele>1103</ele>
        <time>2019-05-25T10:03:46Z</time>
      </trkpt>
      <trkpt lat="44.65311" lon="3.27612">
        <ele>1102.5999755859</ele>
        <time>2019-05-25T10:03:53Z</time>
      </trkpt>
      <trkpt lat="44.65338" lon="3.27634">
        <ele>1102.5999755859</ele>
        <time>2019-05-25T10:03:58Z</time>
      </trkpt>
      <trkpt lat="44.65351" lon="3.27645">
        <ele>1102.5999755859</ele>
        <time>2019-05-25T10:04:01Z</time>
      </trkpt>
      <trkpt lat="44.65361" lon="3.27655">
        <ele>1102.5999755859</ele>
        <time>2019-05-25T10:04:04Z</time>
      </trkpt>
      <trkpt lat="44.65378" lon="3.27669">
        <ele>1103</ele>
        <time>2019-05-25T10:04:09Z</time>
      </trkpt>
      <trkpt lat="44.65382" lon="3.27671">
        <ele>1103.1999511719</ele>
        <time>2019-05-25T10:04:10Z</time>
      </trkpt>
      <trkpt lat="44.654" lon="3.2768">
        <ele>1103.4000244141</ele>
        <time>2019-05-25T10:04:14Z</time>
      </trkpt>
      <trkpt lat="44.65436" lon="3.27688">
        <ele>1103.5999755859</ele>
        <time>2019-05-25T10:04:22Z</time>
      </trkpt>
      <trkpt lat="44.6545" lon="3.27687">
        <ele>1103.8000488281</ele>
        <time>2019-05-25T10:04:25Z</time>
      </trkpt>
      <trkpt lat="44.65459" lon="3.27689">
        <ele>1104</ele>
        <time>2019-05-25T10:04:27Z</time>
      </trkpt>
      <trkpt lat="44.65468" lon="3.2769">
        <ele>1104</ele>
        <time>2019-05-25T10:04:29Z</time>
      </trkpt>
      <trkpt lat="44.65477" lon="3.27692">
        <ele>1104.1999511719</ele>
        <time>2019-05-25T10:04:31Z</time>
      </trkpt>
      <trkpt lat="44.65489" lon="3.27691">
        <ele>1104.4000244141</ele>
        <time>2019-05-25T10:04:34Z</time>
      </trkpt>
      <trkpt lat="44.65498" lon="3.27691">
        <ele>1104.4000244141</ele>
        <time>2019-05-25T10:04:36Z</time>
      </trkpt>
      <trkpt lat="44.65512" lon="3.27689">
        <ele>1104.5999755859</ele>
        <time>2019-05-25T10:04:39Z</time>
      </trkpt>
      <trkpt lat="44.65525" lon="3.27689">
        <ele>1105</ele>
        <time>2019-05-25T10:04:42Z</time>
      </trkpt>
      <trkpt lat="44.65541" lon="3.2769">
        <ele>1105.4000244141</ele>
        <time>2019-05-25T10:04:46Z</time>
      </trkpt>
      <trkpt lat="44.6555" lon="3.27694">
        <ele>1105.8000488281</ele>
        <time>2019-05-25T10:04:48Z</time>
      </trkpt>
      <trkpt lat="44.65564" lon="3.27699">
        <ele>1106</ele>
        <time>2019-05-25T10:04:51Z</time>
      </trkpt>
      <trkpt lat="44.65581" lon="3.27705">
        <ele>1106.1999511719</ele>
        <time>2019-05-25T10:04:55Z</time>
      </trkpt>
      <trkpt lat="44.65586" lon="3.27706">
        <ele>1106.1999511719</ele>
        <time>2019-05-25T10:04:56Z</time>
      </trkpt>
      <trkpt lat="44.6559" lon="3.27707">
        <ele>1106.1999511719</ele>
        <time>2019-05-25T10:04:57Z</time>
      </trkpt>
      <trkpt lat="44.65612" lon="3.27715">
        <ele>1106.4000244141</ele>
        <time>2019-05-25T10:05:02Z</time>
      </trkpt>
      <trkpt lat="44.6565" lon="3.27726">
        <ele>1106.5999755859</ele>
        <time>2019-05-25T10:05:10Z</time>
      </trkpt>
      <trkpt lat="44.65664" lon="3.27731">
        <ele>1106.8000488281</ele>
        <time>2019-05-25T10:05:13Z</time>
      </trkpt>
      <trkpt lat="44.65674" lon="3.27733">
        <ele>1106.8000488281</ele>
        <time>2019-05-25T10:05:15Z</time>
      </trkpt>
      <trkpt lat="44.65713" lon="3.27745">
        <ele>1107</ele>
        <time>2019-05-25T10:05:23Z</time>
      </trkpt>
      <trkpt lat="44.65745" lon="3.27756">
        <ele>1107.4000244141</ele>
        <time>2019-05-25T10:05:30Z</time>
      </trkpt>
      <trkpt lat="44.65767" lon="3.27762">
        <ele>1107.5999755859</ele>
        <time>2019-05-25T10:05:35Z</time>
      </trkpt>
      <trkpt lat="44.65781" lon="3.27763">
        <ele>1107.5999755859</ele>
        <time>2019-05-25T10:05:38Z</time>
      </trkpt>
      <trkpt lat="44.6579" lon="3.27764">
        <ele>1107.8000488281</ele>
        <time>2019-05-25T10:05:40Z</time>
      </trkpt>
      <trkpt lat="44.6581" lon="3.27761">
        <ele>1107.8000488281</ele>
        <time>2019-05-25T10:05:45Z</time>
      </trkpt>
      <trkpt lat="44.65829" lon="3.2777">
        <ele>1108</ele>
        <time>2019-05-25T10:05:50Z</time>
      </trkpt>
      <trkpt lat="44.65837" lon="3.27775">
        <ele>1108</ele>
        <time>2019-05-25T10:05:52Z</time>
      </trkpt>
      <trkpt lat="44.65855" lon="3.27783">
        <ele>1108.1999511719</ele>
        <time>2019-05-25T10:05:56Z</time>
      </trkpt>
      <trkpt lat="44.65887" lon="3.27795">
        <ele>1108.5999755859</ele>
        <time>2019-05-25T10:06:03Z</time>
      </trkpt>
      <trkpt lat="44.65902" lon="3.27799">
        <ele>1108.5999755859</ele>
        <time>2019-05-25T10:06:06Z</time>
      </trkpt>
      <trkpt lat="44.65916" lon="3.27806">
        <ele>1108.8000488281</ele>
        <time>2019-05-25T10:06:09Z</time>
      </trkpt>
      <trkpt lat="44.65951" lon="3.27821">
        <ele>1109</ele>
        <time>2019-05-25T10:06:16Z</time>
      </trkpt>
      <trkpt lat="44.65985" lon="3.27839">
        <ele>1109.5999755859</ele>
        <time>2019-05-25T10:06:23Z</time>
      </trkpt>
      <trkpt lat="44.66028" lon="3.27865">
        <ele>1110</ele>
        <time>2019-05-25T10:06:32Z</time>
      </trkpt>
      <trkpt lat="44.66052" lon="3.27889">
        <ele>1110.4000244141</ele>
        <time>2019-05-25T10:06:38Z</time>
      </trkpt>
      <trkpt lat="44.66059" lon="3.27897">
        <ele>1110.4000244141</ele>
        <time>2019-05-25T10:06:40Z</time>
      </trkpt>
      <trkpt lat="44.66067" lon="3.27905">
        <ele>1110.5999755859</ele>
        <time>2019-05-25T10:06:42Z</time>
      </trkpt>
      <trkpt lat="44.66071" lon="3.27909">
        <ele>1110.5999755859</ele>
        <time>2019-05-25T10:06:43Z</time>
      </trkpt>
      <trkpt lat="44.66099" lon="3.27934">
        <ele>1111</ele>
        <time>2019-05-25T10:06:49Z</time>
      </trkpt>
      <trkpt lat="44.66136" lon="3.27964">
        <ele>1111</ele>
        <time>2019-05-25T10:06:56Z</time>
      </trkpt>
      <trkpt lat="44.66151" lon="3.27979">
        <ele>1111</ele>
        <time>2019-05-25T10:06:59Z</time>
      </trkpt>
      <trkpt lat="44.6616" lon="3.27989">
        <ele>1111.1999511719</ele>
        <time>2019-05-25T10:07:01Z</time>
      </trkpt>
      <trkpt lat="44.66188" lon="3.28026">
        <ele>1111.1999511719</ele>
        <time>2019-05-25T10:07:08Z</time>
      </trkpt>
      <trkpt lat="44.66193" lon="3.28031">
        <ele>1111.1999511719</ele>
        <time>2019-05-25T10:07:09Z</time>
      </trkpt>
      <trkpt lat="44.66208" lon="3.28043">
        <ele>1111.1999511719</ele>
        <time>2019-05-25T10:07:12Z</time>
      </trkpt>
      <trkpt lat="44.66214" lon="3.28046">
        <ele>1111.1999511719</ele>
        <time>2019-05-25T10:07:13Z</time>
      </trkpt>
      <trkpt lat="44.66248" lon="3.28058">
        <ele>1111.1999511719</ele>
        <time>2019-05-25T10:07:19Z</time>
      </trkpt>
      <trkpt lat="44.66275" lon="3.28071">
        <ele>1111.1999511719</ele>
        <time>2019-05-25T10:07:23Z</time>
      </trkpt>
      <trkpt lat="44.66325" lon="3.281">
        <ele>1110.8000488281</ele>
        <time>2019-05-25T10:07:30Z</time>
      </trkpt>
      <trkpt lat="44.66331" lon="3.28104">
        <ele>1110.8000488281</ele>
        <time>2019-05-25T10:07:31Z</time>
      </trkpt>
      <trkpt lat="44.66371" lon="3.28127">
        <ele>1110.4000244141</ele>
        <time>2019-05-25T10:07:37Z</time>
      </trkpt>
      <trkpt lat="44.66387" lon="3.28137">
        <ele>1110</ele>
        <time>2019-05-25T10:07:40Z</time>
      </trkpt>
      <trkpt lat="44.66395" lon="3.28139">
        <ele>1109.5999755859</ele>
        <time>2019-05-25T10:07:43Z</time>
      </trkpt>
      <trkpt lat="44.66394" lon="3.28135">
        <ele>1109.1999511719</ele>
        <time>2019-05-25T10:07:46Z</time>
      </trkpt>
      <trkpt lat="44.66388" lon="3.28139">
        <ele>1109</ele>
        <time>2019-05-25T10:07:48Z</time>
      </trkpt>
      <trkpt lat="44.66386" lon="3.28143">
        <ele>1109</ele>
        <time>2019-05-25T10:07:49Z</time>
      </trkpt>
      <trkpt lat="44.66379" lon="3.28152">
        <ele>1108.5999755859</ele>
        <time>2019-05-25T10:07:51Z</time>
      </trkpt>
      <trkpt lat="44.6637" lon="3.28163">
        <ele>1108.4000244141</ele>
        <time>2019-05-25T10:07:53Z</time>
      </trkpt>
      <trkpt lat="44.66349" lon="3.28193">
        <ele>1107.8000488281</ele>
        <time>2019-05-25T10:07:57Z</time>
      </trkpt>
      <trkpt lat="44.66326" lon="3.28236">
        <ele>1106.8000488281</ele>
        <time>2019-05-25T10:08:01Z</time>
      </trkpt>
      <trkpt lat="44.66296" lon="3.2829">
        <ele>1105.5999755859</ele>
        <time>2019-05-25T10:08:06Z</time>
      </trkpt>
      <trkpt lat="44.66294" lon="3.28295">
        <ele>1105.4000244141</ele>
        <time>2019-05-25T10:08:07Z</time>
      </trkpt>
      <trkpt lat="44.66295" lon="3.28299">
        <ele>1105.1999511719</ele>
        <time>2019-05-25T10:08:08Z</time>
      </trkpt>
      <trkpt lat="44.66301" lon="3.28304">
        <ele>1104.8000488281</ele>
        <time>2019-05-25T10:08:10Z</time>
      </trkpt>
      <trkpt lat="44.66305" lon="3.28306">
        <ele>1104.5999755859</ele>
        <time>2019-05-25T10:08:11Z</time>
      </trkpt>
      <trkpt lat="44.66319" lon="3.28312">
        <ele>1104</ele>
        <time>2019-05-25T10:08:14Z</time>
      </trkpt>
      <trkpt lat="44.66323" lon="3.28317">
        <ele>1103.5999755859</ele>
        <time>2019-05-25T10:08:16Z</time>
      </trkpt>
      <trkpt lat="44.66324" lon="3.28329">
        <ele>1102.8000488281</ele>
        <time>2019-05-25T10:08:19Z</time>
      </trkpt>
      <trkpt lat="44.66325" lon="3.28331">
        <ele>1102.5999755859</ele>
        <time>2019-05-25T10:08:20Z</time>
      </trkpt>
      <trkpt lat="44.66325" lon="3.28335">
        <ele>1102.4000244141</ele>
        <time>2019-05-25T10:08:21Z</time>
      </trkpt>
      <trkpt lat="44.66324" lon="3.28345">
        <ele>1102</ele>
        <time>2019-05-25T10:08:23Z</time>
      </trkpt>
      <trkpt lat="44.66323" lon="3.28358">
        <ele>1101.1999511719</ele>
        <time>2019-05-25T10:08:26Z</time>
      </trkpt>
      <trkpt lat="44.66323" lon="3.28366">
        <ele>1100.5999755859</ele>
        <time>2019-05-25T10:08:28Z</time>
      </trkpt>
      <trkpt lat="44.66323" lon="3.28369">
        <ele>1100.1999511719</ele>
        <time>2019-05-25T10:08:29Z</time>
      </trkpt>
      <trkpt lat="44.66326" lon="3.28374">
        <ele>1099.4000244141</ele>
        <time>2019-05-25T10:08:32Z</time>
      </trkpt>
      <trkpt lat="44.66331" lon="3.28386">
        <ele>1093</ele>
        <time>2019-05-25T10:09:09Z</time>
      </trkpt>
      <trkpt lat="44.66332" lon="3.28391">
        <ele>1092.8000488281</ele>
        <time>2019-05-25T10:09:10Z</time>
      </trkpt>
      <trkpt lat="44.66332" lon="3.28397">
        <ele>1092.5999755859</ele>
        <time>2019-05-25T10:09:11Z</time>
      </trkpt>
      <trkpt lat="44.66329" lon="3.2841">
        <ele>1092.1999511719</ele>
        <time>2019-05-25T10:09:13Z</time>
      </trkpt>
      <trkpt lat="44.66329" lon="3.28416">
        <ele>1092</ele>
        <time>2019-05-25T10:09:14Z</time>
      </trkpt>
      <trkpt lat="44.66332" lon="3.28431">
        <ele>1091.5999755859</ele>
        <time>2019-05-25T10:09:16Z</time>
      </trkpt>
      <trkpt lat="44.66335" lon="3.28449">
        <ele>1090.8000488281</ele>
        <time>2019-05-25T10:09:19Z</time>
      </trkpt>
      <trkpt lat="44.66334" lon="3.28454">
        <ele>1090.5999755859</ele>
        <time>2019-05-25T10:09:20Z</time>
      </trkpt>
      <trkpt lat="44.6633" lon="3.28468">
        <ele>1089.5999755859</ele>
        <time>2019-05-25T10:09:23Z</time>
      </trkpt>
      <trkpt lat="44.6633" lon="3.28472">
        <ele>1089.4000244141</ele>
        <time>2019-05-25T10:09:24Z</time>
      </trkpt>
      <trkpt lat="44.66335" lon="3.28483">
        <ele>1088.5999755859</ele>
        <time>2019-05-25T10:09:27Z</time>
      </trkpt>
      <trkpt lat="44.66335" lon="3.28489">
        <ele>1088.4000244141</ele>
        <time>2019-05-25T10:09:28Z</time>
      </trkpt>
      <trkpt lat="44.66335" lon="3.28499">
        <ele>1087.5999755859</ele>
        <time>2019-05-25T10:09:30Z</time>
      </trkpt>
      <trkpt lat="44.66337" lon="3.28503">
        <ele>1087.4000244141</ele>
        <time>2019-05-25T10:09:31Z</time>
      </trkpt>
      <trkpt lat="44.66342" lon="3.28509">
        <ele>1087</ele>
        <time>2019-05-25T10:09:33Z</time>
      </trkpt>
      <trkpt lat="44.66345" lon="3.28509">
        <ele>1086.8000488281</ele>
        <time>2019-05-25T10:09:34Z</time>
      </trkpt>
      <trkpt lat="44.66347" lon="3.2851">
        <ele>1086.5999755859</ele>
        <time>2019-05-25T10:09:35Z</time>
      </trkpt>
      <trkpt lat="44.66346" lon="3.28515">
        <ele>1086</ele>
        <time>2019-05-25T10:09:37Z</time>
      </trkpt>
      <trkpt lat="44.6634" lon="3.28523">
        <ele>1084.8000488281</ele>
        <time>2019-05-25T10:09:41Z</time>
      </trkpt>
      <trkpt lat="44.66339" lon="3.28525">
        <ele>1084.4000244141</ele>
        <time>2019-05-25T10:09:42Z</time>
      </trkpt>
      <trkpt lat="44.6634" lon="3.28527">
        <ele>1083.8000488281</ele>
        <time>2019-05-25T10:09:44Z</time>
      </trkpt>
      <trkpt lat="44.66342" lon="3.28529">
        <ele>1083.4000244141</ele>
        <time>2019-05-25T10:09:46Z</time>
      </trkpt>
      <trkpt lat="44.66344" lon="3.2853">
        <ele>1083.1999511719</ele>
        <time>2019-05-25T10:09:47Z</time>
      </trkpt>
      <trkpt lat="44.66345" lon="3.2853">
        <ele>1083.1999511719</ele>
        <time>2019-05-25T10:09:48Z</time>
      </trkpt>
      <trkpt lat="44.66353" lon="3.28527">
        <ele>1082.4000244141</ele>
        <time>2019-05-25T10:09:52Z</time>
      </trkpt>
      <trkpt lat="44.66356" lon="3.28525">
        <ele>1082.1999511719</ele>
        <time>2019-05-25T10:09:54Z</time>
      </trkpt>
      <trkpt lat="44.66359" lon="3.28522">
        <ele>1082</ele>
        <time>2019-05-25T10:09:56Z</time>
      </trkpt>
      <trkpt lat="44.66361" lon="3.2852">
        <ele>1081.8000488281</ele>
        <time>2019-05-25T10:09:57Z</time>
      </trkpt>
      <trkpt lat="44.66363" lon="3.28516">
        <ele>1081.5999755859</ele>
        <time>2019-05-25T10:09:59Z</time>
      </trkpt>
      <trkpt lat="44.66381" lon="3.28445">
        <ele>1085.1999511719</ele>
        <time>2019-05-25T10:10:55Z</time>
      </trkpt>
      <trkpt lat="44.66383" lon="3.28447">
        <ele>1085.1999511719</ele>
        <time>2019-05-25T10:10:56Z</time>
      </trkpt>
      <trkpt lat="44.66386" lon="3.28451">
        <ele>1085</ele>
        <time>2019-05-25T10:10:59Z</time>
      </trkpt>
      <trkpt lat="44.66387" lon="3.28458">
        <ele>1085.1999511719</ele>
        <time>2019-05-25T10:11:03Z</time>
      </trkpt>
      <trkpt lat="44.66385" lon="3.28459">
        <ele>1085.1999511719</ele>
        <time>2019-05-25T10:11:04Z</time>
      </trkpt>
      <trkpt lat="44.66385" lon="3.2846">
        <ele>1085.1999511719</ele>
        <time>2019-05-25T10:11:05Z</time>
      </trkpt>
      <trkpt lat="44.66385" lon="3.28466">
        <ele>1085.1999511719</ele>
        <time>2019-05-25T10:11:07Z</time>
      </trkpt>
      <trkpt lat="44.66387" lon="3.2848">
        <ele>1085.1999511719</ele>
        <time>2019-05-25T10:11:10Z</time>
      </trkpt>
      <trkpt lat="44.66389" lon="3.28484">
        <ele>1085.1999511719</ele>
        <time>2019-05-25T10:11:11Z</time>
      </trkpt>
      <trkpt lat="44.6639" lon="3.28487">
        <ele>1085.1999511719</ele>
        <time>2019-05-25T10:11:12Z</time>
      </trkpt>
      <trkpt lat="44.66385" lon="3.2849">
        <ele>1085.4000244141</ele>
        <time>2019-05-25T10:11:14Z</time>
      </trkpt>
      <trkpt lat="44.66383" lon="3.28494">
        <ele>1085.1999511719</ele>
        <time>2019-05-25T10:11:17Z</time>
      </trkpt>
      <trkpt lat="44.66386" lon="3.28498">
        <ele>1085.1999511719</ele>
        <time>2019-05-25T10:11:19Z</time>
      </trkpt>
      <trkpt lat="44.6639" lon="3.285">
        <ele>1084.8000488281</ele>
        <time>2019-05-25T10:11:21Z</time>
      </trkpt>
      <trkpt lat="44.66395" lon="3.28499">
        <ele>1084.5999755859</ele>
        <time>2019-05-25T10:11:23Z</time>
      </trkpt>
      <trkpt lat="44.66396" lon="3.28498">
        <ele>1084.5999755859</ele>
        <time>2019-05-25T10:11:24Z</time>
      </trkpt>
      <trkpt lat="44.66407" lon="3.28509">
        <ele>1085.5999755859</ele>
        <time>2019-05-25T10:11:47Z</time>
      </trkpt>
      <trkpt lat="44.66409" lon="3.28512">
        <ele>1085.5999755859</ele>
        <time>2019-05-25T10:11:49Z</time>
      </trkpt>
      <trkpt lat="44.66418" lon="3.28522">
        <ele>1086</ele>
        <time>2019-05-25T10:11:53Z</time>
      </trkpt>
      <trkpt lat="44.66418" lon="3.28527">
        <ele>1086</ele>
        <time>2019-05-25T10:11:54Z</time>
      </trkpt>
      <trkpt lat="44.66413" lon="3.2854">
        <ele>1085.8000488281</ele>
        <time>2019-05-25T10:11:58Z</time>
      </trkpt>
      <trkpt lat="44.6641" lon="3.28551">
        <ele>1085.5999755859</ele>
        <time>2019-05-25T10:12:02Z</time>
      </trkpt>
      <trkpt lat="44.6641" lon="3.28551">
        <ele>1085.4000244141</ele>
        <time>2019-05-25T10:12:03Z</time>
      </trkpt>
      <trkpt lat="44.66421" lon="3.28557">
        <ele>1085</ele>
        <time>2019-05-25T10:12:13Z</time>
      </trkpt>
      <trkpt lat="44.66423" lon="3.28558">
        <ele>1085</ele>
        <time>2019-05-25T10:12:15Z</time>
      </trkpt>
      <trkpt lat="44.66424" lon="3.28557">
        <ele>1084.8000488281</ele>
        <time>2019-05-25T10:12:16Z</time>
      </trkpt>
      <trkpt lat="44.66428" lon="3.28562">
        <ele>1085</ele>
        <time>2019-05-25T10:12:19Z</time>
      </trkpt>
      <trkpt lat="44.6643" lon="3.2857">
        <ele>1084.8000488281</ele>
        <time>2019-05-25T10:12:21Z</time>
      </trkpt>
      <trkpt lat="44.66433" lon="3.28576">
        <ele>1084.5999755859</ele>
        <time>2019-05-25T10:12:23Z</time>
      </trkpt>
      <trkpt lat="44.66434" lon="3.28576">
        <ele>1084.4000244141</ele>
        <time>2019-05-25T10:12:24Z</time>
      </trkpt>
      <trkpt lat="44.66437" lon="3.2858">
        <ele>1084.4000244141</ele>
        <time>2019-05-25T10:12:26Z</time>
      </trkpt>
      <trkpt lat="44.66442" lon="3.28584">
        <ele>1084.4000244141</ele>
        <time>2019-05-25T10:12:28Z</time>
      </trkpt>
      <trkpt lat="44.66444" lon="3.28586">
        <ele>1084.4000244141</ele>
        <time>2019-05-25T10:12:29Z</time>
      </trkpt>
      <trkpt lat="44.66446" lon="3.28588">
        <ele>1084.4000244141</ele>
        <time>2019-05-25T10:12:30Z</time>
      </trkpt>
      <trkpt lat="44.66446" lon="3.28593">
        <ele>1084.5999755859</ele>
        <time>2019-05-25T10:12:32Z</time>
      </trkpt>
      <trkpt lat="44.66452" lon="3.28622">
        <ele>1082.4000244141</ele>
        <time>2019-05-25T10:13:15Z</time>
      </trkpt>
      <trkpt lat="44.66456" lon="3.28626">
        <ele>1082.4000244141</ele>
        <time>2019-05-25T10:13:18Z</time>
      </trkpt>
      <trkpt lat="44.66458" lon="3.28627">
        <ele>1082.5999755859</ele>
        <time>2019-05-25T10:13:19Z</time>
      </trkpt>
      <trkpt lat="44.66459" lon="3.28633">
        <ele>1082.4000244141</ele>
        <time>2019-05-25T10:13:21Z</time>
      </trkpt>
      <trkpt lat="44.66459" lon="3.28638">
        <ele>1082.1999511719</ele>
        <time>2019-05-25T10:13:22Z</time>
      </trkpt>
      <trkpt lat="44.66455" lon="3.28645">
        <ele>1082</ele>
        <time>2019-05-25T10:13:24Z</time>
      </trkpt>
      <trkpt lat="44.66453" lon="3.28648">
        <ele>1081.8000488281</ele>
        <time>2019-05-25T10:13:25Z</time>
      </trkpt>
      <trkpt lat="44.66446" lon="3.28658">
        <ele>1081.5999755859</ele>
        <time>2019-05-25T10:13:28Z</time>
      </trkpt>
      <trkpt lat="44.66434" lon="3.28668">
        <ele>1081.1999511719</ele>
        <time>2019-05-25T10:13:31Z</time>
      </trkpt>
      <trkpt lat="44.6643" lon="3.28671">
        <ele>1080.8000488281</ele>
        <time>2019-05-25T10:13:32Z</time>
      </trkpt>
      <trkpt lat="44.66428" lon="3.28675">
        <ele>1080.5999755859</ele>
        <time>2019-05-25T10:13:33Z</time>
      </trkpt>
      <trkpt lat="44.66425" lon="3.28683">
        <ele>1080</ele>
        <time>2019-05-25T10:13:36Z</time>
      </trkpt>
      <trkpt lat="44.66424" lon="3.28684">
        <ele>1080</ele>
        <time>2019-05-25T10:13:37Z</time>
      </trkpt>
      <trkpt lat="44.66419" lon="3.28696">
        <ele>1079.1999511719</ele>
        <time>2019-05-25T10:13:42Z</time>
      </trkpt>
      <trkpt lat="44.66416" lon="3.28698">
        <ele>1079.1999511719</ele>
        <time>2019-05-25T10:13:43Z</time>
      </trkpt>
      <trkpt lat="44.66413" lon="3.28701">
        <ele>1079</ele>
        <time>2019-05-25T10:13:45Z</time>
      </trkpt>
      <trkpt lat="44.66404" lon="3.28715">
        <ele>1077.8000488281</ele>
        <time>2019-05-25T10:13:52Z</time>
      </trkpt>
      <trkpt lat="44.66403" lon="3.28718">
        <ele>1077.5999755859</ele>
        <time>2019-05-25T10:13:53Z</time>
      </trkpt>
      <trkpt lat="44.66401" lon="3.28723">
        <ele>1077</ele>
        <time>2019-05-25T10:13:55Z</time>
      </trkpt>
      <trkpt lat="44.66397" lon="3.28729">
        <ele>1076.5999755859</ele>
        <time>2019-05-25T10:13:58Z</time>
      </trkpt>
      <trkpt lat="44.66395" lon="3.28734">
        <ele>1075.8000488281</ele>
        <time>2019-05-25T10:14:01Z</time>
      </trkpt>
      <trkpt lat="44.66386" lon="3.2874">
        <ele>1074.5999755859</ele>
        <time>2019-05-25T10:14:08Z</time>
      </trkpt>
      <trkpt lat="44.66384" lon="3.28742">
        <ele>1074.4000244141</ele>
        <time>2019-05-25T10:14:09Z</time>
      </trkpt>
      <trkpt lat="44.6637" lon="3.28754">
        <ele>1073.4000244141</ele>
        <time>2019-05-25T10:14:14Z</time>
      </trkpt>
      <trkpt lat="44.66368" lon="3.28757">
        <ele>1073.1999511719</ele>
        <time>2019-05-25T10:14:15Z</time>
      </trkpt>
      <trkpt lat="44.66367" lon="3.28764">
        <ele>1072.8000488281</ele>
        <time>2019-05-25T10:14:17Z</time>
      </trkpt>
      <trkpt lat="44.66365" lon="3.28772">
        <ele>1072.4000244141</ele>
        <time>2019-05-25T10:14:19Z</time>
      </trkpt>
      <trkpt lat="44.66365" lon="3.28778">
        <ele>1072</ele>
        <time>2019-05-25T10:14:20Z</time>
      </trkpt>
      <trkpt lat="44.66363" lon="3.28792">
        <ele>1071.1999511719</ele>
        <time>2019-05-25T10:14:23Z</time>
      </trkpt>
      <trkpt lat="44.66364" lon="3.28809">
        <ele>1070.1999511719</ele>
        <time>2019-05-25T10:14:27Z</time>
      </trkpt>
      <trkpt lat="44.66368" lon="3.28821">
        <ele>1069.1999511719</ele>
        <time>2019-05-25T10:14:31Z</time>
      </trkpt>
      <trkpt lat="44.66374" lon="3.28836">
        <ele>1068.5999755859</ele>
        <time>2019-05-25T10:14:35Z</time>
      </trkpt>
      <trkpt lat="44.66385" lon="3.2885">
        <ele>1068</ele>
        <time>2019-05-25T10:14:39Z</time>
      </trkpt>
      <trkpt lat="44.66385" lon="3.28872">
        <ele>1067.4000244141</ele>
        <time>2019-05-25T10:14:43Z</time>
      </trkpt>
      <trkpt lat="44.6638" lon="3.2889">
        <ele>1066.8000488281</ele>
        <time>2019-05-25T10:14:46Z</time>
      </trkpt>
      <trkpt lat="44.66378" lon="3.289">
        <ele>1066.4000244141</ele>
        <time>2019-05-25T10:14:48Z</time>
      </trkpt>
      <trkpt lat="44.66371" lon="3.28918">
        <ele>1065.5999755859</ele>
        <time>2019-05-25T10:14:52Z</time>
      </trkpt>
      <trkpt lat="44.66369" lon="3.28923">
        <ele>1065.1999511719</ele>
        <time>2019-05-25T10:14:53Z</time>
      </trkpt>
      <trkpt lat="44.66363" lon="3.28941">
        <ele>1064.5999755859</ele>
        <time>2019-05-25T10:14:56Z</time>
      </trkpt>
      <trkpt lat="44.66353" lon="3.28963">
        <ele>1063.8000488281</ele>
        <time>2019-05-25T10:15:00Z</time>
      </trkpt>
      <trkpt lat="44.6635" lon="3.28969">
        <ele>1063.5999755859</ele>
        <time>2019-05-25T10:15:01Z</time>
      </trkpt>
      <trkpt lat="44.66348" lon="3.28983">
        <ele>1063.1999511719</ele>
        <time>2019-05-25T10:15:03Z</time>
      </trkpt>
      <trkpt lat="44.66348" lon="3.28997">
        <ele>1062.5999755859</ele>
        <time>2019-05-25T10:15:05Z</time>
      </trkpt>
      <trkpt lat="44.66347" lon="3.29024">
        <ele>1061.8000488281</ele>
        <time>2019-05-25T10:15:09Z</time>
      </trkpt>
      <trkpt lat="44.66346" lon="3.29031">
        <ele>1061.4000244141</ele>
        <time>2019-05-25T10:15:10Z</time>
      </trkpt>
      <trkpt lat="44.66345" lon="3.29041">
        <ele>1061</ele>
        <time>2019-05-25T10:15:12Z</time>
      </trkpt>
      <trkpt lat="44.66345" lon="3.29046">
        <ele>1061</ele>
        <time>2019-05-25T10:15:13Z</time>
      </trkpt>
      <trkpt lat="44.66344" lon="3.29058">
        <ele>1060.5999755859</ele>
        <time>2019-05-25T10:15:15Z</time>
      </trkpt>
      <trkpt lat="44.66346" lon="3.29071">
        <ele>1059.5999755859</ele>
        <time>2019-05-25T10:15:19Z</time>
      </trkpt>
      <trkpt lat="44.66352" lon="3.29084">
        <ele>1059.1999511719</ele>
        <time>2019-05-25T10:15:23Z</time>
      </trkpt>
      <trkpt lat="44.6636" lon="3.29088">
        <ele>1058.8000488281</ele>
        <time>2019-05-25T10:15:26Z</time>
      </trkpt>
      <trkpt lat="44.66364" lon="3.29088">
        <ele>1058.5999755859</ele>
        <time>2019-05-25T10:15:27Z</time>
      </trkpt>
      <trkpt lat="44.66371" lon="3.29086">
        <ele>1058.1999511719</ele>
        <time>2019-05-25T10:15:31Z</time>
      </trkpt>
      <trkpt lat="44.66372" lon="3.29084">
        <ele>1058.1999511719</ele>
        <time>2019-05-25T10:15:32Z</time>
      </trkpt>
      <trkpt lat="44.66374" lon="3.29078">
        <ele>1058</ele>
        <time>2019-05-25T10:15:35Z</time>
      </trkpt>
      <trkpt lat="44.66398" lon="3.29044">
        <ele>1055.5999755859</ele>
        <time>2019-05-25T10:16:06Z</time>
      </trkpt>
      <trkpt lat="44.66399" lon="3.29047">
        <ele>1055.5999755859</ele>
        <time>2019-05-25T10:16:07Z</time>
      </trkpt>
      <trkpt lat="44.66402" lon="3.29054">
        <ele>1055.1999511719</ele>
        <time>2019-05-25T10:16:09Z</time>
      </trkpt>
      <trkpt lat="44.66407" lon="3.29054">
        <ele>1054.8000488281</ele>
        <time>2019-05-25T10:16:11Z</time>
      </trkpt>
      <trkpt lat="44.66415" lon="3.29052">
        <ele>1054.8000488281</ele>
        <time>2019-05-25T10:16:14Z</time>
      </trkpt>
      <trkpt lat="44.66419" lon="3.29051">
        <ele>1054.8000488281</ele>
        <time>2019-05-25T10:16:15Z</time>
      </trkpt>
      <trkpt lat="44.66423" lon="3.29048">
        <ele>1054.5999755859</ele>
        <time>2019-05-25T10:16:17Z</time>
      </trkpt>
      <trkpt lat="44.66425" lon="3.29044">
        <ele>1054.4000244141</ele>
        <time>2019-05-25T10:16:19Z</time>
      </trkpt>
      <trkpt lat="44.66428" lon="3.29037">
        <ele>1054</ele>
        <time>2019-05-25T10:16:23Z</time>
      </trkpt>
      <trkpt lat="44.66433" lon="3.29036">
        <ele>1053.8000488281</ele>
        <time>2019-05-25T10:16:26Z</time>
      </trkpt>
      <trkpt lat="44.66438" lon="3.29029">
        <ele>1054</ele>
        <time>2019-05-25T10:16:29Z</time>
      </trkpt>
      <trkpt lat="44.66439" lon="3.29028">
        <ele>1054</ele>
        <time>2019-05-25T10:16:30Z</time>
      </trkpt>
      <trkpt lat="44.6644" lon="3.29026">
        <ele>1054</ele>
        <time>2019-05-25T10:16:31Z</time>
      </trkpt>
      <trkpt lat="44.66449" lon="3.29015">
        <ele>1054.1999511719</ele>
        <time>2019-05-25T10:16:36Z</time>
      </trkpt>
      <trkpt lat="44.66452" lon="3.29009">
        <ele>1054.1999511719</ele>
        <time>2019-05-25T10:16:38Z</time>
      </trkpt>
      <trkpt lat="44.6646" lon="3.28998">
        <ele>1054.1999511719</ele>
        <time>2019-05-25T10:16:42Z</time>
      </trkpt>
      <trkpt lat="44.66466" lon="3.28983">
        <ele>1054.1999511719</ele>
        <time>2019-05-25T10:16:48Z</time>
      </trkpt>
      <trkpt lat="44.66472" lon="3.28968">
        <ele>1053.8000488281</ele>
        <time>2019-05-25T10:16:53Z</time>
      </trkpt>
      <trkpt lat="44.66475" lon="3.28956">
        <ele>1053.1999511719</ele>
        <time>2019-05-25T10:16:58Z</time>
      </trkpt>
      <trkpt lat="44.66481" lon="3.28942">
        <ele>1053</ele>
        <time>2019-05-25T10:17:03Z</time>
      </trkpt>
      <trkpt lat="44.66483" lon="3.28936">
        <ele>1053</ele>
        <time>2019-05-25T10:17:05Z</time>
      </trkpt>
      <trkpt lat="44.66485" lon="3.28931">
        <ele>1053</ele>
        <time>2019-05-25T10:17:07Z</time>
      </trkpt>
      <trkpt lat="44.66489" lon="3.2892">
        <ele>1052.8000488281</ele>
        <time>2019-05-25T10:17:11Z</time>
      </trkpt>
      <trkpt lat="44.66493" lon="3.28904">
        <ele>1053</ele>
        <time>2019-05-25T10:17:17Z</time>
      </trkpt>
      <trkpt lat="44.66494" lon="3.28897">
        <ele>1053</ele>
        <time>2019-05-25T10:17:20Z</time>
      </trkpt>
      <trkpt lat="44.66493" lon="3.28874">
        <ele>1053</ele>
        <time>2019-05-25T10:17:29Z</time>
      </trkpt>
      <trkpt lat="44.66491" lon="3.28869">
        <ele>1052.8000488281</ele>
        <time>2019-05-25T10:17:31Z</time>
      </trkpt>
      <trkpt lat="44.66493" lon="3.28864">
        <ele>1052.5999755859</ele>
        <time>2019-05-25T10:17:33Z</time>
      </trkpt>
      <trkpt lat="44.66495" lon="3.2886">
        <ele>1052.1999511719</ele>
        <time>2019-05-25T10:17:35Z</time>
      </trkpt>
      <trkpt lat="44.66495" lon="3.28855">
        <ele>1052</ele>
        <time>2019-05-25T10:17:37Z</time>
      </trkpt>
      <trkpt lat="44.66494" lon="3.2885">
        <ele>1052</ele>
        <time>2019-05-25T10:17:39Z</time>
      </trkpt>
      <trkpt lat="44.66492" lon="3.28846">
        <ele>1051.5999755859</ele>
        <time>2019-05-25T10:17:41Z</time>
      </trkpt>
      <trkpt lat="44.66489" lon="3.28837">
        <ele>1052</ele>
        <time>2019-05-25T10:17:45Z</time>
      </trkpt>
      <trkpt lat="44.66489" lon="3.28835">
        <ele>1052</ele>
        <time>2019-05-25T10:17:46Z</time>
      </trkpt>
      <trkpt lat="44.66483" lon="3.28819">
        <ele>1051.8000488281</ele>
        <time>2019-05-25T10:17:54Z</time>
      </trkpt>
      <trkpt lat="44.66488" lon="3.28815">
        <ele>1051.8000488281</ele>
        <time>2019-05-25T10:17:56Z</time>
      </trkpt>
      <trkpt lat="44.66491" lon="3.28815">
        <ele>1051.8000488281</ele>
        <time>2019-05-25T10:17:57Z</time>
      </trkpt>
      <trkpt lat="44.66509" lon="3.28816">
        <ele>1051.5999755859</ele>
        <time>2019-05-25T10:18:02Z</time>
      </trkpt>
      <trkpt lat="44.66537" lon="3.28818">
        <ele>1051.4000244141</ele>
        <time>2019-05-25T10:18:09Z</time>
      </trkpt>
      <trkpt lat="44.66541" lon="3.28819">
        <ele>1051.4000244141</ele>
        <time>2019-05-25T10:18:10Z</time>
      </trkpt>
      <trkpt lat="44.6655" lon="3.28828">
        <ele>1051.5999755859</ele>
        <time>2019-05-25T10:18:13Z</time>
      </trkpt>
      <trkpt lat="44.66559" lon="3.28843">
        <ele>1051.8000488281</ele>
        <time>2019-05-25T10:18:17Z</time>
      </trkpt>
      <trkpt lat="44.66565" lon="3.28857">
        <ele>1052</ele>
        <time>2019-05-25T10:18:20Z</time>
      </trkpt>
      <trkpt lat="44.66567" lon="3.28861">
        <ele>1052</ele>
        <time>2019-05-25T10:18:21Z</time>
      </trkpt>
      <trkpt lat="44.66579" lon="3.28884">
        <ele>1052.4000244141</ele>
        <time>2019-05-25T10:18:26Z</time>
      </trkpt>
      <trkpt lat="44.66589" lon="3.28905">
        <ele>1052.5999755859</ele>
        <time>2019-05-25T10:18:31Z</time>
      </trkpt>
      <trkpt lat="44.66595" lon="3.28915">
        <ele>1052.8000488281</ele>
        <time>2019-05-25T10:18:33Z</time>
      </trkpt>
      <trkpt lat="44.66601" lon="3.28924">
        <ele>1052.8000488281</ele>
        <time>2019-05-25T10:18:35Z</time>
      </trkpt>
      <trkpt lat="44.66604" lon="3.28928">
        <ele>1052.8000488281</ele>
        <time>2019-05-25T10:18:36Z</time>
      </trkpt>
      <trkpt lat="44.66608" lon="3.28932">
        <ele>1052.8000488281</ele>
        <time>2019-05-25T10:18:37Z</time>
      </trkpt>
      <trkpt lat="44.66627" lon="3.28948">
        <ele>1052.8000488281</ele>
        <time>2019-05-25T10:18:42Z</time>
      </trkpt>
      <trkpt lat="44.66647" lon="3.28973">
        <ele>1053</ele>
        <time>2019-05-25T10:18:48Z</time>
      </trkpt>
      <trkpt lat="44.66653" lon="3.28982">
        <ele>1053.1999511719</ele>
        <time>2019-05-25T10:18:50Z</time>
      </trkpt>
      <trkpt lat="44.66658" lon="3.28991">
        <ele>1053.1999511719</ele>
        <time>2019-05-25T10:18:52Z</time>
      </trkpt>
      <trkpt lat="44.66676" lon="3.29021">
        <ele>1053.8000488281</ele>
        <time>2019-05-25T10:18:59Z</time>
      </trkpt>
      <trkpt lat="44.66682" lon="3.29032">
        <ele>1054</ele>
        <time>2019-05-25T10:19:01Z</time>
      </trkpt>
      <trkpt lat="44.66688" lon="3.29044">
        <ele>1054</ele>
        <time>2019-05-25T10:19:03Z</time>
      </trkpt>
      <trkpt lat="44.66695" lon="3.29058">
        <ele>1054</ele>
        <time>2019-05-25T10:19:05Z</time>
      </trkpt>
      <trkpt lat="44.66698" lon="3.29073">
        <ele>1054</ele>
        <time>2019-05-25T10:19:07Z</time>
      </trkpt>
      <trkpt lat="44.66698" lon="3.29081">
        <ele>1054</ele>
        <time>2019-05-25T10:19:08Z</time>
      </trkpt>
      <trkpt lat="44.66699" lon="3.29109">
        <ele>1054.1999511719</ele>
        <time>2019-05-25T10:19:11Z</time>
      </trkpt>
      <trkpt lat="44.66704" lon="3.29155">
        <ele>1053.8000488281</ele>
        <time>2019-05-25T10:19:15Z</time>
      </trkpt>
      <trkpt lat="44.66709" lon="3.29211">
        <ele>1052.8000488281</ele>
        <time>2019-05-25T10:19:19Z</time>
      </trkpt>
      <trkpt lat="44.66717" lon="3.29236">
        <ele>1052.4000244141</ele>
        <time>2019-05-25T10:19:21Z</time>
      </trkpt>
      <trkpt lat="44.66723" lon="3.29245">
        <ele>1052.1999511719</ele>
        <time>2019-05-25T10:19:22Z</time>
      </trkpt>
      <trkpt lat="44.6673" lon="3.29251">
        <ele>1051.8000488281</ele>
        <time>2019-05-25T10:19:23Z</time>
      </trkpt>
      <trkpt lat="44.66745" lon="3.29263">
        <ele>1051.1999511719</ele>
        <time>2019-05-25T10:19:25Z</time>
      </trkpt>
      <trkpt lat="44.66752" lon="3.2928">
        <ele>1050.5999755859</ele>
        <time>2019-05-25T10:19:27Z</time>
      </trkpt>
      <trkpt lat="44.66757" lon="3.29288">
        <ele>1050.4000244141</ele>
        <time>2019-05-25T10:19:28Z</time>
      </trkpt>
      <trkpt lat="44.66764" lon="3.29294">
        <ele>1050.1999511719</ele>
        <time>2019-05-25T10:19:29Z</time>
      </trkpt>
      <trkpt lat="44.66783" lon="3.29304">
        <ele>1049.8000488281</ele>
        <time>2019-05-25T10:19:32Z</time>
      </trkpt>
      <trkpt lat="44.66788" lon="3.29307">
        <ele>1049.8000488281</ele>
        <time>2019-05-25T10:19:33Z</time>
      </trkpt>
      <trkpt lat="44.66792" lon="3.29309">
        <ele>1049.8000488281</ele>
        <time>2019-05-25T10:19:34Z</time>
      </trkpt>
      <trkpt lat="44.66801" lon="3.29312">
        <ele>1050</ele>
        <time>2019-05-25T10:19:37Z</time>
      </trkpt>
      <trkpt lat="44.66817" lon="3.29316">
        <ele>1050.1999511719</ele>
        <time>2019-05-25T10:19:44Z</time>
      </trkpt>
      <trkpt lat="44.6683" lon="3.2931">
        <ele>1050.1999511719</ele>
        <time>2019-05-25T10:19:49Z</time>
      </trkpt>
      <trkpt lat="44.66844" lon="3.29292">
        <ele>1050</ele>
        <time>2019-05-25T10:19:55Z</time>
      </trkpt>
      <trkpt lat="44.66857" lon="3.2927">
        <ele>1049.8000488281</ele>
        <time>2019-05-25T10:20:01Z</time>
      </trkpt>
      <trkpt lat="44.6687" lon="3.29257">
        <ele>1050</ele>
        <time>2019-05-25T10:20:06Z</time>
      </trkpt>
      <trkpt lat="44.66888" lon="3.29267">
        <ele>1050.1999511719</ele>
        <time>2019-05-25T10:20:11Z</time>
      </trkpt>
      <trkpt lat="44.66909" lon="3.29284">
        <ele>1050.1999511719</ele>
        <time>2019-05-25T10:20:18Z</time>
      </trkpt>
      <trkpt lat="44.6693" lon="3.29304">
        <ele>1050</ele>
        <time>2019-05-25T10:20:25Z</time>
      </trkpt>
      <trkpt lat="44.66946" lon="3.29315">
        <ele>1050</ele>
        <time>2019-05-25T10:20:30Z</time>
      </trkpt>
      <trkpt lat="44.66964" lon="3.29319">
        <ele>1049.8000488281</ele>
        <time>2019-05-25T10:20:35Z</time>
      </trkpt>
      <trkpt lat="44.66982" lon="3.29313">
        <ele>1049.4000244141</ele>
        <time>2019-05-25T10:20:40Z</time>
      </trkpt>
      <trkpt lat="44.66985" lon="3.2931">
        <ele>1049.5999755859</ele>
        <time>2019-05-25T10:20:41Z</time>
      </trkpt>
      <trkpt lat="44.66995" lon="3.29303">
        <ele>1049.5999755859</ele>
        <time>2019-05-25T10:20:44Z</time>
      </trkpt>
      <trkpt lat="44.67015" lon="3.29287">
        <ele>1050</ele>
        <time>2019-05-25T10:20:50Z</time>
      </trkpt>
      <trkpt lat="44.67027" lon="3.29271">
        <ele>1050.1999511719</ele>
        <time>2019-05-25T10:20:55Z</time>
      </trkpt>
      <trkpt lat="44.67038" lon="3.29252">
        <ele>1050.5999755859</ele>
        <time>2019-05-25T10:21:01Z</time>
      </trkpt>
      <trkpt lat="44.67051" lon="3.29234">
        <ele>1051.1999511719</ele>
        <time>2019-05-25T10:21:07Z</time>
      </trkpt>
      <trkpt lat="44.67066" lon="3.29215">
        <ele>1051.5999755859</ele>
        <time>2019-05-25T10:21:14Z</time>
      </trkpt>
      <trkpt lat="44.67075" lon="3.29201">
        <ele>1052</ele>
        <time>2019-05-25T10:21:20Z</time>
      </trkpt>
      <trkpt lat="44.67085" lon="3.29187">
        <ele>1052.8000488281</ele>
        <time>2019-05-25T10:21:27Z</time>
      </trkpt>
      <trkpt lat="44.67093" lon="3.29174">
        <ele>1053.5999755859</ele>
        <time>2019-05-25T10:21:33Z</time>
      </trkpt>
      <trkpt lat="44.67099" lon="3.2916">
        <ele>1054.1999511719</ele>
        <time>2019-05-25T10:21:39Z</time>
      </trkpt>
      <trkpt lat="44.67114" lon="3.29138">
        <ele>1055.1999511719</ele>
        <time>2019-05-25T10:21:49Z</time>
      </trkpt>
      <trkpt lat="44.67124" lon="3.29114">
        <ele>1056.1999511719</ele>
        <time>2019-05-25T10:21:58Z</time>
      </trkpt>
      <trkpt lat="44.67129" lon="3.29094">
        <ele>1056.8000488281</ele>
        <time>2019-05-25T10:22:04Z</time>
      </trkpt>
      <trkpt lat="44.67136" lon="3.2907">
        <ele>1057.4000244141</ele>
        <time>2019-05-25T10:22:10Z</time>
      </trkpt>
      <trkpt lat="44.67141" lon="3.29058">
        <ele>1058</ele>
        <time>2019-05-25T10:22:15Z</time>
      </trkpt>
      <trkpt lat="44.67145" lon="3.2905">
        <ele>1058.4000244141</ele>
        <time>2019-05-25T10:22:19Z</time>
      </trkpt>
      <trkpt lat="44.67149" lon="3.29047">
        <ele>1058.5999755859</ele>
        <time>2019-05-25T10:22:21Z</time>
      </trkpt>
      <trkpt lat="44.67151" lon="3.29033">
        <ele>1059</ele>
        <time>2019-05-25T10:22:25Z</time>
      </trkpt>
      <trkpt lat="44.67151" lon="3.29031">
        <ele>1059.1999511719</ele>
        <time>2019-05-25T10:22:26Z</time>
      </trkpt>
      <trkpt lat="44.67151" lon="3.29029">
        <ele>1059.4000244141</ele>
        <time>2019-05-25T10:22:28Z</time>
      </trkpt>
      <trkpt lat="44.67152" lon="3.29022">
        <ele>1059.8000488281</ele>
        <time>2019-05-25T10:22:34Z</time>
      </trkpt>
      <trkpt lat="44.67158" lon="3.29002">
        <ele>1060</ele>
        <time>2019-05-25T10:22:39Z</time>
      </trkpt>
      <trkpt lat="44.67165" lon="3.28967">
        <ele>1060.8000488281</ele>
        <time>2019-05-25T10:22:47Z</time>
      </trkpt>
      <trkpt lat="44.67166" lon="3.28959">
        <ele>1060.8000488281</ele>
        <time>2019-05-25T10:22:49Z</time>
      </trkpt>
      <trkpt lat="44.67163" lon="3.28953">
        <ele>1061</ele>
        <time>2019-05-25T10:22:51Z</time>
      </trkpt>
      <trkpt lat="44.67147" lon="3.28952">
        <ele>1061.1999511719</ele>
        <time>2019-05-25T10:22:55Z</time>
      </trkpt>
      <trkpt lat="44.67142" lon="3.28951">
        <ele>1061.1999511719</ele>
        <time>2019-05-25T10:22:56Z</time>
      </trkpt>
      <trkpt lat="44.67125" lon="3.2895">
        <ele>1061.4000244141</ele>
        <time>2019-05-25T10:22:59Z</time>
      </trkpt>
      <trkpt lat="44.6709" lon="3.28943">
        <ele>1061.5999755859</ele>
        <time>2019-05-25T10:23:04Z</time>
      </trkpt>
      <trkpt lat="44.67034" lon="3.28925">
        <ele>1062</ele>
        <time>2019-05-25T10:23:12Z</time>
      </trkpt>
      <trkpt lat="44.66987" lon="3.28911">
        <ele>1062.5999755859</ele>
        <time>2019-05-25T10:23:19Z</time>
      </trkpt>
      <trkpt lat="44.66968" lon="3.28909">
        <ele>1062.8000488281</ele>
        <time>2019-05-25T10:23:22Z</time>
      </trkpt>
      <trkpt lat="44.66955" lon="3.28908">
        <ele>1062.8000488281</ele>
        <time>2019-05-25T10:23:24Z</time>
      </trkpt>
      <trkpt lat="44.66916" lon="3.28895">
        <ele>1063.4000244141</ele>
        <time>2019-05-25T10:23:30Z</time>
      </trkpt>
      <trkpt lat="44.66868" lon="3.28872">
        <ele>1063.5999755859</ele>
        <time>2019-05-25T10:23:37Z</time>
      </trkpt>
      <trkpt lat="44.66819" lon="3.28849">
        <ele>1063.8000488281</ele>
        <time>2019-05-25T10:23:44Z</time>
      </trkpt>
      <trkpt lat="44.66813" lon="3.28845">
        <ele>1063.8000488281</ele>
        <time>2019-05-25T10:23:45Z</time>
      </trkpt>
      <trkpt lat="44.66807" lon="3.28839">
        <ele>1064</ele>
        <time>2019-05-25T10:23:46Z</time>
      </trkpt>
      <trkpt lat="44.66797" lon="3.28824">
        <ele>1064</ele>
        <time>2019-05-25T10:23:48Z</time>
      </trkpt>
      <trkpt lat="44.66781" lon="3.28795">
        <ele>1064.1999511719</ele>
        <time>2019-05-25T10:23:52Z</time>
      </trkpt>
      <trkpt lat="44.66774" lon="3.28781">
        <ele>1064.4000244141</ele>
        <time>2019-05-25T10:23:54Z</time>
      </trkpt>
      <trkpt lat="44.6677" lon="3.28775">
        <ele>1064.4000244141</ele>
        <time>2019-05-25T10:23:55Z</time>
      </trkpt>
      <trkpt lat="44.66759" lon="3.28756">
        <ele>1064.5999755859</ele>
        <time>2019-05-25T10:23:58Z</time>
      </trkpt>
      <trkpt lat="44.66744" lon="3.28733">
        <ele>1065</ele>
        <time>2019-05-25T10:24:02Z</time>
      </trkpt>
      <trkpt lat="44.66738" lon="3.28723">
        <ele>1065.1999511719</ele>
        <time>2019-05-25T10:24:04Z</time>
      </trkpt>
      <trkpt lat="44.66723" lon="3.28698">
        <ele>1065.8000488281</ele>
        <time>2019-05-25T10:24:09Z</time>
      </trkpt>
      <trkpt lat="44.6672" lon="3.28693">
        <ele>1066</ele>
        <time>2019-05-25T10:24:10Z</time>
      </trkpt>
      <trkpt lat="44.66717" lon="3.28688">
        <ele>1066</ele>
        <time>2019-05-25T10:24:11Z</time>
      </trkpt>
      <trkpt lat="44.66711" lon="3.28679">
        <ele>1066.4000244141</ele>
        <time>2019-05-25T10:24:13Z</time>
      </trkpt>
      <trkpt lat="44.66705" lon="3.28669">
        <ele>1066.5999755859</ele>
        <time>2019-05-25T10:24:15Z</time>
      </trkpt>
      <trkpt lat="44.66689" lon="3.28649">
        <ele>1067.1999511719</ele>
        <time>2019-05-25T10:24:20Z</time>
      </trkpt>
      <trkpt lat="44.66671" lon="3.2863">
        <ele>1068</ele>
        <time>2019-05-25T10:24:26Z</time>
      </trkpt>
      <trkpt lat="44.66659" lon="3.28621">
        <ele>1068.4000244141</ele>
        <time>2019-05-25T10:24:30Z</time>
      </trkpt>
      <trkpt lat="44.66637" lon="3.28599">
        <ele>1069.1999511719</ele>
        <time>2019-05-25T10:24:38Z</time>
      </trkpt>
      <trkpt lat="44.66624" lon="3.28587">
        <ele>1069.4000244141</ele>
        <time>2019-05-25T10:24:43Z</time>
      </trkpt>
      <trkpt lat="44.66612" lon="3.28575">
        <ele>1069.8000488281</ele>
        <time>2019-05-25T10:24:48Z</time>
      </trkpt>
      <trkpt lat="44.666" lon="3.2856">
        <ele>1070.1999511719</ele>
        <time>2019-05-25T10:24:54Z</time>
      </trkpt>
      <trkpt lat="44.66589" lon="3.28546">
        <ele>1070.4000244141</ele>
        <time>2019-05-25T10:25:00Z</time>
      </trkpt>
      <trkpt lat="44.66578" lon="3.28527">
        <ele>1070.5999755859</ele>
        <time>2019-05-25T10:25:07Z</time>
      </trkpt>
      <trkpt lat="44.66568" lon="3.28514">
        <ele>1071.1999511719</ele>
        <time>2019-05-25T10:25:13Z</time>
      </trkpt>
      <trkpt lat="44.66557" lon="3.28495">
        <ele>1071.8000488281</ele>
        <time>2019-05-25T10:25:21Z</time>
      </trkpt>
      <trkpt lat="44.66552" lon="3.28485">
        <ele>1072</ele>
        <time>2019-05-25T10:25:25Z</time>
      </trkpt>
      <trkpt lat="44.66544" lon="3.28468">
        <ele>1072.5999755859</ele>
        <time>2019-05-25T10:25:31Z</time>
      </trkpt>
      <trkpt lat="44.66535" lon="3.28455">
        <ele>1072.5999755859</ele>
        <time>2019-05-25T10:25:36Z</time>
      </trkpt>
      <trkpt lat="44.66528" lon="3.28446">
        <ele>1072.8000488281</ele>
        <time>2019-05-25T10:25:40Z</time>
      </trkpt>
      <trkpt lat="44.66527" lon="3.28443">
        <ele>1072.8000488281</ele>
        <time>2019-05-25T10:25:41Z</time>
      </trkpt>
      <trkpt lat="44.66518" lon="3.28432">
        <ele>1073</ele>
        <time>2019-05-25T10:25:46Z</time>
      </trkpt>
      <trkpt lat="44.66517" lon="3.2843">
        <ele>1073</ele>
        <time>2019-05-25T10:25:47Z</time>
      </trkpt>
      <trkpt lat="44.66515" lon="3.28424">
        <ele>1073</ele>
        <time>2019-05-25T10:25:49Z</time>
      </trkpt>
      <trkpt lat="44.66513" lon="3.28422">
        <ele>1073</ele>
        <time>2019-05-25T10:25:50Z</time>
      </trkpt>
      <trkpt lat="44.66513" lon="3.2842">
        <ele>1073</ele>
        <time>2019-05-25T10:25:51Z</time>
      </trkpt>
      <trkpt lat="44.66509" lon="3.28407">
        <ele>1073.4000244141</ele>
        <time>2019-05-25T10:25:55Z</time>
      </trkpt>
      <trkpt lat="44.66507" lon="3.28391">
        <ele>1074</ele>
        <time>2019-05-25T10:26:00Z</time>
      </trkpt>
      <trkpt lat="44.66506" lon="3.28386">
        <ele>1074.4000244141</ele>
        <time>2019-05-25T10:26:02Z</time>
      </trkpt>
      <trkpt lat="44.66506" lon="3.28379">
        <ele>1074.5999755859</ele>
        <time>2019-05-25T10:26:04Z</time>
      </trkpt>
      <trkpt lat="44.66504" lon="3.28361">
        <ele>1075.1999511719</ele>
        <time>2019-05-25T10:26:10Z</time>
      </trkpt>
      <trkpt lat="44.66502" lon="3.28355">
        <ele>1075.4000244141</ele>
        <time>2019-05-25T10:26:12Z</time>
      </trkpt>
      <trkpt lat="44.66501" lon="3.28346">
        <ele>1075.8000488281</ele>
        <time>2019-05-25T10:26:15Z</time>
      </trkpt>
      <trkpt lat="44.665" lon="3.28344">
        <ele>1076</ele>
        <time>2019-05-25T10:26:16Z</time>
      </trkpt>
      <trkpt lat="44.66496" lon="3.28332">
        <ele>1076.1999511719</ele>
        <time>2019-05-25T10:26:20Z</time>
      </trkpt>
      <trkpt lat="44.66491" lon="3.28312">
        <ele>1077.1999511719</ele>
        <time>2019-05-25T10:26:27Z</time>
      </trkpt>
      <trkpt lat="44.66488" lon="3.28294">
        <ele>1078.1999511719</ele>
        <time>2019-05-25T10:26:33Z</time>
      </trkpt>
      <trkpt lat="44.66489" lon="3.28279">
        <ele>1079</ele>
        <time>2019-05-25T10:26:38Z</time>
      </trkpt>
      <trkpt lat="44.66488" lon="3.28262">
        <ele>1079.4000244141</ele>
        <time>2019-05-25T10:26:43Z</time>
      </trkpt>
      <trkpt lat="44.66482" lon="3.28242">
        <ele>1080</ele>
        <time>2019-05-25T10:26:49Z</time>
      </trkpt>
      <trkpt lat="44.6648" lon="3.28236">
        <ele>1080.1999511719</ele>
        <time>2019-05-25T10:26:51Z</time>
      </trkpt>
      <trkpt lat="44.66478" lon="3.28233">
        <ele>1080.1999511719</ele>
        <time>2019-05-25T10:26:53Z</time>
      </trkpt>
      <trkpt lat="44.6647" lon="3.28219">
        <ele>1080.5999755859</ele>
        <time>2019-05-25T10:26:58Z</time>
      </trkpt>
      <trkpt lat="44.66459" lon="3.28201">
        <ele>1081</ele>
        <time>2019-05-25T10:27:05Z</time>
      </trkpt>
      <trkpt lat="44.66451" lon="3.28191">
        <ele>1081.8000488281</ele>
        <time>2019-05-25T10:27:10Z</time>
      </trkpt>
      <trkpt lat="44.66442" lon="3.28182">
        <ele>1082.5999755859</ele>
        <time>2019-05-25T10:27:15Z</time>
      </trkpt>
      <trkpt lat="44.66431" lon="3.28172">
        <ele>1083.4000244141</ele>
        <time>2019-05-25T10:27:21Z</time>
      </trkpt>
      <trkpt lat="44.66418" lon="3.28162">
        <ele>1084.4000244141</ele>
        <time>2019-05-25T10:27:27Z</time>
      </trkpt>
      <trkpt lat="44.66406" lon="3.28152">
        <ele>1085.4000244141</ele>
        <time>2019-05-25T10:27:33Z</time>
      </trkpt>
      <trkpt lat="44.66395" lon="3.28143">
        <ele>1086.4000244141</ele>
        <time>2019-05-25T10:27:39Z</time>
      </trkpt>
      <trkpt lat="44.66384" lon="3.28144">
        <ele>1087.1999511719</ele>
        <time>2019-05-25T10:27:44Z</time>
      </trkpt>
      <trkpt lat="44.66375" lon="3.28153">
        <ele>1087.5999755859</ele>
        <time>2019-05-25T10:27:47Z</time>
      </trkpt>
      <trkpt lat="44.66372" lon="3.28158">
        <ele>1087.5999755859</ele>
        <time>2019-05-25T10:27:48Z</time>
      </trkpt>
      <trkpt lat="44.66349" lon="3.28192">
        <ele>1088</ele>
        <time>2019-05-25T10:27:53Z</time>
      </trkpt>
      <trkpt lat="44.66327" lon="3.2823">
        <ele>1088</ele>
        <time>2019-05-25T10:27:57Z</time>
      </trkpt>
      <trkpt lat="44.66291" lon="3.28296">
        <ele>1088.1999511719</ele>
        <time>2019-05-25T10:28:03Z</time>
      </trkpt>
      <trkpt lat="44.66254" lon="3.28362">
        <ele>1088.1999511719</ele>
        <time>2019-05-25T10:28:09Z</time>
      </trkpt>
      <trkpt lat="44.66218" lon="3.28412">
        <ele>1088</ele>
        <time>2019-05-25T10:28:14Z</time>
      </trkpt>
      <trkpt lat="44.66178" lon="3.28469">
        <ele>1087.4000244141</ele>
        <time>2019-05-25T10:28:19Z</time>
      </trkpt>
      <trkpt lat="44.66146" lon="3.28519">
        <ele>1086.5999755859</ele>
        <time>2019-05-25T10:28:23Z</time>
      </trkpt>
      <trkpt lat="44.66124" lon="3.28546">
        <ele>1085.8000488281</ele>
        <time>2019-05-25T10:28:26Z</time>
      </trkpt>
      <trkpt lat="44.66106" lon="3.28555">
        <ele>1085.1999511719</ele>
        <time>2019-05-25T10:28:29Z</time>
      </trkpt>
      <trkpt lat="44.66088" lon="3.28555">
        <ele>1084.5999755859</ele>
        <time>2019-05-25T10:28:32Z</time>
      </trkpt>
      <trkpt lat="44.66081" lon="3.28556">
        <ele>1084.4000244141</ele>
        <time>2019-05-25T10:28:33Z</time>
      </trkpt>
      <trkpt lat="44.66044" lon="3.28563">
        <ele>1083.4000244141</ele>
        <time>2019-05-25T10:28:38Z</time>
      </trkpt>
      <trkpt lat="44.65998" lon="3.28566">
        <ele>1082.4000244141</ele>
        <time>2019-05-25T10:28:44Z</time>
      </trkpt>
      <trkpt lat="44.65991" lon="3.28567">
        <ele>1082.4000244141</ele>
        <time>2019-05-25T10:28:45Z</time>
      </trkpt>
      <trkpt lat="44.65978" lon="3.28573">
        <ele>1082</ele>
        <time>2019-05-25T10:28:47Z</time>
      </trkpt>
      <trkpt lat="44.65972" lon="3.28578">
        <ele>1081.8000488281</ele>
        <time>2019-05-25T10:28:48Z</time>
      </trkpt>
      <trkpt lat="44.65966" lon="3.28584">
        <ele>1081.8000488281</ele>
        <time>2019-05-25T10:28:49Z</time>
      </trkpt>
      <trkpt lat="44.6596" lon="3.28601">
        <ele>1081.5999755859</ele>
        <time>2019-05-25T10:28:51Z</time>
      </trkpt>
      <trkpt lat="44.65951" lon="3.28653">
        <ele>1081.1999511719</ele>
        <time>2019-05-25T10:28:57Z</time>
      </trkpt>
      <trkpt lat="44.65942" lon="3.28697">
        <ele>1081.4000244141</ele>
        <time>2019-05-25T10:29:03Z</time>
      </trkpt>
      <trkpt lat="44.65941" lon="3.28704">
        <ele>1081.4000244141</ele>
        <time>2019-05-25T10:29:04Z</time>
      </trkpt>
      <trkpt lat="44.65935" lon="3.28715">
        <ele>1081.4000244141</ele>
        <time>2019-05-25T10:29:06Z</time>
      </trkpt>
      <trkpt lat="44.65932" lon="3.28721">
        <ele>1081.5999755859</ele>
        <time>2019-05-25T10:29:07Z</time>
      </trkpt>
      <trkpt lat="44.65925" lon="3.28732">
        <ele>1081.5999755859</ele>
        <time>2019-05-25T10:29:09Z</time>
      </trkpt>
      <trkpt lat="44.65915" lon="3.2874">
        <ele>1081.5999755859</ele>
        <time>2019-05-25T10:29:11Z</time>
      </trkpt>
      <trkpt lat="44.65911" lon="3.28744">
        <ele>1081.5999755859</ele>
        <time>2019-05-25T10:29:12Z</time>
      </trkpt>
      <trkpt lat="44.65896" lon="3.28757">
        <ele>1081.5999755859</ele>
        <time>2019-05-25T10:29:15Z</time>
      </trkpt>
      <trkpt lat="44.65891" lon="3.28757">
        <ele>1081.5999755859</ele>
        <time>2019-05-25T10:29:16Z</time>
      </trkpt>
      <trkpt lat="44.65887" lon="3.28752">
        <ele>1081.5999755859</ele>
        <time>2019-05-25T10:29:17Z</time>
      </trkpt>
      <trkpt lat="44.65884" lon="3.28745">
        <ele>1081.5999755859</ele>
        <time>2019-05-25T10:29:18Z</time>
      </trkpt>
      <trkpt lat="44.65881" lon="3.28739">
        <ele>1081.5999755859</ele>
        <time>2019-05-25T10:29:19Z</time>
      </trkpt>
      <trkpt lat="44.65871" lon="3.28731">
        <ele>1081.5999755859</ele>
        <time>2019-05-25T10:29:21Z</time>
      </trkpt>
      <trkpt lat="44.65861" lon="3.28732">
        <ele>1081.4000244141</ele>
        <time>2019-05-25T10:29:23Z</time>
      </trkpt>
      <trkpt lat="44.65856" lon="3.28736">
        <ele>1081.4000244141</ele>
        <time>2019-05-25T10:29:24Z</time>
      </trkpt>
      <trkpt lat="44.65851" lon="3.28742">
        <ele>1081.1999511719</ele>
        <time>2019-05-25T10:29:25Z</time>
      </trkpt>
      <trkpt lat="44.65838" lon="3.28763">
        <ele>1081.1999511719</ele>
        <time>2019-05-25T10:29:28Z</time>
      </trkpt>
      <trkpt lat="44.65822" lon="3.28783">
        <ele>1081</ele>
        <time>2019-05-25T10:29:31Z</time>
      </trkpt>
      <trkpt lat="44.6581" lon="3.2879">
        <ele>1080.8000488281</ele>
        <time>2019-05-25T10:29:33Z</time>
      </trkpt>
      <trkpt lat="44.65796" lon="3.28793">
        <ele>1080.8000488281</ele>
        <time>2019-05-25T10:29:35Z</time>
      </trkpt>
      <trkpt lat="44.65782" lon="3.28793">
        <ele>1080.8000488281</ele>
        <time>2019-05-25T10:29:37Z</time>
      </trkpt>
      <trkpt lat="44.65741" lon="3.28796">
        <ele>1080.5999755859</ele>
        <time>2019-05-25T10:29:43Z</time>
      </trkpt>
      <trkpt lat="44.65695" lon="3.28801">
        <ele>1080.1999511719</ele>
        <time>2019-05-25T10:29:50Z</time>
      </trkpt>
      <trkpt lat="44.65689" lon="3.28803">
        <ele>1080.1999511719</ele>
        <time>2019-05-25T10:29:51Z</time>
      </trkpt>
      <trkpt lat="44.6567" lon="3.28803">
        <ele>1079.8000488281</ele>
        <time>2019-05-25T10:29:54Z</time>
      </trkpt>
      <trkpt lat="44.65663" lon="3.28796">
        <ele>1079.5999755859</ele>
        <time>2019-05-25T10:29:56Z</time>
      </trkpt>
      <trkpt lat="44.65663" lon="3.28791">
        <ele>1079.5999755859</ele>
        <time>2019-05-25T10:29:57Z</time>
      </trkpt>
      <trkpt lat="44.65664" lon="3.28785">
        <ele>1079.4000244141</ele>
        <time>2019-05-25T10:29:58Z</time>
      </trkpt>
      <trkpt lat="44.6567" lon="3.28775">
        <ele>1079.1999511719</ele>
        <time>2019-05-25T10:30:00Z</time>
      </trkpt>
      <trkpt lat="44.65685" lon="3.28747">
        <ele>1079</ele>
        <time>2019-05-25T10:30:07Z</time>
      </trkpt>
      <trkpt lat="44.65688" lon="3.28737">
        <ele>1079.1999511719</ele>
        <time>2019-05-25T10:30:11Z</time>
      </trkpt>
      <trkpt lat="44.65689" lon="3.28735">
        <ele>1079.4000244141</ele>
        <time>2019-05-25T10:30:12Z</time>
      </trkpt>
      <trkpt lat="44.65688" lon="3.28747">
        <ele>1075.4000244141</ele>
        <time>2019-05-25T11:31:28Z</time>
      </trkpt>
      <trkpt lat="44.65686" lon="3.28749">
        <ele>1075.5999755859</ele>
        <time>2019-05-25T11:31:29Z</time>
      </trkpt>
      <trkpt lat="44.65679" lon="3.28761">
        <ele>1075.5999755859</ele>
        <time>2019-05-25T11:31:33Z</time>
      </trkpt>
      <trkpt lat="44.65668" lon="3.2878">
        <ele>1075.5999755859</ele>
        <time>2019-05-25T11:31:38Z</time>
      </trkpt>
      <trkpt lat="44.65663" lon="3.2879">
        <ele>1075.5999755859</ele>
        <time>2019-05-25T11:31:40Z</time>
      </trkpt>
      <trkpt lat="44.65659" lon="3.28799">
        <ele>1075.5999755859</ele>
        <time>2019-05-25T11:31:42Z</time>
      </trkpt>
      <trkpt lat="44.65656" lon="3.28801">
        <ele>1075.5999755859</ele>
        <time>2019-05-25T11:31:43Z</time>
      </trkpt>
      <trkpt lat="44.6565" lon="3.288">
        <ele>1075.5999755859</ele>
        <time>2019-05-25T11:31:45Z</time>
      </trkpt>
      <trkpt lat="44.65645" lon="3.288">
        <ele>1075.5999755859</ele>
        <time>2019-05-25T11:31:46Z</time>
      </trkpt>
      <trkpt lat="44.65632" lon="3.288">
        <ele>1075.5999755859</ele>
        <time>2019-05-25T11:31:49Z</time>
      </trkpt>
      <trkpt lat="44.65628" lon="3.288">
        <ele>1075.5999755859</ele>
        <time>2019-05-25T11:31:50Z</time>
      </trkpt>
      <trkpt lat="44.65614" lon="3.28804">
        <ele>1075.5999755859</ele>
        <time>2019-05-25T11:31:53Z</time>
      </trkpt>
      <trkpt lat="44.65602" lon="3.28813">
        <ele>1075.4000244141</ele>
        <time>2019-05-25T11:31:56Z</time>
      </trkpt>
      <trkpt lat="44.65578" lon="3.28834">
        <ele>1075.4000244141</ele>
        <time>2019-05-25T11:32:03Z</time>
      </trkpt>
      <trkpt lat="44.65564" lon="3.28855">
        <ele>1075.1999511719</ele>
        <time>2019-05-25T11:32:09Z</time>
      </trkpt>
      <trkpt lat="44.65555" lon="3.28875">
        <ele>1075.1999511719</ele>
        <time>2019-05-25T11:32:14Z</time>
      </trkpt>
      <trkpt lat="44.65551" lon="3.28883">
        <ele>1075</ele>
        <time>2019-05-25T11:32:16Z</time>
      </trkpt>
      <trkpt lat="44.6555" lon="3.28887">
        <ele>1075</ele>
        <time>2019-05-25T11:32:17Z</time>
      </trkpt>
      <trkpt lat="44.65542" lon="3.28912">
        <ele>1074.8000488281</ele>
        <time>2019-05-25T11:32:23Z</time>
      </trkpt>
      <trkpt lat="44.65534" lon="3.28942">
        <ele>1074.5999755859</ele>
        <time>2019-05-25T11:32:30Z</time>
      </trkpt>
      <trkpt lat="44.6552" lon="3.28986">
        <ele>1075</ele>
        <time>2019-05-25T11:32:40Z</time>
      </trkpt>
      <trkpt lat="44.65512" lon="3.29017">
        <ele>1075.4000244141</ele>
        <time>2019-05-25T11:32:47Z</time>
      </trkpt>
      <trkpt lat="44.65505" lon="3.29044">
        <ele>1075.8000488281</ele>
        <time>2019-05-25T11:32:54Z</time>
      </trkpt>
      <trkpt lat="44.65497" lon="3.29064">
        <ele>1076</ele>
        <time>2019-05-25T11:33:00Z</time>
      </trkpt>
      <trkpt lat="44.65488" lon="3.29093">
        <ele>1076.4000244141</ele>
        <time>2019-05-25T11:33:07Z</time>
      </trkpt>
      <trkpt lat="44.6548" lon="3.29128">
        <ele>1077</ele>
        <time>2019-05-25T11:33:15Z</time>
      </trkpt>
      <trkpt lat="44.65481" lon="3.29145">
        <ele>1077.1999511719</ele>
        <time>2019-05-25T11:33:19Z</time>
      </trkpt>
      <trkpt lat="44.65484" lon="3.29148">
        <ele>1077.1999511719</ele>
        <time>2019-05-25T11:33:20Z</time>
      </trkpt>
      <trkpt lat="44.65506" lon="3.29156">
        <ele>1077.4000244141</ele>
        <time>2019-05-25T11:33:25Z</time>
      </trkpt>
      <trkpt lat="44.65536" lon="3.29175">
        <ele>1077.4000244141</ele>
        <time>2019-05-25T11:33:32Z</time>
      </trkpt>
      <trkpt lat="44.65555" lon="3.29193">
        <ele>1077.4000244141</ele>
        <time>2019-05-25T11:33:37Z</time>
      </trkpt>
      <trkpt lat="44.65562" lon="3.29197">
        <ele>1077.4000244141</ele>
        <time>2019-05-25T11:33:39Z</time>
      </trkpt>
      <trkpt lat="44.65578" lon="3.29201">
        <ele>1077.4000244141</ele>
        <time>2019-05-25T11:33:43Z</time>
      </trkpt>
      <trkpt lat="44.65587" lon="3.29206">
        <ele>1077.4000244141</ele>
        <time>2019-05-25T11:33:45Z</time>
      </trkpt>
      <trkpt lat="44.65598" lon="3.29211">
        <ele>1077.5999755859</ele>
        <time>2019-05-25T11:33:47Z</time>
      </trkpt>
      <trkpt lat="44.65616" lon="3.29216">
        <ele>1077.4000244141</ele>
        <time>2019-05-25T11:33:50Z</time>
      </trkpt>
      <trkpt lat="44.65654" lon="3.29233">
        <ele>1077</ele>
        <time>2019-05-25T11:33:56Z</time>
      </trkpt>
      <trkpt lat="44.6568" lon="3.29242">
        <ele>1076.4000244141</ele>
        <time>2019-05-25T11:34:00Z</time>
      </trkpt>
      <trkpt lat="44.65687" lon="3.29243">
        <ele>1076.4000244141</ele>
        <time>2019-05-25T11:34:01Z</time>
      </trkpt>
      <trkpt lat="44.65729" lon="3.2925">
        <ele>1075.5999755859</ele>
        <time>2019-05-25T11:34:07Z</time>
      </trkpt>
      <trkpt lat="44.65767" lon="3.29258">
        <ele>1075.1999511719</ele>
        <time>2019-05-25T11:34:13Z</time>
      </trkpt>
      <trkpt lat="44.65802" lon="3.2927">
        <ele>1074.8000488281</ele>
        <time>2019-05-25T11:34:19Z</time>
      </trkpt>
      <trkpt lat="44.65817" lon="3.29278">
        <ele>1074.5999755859</ele>
        <time>2019-05-25T11:34:22Z</time>
      </trkpt>
      <trkpt lat="44.65831" lon="3.29286">
        <ele>1074.4000244141</ele>
        <time>2019-05-25T11:34:25Z</time>
      </trkpt>
      <trkpt lat="44.65867" lon="3.29307">
        <ele>1073.8000488281</ele>
        <time>2019-05-25T11:34:33Z</time>
      </trkpt>
      <trkpt lat="44.65913" lon="3.29334">
        <ele>1073.4000244141</ele>
        <time>2019-05-25T11:34:44Z</time>
      </trkpt>
      <trkpt lat="44.65934" lon="3.29347">
        <ele>1073.1999511719</ele>
        <time>2019-05-25T11:34:49Z</time>
      </trkpt>
      <trkpt lat="44.65939" lon="3.29349">
        <ele>1073</ele>
        <time>2019-05-25T11:34:50Z</time>
      </trkpt>
      <trkpt lat="44.65965" lon="3.29362">
        <ele>1072.5999755859</ele>
        <time>2019-05-25T11:34:56Z</time>
      </trkpt>
      <trkpt lat="44.65979" lon="3.29357">
        <ele>1072.4000244141</ele>
        <time>2019-05-25T11:34:59Z</time>
      </trkpt>
      <trkpt lat="44.66002" lon="3.2935">
        <ele>1072</ele>
        <time>2019-05-25T11:35:04Z</time>
      </trkpt>
      <trkpt lat="44.66007" lon="3.29349">
        <ele>1072</ele>
        <time>2019-05-25T11:35:05Z</time>
      </trkpt>
      <trkpt lat="44.66031" lon="3.29344">
        <ele>1071.5999755859</ele>
        <time>2019-05-25T11:35:10Z</time>
      </trkpt>
      <trkpt lat="44.66035" lon="3.29344">
        <ele>1071.5999755859</ele>
        <time>2019-05-25T11:35:11Z</time>
      </trkpt>
      <trkpt lat="44.66046" lon="3.29344">
        <ele>1071.5999755859</ele>
        <time>2019-05-25T11:35:15Z</time>
      </trkpt>
      <trkpt lat="44.66049" lon="3.29345">
        <ele>1071.5999755859</ele>
        <time>2019-05-25T11:35:17Z</time>
      </trkpt>
      <trkpt lat="44.66086" lon="3.29379">
        <ele>1072.4000244141</ele>
        <time>2019-05-25T11:36:28Z</time>
      </trkpt>
      <trkpt lat="44.66086" lon="3.29381">
        <ele>1072.1999511719</ele>
        <time>2019-05-25T11:36:29Z</time>
      </trkpt>
      <trkpt lat="44.66088" lon="3.29385">
        <ele>1072</ele>
        <time>2019-05-25T11:36:31Z</time>
      </trkpt>
      <trkpt lat="44.6609" lon="3.2939">
        <ele>1072.1999511719</ele>
        <time>2019-05-25T11:36:33Z</time>
      </trkpt>
      <trkpt lat="44.6609" lon="3.29393">
        <ele>1072.4000244141</ele>
        <time>2019-05-25T11:36:34Z</time>
      </trkpt>
      <trkpt lat="44.66088" lon="3.29399">
        <ele>1072.4000244141</ele>
        <time>2019-05-25T11:36:36Z</time>
      </trkpt>
      <trkpt lat="44.66087" lon="3.29401">
        <ele>1072.4000244141</ele>
        <time>2019-05-25T11:36:37Z</time>
      </trkpt>
      <trkpt lat="44.66084" lon="3.29406">
        <ele>1072.4000244141</ele>
        <time>2019-05-25T11:36:40Z</time>
      </trkpt>
      <trkpt lat="44.6608" lon="3.29408">
        <ele>1072.1999511719</ele>
        <time>2019-05-25T11:36:42Z</time>
      </trkpt>
      <trkpt lat="44.66079" lon="3.2941">
        <ele>1072.1999511719</ele>
        <time>2019-05-25T11:36:43Z</time>
      </trkpt>
      <trkpt lat="44.66078" lon="3.29411">
        <ele>1072.1999511719</ele>
        <time>2019-05-25T11:36:44Z</time>
      </trkpt>
      <trkpt lat="44.66079" lon="3.29413">
        <ele>1072</ele>
        <time>2019-05-25T11:36:47Z</time>
      </trkpt>
      <trkpt lat="44.66079" lon="3.2942">
        <ele>1072</ele>
        <time>2019-05-25T11:36:49Z</time>
      </trkpt>
      <trkpt lat="44.6608" lon="3.29422">
        <ele>1072</ele>
        <time>2019-05-25T11:36:50Z</time>
      </trkpt>
      <trkpt lat="44.66081" lon="3.29427">
        <ele>1071.5999755859</ele>
        <time>2019-05-25T11:36:52Z</time>
      </trkpt>
      <trkpt lat="44.66082" lon="3.2943">
        <ele>1071.4000244141</ele>
        <time>2019-05-25T11:36:53Z</time>
      </trkpt>
      <trkpt lat="44.66083" lon="3.29432">
        <ele>1071</ele>
        <time>2019-05-25T11:36:54Z</time>
      </trkpt>
      <trkpt lat="44.66081" lon="3.29443">
        <ele>1070.1999511719</ele>
        <time>2019-05-25T11:36:59Z</time>
      </trkpt>
      <trkpt lat="44.66078" lon="3.29448">
        <ele>1069.8000488281</ele>
        <time>2019-05-25T11:37:01Z</time>
      </trkpt>
      <trkpt lat="44.66078" lon="3.29448">
        <ele>1069.8000488281</ele>
        <time>2019-05-25T11:37:02Z</time>
      </trkpt>
      <trkpt lat="44.66078" lon="3.29456">
        <ele>1068.4000244141</ele>
        <time>2019-05-25T11:37:06Z</time>
      </trkpt>
      <trkpt lat="44.66076" lon="3.29462">
        <ele>1067.5999755859</ele>
        <time>2019-05-25T11:37:08Z</time>
      </trkpt>
      <trkpt lat="44.66073" lon="3.29475">
        <ele>1066</ele>
        <time>2019-05-25T11:37:12Z</time>
      </trkpt>
      <trkpt lat="44.66064" lon="3.29506">
        <ele>1063.1999511719</ele>
        <time>2019-05-25T11:37:19Z</time>
      </trkpt>
      <trkpt lat="44.66059" lon="3.29519">
        <ele>1062.1999511719</ele>
        <time>2019-05-25T11:37:22Z</time>
      </trkpt>
      <trkpt lat="44.66059" lon="3.29532">
        <ele>1061</ele>
        <time>2019-05-25T11:37:24Z</time>
      </trkpt>
      <trkpt lat="44.66066" lon="3.29543">
        <ele>1059.8000488281</ele>
        <time>2019-05-25T11:37:27Z</time>
      </trkpt>
      <trkpt lat="44.66078" lon="3.29554">
        <ele>1058.4000244141</ele>
        <time>2019-05-25T11:37:30Z</time>
      </trkpt>
      <trkpt lat="44.66082" lon="3.29557">
        <ele>1057.8000488281</ele>
        <time>2019-05-25T11:37:31Z</time>
      </trkpt>
      <trkpt lat="44.66086" lon="3.2956">
        <ele>1057.4000244141</ele>
        <time>2019-05-25T11:37:32Z</time>
      </trkpt>
      <trkpt lat="44.66099" lon="3.29567">
        <ele>1055.8000488281</ele>
        <time>2019-05-25T11:37:35Z</time>
      </trkpt>
      <trkpt lat="44.66111" lon="3.2957">
        <ele>1054.1999511719</ele>
        <time>2019-05-25T11:37:39Z</time>
      </trkpt>
      <trkpt lat="44.66114" lon="3.2957">
        <ele>1053.8000488281</ele>
        <time>2019-05-25T11:37:40Z</time>
      </trkpt>
      <trkpt lat="44.66122" lon="3.29567">
        <ele>1053</ele>
        <time>2019-05-25T11:37:42Z</time>
      </trkpt>
      <trkpt lat="44.66132" lon="3.29562">
        <ele>1051.5999755859</ele>
        <time>2019-05-25T11:37:46Z</time>
      </trkpt>
      <trkpt lat="44.66141" lon="3.29548">
        <ele>1050.4000244141</ele>
        <time>2019-05-25T11:37:50Z</time>
      </trkpt>
      <trkpt lat="44.66153" lon="3.29534">
        <ele>1049.5999755859</ele>
        <time>2019-05-25T11:37:53Z</time>
      </trkpt>
      <trkpt lat="44.66158" lon="3.29527">
        <ele>1049.4000244141</ele>
        <time>2019-05-25T11:37:54Z</time>
      </trkpt>
      <trkpt lat="44.66164" lon="3.29518">
        <ele>1048.5999755859</ele>
        <time>2019-05-25T11:37:56Z</time>
      </trkpt>
      <trkpt lat="44.66161" lon="3.29514">
        <ele>1047.5999755859</ele>
        <time>2019-05-25T11:37:59Z</time>
      </trkpt>
      <trkpt lat="44.66157" lon="3.2951">
        <ele>1046.4000244141</ele>
        <time>2019-05-25T11:38:02Z</time>
      </trkpt>
      <trkpt lat="44.6616" lon="3.29503">
        <ele>1045.8000488281</ele>
        <time>2019-05-25T11:38:04Z</time>
      </trkpt>
      <trkpt lat="44.66163" lon="3.295">
        <ele>1045.4000244141</ele>
        <time>2019-05-25T11:38:05Z</time>
      </trkpt>
      <trkpt lat="44.66168" lon="3.29494">
        <ele>1044.8000488281</ele>
        <time>2019-05-25T11:38:07Z</time>
      </trkpt>
      <trkpt lat="44.66169" lon="3.29492">
        <ele>1044</ele>
        <time>2019-05-25T11:38:09Z</time>
      </trkpt>
      <trkpt lat="44.66173" lon="3.29485">
        <ele>1043.4000244141</ele>
        <time>2019-05-25T11:38:11Z</time>
      </trkpt>
      <trkpt lat="44.66171" lon="3.29483">
        <ele>1043</ele>
        <time>2019-05-25T11:38:12Z</time>
      </trkpt>
      <trkpt lat="44.66174" lon="3.29477">
        <ele>1042.8000488281</ele>
        <time>2019-05-25T11:38:13Z</time>
      </trkpt>
      <trkpt lat="44.6617" lon="3.29474">
        <ele>1042</ele>
        <time>2019-05-25T11:38:15Z</time>
      </trkpt>
      <trkpt lat="44.66171" lon="3.29469">
        <ele>1040.1999511719</ele>
        <time>2019-05-25T11:38:18Z</time>
      </trkpt>
      <trkpt lat="44.66173" lon="3.29467">
        <ele>1039.8000488281</ele>
        <time>2019-05-25T11:38:19Z</time>
      </trkpt>
      <trkpt lat="44.66174" lon="3.29463">
        <ele>1038.8000488281</ele>
        <time>2019-05-25T11:38:21Z</time>
      </trkpt>
      <trkpt lat="44.66176" lon="3.29458">
        <ele>1038.1999511719</ele>
        <time>2019-05-25T11:38:23Z</time>
      </trkpt>
      <trkpt lat="44.66175" lon="3.29455">
        <ele>1038</ele>
        <time>2019-05-25T11:38:24Z</time>
      </trkpt>
      <trkpt lat="44.66178" lon="3.29451">
        <ele>1037.5999755859</ele>
        <time>2019-05-25T11:38:26Z</time>
      </trkpt>
      <trkpt lat="44.66179" lon="3.29446">
        <ele>1037.1999511719</ele>
        <time>2019-05-25T11:38:28Z</time>
      </trkpt>
      <trkpt lat="44.66181" lon="3.29439">
        <ele>1036.4000244141</ele>
        <time>2019-05-25T11:38:31Z</time>
      </trkpt>
      <trkpt lat="44.66184" lon="3.29438">
        <ele>1036.1999511719</ele>
        <time>2019-05-25T11:38:32Z</time>
      </trkpt>
      <trkpt lat="44.66191" lon="3.29426">
        <ele>1034.1999511719</ele>
        <time>2019-05-25T11:38:43Z</time>
      </trkpt>
      <trkpt lat="44.66189" lon="3.29426">
        <ele>1034</ele>
        <time>2019-05-25T11:38:46Z</time>
      </trkpt>
      <trkpt lat="44.66187" lon="3.29425">
        <ele>1034</ele>
        <time>2019-05-25T11:38:48Z</time>
      </trkpt>
      <trkpt lat="44.66186" lon="3.29424">
        <ele>1034.1999511719</ele>
        <time>2019-05-25T11:38:50Z</time>
      </trkpt>
      <trkpt lat="44.66185" lon="3.29421">
        <ele>1034.1999511719</ele>
        <time>2019-05-25T11:38:52Z</time>
      </trkpt>
      <trkpt lat="44.6618" lon="3.29419">
        <ele>1033.8000488281</ele>
        <time>2019-05-25T11:38:54Z</time>
      </trkpt>
      <trkpt lat="44.66173" lon="3.29415">
        <ele>1033.5999755859</ele>
        <time>2019-05-25T11:38:57Z</time>
      </trkpt>
      <trkpt lat="44.66172" lon="3.29414">
        <ele>1033.1999511719</ele>
        <time>2019-05-25T11:38:58Z</time>
      </trkpt>
      <trkpt lat="44.66173" lon="3.2941">
        <ele>1032.8000488281</ele>
        <time>2019-05-25T11:39:01Z</time>
      </trkpt>
      <trkpt lat="44.66171" lon="3.29407">
        <ele>1032.8000488281</ele>
        <time>2019-05-25T11:39:02Z</time>
      </trkpt>
      <trkpt lat="44.66157" lon="3.29397">
        <ele>1032.8000488281</ele>
        <time>2019-05-25T11:39:07Z</time>
      </trkpt>
      <trkpt lat="44.66162" lon="3.29396">
        <ele>1032.8000488281</ele>
        <time>2019-05-25T11:39:08Z</time>
      </trkpt>
      <trkpt lat="44.66162" lon="3.29395">
        <ele>1032.8000488281</ele>
        <time>2019-05-25T11:39:09Z</time>
      </trkpt>
      <trkpt lat="44.66167" lon="3.29392">
        <ele>1032.8000488281</ele>
        <time>2019-05-25T11:39:11Z</time>
      </trkpt>
      <trkpt lat="44.66172" lon="3.29381">
        <ele>1033.5999755859</ele>
        <time>2019-05-25T11:39:17Z</time>
      </trkpt>
      <trkpt lat="44.66177" lon="3.29378">
        <ele>1033.8000488281</ele>
        <time>2019-05-25T11:39:20Z</time>
      </trkpt>
      <trkpt lat="44.66183" lon="3.29357">
        <ele>1036.1999511719</ele>
        <time>2019-05-25T11:39:31Z</time>
      </trkpt>
      <trkpt lat="44.6617" lon="3.29349">
        <ele>1036.1999511719</ele>
        <time>2019-05-25T11:39:34Z</time>
      </trkpt>
      <trkpt lat="44.66166" lon="3.29345">
        <ele>1036.1999511719</ele>
        <time>2019-05-25T11:39:36Z</time>
      </trkpt>
      <trkpt lat="44.66169" lon="3.29342">
        <ele>1036.1999511719</ele>
        <time>2019-05-25T11:39:38Z</time>
      </trkpt>
      <trkpt lat="44.66167" lon="3.29337">
        <ele>1036.1999511719</ele>
        <time>2019-05-25T11:39:40Z</time>
      </trkpt>
      <trkpt lat="44.66167" lon="3.29331">
        <ele>1036.1999511719</ele>
        <time>2019-05-25T11:39:43Z</time>
      </trkpt>
      <trkpt lat="44.66162" lon="3.29321">
        <ele>1036.1999511719</ele>
        <time>2019-05-25T11:39:47Z</time>
      </trkpt>
      <trkpt lat="44.66163" lon="3.29313">
        <ele>1036</ele>
        <time>2019-05-25T11:39:49Z</time>
      </trkpt>
      <trkpt lat="44.66162" lon="3.29305">
        <ele>1035.8000488281</ele>
        <time>2019-05-25T11:39:52Z</time>
      </trkpt>
      <trkpt lat="44.6616" lon="3.29299">
        <ele>1036</ele>
        <time>2019-05-25T11:39:54Z</time>
      </trkpt>
      <trkpt lat="44.6616" lon="3.29296">
        <ele>1036</ele>
        <time>2019-05-25T11:39:55Z</time>
      </trkpt>
      <trkpt lat="44.6616" lon="3.29291">
        <ele>1036</ele>
        <time>2019-05-25T11:39:57Z</time>
      </trkpt>
      <trkpt lat="44.66162" lon="3.2928">
        <ele>1036</ele>
        <time>2019-05-25T11:40:02Z</time>
      </trkpt>
      <trkpt lat="44.66168" lon="3.29276">
        <ele>1036.1999511719</ele>
        <time>2019-05-25T11:40:05Z</time>
      </trkpt>
      <trkpt lat="44.66168" lon="3.29276">
        <ele>1036.1999511719</ele>
        <time>2019-05-25T11:40:06Z</time>
      </trkpt>
      <trkpt lat="44.66162" lon="3.29271">
        <ele>1036.5999755859</ele>
        <time>2019-05-25T11:40:08Z</time>
      </trkpt>
      <trkpt lat="44.66159" lon="3.29269">
        <ele>1036.5999755859</ele>
        <time>2019-05-25T11:40:09Z</time>
      </trkpt>
      <trkpt lat="44.66157" lon="3.29267">
        <ele>1036.5999755859</ele>
        <time>2019-05-25T11:40:10Z</time>
      </trkpt>
      <trkpt lat="44.66157" lon="3.29262">
        <ele>1036.5999755859</ele>
        <time>2019-05-25T11:40:12Z</time>
      </trkpt>
      <trkpt lat="44.66157" lon="3.29261">
        <ele>1036.8000488281</ele>
        <time>2019-05-25T11:40:13Z</time>
      </trkpt>
      <trkpt lat="44.66157" lon="3.29257">
        <ele>1036.8000488281</ele>
        <time>2019-05-25T11:40:15Z</time>
      </trkpt>
      <trkpt lat="44.66157" lon="3.2925">
        <ele>1037</ele>
        <time>2019-05-25T11:40:18Z</time>
      </trkpt>
      <trkpt lat="44.66153" lon="3.29245">
        <ele>1037</ele>
        <time>2019-05-25T11:40:20Z</time>
      </trkpt>
      <trkpt lat="44.66149" lon="3.29242">
        <ele>1037</ele>
        <time>2019-05-25T11:40:21Z</time>
      </trkpt>
      <trkpt lat="44.66139" lon="3.29226">
        <ele>1037</ele>
        <time>2019-05-25T11:40:26Z</time>
      </trkpt>
      <trkpt lat="44.66132" lon="3.29216">
        <ele>1036.8000488281</ele>
        <time>2019-05-25T11:40:29Z</time>
      </trkpt>
      <trkpt lat="44.66122" lon="3.29203">
        <ele>1036.5999755859</ele>
        <time>2019-05-25T11:40:33Z</time>
      </trkpt>
      <trkpt lat="44.66115" lon="3.29192">
        <ele>1036.1999511719</ele>
        <time>2019-05-25T11:40:36Z</time>
      </trkpt>
      <trkpt lat="44.66121" lon="3.2919">
        <ele>1036.1999511719</ele>
        <time>2019-05-25T11:40:39Z</time>
      </trkpt>
      <trkpt lat="44.66129" lon="3.29199">
        <ele>1036</ele>
        <time>2019-05-25T11:40:42Z</time>
      </trkpt>
      <trkpt lat="44.66145" lon="3.29213">
        <ele>1036</ele>
        <time>2019-05-25T11:40:46Z</time>
      </trkpt>
      <trkpt lat="44.66152" lon="3.2922">
        <ele>1036</ele>
        <time>2019-05-25T11:40:48Z</time>
      </trkpt>
      <trkpt lat="44.66159" lon="3.29228">
        <ele>1036</ele>
        <time>2019-05-25T11:40:50Z</time>
      </trkpt>
      <trkpt lat="44.66164" lon="3.29232">
        <ele>1036.1999511719</ele>
        <time>2019-05-25T11:40:51Z</time>
      </trkpt>
      <trkpt lat="44.66179" lon="3.29252">
        <ele>1036.4000244141</ele>
        <time>2019-05-25T11:40:55Z</time>
      </trkpt>
      <trkpt lat="44.66186" lon="3.2926">
        <ele>1036.4000244141</ele>
        <time>2019-05-25T11:40:57Z</time>
      </trkpt>
      <trkpt lat="44.66204" lon="3.29281">
        <ele>1036.4000244141</ele>
        <time>2019-05-25T11:41:01Z</time>
      </trkpt>
      <trkpt lat="44.6623" lon="3.29311">
        <ele>1036.4000244141</ele>
        <time>2019-05-25T11:41:06Z</time>
      </trkpt>
      <trkpt lat="44.66234" lon="3.29319">
        <ele>1036.5999755859</ele>
        <time>2019-05-25T11:41:07Z</time>
      </trkpt>
      <trkpt lat="44.66238" lon="3.29327">
        <ele>1036.5999755859</ele>
        <time>2019-05-25T11:41:08Z</time>
      </trkpt>
      <trkpt lat="44.66245" lon="3.29353">
        <ele>1036.5999755859</ele>
        <time>2019-05-25T11:41:11Z</time>
      </trkpt>
      <trkpt lat="44.66251" lon="3.29389">
        <ele>1036.5999755859</ele>
        <time>2019-05-25T11:41:15Z</time>
      </trkpt>
      <trkpt lat="44.66255" lon="3.29409">
        <ele>1036.5999755859</ele>
        <time>2019-05-25T11:41:17Z</time>
      </trkpt>
      <trkpt lat="44.66262" lon="3.29431">
        <ele>1036.4000244141</ele>
        <time>2019-05-25T11:41:19Z</time>
      </trkpt>
      <trkpt lat="44.66283" lon="3.29485">
        <ele>1035.5999755859</ele>
        <time>2019-05-25T11:41:24Z</time>
      </trkpt>
      <trkpt lat="44.66289" lon="3.29495">
        <ele>1035.5999755859</ele>
        <time>2019-05-25T11:41:25Z</time>
      </trkpt>
      <trkpt lat="44.66301" lon="3.29513">
        <ele>1035.1999511719</ele>
        <time>2019-05-25T11:41:27Z</time>
      </trkpt>
      <trkpt lat="44.66308" lon="3.2952">
        <ele>1035</ele>
        <time>2019-05-25T11:41:28Z</time>
      </trkpt>
      <trkpt lat="44.66327" lon="3.29537">
        <ele>1034.5999755859</ele>
        <time>2019-05-25T11:41:31Z</time>
      </trkpt>
      <trkpt lat="44.66333" lon="3.29541">
        <ele>1034.5999755859</ele>
        <time>2019-05-25T11:41:32Z</time>
      </trkpt>
      <trkpt lat="44.66367" lon="3.29566">
        <ele>1034.1999511719</ele>
        <time>2019-05-25T11:41:38Z</time>
      </trkpt>
      <trkpt lat="44.6637" lon="3.2957">
        <ele>1034.1999511719</ele>
        <time>2019-05-25T11:41:39Z</time>
      </trkpt>
      <trkpt lat="44.66375" lon="3.2958">
        <ele>1034</ele>
        <time>2019-05-25T11:41:41Z</time>
      </trkpt>
      <trkpt lat="44.66389" lon="3.29602">
        <ele>1033.5999755859</ele>
        <time>2019-05-25T11:41:45Z</time>
      </trkpt>
      <trkpt lat="44.66391" lon="3.29607">
        <ele>1033.5999755859</ele>
        <time>2019-05-25T11:41:46Z</time>
      </trkpt>
      <trkpt lat="44.66394" lon="3.29612">
        <ele>1033.5999755859</ele>
        <time>2019-05-25T11:41:47Z</time>
      </trkpt>
      <trkpt lat="44.664" lon="3.29624">
        <ele>1033.5999755859</ele>
        <time>2019-05-25T11:41:49Z</time>
      </trkpt>
      <trkpt lat="44.66401" lon="3.2963">
        <ele>1033.4000244141</ele>
        <time>2019-05-25T11:41:50Z</time>
      </trkpt>
      <trkpt lat="44.66403" lon="3.29636">
        <ele>1033.4000244141</ele>
        <time>2019-05-25T11:41:51Z</time>
      </trkpt>
      <trkpt lat="44.66414" lon="3.29661">
        <ele>1033</ele>
        <time>2019-05-25T11:41:55Z</time>
      </trkpt>
      <trkpt lat="44.66425" lon="3.2968">
        <ele>1032.8000488281</ele>
        <time>2019-05-25T11:41:58Z</time>
      </trkpt>
      <trkpt lat="44.66433" lon="3.29692">
        <ele>1032.8000488281</ele>
        <time>2019-05-25T11:42:00Z</time>
      </trkpt>
      <trkpt lat="44.66452" lon="3.29726">
        <ele>1032.4000244141</ele>
        <time>2019-05-25T11:42:05Z</time>
      </trkpt>
      <trkpt lat="44.66468" lon="3.29762">
        <ele>1032</ele>
        <time>2019-05-25T11:42:10Z</time>
      </trkpt>
      <trkpt lat="44.66471" lon="3.2977">
        <ele>1032</ele>
        <time>2019-05-25T11:42:11Z</time>
      </trkpt>
      <trkpt lat="44.6648" lon="3.29789">
        <ele>1032</ele>
        <time>2019-05-25T11:42:14Z</time>
      </trkpt>
      <trkpt lat="44.66491" lon="3.29811">
        <ele>1031.8000488281</ele>
        <time>2019-05-25T11:42:18Z</time>
      </trkpt>
      <trkpt lat="44.66493" lon="3.29816">
        <ele>1031.5999755859</ele>
        <time>2019-05-25T11:42:19Z</time>
      </trkpt>
      <trkpt lat="44.66498" lon="3.29825">
        <ele>1031.5999755859</ele>
        <time>2019-05-25T11:42:21Z</time>
      </trkpt>
      <trkpt lat="44.66502" lon="3.29834">
        <ele>1031.4000244141</ele>
        <time>2019-05-25T11:42:23Z</time>
      </trkpt>
      <trkpt lat="44.66515" lon="3.29856">
        <ele>1031.4000244141</ele>
        <time>2019-05-25T11:42:29Z</time>
      </trkpt>
      <trkpt lat="44.66529" lon="3.29873">
        <ele>1031.4000244141</ele>
        <time>2019-05-25T11:42:35Z</time>
      </trkpt>
      <trkpt lat="44.66548" lon="3.29897">
        <ele>1031.5999755859</ele>
        <time>2019-05-25T11:42:44Z</time>
      </trkpt>
      <trkpt lat="44.66559" lon="3.29909">
        <ele>1031.8000488281</ele>
        <time>2019-05-25T11:42:50Z</time>
      </trkpt>
      <trkpt lat="44.66567" lon="3.29925">
        <ele>1032</ele>
        <time>2019-05-25T11:42:58Z</time>
      </trkpt>
      <trkpt lat="44.66567" lon="3.29927">
        <ele>1032</ele>
        <time>2019-05-25T11:42:59Z</time>
      </trkpt>
      <trkpt lat="44.66569" lon="3.29934">
        <ele>1032.1999511719</ele>
        <time>2019-05-25T11:43:02Z</time>
      </trkpt>
      <trkpt lat="44.66572" lon="3.29939">
        <ele>1032.4000244141</ele>
        <time>2019-05-25T11:43:06Z</time>
      </trkpt>
      <trkpt lat="44.66573" lon="3.29941">
        <ele>1032.8000488281</ele>
        <time>2019-05-25T11:43:19Z</time>
      </trkpt>
      <trkpt lat="44.66574" lon="3.29946">
        <ele>1033</ele>
        <time>2019-05-25T11:43:22Z</time>
      </trkpt>
      <trkpt lat="44.66575" lon="3.29948">
        <ele>1033</ele>
        <time>2019-05-25T11:43:23Z</time>
      </trkpt>
      <trkpt lat="44.66579" lon="3.29965">
        <ele>1033.4000244141</ele>
        <time>2019-05-25T11:43:30Z</time>
      </trkpt>
      <trkpt lat="44.66584" lon="3.29982">
        <ele>1033.5999755859</ele>
        <time>2019-05-25T11:43:36Z</time>
      </trkpt>
      <trkpt lat="44.66589" lon="3.30007">
        <ele>1034</ele>
        <time>2019-05-25T11:43:44Z</time>
      </trkpt>
      <trkpt lat="44.66591" lon="3.3001">
        <ele>1034.1999511719</ele>
        <time>2019-05-25T11:43:45Z</time>
      </trkpt>
      <trkpt lat="44.66592" lon="3.30017">
        <ele>1034.1999511719</ele>
        <time>2019-05-25T11:43:47Z</time>
      </trkpt>
      <trkpt lat="44.66595" lon="3.30036">
        <ele>1034.5999755859</ele>
        <time>2019-05-25T11:43:53Z</time>
      </trkpt>
      <trkpt lat="44.66597" lon="3.3005">
        <ele>1035.1999511719</ele>
        <time>2019-05-25T11:43:57Z</time>
      </trkpt>
      <trkpt lat="44.66603" lon="3.30078">
        <ele>1035.4000244141</ele>
        <time>2019-05-25T11:44:04Z</time>
      </trkpt>
      <trkpt lat="44.66608" lon="3.30105">
        <ele>1035.8000488281</ele>
        <time>2019-05-25T11:44:10Z</time>
      </trkpt>
      <trkpt lat="44.66604" lon="3.30111">
        <ele>1036</ele>
        <time>2019-05-25T11:44:12Z</time>
      </trkpt>
      <trkpt lat="44.66601" lon="3.30111">
        <ele>1036</ele>
        <time>2019-05-25T11:44:13Z</time>
      </trkpt>
      <trkpt lat="44.66583" lon="3.30103">
        <ele>1036.4000244141</ele>
        <time>2019-05-25T11:44:18Z</time>
      </trkpt>
      <trkpt lat="44.66559" lon="3.30103">
        <ele>1036.5999755859</ele>
        <time>2019-05-25T11:44:24Z</time>
      </trkpt>
      <trkpt lat="44.66531" lon="3.30104">
        <ele>1037.1999511719</ele>
        <time>2019-05-25T11:44:31Z</time>
      </trkpt>
      <trkpt lat="44.66527" lon="3.30105">
        <ele>1037.1999511719</ele>
        <time>2019-05-25T11:44:32Z</time>
      </trkpt>
      <trkpt lat="44.66512" lon="3.30107">
        <ele>1037.4000244141</ele>
        <time>2019-05-25T11:44:35Z</time>
      </trkpt>
      <trkpt lat="44.66503" lon="3.30111">
        <ele>1037.4000244141</ele>
        <time>2019-05-25T11:44:37Z</time>
      </trkpt>
      <trkpt lat="44.66482" lon="3.30118">
        <ele>1038</ele>
        <time>2019-05-25T11:44:42Z</time>
      </trkpt>
      <trkpt lat="44.66473" lon="3.3012">
        <ele>1038.1999511719</ele>
        <time>2019-05-25T11:44:44Z</time>
      </trkpt>
      <trkpt lat="44.6646" lon="3.30124">
        <ele>1038.4000244141</ele>
        <time>2019-05-25T11:44:47Z</time>
      </trkpt>
      <trkpt lat="44.66426" lon="3.30136">
        <ele>1039.1999511719</ele>
        <time>2019-05-25T11:44:55Z</time>
      </trkpt>
      <trkpt lat="44.664" lon="3.30147">
        <ele>1039.5999755859</ele>
        <time>2019-05-25T11:45:01Z</time>
      </trkpt>
      <trkpt lat="44.66378" lon="3.30155">
        <ele>1039.8000488281</ele>
        <time>2019-05-25T11:45:06Z</time>
      </trkpt>
      <trkpt lat="44.66373" lon="3.30156">
        <ele>1040</ele>
        <time>2019-05-25T11:45:07Z</time>
      </trkpt>
      <trkpt lat="44.66341" lon="3.30163">
        <ele>1040.4000244141</ele>
        <time>2019-05-25T11:45:14Z</time>
      </trkpt>
      <trkpt lat="44.66309" lon="3.3017">
        <ele>1040.8000488281</ele>
        <time>2019-05-25T11:45:21Z</time>
      </trkpt>
      <trkpt lat="44.66279" lon="3.30177">
        <ele>1041.1999511719</ele>
        <time>2019-05-25T11:45:28Z</time>
      </trkpt>
      <trkpt lat="44.66246" lon="3.30184">
        <ele>1041.5999755859</ele>
        <time>2019-05-25T11:45:35Z</time>
      </trkpt>
      <trkpt lat="44.66216" lon="3.30186">
        <ele>1042</ele>
        <time>2019-05-25T11:45:42Z</time>
      </trkpt>
      <trkpt lat="44.66198" lon="3.30183">
        <ele>1042.1999511719</ele>
        <time>2019-05-25T11:45:46Z</time>
      </trkpt>
      <trkpt lat="44.66194" lon="3.30181">
        <ele>1042.1999511719</ele>
        <time>2019-05-25T11:45:47Z</time>
      </trkpt>
      <trkpt lat="44.66189" lon="3.30178">
        <ele>1042.4000244141</ele>
        <time>2019-05-25T11:45:48Z</time>
      </trkpt>
      <trkpt lat="44.66174" lon="3.30163">
        <ele>1042.5999755859</ele>
        <time>2019-05-25T11:45:52Z</time>
      </trkpt>
      <trkpt lat="44.66159" lon="3.30134">
        <ele>1042.8000488281</ele>
        <time>2019-05-25T11:45:58Z</time>
      </trkpt>
      <trkpt lat="44.66143" lon="3.30099">
        <ele>1043.4000244141</ele>
        <time>2019-05-25T11:46:05Z</time>
      </trkpt>
      <trkpt lat="44.6614" lon="3.30087">
        <ele>1043.4000244141</ele>
        <time>2019-05-25T11:46:07Z</time>
      </trkpt>
      <trkpt lat="44.66139" lon="3.30081">
        <ele>1043.4000244141</ele>
        <time>2019-05-25T11:46:08Z</time>
      </trkpt>
      <trkpt lat="44.66138" lon="3.30056">
        <ele>1043.5999755859</ele>
        <time>2019-05-25T11:46:12Z</time>
      </trkpt>
      <trkpt lat="44.66138" lon="3.3005">
        <ele>1043.8000488281</ele>
        <time>2019-05-25T11:46:13Z</time>
      </trkpt>
      <trkpt lat="44.66136" lon="3.30035">
        <ele>1044</ele>
        <time>2019-05-25T11:46:16Z</time>
      </trkpt>
      <trkpt lat="44.66128" lon="3.30043">
        <ele>1044.1999511719</ele>
        <time>2019-05-25T11:46:19Z</time>
      </trkpt>
      <trkpt lat="44.66115" lon="3.3007">
        <ele>1044.5999755859</ele>
        <time>2019-05-25T11:46:25Z</time>
      </trkpt>
      <trkpt lat="44.66103" lon="3.3009">
        <ele>1044.8000488281</ele>
        <time>2019-05-25T11:46:30Z</time>
      </trkpt>
      <trkpt lat="44.6609" lon="3.30112">
        <ele>1045.1999511719</ele>
        <time>2019-05-25T11:46:36Z</time>
      </trkpt>
      <trkpt lat="44.66073" lon="3.30135">
        <ele>1045.8000488281</ele>
        <time>2019-05-25T11:46:43Z</time>
      </trkpt>
      <trkpt lat="44.66071" lon="3.30138">
        <ele>1045.8000488281</ele>
        <time>2019-05-25T11:46:44Z</time>
      </trkpt>
      <trkpt lat="44.66064" lon="3.30143">
        <ele>1046</ele>
        <time>2019-05-25T11:46:46Z</time>
      </trkpt>
      <trkpt lat="44.6604" lon="3.30161">
        <ele>1046.8000488281</ele>
        <time>2019-05-25T11:46:54Z</time>
      </trkpt>
      <trkpt lat="44.66024" lon="3.30173">
        <ele>1047.4000244141</ele>
        <time>2019-05-25T11:46:59Z</time>
      </trkpt>
      <trkpt lat="44.65999" lon="3.30191">
        <ele>1048</ele>
        <time>2019-05-25T11:47:07Z</time>
      </trkpt>
      <trkpt lat="44.65974" lon="3.30203">
        <ele>1048.5999755859</ele>
        <time>2019-05-25T11:47:15Z</time>
      </trkpt>
      <trkpt lat="44.65951" lon="3.3021">
        <ele>1049.4000244141</ele>
        <time>2019-05-25T11:47:22Z</time>
      </trkpt>
      <trkpt lat="44.6594" lon="3.30212">
        <ele>1049.5999755859</ele>
        <time>2019-05-25T11:47:25Z</time>
      </trkpt>
      <trkpt lat="44.65927" lon="3.30215">
        <ele>1049.8000488281</ele>
        <time>2019-05-25T11:47:28Z</time>
      </trkpt>
      <trkpt lat="44.65901" lon="3.30222">
        <ele>1050.1999511719</ele>
        <time>2019-05-25T11:47:34Z</time>
      </trkpt>
      <trkpt lat="44.65893" lon="3.30225">
        <ele>1050.4000244141</ele>
        <time>2019-05-25T11:47:36Z</time>
      </trkpt>
      <trkpt lat="44.6588" lon="3.30231">
        <ele>1050.5999755859</ele>
        <time>2019-05-25T11:47:40Z</time>
      </trkpt>
      <trkpt lat="44.65864" lon="3.30246">
        <ele>1051</ele>
        <time>2019-05-25T11:47:45Z</time>
      </trkpt>
      <trkpt lat="44.65851" lon="3.30258">
        <ele>1051.4000244141</ele>
        <time>2019-05-25T11:47:49Z</time>
      </trkpt>
      <trkpt lat="44.6583" lon="3.30272">
        <ele>1051.8000488281</ele>
        <time>2019-05-25T11:47:55Z</time>
      </trkpt>
      <trkpt lat="44.65813" lon="3.30283">
        <ele>1052.4000244141</ele>
        <time>2019-05-25T11:48:00Z</time>
      </trkpt>
      <trkpt lat="44.65799" lon="3.303">
        <ele>1052.8000488281</ele>
        <time>2019-05-25T11:48:05Z</time>
      </trkpt>
      <trkpt lat="44.65785" lon="3.30319">
        <ele>1053.1999511719</ele>
        <time>2019-05-25T11:48:10Z</time>
      </trkpt>
      <trkpt lat="44.65781" lon="3.30321">
        <ele>1053.4000244141</ele>
        <time>2019-05-25T11:48:11Z</time>
      </trkpt>
      <trkpt lat="44.65765" lon="3.30335">
        <ele>1053.4000244141</ele>
        <time>2019-05-25T11:48:16Z</time>
      </trkpt>
      <trkpt lat="44.65747" lon="3.30353">
        <ele>1053.5999755859</ele>
        <time>2019-05-25T11:48:22Z</time>
      </trkpt>
      <trkpt lat="44.6573" lon="3.30367">
        <ele>1054</ele>
        <time>2019-05-25T11:48:28Z</time>
      </trkpt>
      <trkpt lat="44.65707" lon="3.30381">
        <ele>1054.4000244141</ele>
        <time>2019-05-25T11:48:35Z</time>
      </trkpt>
      <trkpt lat="44.6569" lon="3.30388">
        <ele>1054.8000488281</ele>
        <time>2019-05-25T11:48:40Z</time>
      </trkpt>
      <trkpt lat="44.65675" lon="3.30392">
        <ele>1055</ele>
        <time>2019-05-25T11:48:44Z</time>
      </trkpt>
      <trkpt lat="44.65671" lon="3.30394">
        <ele>1055</ele>
        <time>2019-05-25T11:48:45Z</time>
      </trkpt>
      <trkpt lat="44.65654" lon="3.30398">
        <ele>1055.1999511719</ele>
        <time>2019-05-25T11:48:49Z</time>
      </trkpt>
      <trkpt lat="44.65649" lon="3.30399">
        <ele>1055.1999511719</ele>
        <time>2019-05-25T11:48:50Z</time>
      </trkpt>
      <trkpt lat="44.65644" lon="3.304">
        <ele>1055</ele>
        <time>2019-05-25T11:48:51Z</time>
      </trkpt>
      <trkpt lat="44.65632" lon="3.30403">
        <ele>1055</ele>
        <time>2019-05-25T11:48:54Z</time>
      </trkpt>
      <trkpt lat="44.65628" lon="3.30404">
        <ele>1055</ele>
        <time>2019-05-25T11:48:55Z</time>
      </trkpt>
      <trkpt lat="44.6562" lon="3.30406">
        <ele>1055</ele>
        <time>2019-05-25T11:48:57Z</time>
      </trkpt>
      <trkpt lat="44.65614" lon="3.3041">
        <ele>1055</ele>
        <time>2019-05-25T11:48:59Z</time>
      </trkpt>
      <trkpt lat="44.65604" lon="3.30414">
        <ele>1055.1999511719</ele>
        <time>2019-05-25T11:49:02Z</time>
      </trkpt>
      <trkpt lat="44.656" lon="3.30415">
        <ele>1055.1999511719</ele>
        <time>2019-05-25T11:49:03Z</time>
      </trkpt>
      <trkpt lat="44.65586" lon="3.30424">
        <ele>1055.4000244141</ele>
        <time>2019-05-25T11:49:07Z</time>
      </trkpt>
      <trkpt lat="44.65582" lon="3.30428">
        <ele>1055.4000244141</ele>
        <time>2019-05-25T11:49:08Z</time>
      </trkpt>
      <trkpt lat="44.65576" lon="3.30437">
        <ele>1055.4000244141</ele>
        <time>2019-05-25T11:49:10Z</time>
      </trkpt>
      <trkpt lat="44.65567" lon="3.30456">
        <ele>1055.4000244141</ele>
        <time>2019-05-25T11:49:14Z</time>
      </trkpt>
      <trkpt lat="44.65549" lon="3.30481">
        <ele>1055.4000244141</ele>
        <time>2019-05-25T11:49:20Z</time>
      </trkpt>
      <trkpt lat="44.65543" lon="3.3049">
        <ele>1055.4000244141</ele>
        <time>2019-05-25T11:49:22Z</time>
      </trkpt>
      <trkpt lat="44.65532" lon="3.30501">
        <ele>1055.4000244141</ele>
        <time>2019-05-25T11:49:25Z</time>
      </trkpt>
      <trkpt lat="44.65528" lon="3.30503">
        <ele>1055.4000244141</ele>
        <time>2019-05-25T11:49:26Z</time>
      </trkpt>
      <trkpt lat="44.65519" lon="3.30506">
        <ele>1055.4000244141</ele>
        <time>2019-05-25T11:49:28Z</time>
      </trkpt>
      <trkpt lat="44.65507" lon="3.3051">
        <ele>1055.4000244141</ele>
        <time>2019-05-25T11:49:31Z</time>
      </trkpt>
      <trkpt lat="44.65497" lon="3.30514">
        <ele>1055.4000244141</ele>
        <time>2019-05-25T11:49:34Z</time>
      </trkpt>
      <trkpt lat="44.65494" lon="3.30518">
        <ele>1055.4000244141</ele>
        <time>2019-05-25T11:49:35Z</time>
      </trkpt>
      <trkpt lat="44.6549" lon="3.30527">
        <ele>1055.4000244141</ele>
        <time>2019-05-25T11:49:37Z</time>
      </trkpt>
      <trkpt lat="44.65488" lon="3.3053">
        <ele>1055.4000244141</ele>
        <time>2019-05-25T11:49:38Z</time>
      </trkpt>
      <trkpt lat="44.65484" lon="3.30539">
        <ele>1055.1999511719</ele>
        <time>2019-05-25T11:49:40Z</time>
      </trkpt>
      <trkpt lat="44.65483" lon="3.30544">
        <ele>1055.1999511719</ele>
        <time>2019-05-25T11:49:41Z</time>
      </trkpt>
      <trkpt lat="44.65484" lon="3.3055">
        <ele>1055.1999511719</ele>
        <time>2019-05-25T11:49:42Z</time>
      </trkpt>
      <trkpt lat="44.65486" lon="3.30561">
        <ele>1055</ele>
        <time>2019-05-25T11:49:44Z</time>
      </trkpt>
      <trkpt lat="44.65486" lon="3.30573">
        <ele>1055</ele>
        <time>2019-05-25T11:49:46Z</time>
      </trkpt>
      <trkpt lat="44.65489" lon="3.3059">
        <ele>1054.8000488281</ele>
        <time>2019-05-25T11:49:48Z</time>
      </trkpt>
      <trkpt lat="44.65492" lon="3.30607">
        <ele>1054.8000488281</ele>
        <time>2019-05-25T11:49:50Z</time>
      </trkpt>
      <trkpt lat="44.65494" lon="3.30622">
        <ele>1054.5999755859</ele>
        <time>2019-05-25T11:49:52Z</time>
      </trkpt>
      <trkpt lat="44.65493" lon="3.30628">
        <ele>1054.5999755859</ele>
        <time>2019-05-25T11:49:53Z</time>
      </trkpt>
      <trkpt lat="44.65493" lon="3.30634">
        <ele>1054.5999755859</ele>
        <time>2019-05-25T11:49:54Z</time>
      </trkpt>
      <trkpt lat="44.65489" lon="3.30648">
        <ele>1054.4000244141</ele>
        <time>2019-05-25T11:49:57Z</time>
      </trkpt>
      <trkpt lat="44.65486" lon="3.30657">
        <ele>1054.4000244141</ele>
        <time>2019-05-25T11:49:59Z</time>
      </trkpt>
      <trkpt lat="44.65481" lon="3.30661">
        <ele>1054.4000244141</ele>
        <time>2019-05-25T11:50:01Z</time>
      </trkpt>
      <trkpt lat="44.65474" lon="3.30667">
        <ele>1054.4000244141</ele>
        <time>2019-05-25T11:50:04Z</time>
      </trkpt>
      <trkpt lat="44.65468" lon="3.30673">
        <ele>1054.1999511719</ele>
        <time>2019-05-25T11:50:07Z</time>
      </trkpt>
      <trkpt lat="44.65463" lon="3.3068">
        <ele>1054.5999755859</ele>
        <time>2019-05-25T11:50:11Z</time>
      </trkpt>
      <trkpt lat="44.65461" lon="3.30682">
        <ele>1054.5999755859</ele>
        <time>2019-05-25T11:50:12Z</time>
      </trkpt>
      <trkpt lat="44.65459" lon="3.30685">
        <ele>1054.8000488281</ele>
        <time>2019-05-25T11:50:14Z</time>
      </trkpt>
      <trkpt lat="44.65448" lon="3.30693">
        <ele>1054.8000488281</ele>
        <time>2019-05-25T11:50:18Z</time>
      </trkpt>
      <trkpt lat="44.65445" lon="3.30696">
        <ele>1054.8000488281</ele>
        <time>2019-05-25T11:50:20Z</time>
      </trkpt>
      <trkpt lat="44.6544" lon="3.30701">
        <ele>1055</ele>
        <time>2019-05-25T11:50:22Z</time>
      </trkpt>
      <trkpt lat="44.65432" lon="3.30709">
        <ele>1055</ele>
        <time>2019-05-25T11:50:26Z</time>
      </trkpt>
      <trkpt lat="44.65426" lon="3.30713">
        <ele>1055</ele>
        <time>2019-05-25T11:50:29Z</time>
      </trkpt>
      <trkpt lat="44.65424" lon="3.30716">
        <ele>1055</ele>
        <time>2019-05-25T11:50:30Z</time>
      </trkpt>
      <trkpt lat="44.65418" lon="3.30725">
        <ele>1055.1999511719</ele>
        <time>2019-05-25T11:50:34Z</time>
      </trkpt>
      <trkpt lat="44.65413" lon="3.3073">
        <ele>1055.4000244141</ele>
        <time>2019-05-25T11:50:37Z</time>
      </trkpt>
      <trkpt lat="44.65402" lon="3.30743">
        <ele>1055.5999755859</ele>
        <time>2019-05-25T11:50:42Z</time>
      </trkpt>
      <trkpt lat="44.65395" lon="3.30753">
        <ele>1055.5999755859</ele>
        <time>2019-05-25T11:50:46Z</time>
      </trkpt>
      <trkpt lat="44.65382" lon="3.30765">
        <ele>1055.5999755859</ele>
        <time>2019-05-25T11:50:50Z</time>
      </trkpt>
      <trkpt lat="44.65373" lon="3.30771">
        <ele>1055.5999755859</ele>
        <time>2019-05-25T11:50:53Z</time>
      </trkpt>
      <trkpt lat="44.65369" lon="3.30773">
        <ele>1055.5999755859</ele>
        <time>2019-05-25T11:50:54Z</time>
      </trkpt>
      <trkpt lat="44.65367" lon="3.30774">
        <ele>1055.4000244141</ele>
        <time>2019-05-25T11:50:55Z</time>
      </trkpt>
      <trkpt lat="44.65361" lon="3.30776">
        <ele>1055.1999511719</ele>
        <time>2019-05-25T11:50:57Z</time>
      </trkpt>
      <trkpt lat="44.65357" lon="3.30783">
        <ele>1054.8000488281</ele>
        <time>2019-05-25T11:51:00Z</time>
      </trkpt>
      <trkpt lat="44.65354" lon="3.30789">
        <ele>1054.5999755859</ele>
        <time>2019-05-25T11:51:02Z</time>
      </trkpt>
      <trkpt lat="44.65353" lon="3.3079">
        <ele>1054.4000244141</ele>
        <time>2019-05-25T11:51:03Z</time>
      </trkpt>
      <trkpt lat="44.65352" lon="3.30794">
        <ele>1054.4000244141</ele>
        <time>2019-05-25T11:51:04Z</time>
      </trkpt>
      <trkpt lat="44.65347" lon="3.30801">
        <ele>1054</ele>
        <time>2019-05-25T11:51:06Z</time>
      </trkpt>
      <trkpt lat="44.65345" lon="3.30803">
        <ele>1054</ele>
        <time>2019-05-25T11:51:07Z</time>
      </trkpt>
      <trkpt lat="44.65344" lon="3.30811">
        <ele>1053.5999755859</ele>
        <time>2019-05-25T11:51:09Z</time>
      </trkpt>
      <trkpt lat="44.65346" lon="3.30838">
        <ele>1053.5999755859</ele>
        <time>2019-05-25T11:51:14Z</time>
      </trkpt>
      <trkpt lat="44.6535" lon="3.30862">
        <ele>1053.8000488281</ele>
        <time>2019-05-25T11:51:18Z</time>
      </trkpt>
      <trkpt lat="44.65354" lon="3.30869">
        <ele>1053.8000488281</ele>
        <time>2019-05-25T11:51:20Z</time>
      </trkpt>
      <trkpt lat="44.65362" lon="3.30872">
        <ele>1053.5999755859</ele>
        <time>2019-05-25T11:51:22Z</time>
      </trkpt>
      <trkpt lat="44.65369" lon="3.30877">
        <ele>1053.4000244141</ele>
        <time>2019-05-25T11:51:24Z</time>
      </trkpt>
      <trkpt lat="44.65371" lon="3.30882">
        <ele>1053.1999511719</ele>
        <time>2019-05-25T11:51:25Z</time>
      </trkpt>
      <trkpt lat="44.65377" lon="3.30888">
        <ele>1053</ele>
        <time>2019-05-25T11:51:27Z</time>
      </trkpt>
      <trkpt lat="44.65381" lon="3.3089">
        <ele>1052.8000488281</ele>
        <time>2019-05-25T11:51:28Z</time>
      </trkpt>
      <trkpt lat="44.65385" lon="3.30894">
        <ele>1052.5999755859</ele>
        <time>2019-05-25T11:51:29Z</time>
      </trkpt>
      <trkpt lat="44.65393" lon="3.30902">
        <ele>1052.1999511719</ele>
        <time>2019-05-25T11:51:31Z</time>
      </trkpt>
      <trkpt lat="44.65397" lon="3.30905">
        <ele>1052.1999511719</ele>
        <time>2019-05-25T11:51:32Z</time>
      </trkpt>
      <trkpt lat="44.65409" lon="3.30919">
        <ele>1051.5999755859</ele>
        <time>2019-05-25T11:51:35Z</time>
      </trkpt>
      <trkpt lat="44.65415" lon="3.30929">
        <ele>1051</ele>
        <time>2019-05-25T11:51:37Z</time>
      </trkpt>
      <trkpt lat="44.6542" lon="3.30941">
        <ele>1050.5999755859</ele>
        <time>2019-05-25T11:51:39Z</time>
      </trkpt>
      <trkpt lat="44.6543" lon="3.30952">
        <ele>1050.1999511719</ele>
        <time>2019-05-25T11:51:41Z</time>
      </trkpt>
      <trkpt lat="44.65436" lon="3.30964">
        <ele>1049.8000488281</ele>
        <time>2019-05-25T11:51:43Z</time>
      </trkpt>
      <trkpt lat="44.65437" lon="3.3097">
        <ele>1049.5999755859</ele>
        <time>2019-05-25T11:51:44Z</time>
      </trkpt>
      <trkpt lat="44.65437" lon="3.30977">
        <ele>1049.4000244141</ele>
        <time>2019-05-25T11:51:45Z</time>
      </trkpt>
      <trkpt lat="44.65434" lon="3.30981">
        <ele>1049.4000244141</ele>
        <time>2019-05-25T11:51:46Z</time>
      </trkpt>
      <trkpt lat="44.65431" lon="3.30984">
        <ele>1049.1999511719</ele>
        <time>2019-05-25T11:51:47Z</time>
      </trkpt>
      <trkpt lat="44.65422" lon="3.30988">
        <ele>1048.8000488281</ele>
        <time>2019-05-25T11:51:49Z</time>
      </trkpt>
      <trkpt lat="44.65411" lon="3.31">
        <ele>1048.1999511719</ele>
        <time>2019-05-25T11:51:53Z</time>
      </trkpt>
      <trkpt lat="44.65406" lon="3.31011">
        <ele>1047.8000488281</ele>
        <time>2019-05-25T11:51:56Z</time>
      </trkpt>
      <trkpt lat="44.65399" lon="3.31026">
        <ele>1047.4000244141</ele>
        <time>2019-05-25T11:52:00Z</time>
      </trkpt>
      <trkpt lat="44.65394" lon="3.31033">
        <ele>1046.5999755859</ele>
        <time>2019-05-25T11:52:04Z</time>
      </trkpt>
      <trkpt lat="44.65393" lon="3.31034">
        <ele>1046.5999755859</ele>
        <time>2019-05-25T11:52:05Z</time>
      </trkpt>
      <trkpt lat="44.65386" lon="3.31039">
        <ele>1046.1999511719</ele>
        <time>2019-05-25T11:52:08Z</time>
      </trkpt>
      <trkpt lat="44.65381" lon="3.31042">
        <ele>1046</ele>
        <time>2019-05-25T11:52:11Z</time>
      </trkpt>
      <trkpt lat="44.65374" lon="3.31048">
        <ele>1046</ele>
        <time>2019-05-25T11:52:15Z</time>
      </trkpt>
      <trkpt lat="44.65363" lon="3.31057">
        <ele>1045.8000488281</ele>
        <time>2019-05-25T11:52:19Z</time>
      </trkpt>
      <trkpt lat="44.65352" lon="3.31068">
        <ele>1045.5999755859</ele>
        <time>2019-05-25T11:52:23Z</time>
      </trkpt>
      <trkpt lat="44.65346" lon="3.31074">
        <ele>1045.4000244141</ele>
        <time>2019-05-25T11:52:25Z</time>
      </trkpt>
      <trkpt lat="44.65341" lon="3.31076">
        <ele>1045.4000244141</ele>
        <time>2019-05-25T11:52:26Z</time>
      </trkpt>
      <trkpt lat="44.65329" lon="3.31083">
        <ele>1045</ele>
        <time>2019-05-25T11:52:30Z</time>
      </trkpt>
      <trkpt lat="44.65322" lon="3.31091">
        <ele>1044.8000488281</ele>
        <time>2019-05-25T11:52:33Z</time>
      </trkpt>
      <trkpt lat="44.65306" lon="3.31101">
        <ele>1044.1999511719</ele>
        <time>2019-05-25T11:52:38Z</time>
      </trkpt>
      <trkpt lat="44.65297" lon="3.31108">
        <ele>1043.5999755859</ele>
        <time>2019-05-25T11:52:42Z</time>
      </trkpt>
      <trkpt lat="44.65279" lon="3.31115">
        <ele>1042.8000488281</ele>
        <time>2019-05-25T11:52:48Z</time>
      </trkpt>
      <trkpt lat="44.65275" lon="3.31116">
        <ele>1042.4000244141</ele>
        <time>2019-05-25T11:52:50Z</time>
      </trkpt>
      <trkpt lat="44.65269" lon="3.31115">
        <ele>1042.1999511719</ele>
        <time>2019-05-25T11:52:52Z</time>
      </trkpt>
      <trkpt lat="44.65252" lon="3.31107">
        <ele>1042.8000488281</ele>
        <time>2019-05-25T11:52:57Z</time>
      </trkpt>
      <trkpt lat="44.65238" lon="3.31098">
        <ele>1043.4000244141</ele>
        <time>2019-05-25T11:53:03Z</time>
      </trkpt>
      <trkpt lat="44.65229" lon="3.31091">
        <ele>1042.5999755859</ele>
        <time>2019-05-25T11:53:07Z</time>
      </trkpt>
      <trkpt lat="44.65221" lon="3.31085">
        <ele>1042.1999511719</ele>
        <time>2019-05-25T11:53:11Z</time>
      </trkpt>
      <trkpt lat="44.65214" lon="3.31079">
        <ele>1041.8000488281</ele>
        <time>2019-05-25T11:53:15Z</time>
      </trkpt>
      <trkpt lat="44.65202" lon="3.3107">
        <ele>1043</ele>
        <time>2019-05-25T11:53:20Z</time>
      </trkpt>
      <trkpt lat="44.65192" lon="3.3106">
        <ele>1043.8000488281</ele>
        <time>2019-05-25T11:53:24Z</time>
      </trkpt>
      <trkpt lat="44.65181" lon="3.31044">
        <ele>1044.1999511719</ele>
        <time>2019-05-25T11:53:30Z</time>
      </trkpt>
      <trkpt lat="44.65175" lon="3.31029">
        <ele>1044</ele>
        <time>2019-05-25T11:53:35Z</time>
      </trkpt>
      <trkpt lat="44.65167" lon="3.31025">
        <ele>1044.1999511719</ele>
        <time>2019-05-25T11:53:38Z</time>
      </trkpt>
      <trkpt lat="44.65162" lon="3.31019">
        <ele>1044.5999755859</ele>
        <time>2019-05-25T11:53:42Z</time>
      </trkpt>
      <trkpt lat="44.65157" lon="3.31019">
        <ele>1045.1999511719</ele>
        <time>2019-05-25T11:53:45Z</time>
      </trkpt>
      <trkpt lat="44.65149" lon="3.31022">
        <ele>1045.5999755859</ele>
        <time>2019-05-25T11:53:48Z</time>
      </trkpt>
      <trkpt lat="44.65144" lon="3.31024">
        <ele>1045.8000488281</ele>
        <time>2019-05-25T11:53:51Z</time>
      </trkpt>
      <trkpt lat="44.65139" lon="3.31025">
        <ele>1046</ele>
        <time>2019-05-25T11:53:53Z</time>
      </trkpt>
      <trkpt lat="44.6513" lon="3.31031">
        <ele>1046.1999511719</ele>
        <time>2019-05-25T11:53:57Z</time>
      </trkpt>
      <trkpt lat="44.65124" lon="3.31035">
        <ele>1046.1999511719</ele>
        <time>2019-05-25T11:54:00Z</time>
      </trkpt>
      <trkpt lat="44.65122" lon="3.31038">
        <ele>1046.1999511719</ele>
        <time>2019-05-25T11:54:02Z</time>
      </trkpt>
      <trkpt lat="44.6512" lon="3.3104">
        <ele>1046.1999511719</ele>
        <time>2019-05-25T11:54:03Z</time>
      </trkpt>
      <trkpt lat="44.65114" lon="3.31043">
        <ele>1046</ele>
        <time>2019-05-25T11:54:05Z</time>
      </trkpt>
      <trkpt lat="44.65106" lon="3.31052">
        <ele>1045.8000488281</ele>
        <time>2019-05-25T11:54:10Z</time>
      </trkpt>
      <trkpt lat="44.65106" lon="3.31053">
        <ele>1045.8000488281</ele>
        <time>2019-05-25T11:54:11Z</time>
      </trkpt>
      <trkpt lat="44.65102" lon="3.31059">
        <ele>1046.1999511719</ele>
        <time>2019-05-25T11:54:14Z</time>
      </trkpt>
      <trkpt lat="44.65099" lon="3.31061">
        <ele>1046.1999511719</ele>
        <time>2019-05-25T11:54:15Z</time>
      </trkpt>
      <trkpt lat="44.65087" lon="3.31068">
        <ele>1046.8000488281</ele>
        <time>2019-05-25T11:54:20Z</time>
      </trkpt>
      <trkpt lat="44.65075" lon="3.31068">
        <ele>1047.4000244141</ele>
        <time>2019-05-25T11:54:26Z</time>
      </trkpt>
      <trkpt lat="44.65067" lon="3.31065">
        <ele>1048.4000244141</ele>
        <time>2019-05-25T11:54:31Z</time>
      </trkpt>
      <trkpt lat="44.6505" lon="3.31058">
        <ele>1049.4000244141</ele>
        <time>2019-05-25T11:54:38Z</time>
      </trkpt>
      <trkpt lat="44.65044" lon="3.31057">
        <ele>1049.5999755859</ele>
        <time>2019-05-25T11:54:41Z</time>
      </trkpt>
      <trkpt lat="44.65041" lon="3.31055">
        <ele>1050</ele>
        <time>2019-05-25T11:54:44Z</time>
      </trkpt>
      <trkpt lat="44.65038" lon="3.31054">
        <ele>1050.1999511719</ele>
        <time>2019-05-25T11:54:46Z</time>
      </trkpt>
      <trkpt lat="44.65036" lon="3.31053">
        <ele>1050.4000244141</ele>
        <time>2019-05-25T11:54:47Z</time>
      </trkpt>
      <trkpt lat="44.65034" lon="3.31052">
        <ele>1050.4000244141</ele>
        <time>2019-05-25T11:54:49Z</time>
      </trkpt>
      <trkpt lat="44.65029" lon="3.31051">
        <ele>1050.8000488281</ele>
        <time>2019-05-25T11:54:52Z</time>
      </trkpt>
      <trkpt lat="44.6502" lon="3.31047">
        <ele>1051.5999755859</ele>
        <time>2019-05-25T11:54:57Z</time>
      </trkpt>
      <trkpt lat="44.65007" lon="3.31044">
        <ele>1052.4000244141</ele>
        <time>2019-05-25T11:55:03Z</time>
      </trkpt>
      <trkpt lat="44.64994" lon="3.31042">
        <ele>1054</ele>
        <time>2019-05-25T11:55:09Z</time>
      </trkpt>
      <trkpt lat="44.64987" lon="3.31044">
        <ele>1055.1999511719</ele>
        <time>2019-05-25T11:55:13Z</time>
      </trkpt>
      <trkpt lat="44.64977" lon="3.31045">
        <ele>1056.8000488281</ele>
        <time>2019-05-25T11:55:19Z</time>
      </trkpt>
      <trkpt lat="44.64973" lon="3.31045">
        <ele>1057.1999511719</ele>
        <time>2019-05-25T11:55:22Z</time>
      </trkpt>
      <trkpt lat="44.64956" lon="3.31055">
        <ele>1060.4000244141</ele>
        <time>2019-05-25T11:55:36Z</time>
      </trkpt>
      <trkpt lat="44.64954" lon="3.31055">
        <ele>1060.4000244141</ele>
        <time>2019-05-25T11:55:37Z</time>
      </trkpt>
      <trkpt lat="44.64953" lon="3.31055">
        <ele>1060.5999755859</ele>
        <time>2019-05-25T11:55:38Z</time>
      </trkpt>
      <trkpt lat="44.64947" lon="3.3106">
        <ele>1061.8000488281</ele>
        <time>2019-05-25T11:55:42Z</time>
      </trkpt>
      <trkpt lat="44.64941" lon="3.31062">
        <ele>1062.4000244141</ele>
        <time>2019-05-25T11:55:44Z</time>
      </trkpt>
      <trkpt lat="44.64928" lon="3.31068">
        <ele>1063.5999755859</ele>
        <time>2019-05-25T11:55:49Z</time>
      </trkpt>
      <trkpt lat="44.64926" lon="3.31069">
        <ele>1063.5999755859</ele>
        <time>2019-05-25T11:55:50Z</time>
      </trkpt>
      <trkpt lat="44.64919" lon="3.31073">
        <ele>1064.1999511719</ele>
        <time>2019-05-25T11:55:53Z</time>
      </trkpt>
      <trkpt lat="44.64905" lon="3.31089">
        <ele>1065</ele>
        <time>2019-05-25T11:55:59Z</time>
      </trkpt>
      <trkpt lat="44.64896" lon="3.31098">
        <ele>1065.5999755859</ele>
        <time>2019-05-25T11:56:04Z</time>
      </trkpt>
      <trkpt lat="44.64887" lon="3.3111">
        <ele>1066.1999511719</ele>
        <time>2019-05-25T11:56:09Z</time>
      </trkpt>
      <trkpt lat="44.64884" lon="3.31116">
        <ele>1066.4000244141</ele>
        <time>2019-05-25T11:56:11Z</time>
      </trkpt>
      <trkpt lat="44.64881" lon="3.31119">
        <ele>1066.5999755859</ele>
        <time>2019-05-25T11:56:13Z</time>
      </trkpt>
      <trkpt lat="44.64879" lon="3.31125">
        <ele>1066.8000488281</ele>
        <time>2019-05-25T11:56:16Z</time>
      </trkpt>
      <trkpt lat="44.64878" lon="3.31128">
        <ele>1067</ele>
        <time>2019-05-25T11:56:18Z</time>
      </trkpt>
      <trkpt lat="44.64873" lon="3.31133">
        <ele>1067.1999511719</ele>
        <time>2019-05-25T11:56:20Z</time>
      </trkpt>
      <trkpt lat="44.6487" lon="3.31137">
        <ele>1067.4000244141</ele>
        <time>2019-05-25T11:56:21Z</time>
      </trkpt>
      <trkpt lat="44.64866" lon="3.31144">
        <ele>1067.4000244141</ele>
        <time>2019-05-25T11:56:24Z</time>
      </trkpt>
      <trkpt lat="44.64865" lon="3.31147">
        <ele>1067.4000244141</ele>
        <time>2019-05-25T11:56:25Z</time>
      </trkpt>
      <trkpt lat="44.64857" lon="3.31156">
        <ele>1067.5999755859</ele>
        <time>2019-05-25T11:56:28Z</time>
      </trkpt>
      <trkpt lat="44.64849" lon="3.31167">
        <ele>1067.5999755859</ele>
        <time>2019-05-25T11:56:31Z</time>
      </trkpt>
      <trkpt lat="44.64841" lon="3.31174">
        <ele>1067.8000488281</ele>
        <time>2019-05-25T11:56:34Z</time>
      </trkpt>
      <trkpt lat="44.64839" lon="3.31177">
        <ele>1068</ele>
        <time>2019-05-25T11:56:35Z</time>
      </trkpt>
      <trkpt lat="44.64838" lon="3.31181">
        <ele>1068</ele>
        <time>2019-05-25T11:56:36Z</time>
      </trkpt>
      <trkpt lat="44.64834" lon="3.31186">
        <ele>1068</ele>
        <time>2019-05-25T11:56:38Z</time>
      </trkpt>
      <trkpt lat="44.64832" lon="3.3119">
        <ele>1068</ele>
        <time>2019-05-25T11:56:40Z</time>
      </trkpt>
      <trkpt lat="44.64831" lon="3.31196">
        <ele>1068.4000244141</ele>
        <time>2019-05-25T11:56:42Z</time>
      </trkpt>
      <trkpt lat="44.6482" lon="3.31213">
        <ele>1069.8000488281</ele>
        <time>2019-05-25T11:56:48Z</time>
      </trkpt>
      <trkpt lat="44.64816" lon="3.31217">
        <ele>1070.1999511719</ele>
        <time>2019-05-25T11:56:50Z</time>
      </trkpt>
      <trkpt lat="44.64814" lon="3.31223">
        <ele>1070.5999755859</ele>
        <time>2019-05-25T11:56:52Z</time>
      </trkpt>
      <trkpt lat="44.64807" lon="3.31238">
        <ele>1071.4000244141</ele>
        <time>2019-05-25T11:56:57Z</time>
      </trkpt>
      <trkpt lat="44.64802" lon="3.3125">
        <ele>1071.5999755859</ele>
        <time>2019-05-25T11:57:01Z</time>
      </trkpt>
      <trkpt lat="44.64801" lon="3.31253">
        <ele>1071.8000488281</ele>
        <time>2019-05-25T11:57:02Z</time>
      </trkpt>
      <trkpt lat="44.64797" lon="3.31257">
        <ele>1072.1999511719</ele>
        <time>2019-05-25T11:57:04Z</time>
      </trkpt>
      <trkpt lat="44.64795" lon="3.31262">
        <ele>1072.1999511719</ele>
        <time>2019-05-25T11:57:06Z</time>
      </trkpt>
      <trkpt lat="44.64794" lon="3.31264">
        <ele>1072.4000244141</ele>
        <time>2019-05-25T11:57:07Z</time>
      </trkpt>
      <trkpt lat="44.64788" lon="3.31267">
        <ele>1072.5999755859</ele>
        <time>2019-05-25T11:57:09Z</time>
      </trkpt>
      <trkpt lat="44.64775" lon="3.31276">
        <ele>1073.5999755859</ele>
        <time>2019-05-25T11:57:13Z</time>
      </trkpt>
      <trkpt lat="44.64765" lon="3.3128">
        <ele>1074.1999511719</ele>
        <time>2019-05-25T11:57:17Z</time>
      </trkpt>
      <trkpt lat="44.64756" lon="3.3129">
        <ele>1074.8000488281</ele>
        <time>2019-05-25T11:57:21Z</time>
      </trkpt>
      <trkpt lat="44.64744" lon="3.31303">
        <ele>1075.5999755859</ele>
        <time>2019-05-25T11:57:27Z</time>
      </trkpt>
      <trkpt lat="44.64741" lon="3.31306">
        <ele>1075.8000488281</ele>
        <time>2019-05-25T11:57:29Z</time>
      </trkpt>
      <trkpt lat="44.64738" lon="3.31311">
        <ele>1076</ele>
        <time>2019-05-25T11:57:31Z</time>
      </trkpt>
      <trkpt lat="44.64726" lon="3.31321">
        <ele>1077</ele>
        <time>2019-05-25T11:57:37Z</time>
      </trkpt>
      <trkpt lat="44.64724" lon="3.31322">
        <ele>1077</ele>
        <time>2019-05-25T11:57:38Z</time>
      </trkpt>
      <trkpt lat="44.6472" lon="3.31323">
        <ele>1077.4000244141</ele>
        <time>2019-05-25T11:57:40Z</time>
      </trkpt>
      <trkpt lat="44.6471" lon="3.3133">
        <ele>1077.4000244141</ele>
        <time>2019-05-25T11:57:44Z</time>
      </trkpt>
      <trkpt lat="44.64702" lon="3.31334">
        <ele>1077.4000244141</ele>
        <time>2019-05-25T11:57:48Z</time>
      </trkpt>
      <trkpt lat="44.64689" lon="3.31342">
        <ele>1077.5999755859</ele>
        <time>2019-05-25T11:57:53Z</time>
      </trkpt>
      <trkpt lat="44.64676" lon="3.31345">
        <ele>1078</ele>
        <time>2019-05-25T11:57:59Z</time>
      </trkpt>
      <trkpt lat="44.64673" lon="3.31346">
        <ele>1078</ele>
        <time>2019-05-25T11:58:01Z</time>
      </trkpt>
      <trkpt lat="44.64667" lon="3.31349">
        <ele>1078.1999511719</ele>
        <time>2019-05-25T11:58:04Z</time>
      </trkpt>
      <trkpt lat="44.64664" lon="3.31351">
        <ele>1078.4000244141</ele>
        <time>2019-05-25T11:58:06Z</time>
      </trkpt>
      <trkpt lat="44.6466" lon="3.31353">
        <ele>1078.5999755859</ele>
        <time>2019-05-25T11:58:10Z</time>
      </trkpt>
      <trkpt lat="44.64652" lon="3.31357">
        <ele>1079</ele>
        <time>2019-05-25T11:58:15Z</time>
      </trkpt>
      <trkpt lat="44.64643" lon="3.31362">
        <ele>1079.8000488281</ele>
        <time>2019-05-25T11:58:20Z</time>
      </trkpt>
      <trkpt lat="44.64633" lon="3.31368">
        <ele>1080.1999511719</ele>
        <time>2019-05-25T11:58:25Z</time>
      </trkpt>
      <trkpt lat="44.64623" lon="3.3137">
        <ele>1080.8000488281</ele>
        <time>2019-05-25T11:58:31Z</time>
      </trkpt>
      <trkpt lat="44.64622" lon="3.3137">
        <ele>1080.8000488281</ele>
        <time>2019-05-25T11:58:32Z</time>
      </trkpt>
      <trkpt lat="44.64617" lon="3.31371">
        <ele>1081</ele>
        <time>2019-05-25T11:58:35Z</time>
      </trkpt>
      <trkpt lat="44.64612" lon="3.31371">
        <ele>1081.4000244141</ele>
        <time>2019-05-25T11:58:39Z</time>
      </trkpt>
      <trkpt lat="44.64611" lon="3.31372">
        <ele>1081.4000244141</ele>
        <time>2019-05-25T11:58:40Z</time>
      </trkpt>
      <trkpt lat="44.64608" lon="3.31373">
        <ele>1081.5999755859</ele>
        <time>2019-05-25T11:58:42Z</time>
      </trkpt>
      <trkpt lat="44.64603" lon="3.31374">
        <ele>1082</ele>
        <time>2019-05-25T11:58:45Z</time>
      </trkpt>
      <trkpt lat="44.64597" lon="3.31377">
        <ele>1082.4000244141</ele>
        <time>2019-05-25T11:58:49Z</time>
      </trkpt>
      <trkpt lat="44.64595" lon="3.31378">
        <ele>1082.5999755859</ele>
        <time>2019-05-25T11:58:51Z</time>
      </trkpt>
      <trkpt lat="44.64593" lon="3.31377">
        <ele>1082.8000488281</ele>
        <time>2019-05-25T11:58:53Z</time>
      </trkpt>
      <trkpt lat="44.64582" lon="3.31379">
        <ele>1083.8000488281</ele>
        <time>2019-05-25T11:59:00Z</time>
      </trkpt>
      <trkpt lat="44.64578" lon="3.31372">
        <ele>1084.1999511719</ele>
        <time>2019-05-25T11:59:06Z</time>
      </trkpt>
      <trkpt lat="44.64574" lon="3.31366">
        <ele>1087.5999755859</ele>
        <time>2019-05-25T11:59:53Z</time>
      </trkpt>
      <trkpt lat="44.6457" lon="3.31361">
        <ele>1087.5999755859</ele>
        <time>2019-05-25T11:59:55Z</time>
      </trkpt>
      <trkpt lat="44.6457" lon="3.31358">
        <ele>1087.5999755859</ele>
        <time>2019-05-25T11:59:56Z</time>
      </trkpt>
      <trkpt lat="44.64567" lon="3.31348">
        <ele>1087.8000488281</ele>
        <time>2019-05-25T11:59:59Z</time>
      </trkpt>
      <trkpt lat="44.64564" lon="3.31327">
        <ele>1088</ele>
        <time>2019-05-25T12:00:04Z</time>
      </trkpt>
      <trkpt lat="44.64569" lon="3.31301">
        <ele>1088</ele>
        <time>2019-05-25T12:00:09Z</time>
      </trkpt>
      <trkpt lat="44.6458" lon="3.31283">
        <ele>1088.1999511719</ele>
        <time>2019-05-25T12:00:12Z</time>
      </trkpt>
      <trkpt lat="44.64588" lon="3.31272">
        <ele>1088.1999511719</ele>
        <time>2019-05-25T12:00:14Z</time>
      </trkpt>
      <trkpt lat="44.64609" lon="3.31243">
        <ele>1088.1999511719</ele>
        <time>2019-05-25T12:00:19Z</time>
      </trkpt>
      <trkpt lat="44.64621" lon="3.31226">
        <ele>1088.5999755859</ele>
        <time>2019-05-25T12:00:22Z</time>
      </trkpt>
      <trkpt lat="44.64626" lon="3.31217">
        <ele>1088.5999755859</ele>
        <time>2019-05-25T12:00:24Z</time>
      </trkpt>
      <trkpt lat="44.6463" lon="3.31211">
        <ele>1088.5999755859</ele>
        <time>2019-05-25T12:00:25Z</time>
      </trkpt>
      <trkpt lat="44.64642" lon="3.31192">
        <ele>1088.8000488281</ele>
        <time>2019-05-25T12:00:28Z</time>
      </trkpt>
      <trkpt lat="44.64648" lon="3.31181">
        <ele>1088.8000488281</ele>
        <time>2019-05-25T12:00:30Z</time>
      </trkpt>
      <trkpt lat="44.64654" lon="3.3117">
        <ele>1088.8000488281</ele>
        <time>2019-05-25T12:00:32Z</time>
      </trkpt>
      <trkpt lat="44.64669" lon="3.31148">
        <ele>1089.1999511719</ele>
        <time>2019-05-25T12:00:37Z</time>
      </trkpt>
      <trkpt lat="44.64678" lon="3.31134">
        <ele>1089.5999755859</ele>
        <time>2019-05-25T12:00:41Z</time>
      </trkpt>
      <trkpt lat="44.6469" lon="3.31118">
        <ele>1090</ele>
        <time>2019-05-25T12:00:46Z</time>
      </trkpt>
      <trkpt lat="44.64702" lon="3.31097">
        <ele>1090.1999511719</ele>
        <time>2019-05-25T12:00:51Z</time>
      </trkpt>
      <trkpt lat="44.64711" lon="3.31079">
        <ele>1090.4000244141</ele>
        <time>2019-05-25T12:00:55Z</time>
      </trkpt>
      <trkpt lat="44.64716" lon="3.31067">
        <ele>1090.4000244141</ele>
        <time>2019-05-25T12:00:57Z</time>
      </trkpt>
      <trkpt lat="44.64722" lon="3.31056">
        <ele>1090.5999755859</ele>
        <time>2019-05-25T12:00:59Z</time>
      </trkpt>
      <trkpt lat="44.64725" lon="3.31049">
        <ele>1090.5999755859</ele>
        <time>2019-05-25T12:01:00Z</time>
      </trkpt>
      <trkpt lat="44.64745" lon="3.31015">
        <ele>1090.8000488281</ele>
        <time>2019-05-25T12:01:06Z</time>
      </trkpt>
      <trkpt lat="44.64775" lon="3.3098">
        <ele>1091</ele>
        <time>2019-05-25T12:01:13Z</time>
      </trkpt>
      <trkpt lat="44.6481" lon="3.30936">
        <ele>1091</ele>
        <time>2019-05-25T12:01:20Z</time>
      </trkpt>
      <trkpt lat="44.64843" lon="3.309">
        <ele>1091.1999511719</ele>
        <time>2019-05-25T12:01:26Z</time>
      </trkpt>
      <trkpt lat="44.64871" lon="3.30872">
        <ele>1091.1999511719</ele>
        <time>2019-05-25T12:01:31Z</time>
      </trkpt>
      <trkpt lat="44.64888" lon="3.30859">
        <ele>1091.1999511719</ele>
        <time>2019-05-25T12:01:34Z</time>
      </trkpt>
      <trkpt lat="44.64902" lon="3.30854">
        <ele>1091.1999511719</ele>
        <time>2019-05-25T12:01:36Z</time>
      </trkpt>
      <trkpt lat="44.64918" lon="3.3085">
        <ele>1091</ele>
        <time>2019-05-25T12:01:38Z</time>
      </trkpt>
      <trkpt lat="44.64935" lon="3.3084">
        <ele>1091</ele>
        <time>2019-05-25T12:01:40Z</time>
      </trkpt>
      <trkpt lat="44.64952" lon="3.30832">
        <ele>1091</ele>
        <time>2019-05-25T12:01:42Z</time>
      </trkpt>
      <trkpt lat="44.6497" lon="3.30828">
        <ele>1091</ele>
        <time>2019-05-25T12:01:44Z</time>
      </trkpt>
      <trkpt lat="44.64998" lon="3.30819">
        <ele>1091</ele>
        <time>2019-05-25T12:01:47Z</time>
      </trkpt>
      <trkpt lat="44.65014" lon="3.3081">
        <ele>1091.1999511719</ele>
        <time>2019-05-25T12:01:49Z</time>
      </trkpt>
      <trkpt lat="44.65043" lon="3.30782">
        <ele>1091.4000244141</ele>
        <time>2019-05-25T12:01:53Z</time>
      </trkpt>
      <trkpt lat="44.65076" lon="3.30741">
        <ele>1091.5999755859</ele>
        <time>2019-05-25T12:01:58Z</time>
      </trkpt>
      <trkpt lat="44.65115" lon="3.30701">
        <ele>1091.8000488281</ele>
        <time>2019-05-25T12:02:04Z</time>
      </trkpt>
      <trkpt lat="44.65145" lon="3.30668">
        <ele>1091.5999755859</ele>
        <time>2019-05-25T12:02:09Z</time>
      </trkpt>
      <trkpt lat="44.65166" lon="3.3066">
        <ele>1091.1999511719</ele>
        <time>2019-05-25T12:02:12Z</time>
      </trkpt>
      <trkpt lat="44.65177" lon="3.30657">
        <ele>1091</ele>
        <time>2019-05-25T12:02:14Z</time>
      </trkpt>
      <trkpt lat="44.65174" lon="3.30646">
        <ele>1090.5999755859</ele>
        <time>2019-05-25T12:02:17Z</time>
      </trkpt>
      <trkpt lat="44.65164" lon="3.30633">
        <ele>1090.1999511719</ele>
        <time>2019-05-25T12:02:20Z</time>
      </trkpt>
      <trkpt lat="44.6516" lon="3.30629">
        <ele>1090</ele>
        <time>2019-05-25T12:02:21Z</time>
      </trkpt>
      <trkpt lat="44.65153" lon="3.30621">
        <ele>1089.5999755859</ele>
        <time>2019-05-25T12:02:23Z</time>
      </trkpt>
      <trkpt lat="44.65146" lon="3.30613">
        <ele>1089</ele>
        <time>2019-05-25T12:02:25Z</time>
      </trkpt>
      <trkpt lat="44.65139" lon="3.30604">
        <ele>1088.5999755859</ele>
        <time>2019-05-25T12:02:27Z</time>
      </trkpt>
      <trkpt lat="44.65136" lon="3.306">
        <ele>1088.4000244141</ele>
        <time>2019-05-25T12:02:28Z</time>
      </trkpt>
      <trkpt lat="44.65133" lon="3.30595">
        <ele>1088.1999511719</ele>
        <time>2019-05-25T12:02:29Z</time>
      </trkpt>
      <trkpt lat="44.65127" lon="3.30586">
        <ele>1087.5999755859</ele>
        <time>2019-05-25T12:02:31Z</time>
      </trkpt>
      <trkpt lat="44.65125" lon="3.3058">
        <ele>1087.4000244141</ele>
        <time>2019-05-25T12:02:32Z</time>
      </trkpt>
      <trkpt lat="44.65105" lon="3.30547">
        <ele>1086</ele>
        <time>2019-05-25T12:02:38Z</time>
      </trkpt>
      <trkpt lat="44.65094" lon="3.30528">
        <ele>1085.4000244141</ele>
        <time>2019-05-25T12:02:41Z</time>
      </trkpt>
      <trkpt lat="44.65084" lon="3.30515">
        <ele>1085</ele>
        <time>2019-05-25T12:02:43Z</time>
      </trkpt>
      <trkpt lat="44.65058" lon="3.30485">
        <ele>1083.8000488281</ele>
        <time>2019-05-25T12:02:48Z</time>
      </trkpt>
      <trkpt lat="44.65025" lon="3.30458">
        <ele>1082.4000244141</ele>
        <time>2019-05-25T12:02:53Z</time>
      </trkpt>
      <trkpt lat="44.65011" lon="3.30447">
        <ele>1081.8000488281</ele>
        <time>2019-05-25T12:02:55Z</time>
      </trkpt>
      <trkpt lat="44.64998" lon="3.30435">
        <ele>1081.1999511719</ele>
        <time>2019-05-25T12:02:57Z</time>
      </trkpt>
      <trkpt lat="44.64981" lon="3.30418">
        <ele>1080.4000244141</ele>
        <time>2019-05-25T12:03:00Z</time>
      </trkpt>
      <trkpt lat="44.64975" lon="3.30414">
        <ele>1080.1999511719</ele>
        <time>2019-05-25T12:03:01Z</time>
      </trkpt>
      <trkpt lat="44.64961" lon="3.30407">
        <ele>1079.4000244141</ele>
        <time>2019-05-25T12:03:03Z</time>
      </trkpt>
      <trkpt lat="44.64953" lon="3.30405">
        <ele>1079</ele>
        <time>2019-05-25T12:03:04Z</time>
      </trkpt>
      <trkpt lat="44.64936" lon="3.304">
        <ele>1078</ele>
        <time>2019-05-25T12:03:06Z</time>
      </trkpt>
      <trkpt lat="44.6492" lon="3.30389">
        <ele>1077</ele>
        <time>2019-05-25T12:03:08Z</time>
      </trkpt>
      <trkpt lat="44.6489" lon="3.30361">
        <ele>1075.5999755859</ele>
        <time>2019-05-25T12:03:12Z</time>
      </trkpt>
      <trkpt lat="44.64883" lon="3.30358">
        <ele>1075.1999511719</ele>
        <time>2019-05-25T12:03:13Z</time>
      </trkpt>
      <trkpt lat="44.64874" lon="3.30358">
        <ele>1075</ele>
        <time>2019-05-25T12:03:14Z</time>
      </trkpt>
      <trkpt lat="44.64859" lon="3.30362">
        <ele>1074.1999511719</ele>
        <time>2019-05-25T12:03:16Z</time>
      </trkpt>
      <trkpt lat="44.64847" lon="3.30357">
        <ele>1073.4000244141</ele>
        <time>2019-05-25T12:03:18Z</time>
      </trkpt>
      <trkpt lat="44.64842" lon="3.3035">
        <ele>1073</ele>
        <time>2019-05-25T12:03:19Z</time>
      </trkpt>
      <trkpt lat="44.64838" lon="3.30343">
        <ele>1072.8000488281</ele>
        <time>2019-05-25T12:03:20Z</time>
      </trkpt>
      <trkpt lat="44.6483" lon="3.3033">
        <ele>1072</ele>
        <time>2019-05-25T12:03:22Z</time>
      </trkpt>
      <trkpt lat="44.64819" lon="3.30322">
        <ele>1070.8000488281</ele>
        <time>2019-05-25T12:03:25Z</time>
      </trkpt>
      <trkpt lat="44.64818" lon="3.30322">
        <ele>1070.5999755859</ele>
        <time>2019-05-25T12:03:26Z</time>
      </trkpt>
      <trkpt lat="44.64814" lon="3.30325">
        <ele>1069.8000488281</ele>
        <time>2019-05-25T12:03:28Z</time>
      </trkpt>
      <trkpt lat="44.64811" lon="3.30326">
        <ele>1069.4000244141</ele>
        <time>2019-05-25T12:03:29Z</time>
      </trkpt>
      <trkpt lat="44.64798" lon="3.30329">
        <ele>1067.8000488281</ele>
        <time>2019-05-25T12:03:33Z</time>
      </trkpt>
      <trkpt lat="44.64785" lon="3.30336">
        <ele>1066</ele>
        <time>2019-05-25T12:03:37Z</time>
      </trkpt>
      <trkpt lat="44.64781" lon="3.3034">
        <ele>1064.5999755859</ele>
        <time>2019-05-25T12:03:40Z</time>
      </trkpt>
      <trkpt lat="44.64784" lon="3.30346">
        <ele>1063</ele>
        <time>2019-05-25T12:03:44Z</time>
      </trkpt>
      <trkpt lat="44.64787" lon="3.3035">
        <ele>1062.4000244141</ele>
        <time>2019-05-25T12:03:46Z</time>
      </trkpt>
      <trkpt lat="44.6479" lon="3.3035">
        <ele>1061.8000488281</ele>
        <time>2019-05-25T12:03:48Z</time>
      </trkpt>
      <trkpt lat="44.64792" lon="3.30352">
        <ele>1061</ele>
        <time>2019-05-25T12:03:50Z</time>
      </trkpt>
      <trkpt lat="44.64794" lon="3.30355">
        <ele>1060.4000244141</ele>
        <time>2019-05-25T12:03:52Z</time>
      </trkpt>
      <trkpt lat="44.64795" lon="3.30358">
        <ele>1060</ele>
        <time>2019-05-25T12:03:53Z</time>
      </trkpt>
      <trkpt lat="44.64795" lon="3.30361">
        <ele>1059.5999755859</ele>
        <time>2019-05-25T12:03:54Z</time>
      </trkpt>
      <trkpt lat="44.6479" lon="3.30364">
        <ele>1058.5999755859</ele>
        <time>2019-05-25T12:03:57Z</time>
      </trkpt>
      <trkpt lat="44.64786" lon="3.30363">
        <ele>1057.8000488281</ele>
        <time>2019-05-25T12:03:59Z</time>
      </trkpt>
      <trkpt lat="44.64783" lon="3.30366">
        <ele>1057.1999511719</ele>
        <time>2019-05-25T12:04:01Z</time>
      </trkpt>
      <trkpt lat="44.64781" lon="3.30366">
        <ele>1056.8000488281</ele>
        <time>2019-05-25T12:04:02Z</time>
      </trkpt>
      <trkpt lat="44.64773" lon="3.30364">
        <ele>1055.8000488281</ele>
        <time>2019-05-25T12:04:05Z</time>
      </trkpt>
      <trkpt lat="44.64773" lon="3.30363">
        <ele>1055.1999511719</ele>
        <time>2019-05-25T12:04:07Z</time>
      </trkpt>
      <trkpt lat="44.64769" lon="3.30367">
        <ele>1054.4000244141</ele>
        <time>2019-05-25T12:04:09Z</time>
      </trkpt>
      <trkpt lat="44.64767" lon="3.30371">
        <ele>1053.8000488281</ele>
        <time>2019-05-25T12:04:11Z</time>
      </trkpt>
      <trkpt lat="44.64764" lon="3.30376">
        <ele>1053</ele>
        <time>2019-05-25T12:04:13Z</time>
      </trkpt>
      <trkpt lat="44.64761" lon="3.30378">
        <ele>1052.8000488281</ele>
        <time>2019-05-25T12:04:14Z</time>
      </trkpt>
      <trkpt lat="44.64745" lon="3.30361">
        <ele>1048.5999755859</ele>
        <time>2019-05-25T12:04:44Z</time>
      </trkpt>
      <trkpt lat="44.64745" lon="3.3036">
        <ele>1048.4000244141</ele>
        <time>2019-05-25T12:04:45Z</time>
      </trkpt>
      <trkpt lat="44.64743" lon="3.3036">
        <ele>1048.4000244141</ele>
        <time>2019-05-25T12:04:46Z</time>
      </trkpt>
      <trkpt lat="44.64734" lon="3.30358">
        <ele>1048.1999511719</ele>
        <time>2019-05-25T12:04:49Z</time>
      </trkpt>
      <trkpt lat="44.64731" lon="3.30356">
        <ele>1048.1999511719</ele>
        <time>2019-05-25T12:04:51Z</time>
      </trkpt>
      <trkpt lat="44.64728" lon="3.30353">
        <ele>1048</ele>
        <time>2019-05-25T12:04:53Z</time>
      </trkpt>
      <trkpt lat="44.64727" lon="3.30352">
        <ele>1048</ele>
        <time>2019-05-25T12:04:54Z</time>
      </trkpt>
      <trkpt lat="44.64726" lon="3.3035">
        <ele>1048</ele>
        <time>2019-05-25T12:04:55Z</time>
      </trkpt>
      <trkpt lat="44.64721" lon="3.30342">
        <ele>1047.5999755859</ele>
        <time>2019-05-25T12:04:59Z</time>
      </trkpt>
      <trkpt lat="44.64719" lon="3.3034">
        <ele>1047.4000244141</ele>
        <time>2019-05-25T12:05:01Z</time>
      </trkpt>
      <trkpt lat="44.64713" lon="3.30344">
        <ele>1047</ele>
        <time>2019-05-25T12:05:05Z</time>
      </trkpt>
      <trkpt lat="44.64711" lon="3.30345">
        <ele>1046.8000488281</ele>
        <time>2019-05-25T12:05:07Z</time>
      </trkpt>
      <trkpt lat="44.64685" lon="3.30538">
        <ele>1064.1999511719</ele>
        <time>2019-05-25T12:09:20Z</time>
      </trkpt>
      <trkpt lat="44.64691" lon="3.30556">
        <ele>1065.4000244141</ele>
        <time>2019-05-25T12:09:26Z</time>
      </trkpt>
      <trkpt lat="44.64699" lon="3.30572">
        <ele>1066.5999755859</ele>
        <time>2019-05-25T12:09:31Z</time>
      </trkpt>
      <trkpt lat="44.64709" lon="3.30586">
        <ele>1067.5999755859</ele>
        <time>2019-05-25T12:09:36Z</time>
      </trkpt>
      <trkpt lat="44.64717" lon="3.30596">
        <ele>1068.4000244141</ele>
        <time>2019-05-25T12:09:40Z</time>
      </trkpt>
      <trkpt lat="44.64726" lon="3.30609">
        <ele>1069</ele>
        <time>2019-05-25T12:09:44Z</time>
      </trkpt>
      <trkpt lat="44.64726" lon="3.30613">
        <ele>1069.1999511719</ele>
        <time>2019-05-25T12:09:45Z</time>
      </trkpt>
      <trkpt lat="44.64725" lon="3.30616">
        <ele>1069.5999755859</ele>
        <time>2019-05-25T12:09:46Z</time>
      </trkpt>
      <trkpt lat="44.6472" lon="3.30617">
        <ele>1069.8000488281</ele>
        <time>2019-05-25T12:09:48Z</time>
      </trkpt>
      <trkpt lat="44.6471" lon="3.30612">
        <ele>1070.4000244141</ele>
        <time>2019-05-25T12:09:51Z</time>
      </trkpt>
      <trkpt lat="44.64705" lon="3.30611">
        <ele>1070.4000244141</ele>
        <time>2019-05-25T12:09:52Z</time>
      </trkpt>
      <trkpt lat="44.64685" lon="3.3061">
        <ele>1071.1999511719</ele>
        <time>2019-05-25T12:09:57Z</time>
      </trkpt>
      <trkpt lat="44.64681" lon="3.30612">
        <ele>1071.1999511719</ele>
        <time>2019-05-25T12:09:58Z</time>
      </trkpt>
      <trkpt lat="44.64674" lon="3.3062">
        <ele>1071.1999511719</ele>
        <time>2019-05-25T12:10:00Z</time>
      </trkpt>
      <trkpt lat="44.64664" lon="3.30638">
        <ele>1071.4000244141</ele>
        <time>2019-05-25T12:10:04Z</time>
      </trkpt>
      <trkpt lat="44.64663" lon="3.30642">
        <ele>1071.4000244141</ele>
        <time>2019-05-25T12:10:06Z</time>
      </trkpt>
      <trkpt lat="44.64661" lon="3.30646">
        <ele>1071.4000244141</ele>
        <time>2019-05-25T12:10:08Z</time>
      </trkpt>
      <trkpt lat="44.64653" lon="3.30659">
        <ele>1071.4000244141</ele>
        <time>2019-05-25T12:10:14Z</time>
      </trkpt>
      <trkpt lat="44.64641" lon="3.3071">
        <ele>1070.4000244141</ele>
        <time>2019-05-25T12:10:41Z</time>
      </trkpt>
      <trkpt lat="44.64641" lon="3.30716">
        <ele>1070.4000244141</ele>
        <time>2019-05-25T12:10:44Z</time>
      </trkpt>
      <trkpt lat="44.64641" lon="3.30729">
        <ele>1070.5999755859</ele>
        <time>2019-05-25T12:10:50Z</time>
      </trkpt>
      <trkpt lat="44.64643" lon="3.30742">
        <ele>1070.4000244141</ele>
        <time>2019-05-25T12:10:56Z</time>
      </trkpt>
      <trkpt lat="44.64644" lon="3.30745">
        <ele>1070.4000244141</ele>
        <time>2019-05-25T12:10:58Z</time>
      </trkpt>
      <trkpt lat="44.64644" lon="3.30749">
        <ele>1070.4000244141</ele>
        <time>2019-05-25T12:11:00Z</time>
      </trkpt>
      <trkpt lat="44.64645" lon="3.30751">
        <ele>1070.4000244141</ele>
        <time>2019-05-25T12:11:01Z</time>
      </trkpt>
      <trkpt lat="44.64644" lon="3.30768">
        <ele>1071</ele>
        <time>2019-05-25T12:11:08Z</time>
      </trkpt>
      <trkpt lat="44.64644" lon="3.3077">
        <ele>1070.8000488281</ele>
        <time>2019-05-25T12:11:09Z</time>
      </trkpt>
      <trkpt lat="44.64644" lon="3.30779">
        <ele>1071</ele>
        <time>2019-05-25T12:11:13Z</time>
      </trkpt>
      <trkpt lat="44.64641" lon="3.30792">
        <ele>1071.1999511719</ele>
        <time>2019-05-25T12:11:20Z</time>
      </trkpt>
      <trkpt lat="44.64635" lon="3.30808">
        <ele>1071.5999755859</ele>
        <time>2019-05-25T12:11:27Z</time>
      </trkpt>
      <trkpt lat="44.64628" lon="3.30821">
        <ele>1071.5999755859</ele>
        <time>2019-05-25T12:11:34Z</time>
      </trkpt>
      <trkpt lat="44.64626" lon="3.30824">
        <ele>1071.8000488281</ele>
        <time>2019-05-25T12:11:36Z</time>
      </trkpt>
      <trkpt lat="44.64623" lon="3.30832">
        <ele>1071.8000488281</ele>
        <time>2019-05-25T12:11:40Z</time>
      </trkpt>
      <trkpt lat="44.64616" lon="3.30846">
        <ele>1072.5999755859</ele>
        <time>2019-05-25T12:11:48Z</time>
      </trkpt>
      <trkpt lat="44.6461" lon="3.30858">
        <ele>1073.4000244141</ele>
        <time>2019-05-25T12:11:55Z</time>
      </trkpt>
      <trkpt lat="44.64605" lon="3.30867">
        <ele>1074</ele>
        <time>2019-05-25T12:12:02Z</time>
      </trkpt>
      <trkpt lat="44.64604" lon="3.30867">
        <ele>1074</ele>
        <time>2019-05-25T12:12:03Z</time>
      </trkpt>
      <trkpt lat="44.646" lon="3.3087">
        <ele>1074.1999511719</ele>
        <time>2019-05-25T12:12:06Z</time>
      </trkpt>
      <trkpt lat="44.646" lon="3.3087">
        <ele>1074.4000244141</ele>
        <time>2019-05-25T12:12:07Z</time>
      </trkpt>
      <trkpt lat="44.64594" lon="3.30882">
        <ele>1075</ele>
        <time>2019-05-25T12:12:13Z</time>
      </trkpt>
      <trkpt lat="44.64591" lon="3.30885">
        <ele>1075</ele>
        <time>2019-05-25T12:12:15Z</time>
      </trkpt>
      <trkpt lat="44.64588" lon="3.30889">
        <ele>1075.5999755859</ele>
        <time>2019-05-25T12:12:18Z</time>
      </trkpt>
      <trkpt lat="44.64587" lon="3.3089">
        <ele>1075.8000488281</ele>
        <time>2019-05-25T12:12:19Z</time>
      </trkpt>
      <trkpt lat="44.6457" lon="3.30899">
        <ele>1077.1999511719</ele>
        <time>2019-05-25T12:12:32Z</time>
      </trkpt>
      <trkpt lat="44.64569" lon="3.309">
        <ele>1077.4000244141</ele>
        <time>2019-05-25T12:12:33Z</time>
      </trkpt>
      <trkpt lat="44.6456" lon="3.30905">
        <ele>1077.8000488281</ele>
        <time>2019-05-25T12:12:39Z</time>
      </trkpt>
      <trkpt lat="44.64553" lon="3.30913">
        <ele>1078</ele>
        <time>2019-05-25T12:12:44Z</time>
      </trkpt>
      <trkpt lat="44.64552" lon="3.30916">
        <ele>1078.1999511719</ele>
        <time>2019-05-25T12:12:45Z</time>
      </trkpt>
      <trkpt lat="44.6455" lon="3.30921">
        <ele>1078.4000244141</ele>
        <time>2019-05-25T12:12:47Z</time>
      </trkpt>
      <trkpt lat="44.6455" lon="3.30927">
        <ele>1078.5999755859</ele>
        <time>2019-05-25T12:12:50Z</time>
      </trkpt>
      <trkpt lat="44.64554" lon="3.3094">
        <ele>1079.1999511719</ele>
        <time>2019-05-25T12:12:56Z</time>
      </trkpt>
      <trkpt lat="44.64558" lon="3.30953">
        <ele>1079.5999755859</ele>
        <time>2019-05-25T12:13:02Z</time>
      </trkpt>
      <trkpt lat="44.64563" lon="3.3097">
        <ele>1080</ele>
        <time>2019-05-25T12:13:07Z</time>
      </trkpt>
      <trkpt lat="44.64564" lon="3.30992">
        <ele>1080.4000244141</ele>
        <time>2019-05-25T12:13:12Z</time>
      </trkpt>
      <trkpt lat="44.64566" lon="3.31034">
        <ele>1080.4000244141</ele>
        <time>2019-05-25T12:13:18Z</time>
      </trkpt>
      <trkpt lat="44.64568" lon="3.31079">
        <ele>1080.4000244141</ele>
        <time>2019-05-25T12:13:24Z</time>
      </trkpt>
      <trkpt lat="44.64567" lon="3.31127">
        <ele>1080.1999511719</ele>
        <time>2019-05-25T12:13:30Z</time>
      </trkpt>
      <trkpt lat="44.64568" lon="3.31156">
        <ele>1080</ele>
        <time>2019-05-25T12:13:35Z</time>
      </trkpt>
      <trkpt lat="44.64567" lon="3.31173">
        <ele>1080</ele>
        <time>2019-05-25T12:13:40Z</time>
      </trkpt>
      <trkpt lat="44.64565" lon="3.31188">
        <ele>1079.8000488281</ele>
        <time>2019-05-25T12:13:48Z</time>
      </trkpt>
      <trkpt lat="44.64551" lon="3.31219">
        <ele>1080.4000244141</ele>
        <time>2019-05-25T12:14:11Z</time>
      </trkpt>
      <trkpt lat="44.64543" lon="3.31231">
        <ele>1080.8000488281</ele>
        <time>2019-05-25T12:14:19Z</time>
      </trkpt>
      <trkpt lat="44.64531" lon="3.31245">
        <ele>1081.1999511719</ele>
        <time>2019-05-25T12:14:27Z</time>
      </trkpt>
      <trkpt lat="44.64518" lon="3.31267">
        <ele>1082</ele>
        <time>2019-05-25T12:14:35Z</time>
      </trkpt>
      <trkpt lat="44.64509" lon="3.31288">
        <ele>1082.4000244141</ele>
        <time>2019-05-25T12:14:41Z</time>
      </trkpt>
      <trkpt lat="44.6451" lon="3.31306">
        <ele>1083</ele>
        <time>2019-05-25T12:14:47Z</time>
      </trkpt>
      <trkpt lat="44.6452" lon="3.31328">
        <ele>1084.1999511719</ele>
        <time>2019-05-25T12:14:56Z</time>
      </trkpt>
      <trkpt lat="44.64529" lon="3.31338">
        <ele>1084.5999755859</ele>
        <time>2019-05-25T12:15:01Z</time>
      </trkpt>
      <trkpt lat="44.64531" lon="3.31341">
        <ele>1084.8000488281</ele>
        <time>2019-05-25T12:15:02Z</time>
      </trkpt>
      <trkpt lat="44.6453" lon="3.31347">
        <ele>1085</ele>
        <time>2019-05-25T12:15:04Z</time>
      </trkpt>
      <trkpt lat="44.64521" lon="3.31362">
        <ele>1085.8000488281</ele>
        <time>2019-05-25T12:15:11Z</time>
      </trkpt>
      <trkpt lat="44.64513" lon="3.31381">
        <ele>1087</ele>
        <time>2019-05-25T12:15:19Z</time>
      </trkpt>
      <trkpt lat="44.6451" lon="3.31394">
        <ele>1087.1999511719</ele>
        <time>2019-05-25T12:15:25Z</time>
      </trkpt>
      <trkpt lat="44.64509" lon="3.31398">
        <ele>1087.4000244141</ele>
        <time>2019-05-25T12:15:27Z</time>
      </trkpt>
      <trkpt lat="44.6451" lon="3.31408">
        <ele>1087.4000244141</ele>
        <time>2019-05-25T12:15:31Z</time>
      </trkpt>
      <trkpt lat="44.64516" lon="3.31423">
        <ele>1088.1999511719</ele>
        <time>2019-05-25T12:15:37Z</time>
      </trkpt>
      <trkpt lat="44.64519" lon="3.31438">
        <ele>1089</ele>
        <time>2019-05-25T12:15:42Z</time>
      </trkpt>
      <trkpt lat="44.64521" lon="3.31455">
        <ele>1089.8000488281</ele>
        <time>2019-05-25T12:15:47Z</time>
      </trkpt>
      <trkpt lat="44.6452" lon="3.31467">
        <ele>1090.5999755859</ele>
        <time>2019-05-25T12:15:51Z</time>
      </trkpt>
      <trkpt lat="44.6452" lon="3.31485">
        <ele>1091.1999511719</ele>
        <time>2019-05-25T12:15:55Z</time>
      </trkpt>
      <trkpt lat="44.64518" lon="3.31509">
        <ele>1091.8000488281</ele>
        <time>2019-05-25T12:16:00Z</time>
      </trkpt>
      <trkpt lat="44.64517" lon="3.31533">
        <ele>1092.5999755859</ele>
        <time>2019-05-25T12:16:05Z</time>
      </trkpt>
      <trkpt lat="44.6451" lon="3.31564">
        <ele>1093.1999511719</ele>
        <time>2019-05-25T12:16:12Z</time>
      </trkpt>
      <trkpt lat="44.64499" lon="3.31591">
        <ele>1094.1999511719</ele>
        <time>2019-05-25T12:16:19Z</time>
      </trkpt>
      <trkpt lat="44.64497" lon="3.31602">
        <ele>1094.5999755859</ele>
        <time>2019-05-25T12:16:22Z</time>
      </trkpt>
      <trkpt lat="44.64499" lon="3.31605">
        <ele>1094.8000488281</ele>
        <time>2019-05-25T12:16:23Z</time>
      </trkpt>
      <trkpt lat="44.64515" lon="3.31624">
        <ele>1095.1999511719</ele>
        <time>2019-05-25T12:16:29Z</time>
      </trkpt>
      <trkpt lat="44.64533" lon="3.31652">
        <ele>1096</ele>
        <time>2019-05-25T12:16:35Z</time>
      </trkpt>
      <trkpt lat="44.64554" lon="3.31688">
        <ele>1096.4000244141</ele>
        <time>2019-05-25T12:16:42Z</time>
      </trkpt>
      <trkpt lat="44.64561" lon="3.31697">
        <ele>1096.5999755859</ele>
        <time>2019-05-25T12:16:44Z</time>
      </trkpt>
      <trkpt lat="44.64572" lon="3.31709">
        <ele>1096.8000488281</ele>
        <time>2019-05-25T12:16:47Z</time>
      </trkpt>
      <trkpt lat="44.64598" lon="3.31734">
        <ele>1097</ele>
        <time>2019-05-25T12:16:54Z</time>
      </trkpt>
      <trkpt lat="44.64606" lon="3.3174">
        <ele>1097</ele>
        <time>2019-05-25T12:16:56Z</time>
      </trkpt>
      <trkpt lat="44.64618" lon="3.31752">
        <ele>1097</ele>
        <time>2019-05-25T12:16:59Z</time>
      </trkpt>
      <trkpt lat="44.64631" lon="3.31765">
        <ele>1097</ele>
        <time>2019-05-25T12:17:02Z</time>
      </trkpt>
      <trkpt lat="44.6464" lon="3.3177">
        <ele>1097</ele>
        <time>2019-05-25T12:17:04Z</time>
      </trkpt>
      <trkpt lat="44.64654" lon="3.31773">
        <ele>1097</ele>
        <time>2019-05-25T12:17:07Z</time>
      </trkpt>
      <trkpt lat="44.64658" lon="3.31775">
        <ele>1097</ele>
        <time>2019-05-25T12:17:08Z</time>
      </trkpt>
      <trkpt lat="44.6467" lon="3.31778">
        <ele>1097.1999511719</ele>
        <time>2019-05-25T12:17:10Z</time>
      </trkpt>
      <trkpt lat="44.64681" lon="3.31787">
        <ele>1097.1999511719</ele>
        <time>2019-05-25T12:17:12Z</time>
      </trkpt>
      <trkpt lat="44.64686" lon="3.31791">
        <ele>1097.1999511719</ele>
        <time>2019-05-25T12:17:13Z</time>
      </trkpt>
      <trkpt lat="44.64711" lon="3.31807">
        <ele>1097</ele>
        <time>2019-05-25T12:17:17Z</time>
      </trkpt>
      <trkpt lat="44.64717" lon="3.31813">
        <ele>1097</ele>
        <time>2019-05-25T12:17:18Z</time>
      </trkpt>
      <trkpt lat="44.64724" lon="3.31818">
        <ele>1096.8000488281</ele>
        <time>2019-05-25T12:17:19Z</time>
      </trkpt>
      <trkpt lat="44.64746" lon="3.31829">
        <ele>1096.8000488281</ele>
        <time>2019-05-25T12:17:22Z</time>
      </trkpt>
      <trkpt lat="44.64775" lon="3.31839">
        <ele>1096.8000488281</ele>
        <time>2019-05-25T12:17:26Z</time>
      </trkpt>
      <trkpt lat="44.64783" lon="3.31844">
        <ele>1096.8000488281</ele>
        <time>2019-05-25T12:17:27Z</time>
      </trkpt>
      <trkpt lat="44.64797" lon="3.31852">
        <ele>1096.8000488281</ele>
        <time>2019-05-25T12:17:29Z</time>
      </trkpt>
      <trkpt lat="44.64813" lon="3.31855">
        <ele>1096.5999755859</ele>
        <time>2019-05-25T12:17:31Z</time>
      </trkpt>
      <trkpt lat="44.64822" lon="3.31856">
        <ele>1096.4000244141</ele>
        <time>2019-05-25T12:17:32Z</time>
      </trkpt>
      <trkpt lat="44.64848" lon="3.31854">
        <ele>1096</ele>
        <time>2019-05-25T12:17:35Z</time>
      </trkpt>
      <trkpt lat="44.64866" lon="3.31859">
        <ele>1096</ele>
        <time>2019-05-25T12:17:37Z</time>
      </trkpt>
      <trkpt lat="44.64876" lon="3.31863">
        <ele>1095.8000488281</ele>
        <time>2019-05-25T12:17:38Z</time>
      </trkpt>
      <trkpt lat="44.64909" lon="3.3188">
        <ele>1095.1999511719</ele>
        <time>2019-05-25T12:17:42Z</time>
      </trkpt>
      <trkpt lat="44.64927" lon="3.31882">
        <ele>1094.4000244141</ele>
        <time>2019-05-25T12:17:45Z</time>
      </trkpt>
      <trkpt lat="44.64943" lon="3.31882">
        <ele>1093.8000488281</ele>
        <time>2019-05-25T12:17:47Z</time>
      </trkpt>
      <trkpt lat="44.64952" lon="3.31883">
        <ele>1093.5999755859</ele>
        <time>2019-05-25T12:17:48Z</time>
      </trkpt>
      <trkpt lat="44.64969" lon="3.31889">
        <ele>1093.1999511719</ele>
        <time>2019-05-25T12:17:50Z</time>
      </trkpt>
      <trkpt lat="44.64985" lon="3.31891">
        <ele>1092.8000488281</ele>
        <time>2019-05-25T12:17:52Z</time>
      </trkpt>
      <trkpt lat="44.65001" lon="3.31889">
        <ele>1092.5999755859</ele>
        <time>2019-05-25T12:17:54Z</time>
      </trkpt>
      <trkpt lat="44.65017" lon="3.31891">
        <ele>1092.4000244141</ele>
        <time>2019-05-25T12:17:56Z</time>
      </trkpt>
      <trkpt lat="44.65033" lon="3.31894">
        <ele>1092.1999511719</ele>
        <time>2019-05-25T12:17:58Z</time>
      </trkpt>
      <trkpt lat="44.65041" lon="3.31894">
        <ele>1092</ele>
        <time>2019-05-25T12:17:59Z</time>
      </trkpt>
      <trkpt lat="44.65047" lon="3.31894">
        <ele>1092</ele>
        <time>2019-05-25T12:18:00Z</time>
      </trkpt>
      <trkpt lat="44.6506" lon="3.31893">
        <ele>1091.8000488281</ele>
        <time>2019-05-25T12:18:02Z</time>
      </trkpt>
      <trkpt lat="44.65066" lon="3.3189">
        <ele>1091.8000488281</ele>
        <time>2019-05-25T12:18:03Z</time>
      </trkpt>
      <trkpt lat="44.65071" lon="3.31886">
        <ele>1091.8000488281</ele>
        <time>2019-05-25T12:18:04Z</time>
      </trkpt>
      <trkpt lat="44.65078" lon="3.31878">
        <ele>1091.5999755859</ele>
        <time>2019-05-25T12:18:06Z</time>
      </trkpt>
      <trkpt lat="44.65093" lon="3.31862">
        <ele>1091.4000244141</ele>
        <time>2019-05-25T12:18:10Z</time>
      </trkpt>
      <trkpt lat="44.6511" lon="3.31854">
        <ele>1091.4000244141</ele>
        <time>2019-05-25T12:18:14Z</time>
      </trkpt>
      <trkpt lat="44.65123" lon="3.31858">
        <ele>1091.4000244141</ele>
        <time>2019-05-25T12:18:17Z</time>
      </trkpt>
      <trkpt lat="44.65127" lon="3.3186">
        <ele>1091.4000244141</ele>
        <time>2019-05-25T12:18:18Z</time>
      </trkpt>
      <trkpt lat="44.65134" lon="3.3187">
        <ele>1091.5999755859</ele>
        <time>2019-05-25T12:18:20Z</time>
      </trkpt>
      <trkpt lat="44.65153" lon="3.31888">
        <ele>1092.1999511719</ele>
        <time>2019-05-25T12:18:25Z</time>
      </trkpt>
      <trkpt lat="44.65166" lon="3.31898">
        <ele>1092.5999755859</ele>
        <time>2019-05-25T12:18:29Z</time>
      </trkpt>
      <trkpt lat="44.65176" lon="3.31906">
        <ele>1092.8000488281</ele>
        <time>2019-05-25T12:18:33Z</time>
      </trkpt>
      <trkpt lat="44.65184" lon="3.31911">
        <ele>1093</ele>
        <time>2019-05-25T12:18:36Z</time>
      </trkpt>
      <trkpt lat="44.65186" lon="3.31917">
        <ele>1093.1999511719</ele>
        <time>2019-05-25T12:18:38Z</time>
      </trkpt>
      <trkpt lat="44.65189" lon="3.31931">
        <ele>1093.5999755859</ele>
        <time>2019-05-25T12:18:43Z</time>
      </trkpt>
      <trkpt lat="44.65189" lon="3.31935">
        <ele>1093.8000488281</ele>
        <time>2019-05-25T12:18:45Z</time>
      </trkpt>
      <trkpt lat="44.65191" lon="3.31943">
        <ele>1094.4000244141</ele>
        <time>2019-05-25T12:18:48Z</time>
      </trkpt>
      <trkpt lat="44.65195" lon="3.31958">
        <ele>1095.8000488281</ele>
        <time>2019-05-25T12:18:54Z</time>
      </trkpt>
      <trkpt lat="44.65201" lon="3.31974">
        <ele>1097</ele>
        <time>2019-05-25T12:19:02Z</time>
      </trkpt>
      <trkpt lat="44.65209" lon="3.31987">
        <ele>1098</ele>
        <time>2019-05-25T12:19:09Z</time>
      </trkpt>
      <trkpt lat="44.65216" lon="3.31998">
        <ele>1098.8000488281</ele>
        <time>2019-05-25T12:19:15Z</time>
      </trkpt>
      <trkpt lat="44.65225" lon="3.32008">
        <ele>1099.5999755859</ele>
        <time>2019-05-25T12:19:21Z</time>
      </trkpt>
      <trkpt lat="44.65234" lon="3.32016">
        <ele>1100.1999511719</ele>
        <time>2019-05-25T12:19:27Z</time>
      </trkpt>
      <trkpt lat="44.65242" lon="3.32021">
        <ele>1100.8000488281</ele>
        <time>2019-05-25T12:19:33Z</time>
      </trkpt>
      <trkpt lat="44.65255" lon="3.32029">
        <ele>1102</ele>
        <time>2019-05-25T12:19:41Z</time>
      </trkpt>
      <trkpt lat="44.65268" lon="3.32037">
        <ele>1102.5999755859</ele>
        <time>2019-05-25T12:19:49Z</time>
      </trkpt>
      <trkpt lat="44.65279" lon="3.32047">
        <ele>1100.5999755859</ele>
        <time>2019-05-25T12:19:58Z</time>
      </trkpt>
      <trkpt lat="44.65288" lon="3.32055">
        <ele>1097.4000244141</ele>
        <time>2019-05-25T12:20:03Z</time>
      </trkpt>
      <trkpt lat="44.6529" lon="3.32056">
        <ele>1097.1999511719</ele>
        <time>2019-05-25T12:20:04Z</time>
      </trkpt>
      <trkpt lat="44.65291" lon="3.3206">
        <ele>1096.4000244141</ele>
        <time>2019-05-25T12:20:06Z</time>
      </trkpt>
      <trkpt lat="44.65289" lon="3.32066">
        <ele>1095.8000488281</ele>
        <time>2019-05-25T12:20:08Z</time>
      </trkpt>
      <trkpt lat="44.65284" lon="3.32077">
        <ele>1094.8000488281</ele>
        <time>2019-05-25T12:20:12Z</time>
      </trkpt>
      <trkpt lat="44.65284" lon="3.32081">
        <ele>1094.5999755859</ele>
        <time>2019-05-25T12:20:13Z</time>
      </trkpt>
      <trkpt lat="44.65282" lon="3.32091">
        <ele>1094</ele>
        <time>2019-05-25T12:20:16Z</time>
      </trkpt>
      <trkpt lat="44.65283" lon="3.32095">
        <ele>1093.8000488281</ele>
        <time>2019-05-25T12:20:17Z</time>
      </trkpt>
      <trkpt lat="44.6528" lon="3.32114">
        <ele>1093</ele>
        <time>2019-05-25T12:20:22Z</time>
      </trkpt>
      <trkpt lat="44.65269" lon="3.3213">
        <ele>1092</ele>
        <time>2019-05-25T12:20:27Z</time>
      </trkpt>
      <trkpt lat="44.65262" lon="3.32152">
        <ele>1090.5999755859</ele>
        <time>2019-05-25T12:20:32Z</time>
      </trkpt>
      <trkpt lat="44.6525" lon="3.32171">
        <ele>1089.1999511719</ele>
        <time>2019-05-25T12:20:37Z</time>
      </trkpt>
      <trkpt lat="44.65241" lon="3.32193">
        <ele>1088.1999511719</ele>
        <time>2019-05-25T12:20:42Z</time>
      </trkpt>
      <trkpt lat="44.65231" lon="3.32214">
        <ele>1087.4000244141</ele>
        <time>2019-05-25T12:20:47Z</time>
      </trkpt>
      <trkpt lat="44.65229" lon="3.32219">
        <ele>1087.1999511719</ele>
        <time>2019-05-25T12:20:48Z</time>
      </trkpt>
      <trkpt lat="44.65226" lon="3.32227">
        <ele>1087</ele>
        <time>2019-05-25T12:20:50Z</time>
      </trkpt>
      <trkpt lat="44.65215" lon="3.3225">
        <ele>1086.5999755859</ele>
        <time>2019-05-25T12:20:55Z</time>
      </trkpt>
      <trkpt lat="44.65202" lon="3.32276">
        <ele>1086.1999511719</ele>
        <time>2019-05-25T12:21:01Z</time>
      </trkpt>
      <trkpt lat="44.65193" lon="3.32289">
        <ele>1086</ele>
        <time>2019-05-25T12:21:05Z</time>
      </trkpt>
      <trkpt lat="44.6518" lon="3.32307">
        <ele>1086</ele>
        <time>2019-05-25T12:21:10Z</time>
      </trkpt>
      <trkpt lat="44.65162" lon="3.32325">
        <ele>1085.1999511719</ele>
        <time>2019-05-25T12:21:16Z</time>
      </trkpt>
      <trkpt lat="44.65149" lon="3.32339">
        <ele>1084.5999755859</ele>
        <time>2019-05-25T12:21:21Z</time>
      </trkpt>
      <trkpt lat="44.65135" lon="3.32357">
        <ele>1083.8000488281</ele>
        <time>2019-05-25T12:21:27Z</time>
      </trkpt>
      <trkpt lat="44.65126" lon="3.3237">
        <ele>1083</ele>
        <time>2019-05-25T12:21:31Z</time>
      </trkpt>
      <trkpt lat="44.65116" lon="3.32387">
        <ele>1082.4000244141</ele>
        <time>2019-05-25T12:21:36Z</time>
      </trkpt>
      <trkpt lat="44.65104" lon="3.32403">
        <ele>1081.1999511719</ele>
        <time>2019-05-25T12:21:41Z</time>
      </trkpt>
      <trkpt lat="44.65093" lon="3.32417">
        <ele>1080</ele>
        <time>2019-05-25T12:21:46Z</time>
      </trkpt>
      <trkpt lat="44.65084" lon="3.3243">
        <ele>1078.8000488281</ele>
        <time>2019-05-25T12:21:50Z</time>
      </trkpt>
      <trkpt lat="44.65072" lon="3.3245">
        <ele>1076.8000488281</ele>
        <time>2019-05-25T12:21:56Z</time>
      </trkpt>
      <trkpt lat="44.6506" lon="3.32472">
        <ele>1075.5999755859</ele>
        <time>2019-05-25T12:22:01Z</time>
      </trkpt>
      <trkpt lat="44.6505" lon="3.32493">
        <ele>1074.8000488281</ele>
        <time>2019-05-25T12:22:06Z</time>
      </trkpt>
      <trkpt lat="44.65039" lon="3.32506">
        <ele>1075.1999511719</ele>
        <time>2019-05-25T12:22:10Z</time>
      </trkpt>
      <trkpt lat="44.65027" lon="3.32516">
        <ele>1075.8000488281</ele>
        <time>2019-05-25T12:22:14Z</time>
      </trkpt>
      <trkpt lat="44.65025" lon="3.32517">
        <ele>1076</ele>
        <time>2019-05-25T12:22:15Z</time>
      </trkpt>
      <trkpt lat="44.65021" lon="3.3252">
        <ele>1076.1999511719</ele>
        <time>2019-05-25T12:22:17Z</time>
      </trkpt>
      <trkpt lat="44.6502" lon="3.32521">
        <ele>1076.1999511719</ele>
        <time>2019-05-25T12:22:19Z</time>
      </trkpt>
      <trkpt lat="44.65018" lon="3.32537">
        <ele>1076</ele>
        <time>2019-05-25T12:24:52Z</time>
      </trkpt>
      <trkpt lat="44.65016" lon="3.32544">
        <ele>1076</ele>
        <time>2019-05-25T12:24:54Z</time>
      </trkpt>
      <trkpt lat="44.65013" lon="3.32551">
        <ele>1076.1999511719</ele>
        <time>2019-05-25T12:24:56Z</time>
      </trkpt>
      <trkpt lat="44.65009" lon="3.32558">
        <ele>1076.1999511719</ele>
        <time>2019-05-25T12:24:58Z</time>
      </trkpt>
      <trkpt lat="44.65011" lon="3.32586">
        <ele>1076.4000244141</ele>
        <time>2019-05-25T12:25:04Z</time>
      </trkpt>
      <trkpt lat="44.65017" lon="3.32602">
        <ele>1076.5999755859</ele>
        <time>2019-05-25T12:25:07Z</time>
      </trkpt>
      <trkpt lat="44.65023" lon="3.32618">
        <ele>1076.5999755859</ele>
        <time>2019-05-25T12:25:10Z</time>
      </trkpt>
      <trkpt lat="44.65034" lon="3.32654">
        <ele>1076.8000488281</ele>
        <time>2019-05-25T12:25:16Z</time>
      </trkpt>
      <trkpt lat="44.65049" lon="3.32692">
        <ele>1077.1999511719</ele>
        <time>2019-05-25T12:25:23Z</time>
      </trkpt>
      <trkpt lat="44.65066" lon="3.3272">
        <ele>1077.4000244141</ele>
        <time>2019-05-25T12:25:29Z</time>
      </trkpt>
      <trkpt lat="44.65082" lon="3.32744">
        <ele>1077.5999755859</ele>
        <time>2019-05-25T12:25:35Z</time>
      </trkpt>
      <trkpt lat="44.65102" lon="3.32768">
        <ele>1077.8000488281</ele>
        <time>2019-05-25T12:25:41Z</time>
      </trkpt>
      <trkpt lat="44.65109" lon="3.32775">
        <ele>1077.8000488281</ele>
        <time>2019-05-25T12:25:43Z</time>
      </trkpt>
      <trkpt lat="44.65123" lon="3.3279">
        <ele>1077.8000488281</ele>
        <time>2019-05-25T12:25:47Z</time>
      </trkpt>
      <trkpt lat="44.65127" lon="3.32794">
        <ele>1077.8000488281</ele>
        <time>2019-05-25T12:25:48Z</time>
      </trkpt>
      <trkpt lat="44.6514" lon="3.32815">
        <ele>1077.8000488281</ele>
        <time>2019-05-25T12:25:52Z</time>
      </trkpt>
      <trkpt lat="44.65143" lon="3.3282">
        <ele>1077.8000488281</ele>
        <time>2019-05-25T12:25:53Z</time>
      </trkpt>
      <trkpt lat="44.65161" lon="3.32851">
        <ele>1077.8000488281</ele>
        <time>2019-05-25T12:25:59Z</time>
      </trkpt>
      <trkpt lat="44.65163" lon="3.32857">
        <ele>1077.8000488281</ele>
        <time>2019-05-25T12:26:00Z</time>
      </trkpt>
      <trkpt lat="44.65166" lon="3.32869">
        <ele>1077.8000488281</ele>
        <time>2019-05-25T12:26:02Z</time>
      </trkpt>
      <trkpt lat="44.65167" lon="3.32875">
        <ele>1077.8000488281</ele>
        <time>2019-05-25T12:26:03Z</time>
      </trkpt>
      <trkpt lat="44.65171" lon="3.32892">
        <ele>1078</ele>
        <time>2019-05-25T12:26:06Z</time>
      </trkpt>
      <trkpt lat="44.65173" lon="3.32897">
        <ele>1078.1999511719</ele>
        <time>2019-05-25T12:26:07Z</time>
      </trkpt>
      <trkpt lat="44.65175" lon="3.32914">
        <ele>1078.5999755859</ele>
        <time>2019-05-25T12:26:10Z</time>
      </trkpt>
      <trkpt lat="44.65177" lon="3.32927">
        <ele>1079</ele>
        <time>2019-05-25T12:26:12Z</time>
      </trkpt>
      <trkpt lat="44.65179" lon="3.32939">
        <ele>1079.4000244141</ele>
        <time>2019-05-25T12:26:14Z</time>
      </trkpt>
      <trkpt lat="44.65183" lon="3.3295">
        <ele>1079.8000488281</ele>
        <time>2019-05-25T12:26:16Z</time>
      </trkpt>
      <trkpt lat="44.65194" lon="3.32967">
        <ele>1080.8000488281</ele>
        <time>2019-05-25T12:26:21Z</time>
      </trkpt>
      <trkpt lat="44.65203" lon="3.32981">
        <ele>1082</ele>
        <time>2019-05-25T12:26:26Z</time>
      </trkpt>
      <trkpt lat="44.65212" lon="3.32996">
        <ele>1083.5999755859</ele>
        <time>2019-05-25T12:26:32Z</time>
      </trkpt>
      <trkpt lat="44.65216" lon="3.33">
        <ele>1084</ele>
        <time>2019-05-25T12:26:34Z</time>
      </trkpt>
      <trkpt lat="44.65218" lon="3.33006">
        <ele>1084.4000244141</ele>
        <time>2019-05-25T12:26:36Z</time>
      </trkpt>
      <trkpt lat="44.6522" lon="3.33008">
        <ele>1084.8000488281</ele>
        <time>2019-05-25T12:26:37Z</time>
      </trkpt>
      <trkpt lat="44.65225" lon="3.33016">
        <ele>1085.5999755859</ele>
        <time>2019-05-25T12:26:41Z</time>
      </trkpt>
      <trkpt lat="44.65229" lon="3.33028">
        <ele>1087</ele>
        <time>2019-05-25T12:26:46Z</time>
      </trkpt>
      <trkpt lat="44.65231" lon="3.3303">
        <ele>1087.1999511719</ele>
        <time>2019-05-25T12:26:47Z</time>
      </trkpt>
      <trkpt lat="44.65235" lon="3.33035">
        <ele>1088</ele>
        <time>2019-05-25T12:26:50Z</time>
      </trkpt>
      <trkpt lat="44.65241" lon="3.33048">
        <ele>1089</ele>
        <time>2019-05-25T12:26:55Z</time>
      </trkpt>
      <trkpt lat="44.65243" lon="3.33053">
        <ele>1089.4000244141</ele>
        <time>2019-05-25T12:26:57Z</time>
      </trkpt>
      <trkpt lat="44.65244" lon="3.33059">
        <ele>1090</ele>
        <time>2019-05-25T12:26:59Z</time>
      </trkpt>
      <trkpt lat="44.65249" lon="3.3307">
        <ele>1091.1999511719</ele>
        <time>2019-05-25T12:27:04Z</time>
      </trkpt>
      <trkpt lat="44.65254" lon="3.33086">
        <ele>1092.4000244141</ele>
        <time>2019-05-25T12:27:09Z</time>
      </trkpt>
      <trkpt lat="44.65253" lon="3.33094">
        <ele>1092.8000488281</ele>
        <time>2019-05-25T12:27:11Z</time>
      </trkpt>
      <trkpt lat="44.65248" lon="3.33102">
        <ele>1093.1999511719</ele>
        <time>2019-05-25T12:27:13Z</time>
      </trkpt>
      <trkpt lat="44.65242" lon="3.33127">
        <ele>1094</ele>
        <time>2019-05-25T12:27:18Z</time>
      </trkpt>
      <trkpt lat="44.65237" lon="3.33141">
        <ele>1094.5999755859</ele>
        <time>2019-05-25T12:27:21Z</time>
      </trkpt>
      <trkpt lat="44.65228" lon="3.33159">
        <ele>1095.4000244141</ele>
        <time>2019-05-25T12:27:25Z</time>
      </trkpt>
      <trkpt lat="44.65225" lon="3.33165">
        <ele>1095.5999755859</ele>
        <time>2019-05-25T12:27:26Z</time>
      </trkpt>
      <trkpt lat="44.65221" lon="3.33175">
        <ele>1096.1999511719</ele>
        <time>2019-05-25T12:27:28Z</time>
      </trkpt>
      <trkpt lat="44.65212" lon="3.33196">
        <ele>1097</ele>
        <time>2019-05-25T12:27:32Z</time>
      </trkpt>
      <trkpt lat="44.65209" lon="3.33201">
        <ele>1097.4000244141</ele>
        <time>2019-05-25T12:27:33Z</time>
      </trkpt>
      <trkpt lat="44.65199" lon="3.33222">
        <ele>1098.1999511719</ele>
        <time>2019-05-25T12:27:37Z</time>
      </trkpt>
      <trkpt lat="44.6519" lon="3.33244">
        <ele>1099.4000244141</ele>
        <time>2019-05-25T12:27:41Z</time>
      </trkpt>
      <trkpt lat="44.65187" lon="3.33254">
        <ele>1099.8000488281</ele>
        <time>2019-05-25T12:27:43Z</time>
      </trkpt>
      <trkpt lat="44.65176" lon="3.33276">
        <ele>1100.4000244141</ele>
        <time>2019-05-25T12:27:48Z</time>
      </trkpt>
      <trkpt lat="44.65167" lon="3.33297">
        <ele>1101</ele>
        <time>2019-05-25T12:27:52Z</time>
      </trkpt>
      <trkpt lat="44.65157" lon="3.33311">
        <ele>1101.4000244141</ele>
        <time>2019-05-25T12:27:55Z</time>
      </trkpt>
      <trkpt lat="44.65153" lon="3.33315">
        <ele>1101.4000244141</ele>
        <time>2019-05-25T12:27:56Z</time>
      </trkpt>
      <trkpt lat="44.65145" lon="3.33325">
        <ele>1101.8000488281</ele>
        <time>2019-05-25T12:27:59Z</time>
      </trkpt>
      <trkpt lat="44.65135" lon="3.33336">
        <ele>1102.1999511719</ele>
        <time>2019-05-25T12:28:02Z</time>
      </trkpt>
      <trkpt lat="44.65128" lon="3.33345">
        <ele>1102.1999511719</ele>
        <time>2019-05-25T12:28:04Z</time>
      </trkpt>
      <trkpt lat="44.65122" lon="3.33354">
        <ele>1102.1999511719</ele>
        <time>2019-05-25T12:28:06Z</time>
      </trkpt>
      <trkpt lat="44.65115" lon="3.33363">
        <ele>1102.1999511719</ele>
        <time>2019-05-25T12:28:08Z</time>
      </trkpt>
      <trkpt lat="44.65097" lon="3.33379">
        <ele>1102.4000244141</ele>
        <time>2019-05-25T12:28:12Z</time>
      </trkpt>
      <trkpt lat="44.65091" lon="3.33383">
        <ele>1102.4000244141</ele>
        <time>2019-05-25T12:28:13Z</time>
      </trkpt>
      <trkpt lat="44.65086" lon="3.33384">
        <ele>1102.4000244141</ele>
        <time>2019-05-25T12:28:14Z</time>
      </trkpt>
      <trkpt lat="44.65078" lon="3.33385">
        <ele>1102.4000244141</ele>
        <time>2019-05-25T12:28:16Z</time>
      </trkpt>
      <trkpt lat="44.65076" lon="3.3339">
        <ele>1102.1999511719</ele>
        <time>2019-05-25T12:28:18Z</time>
      </trkpt>
      <trkpt lat="44.65076" lon="3.33392">
        <ele>1102</ele>
        <time>2019-05-25T12:28:19Z</time>
      </trkpt>
      <trkpt lat="44.65077" lon="3.33396">
        <ele>1102</ele>
        <time>2019-05-25T12:28:20Z</time>
      </trkpt>
      <trkpt lat="44.65079" lon="3.33406">
        <ele>1102</ele>
        <time>2019-05-25T12:28:22Z</time>
      </trkpt>
      <trkpt lat="44.65085" lon="3.33424">
        <ele>1102.1999511719</ele>
        <time>2019-05-25T12:28:26Z</time>
      </trkpt>
      <trkpt lat="44.65092" lon="3.33446">
        <ele>1102.8000488281</ele>
        <time>2019-05-25T12:28:30Z</time>
      </trkpt>
      <trkpt lat="44.65098" lon="3.33464">
        <ele>1103.1999511719</ele>
        <time>2019-05-25T12:28:34Z</time>
      </trkpt>
      <trkpt lat="44.65102" lon="3.33473">
        <ele>1103.4000244141</ele>
        <time>2019-05-25T12:28:36Z</time>
      </trkpt>
      <trkpt lat="44.65106" lon="3.33481">
        <ele>1103.5999755859</ele>
        <time>2019-05-25T12:28:38Z</time>
      </trkpt>
      <trkpt lat="44.65111" lon="3.33491">
        <ele>1103.4000244141</ele>
        <time>2019-05-25T12:28:40Z</time>
      </trkpt>
      <trkpt lat="44.65118" lon="3.33497">
        <ele>1103.1999511719</ele>
        <time>2019-05-25T12:28:42Z</time>
      </trkpt>
      <trkpt lat="44.6512" lon="3.33501">
        <ele>1103</ele>
        <time>2019-05-25T12:28:43Z</time>
      </trkpt>
      <trkpt lat="44.65121" lon="3.33515">
        <ele>1103.1999511719</ele>
        <time>2019-05-25T12:28:46Z</time>
      </trkpt>
      <trkpt lat="44.65122" lon="3.33518">
        <ele>1103.4000244141</ele>
        <time>2019-05-25T12:28:47Z</time>
      </trkpt>
      <trkpt lat="44.65126" lon="3.33525">
        <ele>1103.1999511719</ele>
        <time>2019-05-25T12:28:49Z</time>
      </trkpt>
      <trkpt lat="44.65131" lon="3.33531">
        <ele>1103.1999511719</ele>
        <time>2019-05-25T12:28:52Z</time>
      </trkpt>
      <trkpt lat="44.65135" lon="3.33546">
        <ele>1103.1999511719</ele>
        <time>2019-05-25T12:28:56Z</time>
      </trkpt>
      <trkpt lat="44.65137" lon="3.3355">
        <ele>1103.1999511719</ele>
        <time>2019-05-25T12:28:57Z</time>
      </trkpt>
      <trkpt lat="44.65138" lon="3.33553">
        <ele>1103.1999511719</ele>
        <time>2019-05-25T12:28:58Z</time>
      </trkpt>
      <trkpt lat="44.65143" lon="3.33557">
        <ele>1103.5999755859</ele>
        <time>2019-05-25T12:29:01Z</time>
      </trkpt>
      <trkpt lat="44.65144" lon="3.33559">
        <ele>1103.5999755859</ele>
        <time>2019-05-25T12:29:03Z</time>
      </trkpt>
      <trkpt lat="44.6515" lon="3.33562">
        <ele>1103.8000488281</ele>
        <time>2019-05-25T12:29:10Z</time>
      </trkpt>
      <trkpt lat="44.65152" lon="3.33564">
        <ele>1104</ele>
        <time>2019-05-25T12:29:11Z</time>
      </trkpt>
      <trkpt lat="44.65154" lon="3.33564">
        <ele>1104.1999511719</ele>
        <time>2019-05-25T12:29:13Z</time>
      </trkpt>
      <trkpt lat="44.65155" lon="3.33563">
        <ele>1104.1999511719</ele>
        <time>2019-05-25T12:29:15Z</time>
      </trkpt>
      <trkpt lat="44.65159" lon="3.3356">
        <ele>1104</ele>
        <time>2019-05-25T12:29:17Z</time>
      </trkpt>
      <trkpt lat="44.65161" lon="3.33559">
        <ele>1104</ele>
        <time>2019-05-25T12:29:19Z</time>
      </trkpt>
      <trkpt lat="44.65166" lon="3.33545">
        <ele>1104.5999755859</ele>
        <time>2019-05-25T12:29:27Z</time>
      </trkpt>
      <trkpt lat="44.65168" lon="3.33539">
        <ele>1104.5999755859</ele>
        <time>2019-05-25T12:29:29Z</time>
      </trkpt>
      <trkpt lat="44.65169" lon="3.33537">
        <ele>1104.5999755859</ele>
        <time>2019-05-25T12:29:30Z</time>
      </trkpt>
      <trkpt lat="44.65171" lon="3.33532">
        <ele>1104.5999755859</ele>
        <time>2019-05-25T12:29:32Z</time>
      </trkpt>
      <trkpt lat="44.6518" lon="3.33504">
        <ele>1102.8000488281</ele>
        <time>2019-05-25T12:29:44Z</time>
      </trkpt>
      <trkpt lat="44.65181" lon="3.33502">
        <ele>1102.4000244141</ele>
        <time>2019-05-25T12:29:45Z</time>
      </trkpt>
      <trkpt lat="44.65186" lon="3.33488">
        <ele>1100.4000244141</ele>
        <time>2019-05-25T12:29:50Z</time>
      </trkpt>
      <trkpt lat="44.65188" lon="3.33481">
        <ele>1099.1999511719</ele>
        <time>2019-05-25T12:29:53Z</time>
      </trkpt>
      <trkpt lat="44.6519" lon="3.33476">
        <ele>1098.4000244141</ele>
        <time>2019-05-25T12:29:55Z</time>
      </trkpt>
      <trkpt lat="44.65197" lon="3.3346">
        <ele>1096</ele>
        <time>2019-05-25T12:30:01Z</time>
      </trkpt>
      <trkpt lat="44.652" lon="3.33454">
        <ele>1094.8000488281</ele>
        <time>2019-05-25T12:30:04Z</time>
      </trkpt>
      <trkpt lat="44.65202" lon="3.33449">
        <ele>1094.1999511719</ele>
        <time>2019-05-25T12:30:06Z</time>
      </trkpt>
      <trkpt lat="44.65209" lon="3.33435">
        <ele>1091.5999755859</ele>
        <time>2019-05-25T12:30:12Z</time>
      </trkpt>
      <trkpt lat="44.6521" lon="3.33431">
        <ele>1090.8000488281</ele>
        <time>2019-05-25T12:30:14Z</time>
      </trkpt>
      <trkpt lat="44.65211" lon="3.33429">
        <ele>1090.4000244141</ele>
        <time>2019-05-25T12:30:15Z</time>
      </trkpt>
      <trkpt lat="44.65213" lon="3.33418">
        <ele>1088.1999511719</ele>
        <time>2019-05-25T12:30:21Z</time>
      </trkpt>
      <trkpt lat="44.65214" lon="3.33415">
        <ele>1088</ele>
        <time>2019-05-25T12:30:22Z</time>
      </trkpt>
      <trkpt lat="44.65217" lon="3.33403">
        <ele>1086.5999755859</ele>
        <time>2019-05-25T12:30:27Z</time>
      </trkpt>
      <trkpt lat="44.65217" lon="3.33401">
        <ele>1086.4000244141</ele>
        <time>2019-05-25T12:30:28Z</time>
      </trkpt>
      <trkpt lat="44.65218" lon="3.33399">
        <ele>1086.1999511719</ele>
        <time>2019-05-25T12:30:29Z</time>
      </trkpt>
      <trkpt lat="44.65254" lon="3.33285">
        <ele>1076</ele>
        <time>2019-05-25T12:31:36Z</time>
      </trkpt>
      <trkpt lat="44.65256" lon="3.33281">
        <ele>1075.8000488281</ele>
        <time>2019-05-25T12:31:38Z</time>
      </trkpt>
      <trkpt lat="44.65257" lon="3.3328">
        <ele>1075.8000488281</ele>
        <time>2019-05-25T12:31:39Z</time>
      </trkpt>
      <trkpt lat="44.6526" lon="3.33277">
        <ele>1075.8000488281</ele>
        <time>2019-05-25T12:31:41Z</time>
      </trkpt>
      <trkpt lat="44.65263" lon="3.33273">
        <ele>1075.5999755859</ele>
        <time>2019-05-25T12:31:43Z</time>
      </trkpt>
      <trkpt lat="44.65268" lon="3.33268">
        <ele>1075.1999511719</ele>
        <time>2019-05-25T12:31:46Z</time>
      </trkpt>
      <trkpt lat="44.65268" lon="3.33266">
        <ele>1075.1999511719</ele>
        <time>2019-05-25T12:31:47Z</time>
      </trkpt>
      <trkpt lat="44.65276" lon="3.33255">
        <ele>1074.8000488281</ele>
        <time>2019-05-25T12:31:54Z</time>
      </trkpt>
      <trkpt lat="44.65283" lon="3.33249">
        <ele>1074.8000488281</ele>
        <time>2019-05-25T12:31:57Z</time>
      </trkpt>
      <trkpt lat="44.65294" lon="3.33242">
        <ele>1074.8000488281</ele>
        <time>2019-05-25T12:32:02Z</time>
      </trkpt>
      <trkpt lat="44.65303" lon="3.33234">
        <ele>1074.5999755859</ele>
        <time>2019-05-25T12:32:06Z</time>
      </trkpt>
      <trkpt lat="44.65314" lon="3.33224">
        <ele>1074.5999755859</ele>
        <time>2019-05-25T12:32:10Z</time>
      </trkpt>
      <trkpt lat="44.65328" lon="3.33209">
        <ele>1074.5999755859</ele>
        <time>2019-05-25T12:32:15Z</time>
      </trkpt>
      <trkpt lat="44.65345" lon="3.33199">
        <ele>1074.8000488281</ele>
        <time>2019-05-25T12:32:21Z</time>
      </trkpt>
      <trkpt lat="44.65348" lon="3.33201">
        <ele>1074.8000488281</ele>
        <time>2019-05-25T12:32:22Z</time>
      </trkpt>
      <trkpt lat="44.65354" lon="3.33208">
        <ele>1074.8000488281</ele>
        <time>2019-05-25T12:32:24Z</time>
      </trkpt>
      <trkpt lat="44.65361" lon="3.33217">
        <ele>1075</ele>
        <time>2019-05-25T12:32:26Z</time>
      </trkpt>
      <trkpt lat="44.65366" lon="3.33219">
        <ele>1075</ele>
        <time>2019-05-25T12:32:27Z</time>
      </trkpt>
      <trkpt lat="44.65375" lon="3.33222">
        <ele>1074.8000488281</ele>
        <time>2019-05-25T12:32:29Z</time>
      </trkpt>
      <trkpt lat="44.65387" lon="3.33219">
        <ele>1074.8000488281</ele>
        <time>2019-05-25T12:32:31Z</time>
      </trkpt>
      <trkpt lat="44.65405" lon="3.33217">
        <ele>1074.8000488281</ele>
        <time>2019-05-25T12:32:35Z</time>
      </trkpt>
      <trkpt lat="44.65419" lon="3.33214">
        <ele>1074.8000488281</ele>
        <time>2019-05-25T12:32:40Z</time>
      </trkpt>
      <trkpt lat="44.65433" lon="3.33207">
        <ele>1074</ele>
        <time>2019-05-25T12:32:46Z</time>
      </trkpt>
      <trkpt lat="44.65442" lon="3.33204">
        <ele>1073.4000244141</ele>
        <time>2019-05-25T12:32:50Z</time>
      </trkpt>
      <trkpt lat="44.65445" lon="3.33203">
        <ele>1073.1999511719</ele>
        <time>2019-05-25T12:32:51Z</time>
      </trkpt>
      <trkpt lat="44.6545" lon="3.33201">
        <ele>1073.4000244141</ele>
        <time>2019-05-25T12:32:54Z</time>
      </trkpt>
      <trkpt lat="44.6546" lon="3.33192">
        <ele>1073.4000244141</ele>
        <time>2019-05-25T12:33:00Z</time>
      </trkpt>
      <trkpt lat="44.65462" lon="3.33191">
        <ele>1073.4000244141</ele>
        <time>2019-05-25T12:33:01Z</time>
      </trkpt>
      <trkpt lat="44.65463" lon="3.3319">
        <ele>1073.4000244141</ele>
        <time>2019-05-25T12:33:02Z</time>
      </trkpt>
      <trkpt lat="44.65494" lon="3.33163">
        <ele>1070.8000488281</ele>
        <time>2019-05-25T12:33:25Z</time>
      </trkpt>
      <trkpt lat="44.65499" lon="3.33158">
        <ele>1070</ele>
        <time>2019-05-25T12:33:29Z</time>
      </trkpt>
      <trkpt lat="44.65503" lon="3.33153">
        <ele>1069.8000488281</ele>
        <time>2019-05-25T12:33:31Z</time>
      </trkpt>
      <trkpt lat="44.65504" lon="3.33152">
        <ele>1069.5999755859</ele>
        <time>2019-05-25T12:33:32Z</time>
      </trkpt>
      <trkpt lat="44.65507" lon="3.33147">
        <ele>1069.4000244141</ele>
        <time>2019-05-25T12:33:35Z</time>
      </trkpt>
      <trkpt lat="44.65521" lon="3.33127">
        <ele>1069</ele>
        <time>2019-05-25T12:33:40Z</time>
      </trkpt>
      <trkpt lat="44.65533" lon="3.3311">
        <ele>1068.8000488281</ele>
        <time>2019-05-25T12:33:45Z</time>
      </trkpt>
      <trkpt lat="44.65545" lon="3.33092">
        <ele>1068.8000488281</ele>
        <time>2019-05-25T12:33:50Z</time>
      </trkpt>
      <trkpt lat="44.65558" lon="3.33076">
        <ele>1069</ele>
        <time>2019-05-25T12:33:56Z</time>
      </trkpt>
      <trkpt lat="44.65568" lon="3.3306">
        <ele>1068.8000488281</ele>
        <time>2019-05-25T12:34:01Z</time>
      </trkpt>
      <trkpt lat="44.65574" lon="3.33049">
        <ele>1068.5999755859</ele>
        <time>2019-05-25T12:34:04Z</time>
      </trkpt>
      <trkpt lat="44.65577" lon="3.33045">
        <ele>1068.1999511719</ele>
        <time>2019-05-25T12:34:05Z</time>
      </trkpt>
      <trkpt lat="44.65589" lon="3.33032">
        <ele>1067.1999511719</ele>
        <time>2019-05-25T12:34:09Z</time>
      </trkpt>
      <trkpt lat="44.65593" lon="3.3303">
        <ele>1067</ele>
        <time>2019-05-25T12:34:10Z</time>
      </trkpt>
      <trkpt lat="44.65604" lon="3.33028">
        <ele>1067.1999511719</ele>
        <time>2019-05-25T12:34:12Z</time>
      </trkpt>
      <trkpt lat="44.65611" lon="3.33023">
        <ele>1067</ele>
        <time>2019-05-25T12:34:14Z</time>
      </trkpt>
      <trkpt lat="44.65616" lon="3.33017">
        <ele>1067.5999755859</ele>
        <time>2019-05-25T12:34:18Z</time>
      </trkpt>
      <trkpt lat="44.65624" lon="3.33018">
        <ele>1068.5999755859</ele>
        <time>2019-05-25T12:34:29Z</time>
      </trkpt>
      <trkpt lat="44.65627" lon="3.33022">
        <ele>1068.5999755859</ele>
        <time>2019-05-25T12:34:31Z</time>
      </trkpt>
      <trkpt lat="44.65634" lon="3.33039">
        <ele>1068.5999755859</ele>
        <time>2019-05-25T12:34:36Z</time>
      </trkpt>
      <trkpt lat="44.65643" lon="3.33067">
        <ele>1068.4000244141</ele>
        <time>2019-05-25T12:34:42Z</time>
      </trkpt>
      <trkpt lat="44.65643" lon="3.33078">
        <ele>1068.5999755859</ele>
        <time>2019-05-25T12:34:44Z</time>
      </trkpt>
      <trkpt lat="44.65645" lon="3.33096">
        <ele>1068.5999755859</ele>
        <time>2019-05-25T12:34:47Z</time>
      </trkpt>
      <trkpt lat="44.65649" lon="3.33126">
        <ele>1069.1999511719</ele>
        <time>2019-05-25T12:34:52Z</time>
      </trkpt>
      <trkpt lat="44.6565" lon="3.33138">
        <ele>1069.4000244141</ele>
        <time>2019-05-25T12:34:54Z</time>
      </trkpt>
      <trkpt lat="44.65653" lon="3.3316">
        <ele>1069.5999755859</ele>
        <time>2019-05-25T12:34:59Z</time>
      </trkpt>
      <trkpt lat="44.65654" lon="3.3317">
        <ele>1069.8000488281</ele>
        <time>2019-05-25T12:35:02Z</time>
      </trkpt>
      <trkpt lat="44.65653" lon="3.33172">
        <ele>1069.8000488281</ele>
        <time>2019-05-25T12:35:03Z</time>
      </trkpt>
      <trkpt lat="44.65654" lon="3.33184">
        <ele>1069.8000488281</ele>
        <time>2019-05-25T12:35:07Z</time>
      </trkpt>
      <trkpt lat="44.65658" lon="3.33227">
        <ele>1069.8000488281</ele>
        <time>2019-05-25T12:35:15Z</time>
      </trkpt>
      <trkpt lat="44.65665" lon="3.33289">
        <ele>1070.1999511719</ele>
        <time>2019-05-25T12:35:26Z</time>
      </trkpt>
      <trkpt lat="44.6567" lon="3.33333">
        <ele>1070.1999511719</ele>
        <time>2019-05-25T12:35:34Z</time>
      </trkpt>
      <trkpt lat="44.65678" lon="3.33382">
        <ele>1070.1999511719</ele>
        <time>2019-05-25T12:35:43Z</time>
      </trkpt>
      <trkpt lat="44.65691" lon="3.33436">
        <ele>1070.5999755859</ele>
        <time>2019-05-25T12:35:52Z</time>
      </trkpt>
      <trkpt lat="44.65705" lon="3.33489">
        <ele>1071</ele>
        <time>2019-05-25T12:36:01Z</time>
      </trkpt>
      <trkpt lat="44.65707" lon="3.33501">
        <ele>1071</ele>
        <time>2019-05-25T12:36:03Z</time>
      </trkpt>
      <trkpt lat="44.65714" lon="3.33523">
        <ele>1071.1999511719</ele>
        <time>2019-05-25T12:36:07Z</time>
      </trkpt>
      <trkpt lat="44.65731" lon="3.33597">
        <ele>1072</ele>
        <time>2019-05-25T12:36:20Z</time>
      </trkpt>
      <trkpt lat="44.65741" lon="3.33646">
        <ele>1072.5999755859</ele>
        <time>2019-05-25T12:36:29Z</time>
      </trkpt>
      <trkpt lat="44.65745" lon="3.33661">
        <ele>1072.8000488281</ele>
        <time>2019-05-25T12:36:32Z</time>
      </trkpt>
      <trkpt lat="44.65748" lon="3.33679">
        <ele>1073</ele>
        <time>2019-05-25T12:36:35Z</time>
      </trkpt>
      <trkpt lat="44.65758" lon="3.33724">
        <ele>1073.1999511719</ele>
        <time>2019-05-25T12:36:41Z</time>
      </trkpt>
      <trkpt lat="44.65771" lon="3.33771">
        <ele>1073.4000244141</ele>
        <time>2019-05-25T12:36:47Z</time>
      </trkpt>
      <trkpt lat="44.65785" lon="3.33824">
        <ele>1073.4000244141</ele>
        <time>2019-05-25T12:36:54Z</time>
      </trkpt>
      <trkpt lat="44.65787" lon="3.33831">
        <ele>1073.4000244141</ele>
        <time>2019-05-25T12:36:55Z</time>
      </trkpt>
      <trkpt lat="44.65798" lon="3.3387">
        <ele>1073.8000488281</ele>
        <time>2019-05-25T12:37:01Z</time>
      </trkpt>
      <trkpt lat="44.65813" lon="3.33904">
        <ele>1074</ele>
        <time>2019-05-25T12:37:07Z</time>
      </trkpt>
      <trkpt lat="44.65826" lon="3.33922">
        <ele>1074</ele>
        <time>2019-05-25T12:37:11Z</time>
      </trkpt>
      <trkpt lat="44.65837" lon="3.33934">
        <ele>1074.1999511719</ele>
        <time>2019-05-25T12:37:14Z</time>
      </trkpt>
      <trkpt lat="44.65868" lon="3.33967">
        <ele>1074.5999755859</ele>
        <time>2019-05-25T12:37:23Z</time>
      </trkpt>
      <trkpt lat="44.65902" lon="3.33999">
        <ele>1075.1999511719</ele>
        <time>2019-05-25T12:37:33Z</time>
      </trkpt>
      <trkpt lat="44.65939" lon="3.34034">
        <ele>1076</ele>
        <time>2019-05-25T12:37:44Z</time>
      </trkpt>
      <trkpt lat="44.65953" lon="3.34047">
        <ele>1076</ele>
        <time>2019-05-25T12:37:48Z</time>
      </trkpt>
      <trkpt lat="44.6596" lon="3.34054">
        <ele>1076</ele>
        <time>2019-05-25T12:37:50Z</time>
      </trkpt>
      <trkpt lat="44.65992" lon="3.34083">
        <ele>1076.4000244141</ele>
        <time>2019-05-25T12:37:58Z</time>
      </trkpt>
      <trkpt lat="44.66024" lon="3.34115">
        <ele>1076.5999755859</ele>
        <time>2019-05-25T12:38:06Z</time>
      </trkpt>
      <trkpt lat="44.66036" lon="3.34128">
        <ele>1076.5999755859</ele>
        <time>2019-05-25T12:38:09Z</time>
      </trkpt>
      <trkpt lat="44.66049" lon="3.34141">
        <ele>1076.5999755859</ele>
        <time>2019-05-25T12:38:12Z</time>
      </trkpt>
      <trkpt lat="44.66067" lon="3.3416">
        <ele>1076.5999755859</ele>
        <time>2019-05-25T12:38:16Z</time>
      </trkpt>
      <trkpt lat="44.66103" lon="3.34196">
        <ele>1076.8000488281</ele>
        <time>2019-05-25T12:38:24Z</time>
      </trkpt>
      <trkpt lat="44.66132" lon="3.34225">
        <ele>1076.5999755859</ele>
        <time>2019-05-25T12:38:30Z</time>
      </trkpt>
      <trkpt lat="44.66137" lon="3.34228">
        <ele>1076.5999755859</ele>
        <time>2019-05-25T12:38:31Z</time>
      </trkpt>
      <trkpt lat="44.66144" lon="3.3423">
        <ele>1076.5999755859</ele>
        <time>2019-05-25T12:38:32Z</time>
      </trkpt>
      <trkpt lat="44.66168" lon="3.34233">
        <ele>1076.5999755859</ele>
        <time>2019-05-25T12:38:36Z</time>
      </trkpt>
      <trkpt lat="44.66202" lon="3.34232">
        <ele>1076.8000488281</ele>
        <time>2019-05-25T12:38:42Z</time>
      </trkpt>
      <trkpt lat="44.66247" lon="3.34235">
        <ele>1076.5999755859</ele>
        <time>2019-05-25T12:38:50Z</time>
      </trkpt>
      <trkpt lat="44.66278" lon="3.34244">
        <ele>1076.5999755859</ele>
        <time>2019-05-25T12:38:56Z</time>
      </trkpt>
      <trkpt lat="44.66289" lon="3.34248">
        <ele>1076.5999755859</ele>
        <time>2019-05-25T12:38:58Z</time>
      </trkpt>
      <trkpt lat="44.66312" lon="3.34255">
        <ele>1076.5999755859</ele>
        <time>2019-05-25T12:39:02Z</time>
      </trkpt>
      <trkpt lat="44.66343" lon="3.34269">
        <ele>1076.5999755859</ele>
        <time>2019-05-25T12:39:08Z</time>
      </trkpt>
      <trkpt lat="44.66349" lon="3.3427">
        <ele>1076.5999755859</ele>
        <time>2019-05-25T12:39:09Z</time>
      </trkpt>
      <trkpt lat="44.66377" lon="3.34264">
        <ele>1076.5999755859</ele>
        <time>2019-05-25T12:39:14Z</time>
      </trkpt>
      <trkpt lat="44.66403" lon="3.34249">
        <ele>1076.4000244141</ele>
        <time>2019-05-25T12:39:19Z</time>
      </trkpt>
      <trkpt lat="44.66409" lon="3.34247">
        <ele>1076.4000244141</ele>
        <time>2019-05-25T12:39:20Z</time>
      </trkpt>
      <trkpt lat="44.66414" lon="3.34245">
        <ele>1076.4000244141</ele>
        <time>2019-05-25T12:39:21Z</time>
      </trkpt>
      <trkpt lat="44.66426" lon="3.34243">
        <ele>1076.4000244141</ele>
        <time>2019-05-25T12:39:23Z</time>
      </trkpt>
      <trkpt lat="44.66431" lon="3.34241">
        <ele>1076.5999755859</ele>
        <time>2019-05-25T12:39:24Z</time>
      </trkpt>
      <trkpt lat="44.6647" lon="3.34221">
        <ele>1076.8000488281</ele>
        <time>2019-05-25T12:39:32Z</time>
      </trkpt>
      <trkpt lat="44.66504" lon="3.34204">
        <ele>1076.8000488281</ele>
        <time>2019-05-25T12:39:39Z</time>
      </trkpt>
      <trkpt lat="44.66549" lon="3.34185">
        <ele>1077</ele>
        <time>2019-05-25T12:39:49Z</time>
      </trkpt>
      <trkpt lat="44.66575" lon="3.34176">
        <ele>1076.8000488281</ele>
        <time>2019-05-25T12:39:55Z</time>
      </trkpt>
      <trkpt lat="44.66593" lon="3.34173">
        <ele>1077.1999511719</ele>
        <time>2019-05-25T12:39:59Z</time>
      </trkpt>
      <trkpt lat="44.66637" lon="3.34166">
        <ele>1077.8000488281</ele>
        <time>2019-05-25T12:40:07Z</time>
      </trkpt>
      <trkpt lat="44.66648" lon="3.34166">
        <ele>1078</ele>
        <time>2019-05-25T12:40:09Z</time>
      </trkpt>
      <trkpt lat="44.66658" lon="3.34171">
        <ele>1078.1999511719</ele>
        <time>2019-05-25T12:40:11Z</time>
      </trkpt>
      <trkpt lat="44.6666" lon="3.34183">
        <ele>1078.1999511719</ele>
        <time>2019-05-25T12:40:13Z</time>
      </trkpt>
      <trkpt lat="44.6666" lon="3.34189">
        <ele>1078.1999511719</ele>
        <time>2019-05-25T12:40:14Z</time>
      </trkpt>
      <trkpt lat="44.66659" lon="3.34195">
        <ele>1078.1999511719</ele>
        <time>2019-05-25T12:40:15Z</time>
      </trkpt>
      <trkpt lat="44.66653" lon="3.34214">
        <ele>1078.4000244141</ele>
        <time>2019-05-25T12:40:18Z</time>
      </trkpt>
      <trkpt lat="44.66644" lon="3.34235">
        <ele>1078.4000244141</ele>
        <time>2019-05-25T12:40:21Z</time>
      </trkpt>
      <trkpt lat="44.66637" lon="3.34247">
        <ele>1078.4000244141</ele>
        <time>2019-05-25T12:40:23Z</time>
      </trkpt>
      <trkpt lat="44.66634" lon="3.34254">
        <ele>1078.4000244141</ele>
        <time>2019-05-25T12:40:24Z</time>
      </trkpt>
      <trkpt lat="44.66624" lon="3.34283">
        <ele>1078.4000244141</ele>
        <time>2019-05-25T12:40:28Z</time>
      </trkpt>
      <trkpt lat="44.6662" lon="3.34304">
        <ele>1078.4000244141</ele>
        <time>2019-05-25T12:40:31Z</time>
      </trkpt>
      <trkpt lat="44.66619" lon="3.34312">
        <ele>1078.4000244141</ele>
        <time>2019-05-25T12:40:32Z</time>
      </trkpt>
      <trkpt lat="44.66617" lon="3.3432">
        <ele>1078.4000244141</ele>
        <time>2019-05-25T12:40:33Z</time>
      </trkpt>
      <trkpt lat="44.66616" lon="3.34333">
        <ele>1078.1999511719</ele>
        <time>2019-05-25T12:40:35Z</time>
      </trkpt>
      <trkpt lat="44.66623" lon="3.34336">
        <ele>1078</ele>
        <time>2019-05-25T12:40:37Z</time>
      </trkpt>
      <trkpt lat="44.66627" lon="3.34333">
        <ele>1078</ele>
        <time>2019-05-25T12:40:38Z</time>
      </trkpt>
      <trkpt lat="44.66635" lon="3.34324">
        <ele>1078</ele>
        <time>2019-05-25T12:40:40Z</time>
      </trkpt>
      <trkpt lat="44.66658" lon="3.34303">
        <ele>1077.8000488281</ele>
        <time>2019-05-25T12:40:44Z</time>
      </trkpt>
      <trkpt lat="44.66684" lon="3.34269">
        <ele>1077.1999511719</ele>
        <time>2019-05-25T12:40:48Z</time>
      </trkpt>
      <trkpt lat="44.66719" lon="3.34224">
        <ele>1076.1999511719</ele>
        <time>2019-05-25T12:40:53Z</time>
      </trkpt>
      <trkpt lat="44.66729" lon="3.34204">
        <ele>1075.5999755859</ele>
        <time>2019-05-25T12:40:55Z</time>
      </trkpt>
      <trkpt lat="44.66733" lon="3.34194">
        <ele>1075.4000244141</ele>
        <time>2019-05-25T12:40:56Z</time>
      </trkpt>
      <trkpt lat="44.66743" lon="3.34174">
        <ele>1075</ele>
        <time>2019-05-25T12:40:58Z</time>
      </trkpt>
      <trkpt lat="44.66749" lon="3.34166">
        <ele>1074.8000488281</ele>
        <time>2019-05-25T12:40:59Z</time>
      </trkpt>
      <trkpt lat="44.66757" lon="3.3416">
        <ele>1074.5999755859</ele>
        <time>2019-05-25T12:41:00Z</time>
      </trkpt>
      <trkpt lat="44.66771" lon="3.34151">
        <ele>1074.4000244141</ele>
        <time>2019-05-25T12:41:02Z</time>
      </trkpt>
      <trkpt lat="44.66781" lon="3.3415">
        <ele>1074.4000244141</ele>
        <time>2019-05-25T12:41:04Z</time>
      </trkpt>
      <trkpt lat="44.66785" lon="3.34155">
        <ele>1074.1999511719</ele>
        <time>2019-05-25T12:41:05Z</time>
      </trkpt>
      <trkpt lat="44.66788" lon="3.34163">
        <ele>1074</ele>
        <time>2019-05-25T12:41:06Z</time>
      </trkpt>
      <trkpt lat="44.66795" lon="3.34181">
        <ele>1073.5999755859</ele>
        <time>2019-05-25T12:41:08Z</time>
      </trkpt>
      <trkpt lat="44.66821" lon="3.34216">
        <ele>1072.5999755859</ele>
        <time>2019-05-25T12:41:13Z</time>
      </trkpt>
      <trkpt lat="44.66858" lon="3.34253">
        <ele>1071</ele>
        <time>2019-05-25T12:41:20Z</time>
      </trkpt>
      <trkpt lat="44.66867" lon="3.34257">
        <ele>1070.1999511719</ele>
        <time>2019-05-25T12:41:22Z</time>
      </trkpt>
      <trkpt lat="44.66871" lon="3.34257">
        <ele>1070</ele>
        <time>2019-05-25T12:41:23Z</time>
      </trkpt>
      <trkpt lat="44.66879" lon="3.34245">
        <ele>1068</ele>
        <time>2019-05-25T12:41:27Z</time>
      </trkpt>
      <trkpt lat="44.66895" lon="3.34227">
        <ele>1066.4000244141</ele>
        <time>2019-05-25T12:41:34Z</time>
      </trkpt>
      <trkpt lat="44.66907" lon="3.34215">
        <ele>1065</ele>
        <time>2019-05-25T12:41:39Z</time>
      </trkpt>
      <trkpt lat="44.66921" lon="3.34191">
        <ele>1063.8000488281</ele>
        <time>2019-05-25T12:41:45Z</time>
      </trkpt>
      <trkpt lat="44.66932" lon="3.3417">
        <ele>1062.5999755859</ele>
        <time>2019-05-25T12:41:50Z</time>
      </trkpt>
      <trkpt lat="44.66947" lon="3.34142">
        <ele>1061.1999511719</ele>
        <time>2019-05-25T12:41:56Z</time>
      </trkpt>
      <trkpt lat="44.66952" lon="3.34131">
        <ele>1060.5999755859</ele>
        <time>2019-05-25T12:41:58Z</time>
      </trkpt>
      <trkpt lat="44.66961" lon="3.34106">
        <ele>1059.5999755859</ele>
        <time>2019-05-25T12:42:02Z</time>
      </trkpt>
      <trkpt lat="44.66968" lon="3.34091">
        <ele>1059</ele>
        <time>2019-05-25T12:42:04Z</time>
      </trkpt>
      <trkpt lat="44.66977" lon="3.34076">
        <ele>1058.4000244141</ele>
        <time>2019-05-25T12:42:06Z</time>
      </trkpt>
      <trkpt lat="44.66985" lon="3.34062">
        <ele>1058</ele>
        <time>2019-05-25T12:42:08Z</time>
      </trkpt>
      <trkpt lat="44.66996" lon="3.34039">
        <ele>1057.1999511719</ele>
        <time>2019-05-25T12:42:11Z</time>
      </trkpt>
      <trkpt lat="44.67005" lon="3.34021">
        <ele>1056.5999755859</ele>
        <time>2019-05-25T12:42:13Z</time>
      </trkpt>
      <trkpt lat="44.67022" lon="3.33996">
        <ele>1055.8000488281</ele>
        <time>2019-05-25T12:42:16Z</time>
      </trkpt>
      <trkpt lat="44.67049" lon="3.33952">
        <ele>1054.1999511719</ele>
        <time>2019-05-25T12:42:21Z</time>
      </trkpt>
      <trkpt lat="44.67062" lon="3.33941">
        <ele>1053.8000488281</ele>
        <time>2019-05-25T12:42:23Z</time>
      </trkpt>
      <trkpt lat="44.67068" lon="3.33936">
        <ele>1053.5999755859</ele>
        <time>2019-05-25T12:42:24Z</time>
      </trkpt>
      <trkpt lat="44.67078" lon="3.33928">
        <ele>1053.1999511719</ele>
        <time>2019-05-25T12:42:26Z</time>
      </trkpt>
      <trkpt lat="44.67087" lon="3.33921">
        <ele>1053</ele>
        <time>2019-05-25T12:42:28Z</time>
      </trkpt>
      <trkpt lat="44.67093" lon="3.33918">
        <ele>1052.4000244141</ele>
        <time>2019-05-25T12:42:30Z</time>
      </trkpt>
      <trkpt lat="44.67093" lon="3.33917">
        <ele>1052.1999511719</ele>
        <time>2019-05-25T12:42:32Z</time>
      </trkpt>
      <trkpt lat="44.67092" lon="3.33912">
        <ele>1042.8000488281</ele>
        <time>2019-05-25T12:43:47Z</time>
      </trkpt>
      <trkpt lat="44.67098" lon="3.33895">
        <ele>1042.5999755859</ele>
        <time>2019-05-25T12:43:51Z</time>
      </trkpt>
      <trkpt lat="44.671" lon="3.3389">
        <ele>1042.5999755859</ele>
        <time>2019-05-25T12:43:52Z</time>
      </trkpt>
      <trkpt lat="44.67113" lon="3.33874">
        <ele>1042.5999755859</ele>
        <time>2019-05-25T12:43:56Z</time>
      </trkpt>
      <trkpt lat="44.6713" lon="3.33851">
        <ele>1042.1999511719</ele>
        <time>2019-05-25T12:44:00Z</time>
      </trkpt>
      <trkpt lat="44.67135" lon="3.33848">
        <ele>1042.1999511719</ele>
        <time>2019-05-25T12:44:01Z</time>
      </trkpt>
      <trkpt lat="44.6714" lon="3.33846">
        <ele>1042</ele>
        <time>2019-05-25T12:44:02Z</time>
      </trkpt>
      <trkpt lat="44.67158" lon="3.3384">
        <ele>1042</ele>
        <time>2019-05-25T12:44:06Z</time>
      </trkpt>
      <trkpt lat="44.67166" lon="3.33837">
        <ele>1042.1999511719</ele>
        <time>2019-05-25T12:44:08Z</time>
      </trkpt>
      <trkpt lat="44.67185" lon="3.33826">
        <ele>1042.1999511719</ele>
        <time>2019-05-25T12:44:13Z</time>
      </trkpt>
      <trkpt lat="44.67208" lon="3.33816">
        <ele>1042.1999511719</ele>
        <time>2019-05-25T12:44:20Z</time>
      </trkpt>
      <trkpt lat="44.67237" lon="3.33805">
        <ele>1042.5999755859</ele>
        <time>2019-05-25T12:44:30Z</time>
      </trkpt>
      <trkpt lat="44.67259" lon="3.33795">
        <ele>1043</ele>
        <time>2019-05-25T12:44:38Z</time>
      </trkpt>
      <trkpt lat="44.67285" lon="3.33789">
        <ele>1043.5999755859</ele>
        <time>2019-05-25T12:44:47Z</time>
      </trkpt>
      <trkpt lat="44.67304" lon="3.33786">
        <ele>1044</ele>
        <time>2019-05-25T12:44:55Z</time>
      </trkpt>
      <trkpt lat="44.67306" lon="3.33786">
        <ele>1044.1999511719</ele>
        <time>2019-05-25T12:44:56Z</time>
      </trkpt>
      <trkpt lat="44.67311" lon="3.33781">
        <ele>1044.4000244141</ele>
        <time>2019-05-25T12:44:59Z</time>
      </trkpt>
      <trkpt lat="44.67326" lon="3.3377">
        <ele>1044.5999755859</ele>
        <time>2019-05-25T12:45:05Z</time>
      </trkpt>
      <trkpt lat="44.67348" lon="3.33757">
        <ele>1044.5999755859</ele>
        <time>2019-05-25T12:45:10Z</time>
      </trkpt>
      <trkpt lat="44.67359" lon="3.3375">
        <ele>1044.8000488281</ele>
        <time>2019-05-25T12:45:12Z</time>
      </trkpt>
      <trkpt lat="44.6737" lon="3.33739">
        <ele>1044.8000488281</ele>
        <time>2019-05-25T12:45:14Z</time>
      </trkpt>
      <trkpt lat="44.67395" lon="3.33713">
        <ele>1044</ele>
        <time>2019-05-25T12:45:18Z</time>
      </trkpt>
      <trkpt lat="44.6742" lon="3.33684">
        <ele>1042.8000488281</ele>
        <time>2019-05-25T12:45:22Z</time>
      </trkpt>
      <trkpt lat="44.67446" lon="3.33635">
        <ele>1041.1999511719</ele>
        <time>2019-05-25T12:45:27Z</time>
      </trkpt>
      <trkpt lat="44.67461" lon="3.33608">
        <ele>1040.4000244141</ele>
        <time>2019-05-25T12:45:30Z</time>
      </trkpt>
      <trkpt lat="44.67474" lon="3.33603">
        <ele>1039.8000488281</ele>
        <time>2019-05-25T12:45:32Z</time>
      </trkpt>
      <trkpt lat="44.6748" lon="3.33604">
        <ele>1039.4000244141</ele>
        <time>2019-05-25T12:45:33Z</time>
      </trkpt>
      <trkpt lat="44.67501" lon="3.33606">
        <ele>1038.5999755859</ele>
        <time>2019-05-25T12:45:36Z</time>
      </trkpt>
      <trkpt lat="44.67514" lon="3.33602">
        <ele>1038</ele>
        <time>2019-05-25T12:45:38Z</time>
      </trkpt>
      <trkpt lat="44.67519" lon="3.33599">
        <ele>1037.8000488281</ele>
        <time>2019-05-25T12:45:39Z</time>
      </trkpt>
      <trkpt lat="44.6753" lon="3.33592">
        <ele>1037.1999511719</ele>
        <time>2019-05-25T12:45:41Z</time>
      </trkpt>
      <trkpt lat="44.6754" lon="3.33584">
        <ele>1036.5999755859</ele>
        <time>2019-05-25T12:45:43Z</time>
      </trkpt>
      <trkpt lat="44.67574" lon="3.33558">
        <ele>1034.4000244141</ele>
        <time>2019-05-25T12:45:50Z</time>
      </trkpt>
      <trkpt lat="44.67606" lon="3.33523">
        <ele>1032.1999511719</ele>
        <time>2019-05-25T12:45:57Z</time>
      </trkpt>
      <trkpt lat="44.67621" lon="3.33512">
        <ele>1031.1999511719</ele>
        <time>2019-05-25T12:46:00Z</time>
      </trkpt>
      <trkpt lat="44.67631" lon="3.33508">
        <ele>1030.4000244141</ele>
        <time>2019-05-25T12:46:02Z</time>
      </trkpt>
      <trkpt lat="44.67657" lon="3.33497">
        <ele>1028.5999755859</ele>
        <time>2019-05-25T12:46:08Z</time>
      </trkpt>
      <trkpt lat="44.67679" lon="3.33491">
        <ele>1027.8000488281</ele>
        <time>2019-05-25T12:46:14Z</time>
      </trkpt>
      <trkpt lat="44.67704" lon="3.33475">
        <ele>1026.8000488281</ele>
        <time>2019-05-25T12:46:22Z</time>
      </trkpt>
      <trkpt lat="44.67725" lon="3.3346">
        <ele>1026.1999511719</ele>
        <time>2019-05-25T12:46:27Z</time>
      </trkpt>
      <trkpt lat="44.6774" lon="3.33453">
        <ele>1026</ele>
        <time>2019-05-25T12:46:30Z</time>
      </trkpt>
      <trkpt lat="44.67749" lon="3.33449">
        <ele>1025.5999755859</ele>
        <time>2019-05-25T12:46:32Z</time>
      </trkpt>
      <trkpt lat="44.6776" lon="3.33448">
        <ele>1025.4000244141</ele>
        <time>2019-05-25T12:46:34Z</time>
      </trkpt>
      <trkpt lat="44.67773" lon="3.3345">
        <ele>1025</ele>
        <time>2019-05-25T12:46:37Z</time>
      </trkpt>
      <trkpt lat="44.6778" lon="3.33452">
        <ele>1024.8000488281</ele>
        <time>2019-05-25T12:46:39Z</time>
      </trkpt>
      <trkpt lat="44.67789" lon="3.33454">
        <ele>1024.5999755859</ele>
        <time>2019-05-25T12:46:41Z</time>
      </trkpt>
      <trkpt lat="44.67804" lon="3.33458">
        <ele>1024</ele>
        <time>2019-05-25T12:46:45Z</time>
      </trkpt>
      <trkpt lat="44.67824" lon="3.33466">
        <ele>1023.4000244141</ele>
        <time>2019-05-25T12:46:51Z</time>
      </trkpt>
      <trkpt lat="44.67838" lon="3.33467">
        <ele>1023.4000244141</ele>
        <time>2019-05-25T12:46:55Z</time>
      </trkpt>
      <trkpt lat="44.67857" lon="3.33469">
        <ele>1023.200012207</ele>
        <time>2019-05-25T12:46:59Z</time>
      </trkpt>
      <trkpt lat="44.67866" lon="3.33472">
        <ele>1023.200012207</ele>
        <time>2019-05-25T12:47:01Z</time>
      </trkpt>
      <trkpt lat="44.67874" lon="3.33476">
        <ele>1023.200012207</ele>
        <time>2019-05-25T12:47:02Z</time>
      </trkpt>
      <trkpt lat="44.67904" lon="3.33499">
        <ele>1023.200012207</ele>
        <time>2019-05-25T12:47:06Z</time>
      </trkpt>
      <trkpt lat="44.67918" lon="3.33505">
        <ele>1023.200012207</ele>
        <time>2019-05-25T12:47:08Z</time>
      </trkpt>
      <trkpt lat="44.67929" lon="3.33506">
        <ele>1023.200012207</ele>
        <time>2019-05-25T12:47:10Z</time>
      </trkpt>
      <trkpt lat="44.67948" lon="3.33486">
        <ele>1022.799987793</ele>
        <time>2019-05-25T12:47:14Z</time>
      </trkpt>
      <trkpt lat="44.67958" lon="3.33477">
        <ele>1022.5999755859</ele>
        <time>2019-05-25T12:47:16Z</time>
      </trkpt>
      <trkpt lat="44.67963" lon="3.33476">
        <ele>1022.4000244141</ele>
        <time>2019-05-25T12:47:17Z</time>
      </trkpt>
      <trkpt lat="44.67968" lon="3.33476">
        <ele>1022.4000244141</ele>
        <time>2019-05-25T12:47:18Z</time>
      </trkpt>
      <trkpt lat="44.67986" lon="3.33474">
        <ele>1022.200012207</ele>
        <time>2019-05-25T12:47:22Z</time>
      </trkpt>
      <trkpt lat="44.68007" lon="3.33472">
        <ele>1022.200012207</ele>
        <time>2019-05-25T12:47:28Z</time>
      </trkpt>
      <trkpt lat="44.68031" lon="3.33473">
        <ele>1022.200012207</ele>
        <time>2019-05-25T12:47:35Z</time>
      </trkpt>
      <trkpt lat="44.68053" lon="3.33472">
        <ele>1022.200012207</ele>
        <time>2019-05-25T12:47:41Z</time>
      </trkpt>
      <trkpt lat="44.6807" lon="3.33469">
        <ele>1022.200012207</ele>
        <time>2019-05-25T12:47:45Z</time>
      </trkpt>
      <trkpt lat="44.68079" lon="3.33466">
        <ele>1022</ele>
        <time>2019-05-25T12:47:47Z</time>
      </trkpt>
      <trkpt lat="44.68083" lon="3.33463">
        <ele>1022</ele>
        <time>2019-05-25T12:47:48Z</time>
      </trkpt>
      <trkpt lat="44.68086" lon="3.3346">
        <ele>1022</ele>
        <time>2019-05-25T12:47:49Z</time>
      </trkpt>
      <trkpt lat="44.68096" lon="3.33444">
        <ele>1021.799987793</ele>
        <time>2019-05-25T12:47:53Z</time>
      </trkpt>
      <trkpt lat="44.68105" lon="3.33426">
        <ele>1021.5999755859</ele>
        <time>2019-05-25T12:47:58Z</time>
      </trkpt>
      <trkpt lat="44.68112" lon="3.33412">
        <ele>1021.5999755859</ele>
        <time>2019-05-25T12:48:04Z</time>
      </trkpt>
      <trkpt lat="44.68117" lon="3.33399">
        <ele>1021.4000244141</ele>
        <time>2019-05-25T12:48:12Z</time>
      </trkpt>
      <trkpt lat="44.68123" lon="3.33384">
        <ele>1021.799987793</ele>
        <time>2019-05-25T12:48:21Z</time>
      </trkpt>
      <trkpt lat="44.68124" lon="3.33383">
        <ele>1021.799987793</ele>
        <time>2019-05-25T12:48:22Z</time>
      </trkpt>
      <trkpt lat="44.68125" lon="3.33378">
        <ele>1021.5999755859</ele>
        <time>2019-05-25T12:48:25Z</time>
      </trkpt>
      <trkpt lat="44.6813" lon="3.33361">
        <ele>1021.5999755859</ele>
        <time>2019-05-25T12:48:35Z</time>
      </trkpt>
      <trkpt lat="44.6813" lon="3.33359">
        <ele>1021.799987793</ele>
        <time>2019-05-25T12:48:36Z</time>
      </trkpt>
      <trkpt lat="44.68136" lon="3.33349">
        <ele>1022.200012207</ele>
        <time>2019-05-25T12:48:43Z</time>
      </trkpt>
      <trkpt lat="44.68143" lon="3.3334">
        <ele>1022.799987793</ele>
        <time>2019-05-25T12:48:50Z</time>
      </trkpt>
      <trkpt lat="44.68151" lon="3.33331">
        <ele>1023.4000244141</ele>
        <time>2019-05-25T12:48:57Z</time>
      </trkpt>
      <trkpt lat="44.68158" lon="3.33319">
        <ele>1024</ele>
        <time>2019-05-25T12:49:05Z</time>
      </trkpt>
      <trkpt lat="44.6816" lon="3.33316">
        <ele>1024</ele>
        <time>2019-05-25T12:49:07Z</time>
      </trkpt>
      <trkpt lat="44.68161" lon="3.33307">
        <ele>1024</ele>
        <time>2019-05-25T12:49:11Z</time>
      </trkpt>
      <trkpt lat="44.68166" lon="3.3329">
        <ele>1024.1999511719</ele>
        <time>2019-05-25T12:49:20Z</time>
      </trkpt>
      <trkpt lat="44.68174" lon="3.33282">
        <ele>1024.8000488281</ele>
        <time>2019-05-25T12:49:26Z</time>
      </trkpt>
      <trkpt lat="44.68174" lon="3.33281">
        <ele>1024.8000488281</ele>
        <time>2019-05-25T12:49:27Z</time>
      </trkpt>
      <trkpt lat="44.68144" lon="3.33292">
        <ele>1029.1999511719</ele>
        <time>2019-05-25T12:50:26Z</time>
      </trkpt>
      <trkpt lat="44.68143" lon="3.33293">
        <ele>1029.1999511719</ele>
        <time>2019-05-25T12:50:27Z</time>
      </trkpt>
      <trkpt lat="44.68135" lon="3.33304">
        <ele>1030.4000244141</ele>
        <time>2019-05-25T12:50:36Z</time>
      </trkpt>
      <trkpt lat="44.68129" lon="3.33312">
        <ele>1031.1999511719</ele>
        <time>2019-05-25T12:50:43Z</time>
      </trkpt>
      <trkpt lat="44.68118" lon="3.33316">
        <ele>1037.8000488281</ele>
        <time>2019-05-25T12:55:51Z</time>
      </trkpt>
      <trkpt lat="44.68128" lon="3.33305">
        <ele>1038</ele>
        <time>2019-05-25T12:55:57Z</time>
      </trkpt>
      <trkpt lat="44.68138" lon="3.33293">
        <ele>1037.8000488281</ele>
        <time>2019-05-25T12:56:02Z</time>
      </trkpt>
      <trkpt lat="44.68141" lon="3.33289">
        <ele>1037.8000488281</ele>
        <time>2019-05-25T12:56:04Z</time>
      </trkpt>
      <trkpt lat="44.68145" lon="3.33281">
        <ele>1037.5999755859</ele>
        <time>2019-05-25T12:56:07Z</time>
      </trkpt>
      <trkpt lat="44.68156" lon="3.33275">
        <ele>1037.4000244141</ele>
        <time>2019-05-25T12:56:11Z</time>
      </trkpt>
      <trkpt lat="44.68165" lon="3.33276">
        <ele>1037</ele>
        <time>2019-05-25T12:56:15Z</time>
      </trkpt>
      <trkpt lat="44.68165" lon="3.33276">
        <ele>1037</ele>
        <time>2019-05-25T12:56:16Z</time>
      </trkpt>
      <trkpt lat="44.68173" lon="3.3328">
        <ele>1034.4000244141</ele>
        <time>2019-05-25T12:56:39Z</time>
      </trkpt>
      <trkpt lat="44.68178" lon="3.3328">
        <ele>1034.4000244141</ele>
        <time>2019-05-25T12:56:40Z</time>
      </trkpt>
      <trkpt lat="44.68192" lon="3.33276">
        <ele>1033.8000488281</ele>
        <time>2019-05-25T12:56:44Z</time>
      </trkpt>
      <trkpt lat="44.68202" lon="3.33271">
        <ele>1033.8000488281</ele>
        <time>2019-05-25T12:56:49Z</time>
      </trkpt>
      <trkpt lat="44.68211" lon="3.33269">
        <ele>1034</ele>
        <time>2019-05-25T12:56:54Z</time>
      </trkpt>
      <trkpt lat="44.68213" lon="3.3327">
        <ele>1034</ele>
        <time>2019-05-25T12:56:55Z</time>
      </trkpt>
      <trkpt lat="44.68239" lon="3.33266">
        <ele>1036.5999755859</ele>
        <time>2019-05-25T12:57:20Z</time>
      </trkpt>
      <trkpt lat="44.68246" lon="3.33263">
        <ele>1037.1999511719</ele>
        <time>2019-05-25T12:57:25Z</time>
      </trkpt>
      <trkpt lat="44.68248" lon="3.33265">
        <ele>1037.4000244141</ele>
        <time>2019-05-25T12:57:27Z</time>
      </trkpt>
      <trkpt lat="44.68249" lon="3.33266">
        <ele>1037.4000244141</ele>
        <time>2019-05-25T12:57:28Z</time>
      </trkpt>
      <trkpt lat="44.68263" lon="3.33272">
        <ele>1038.4000244141</ele>
        <time>2019-05-25T12:57:41Z</time>
      </trkpt>
      <trkpt lat="44.68263" lon="3.3327">
        <ele>1038.4000244141</ele>
        <time>2019-05-25T12:57:42Z</time>
      </trkpt>
      <trkpt lat="44.68268" lon="3.3326">
        <ele>1038.5999755859</ele>
        <time>2019-05-25T12:57:49Z</time>
      </trkpt>
      <trkpt lat="44.68271" lon="3.3325">
        <ele>1038.4000244141</ele>
        <time>2019-05-25T12:57:54Z</time>
      </trkpt>
      <trkpt lat="44.68272" lon="3.33245">
        <ele>1038.4000244141</ele>
        <time>2019-05-25T12:57:56Z</time>
      </trkpt>
      <trkpt lat="44.68278" lon="3.33229">
        <ele>1038.4000244141</ele>
        <time>2019-05-25T12:58:02Z</time>
      </trkpt>
      <trkpt lat="44.68286" lon="3.33218">
        <ele>1038.1999511719</ele>
        <time>2019-05-25T12:58:08Z</time>
      </trkpt>
      <trkpt lat="44.68293" lon="3.33202">
        <ele>1038.1999511719</ele>
        <time>2019-05-25T12:58:14Z</time>
      </trkpt>
      <trkpt lat="44.683" lon="3.33176">
        <ele>1038.8000488281</ele>
        <time>2019-05-25T12:58:23Z</time>
      </trkpt>
      <trkpt lat="44.683" lon="3.33158">
        <ele>1039</ele>
        <time>2019-05-25T12:58:29Z</time>
      </trkpt>
      <trkpt lat="44.68304" lon="3.33134">
        <ele>1039.1999511719</ele>
        <time>2019-05-25T12:58:36Z</time>
      </trkpt>
      <trkpt lat="44.68314" lon="3.33106">
        <ele>1039.4000244141</ele>
        <time>2019-05-25T12:58:44Z</time>
      </trkpt>
      <trkpt lat="44.68325" lon="3.33076">
        <ele>1039.8000488281</ele>
        <time>2019-05-25T12:58:53Z</time>
      </trkpt>
      <trkpt lat="44.68334" lon="3.33052">
        <ele>1040</ele>
        <time>2019-05-25T12:59:00Z</time>
      </trkpt>
      <trkpt lat="44.68336" lon="3.33045">
        <ele>1040</ele>
        <time>2019-05-25T12:59:02Z</time>
      </trkpt>
      <trkpt lat="44.68335" lon="3.33041">
        <ele>1040</ele>
        <time>2019-05-25T12:59:03Z</time>
      </trkpt>
      <trkpt lat="44.68325" lon="3.33028">
        <ele>1040.4000244141</ele>
        <time>2019-05-25T12:59:07Z</time>
      </trkpt>
      <trkpt lat="44.683" lon="3.33004">
        <ele>1041</ele>
        <time>2019-05-25T12:59:15Z</time>
      </trkpt>
      <trkpt lat="44.68288" lon="3.32994">
        <ele>1041.4000244141</ele>
        <time>2019-05-25T12:59:19Z</time>
      </trkpt>
      <trkpt lat="44.68266" lon="3.32979">
        <ele>1042.4000244141</ele>
        <time>2019-05-25T12:59:26Z</time>
      </trkpt>
      <trkpt lat="44.68245" lon="3.32965">
        <ele>1043.1999511719</ele>
        <time>2019-05-25T12:59:33Z</time>
      </trkpt>
      <trkpt lat="44.68226" lon="3.32951">
        <ele>1044</ele>
        <time>2019-05-25T12:59:39Z</time>
      </trkpt>
      <trkpt lat="44.68211" lon="3.32941">
        <ele>1044.5999755859</ele>
        <time>2019-05-25T12:59:44Z</time>
      </trkpt>
      <trkpt lat="44.68195" lon="3.32932">
        <ele>1045.1999511719</ele>
        <time>2019-05-25T12:59:49Z</time>
      </trkpt>
      <trkpt lat="44.68178" lon="3.32914">
        <ele>1045.8000488281</ele>
        <time>2019-05-25T12:59:55Z</time>
      </trkpt>
      <trkpt lat="44.6816" lon="3.32891">
        <ele>1046.1999511719</ele>
        <time>2019-05-25T13:00:02Z</time>
      </trkpt>
      <trkpt lat="44.68141" lon="3.32869">
        <ele>1046.5999755859</ele>
        <time>2019-05-25T13:00:09Z</time>
      </trkpt>
      <trkpt lat="44.68119" lon="3.32843">
        <ele>1047.1999511719</ele>
        <time>2019-05-25T13:00:17Z</time>
      </trkpt>
      <trkpt lat="44.68103" lon="3.32821">
        <ele>1047.5999755859</ele>
        <time>2019-05-25T13:00:23Z</time>
      </trkpt>
      <trkpt lat="44.68086" lon="3.32793">
        <ele>1048</ele>
        <time>2019-05-25T13:00:30Z</time>
      </trkpt>
      <trkpt lat="44.6807" lon="3.32771">
        <ele>1048.4000244141</ele>
        <time>2019-05-25T13:00:36Z</time>
      </trkpt>
      <trkpt lat="44.68057" lon="3.32752">
        <ele>1048.8000488281</ele>
        <time>2019-05-25T13:00:41Z</time>
      </trkpt>
      <trkpt lat="44.68038" lon="3.32728">
        <ele>1049.4000244141</ele>
        <time>2019-05-25T13:00:48Z</time>
      </trkpt>
      <trkpt lat="44.68026" lon="3.32712">
        <ele>1050</ele>
        <time>2019-05-25T13:00:53Z</time>
      </trkpt>
      <trkpt lat="44.68014" lon="3.32701">
        <ele>1050.1999511719</ele>
        <time>2019-05-25T13:00:57Z</time>
      </trkpt>
      <trkpt lat="44.68003" lon="3.32682">
        <ele>1050.8000488281</ele>
        <time>2019-05-25T13:01:02Z</time>
      </trkpt>
      <trkpt lat="44.67991" lon="3.32659">
        <ele>1051.1999511719</ele>
        <time>2019-05-25T13:01:08Z</time>
      </trkpt>
      <trkpt lat="44.67983" lon="3.32625">
        <ele>1051.5999755859</ele>
        <time>2019-05-25T13:01:15Z</time>
      </trkpt>
      <trkpt lat="44.67976" lon="3.32582">
        <ele>1052</ele>
        <time>2019-05-25T13:01:22Z</time>
      </trkpt>
      <trkpt lat="44.67967" lon="3.32537">
        <ele>1052.1999511719</ele>
        <time>2019-05-25T13:01:28Z</time>
      </trkpt>
      <trkpt lat="44.67952" lon="3.32493">
        <ele>1052.5999755859</ele>
        <time>2019-05-25T13:01:34Z</time>
      </trkpt>
      <trkpt lat="44.67935" lon="3.32444">
        <ele>1052.8000488281</ele>
        <time>2019-05-25T13:01:41Z</time>
      </trkpt>
      <trkpt lat="44.67918" lon="3.32394">
        <ele>1053</ele>
        <time>2019-05-25T13:01:49Z</time>
      </trkpt>
      <trkpt lat="44.67911" lon="3.32352">
        <ele>1053</ele>
        <time>2019-05-25T13:01:55Z</time>
      </trkpt>
      <trkpt lat="44.6791" lon="3.32344">
        <ele>1053</ele>
        <time>2019-05-25T13:01:56Z</time>
      </trkpt>
      <trkpt lat="44.67908" lon="3.32322">
        <ele>1053</ele>
        <time>2019-05-25T13:01:59Z</time>
      </trkpt>
      <trkpt lat="44.67908" lon="3.32317">
        <ele>1053</ele>
        <time>2019-05-25T13:02:00Z</time>
      </trkpt>
      <trkpt lat="44.6791" lon="3.32315">
        <ele>1052.8000488281</ele>
        <time>2019-05-25T13:02:01Z</time>
      </trkpt>
      <trkpt lat="44.67915" lon="3.32318">
        <ele>1052.8000488281</ele>
        <time>2019-05-25T13:02:03Z</time>
      </trkpt>
      <trkpt lat="44.67933" lon="3.3234">
        <ele>1052.8000488281</ele>
        <time>2019-05-25T13:02:09Z</time>
      </trkpt>
      <trkpt lat="44.67948" lon="3.32354">
        <ele>1052.8000488281</ele>
        <time>2019-05-25T13:02:14Z</time>
      </trkpt>
      <trkpt lat="44.67955" lon="3.32362">
        <ele>1053</ele>
        <time>2019-05-25T13:02:16Z</time>
      </trkpt>
      <trkpt lat="44.67962" lon="3.3237">
        <ele>1053</ele>
        <time>2019-05-25T13:02:18Z</time>
      </trkpt>
      <trkpt lat="44.67988" lon="3.32396">
        <ele>1053.1999511719</ele>
        <time>2019-05-25T13:02:25Z</time>
      </trkpt>
      <trkpt lat="44.6802" lon="3.32426">
        <ele>1053.5999755859</ele>
        <time>2019-05-25T13:02:34Z</time>
      </trkpt>
      <trkpt lat="44.68044" lon="3.32446">
        <ele>1053.8000488281</ele>
        <time>2019-05-25T13:02:41Z</time>
      </trkpt>
      <trkpt lat="44.68077" lon="3.32468">
        <ele>1054.4000244141</ele>
        <time>2019-05-25T13:02:50Z</time>
      </trkpt>
      <trkpt lat="44.68105" lon="3.32486">
        <ele>1054.8000488281</ele>
        <time>2019-05-25T13:02:58Z</time>
      </trkpt>
      <trkpt lat="44.68142" lon="3.32516">
        <ele>1055.1999511719</ele>
        <time>2019-05-25T13:03:09Z</time>
      </trkpt>
      <trkpt lat="44.68171" lon="3.32538">
        <ele>1055.5999755859</ele>
        <time>2019-05-25T13:03:17Z</time>
      </trkpt>
      <trkpt lat="44.68195" lon="3.32551">
        <ele>1056</ele>
        <time>2019-05-25T13:03:24Z</time>
      </trkpt>
      <trkpt lat="44.68199" lon="3.32553">
        <ele>1056.1999511719</ele>
        <time>2019-05-25T13:03:25Z</time>
      </trkpt>
      <trkpt lat="44.68209" lon="3.32554">
        <ele>1056.1999511719</ele>
        <time>2019-05-25T13:03:27Z</time>
      </trkpt>
      <trkpt lat="44.68215" lon="3.32556">
        <ele>1056.4000244141</ele>
        <time>2019-05-25T13:03:28Z</time>
      </trkpt>
      <trkpt lat="44.68247" lon="3.32564">
        <ele>1056.5999755859</ele>
        <time>2019-05-25T13:03:33Z</time>
      </trkpt>
      <trkpt lat="44.68282" lon="3.32575">
        <ele>1056.5999755859</ele>
        <time>2019-05-25T13:03:38Z</time>
      </trkpt>
      <trkpt lat="44.6829" lon="3.32577">
        <ele>1056.5999755859</ele>
        <time>2019-05-25T13:03:39Z</time>
      </trkpt>
      <trkpt lat="44.68312" lon="3.32581">
        <ele>1056.5999755859</ele>
        <time>2019-05-25T13:03:42Z</time>
      </trkpt>
      <trkpt lat="44.68326" lon="3.32583">
        <ele>1056.4000244141</ele>
        <time>2019-05-25T13:03:44Z</time>
      </trkpt>
      <trkpt lat="44.68342" lon="3.32583">
        <ele>1056.4000244141</ele>
        <time>2019-05-25T13:03:46Z</time>
      </trkpt>
      <trkpt lat="44.68348" lon="3.32584">
        <ele>1056.1999511719</ele>
        <time>2019-05-25T13:03:47Z</time>
      </trkpt>
      <trkpt lat="44.68366" lon="3.32586">
        <ele>1055.8000488281</ele>
        <time>2019-05-25T13:03:50Z</time>
      </trkpt>
      <trkpt lat="44.6839" lon="3.32588">
        <ele>1055.1999511719</ele>
        <time>2019-05-25T13:03:54Z</time>
      </trkpt>
      <trkpt lat="44.68416" lon="3.32594">
        <ele>1054.1999511719</ele>
        <time>2019-05-25T13:03:58Z</time>
      </trkpt>
      <trkpt lat="44.68434" lon="3.32596">
        <ele>1053.4000244141</ele>
        <time>2019-05-25T13:04:01Z</time>
      </trkpt>
      <trkpt lat="44.68446" lon="3.32599">
        <ele>1052.8000488281</ele>
        <time>2019-05-25T13:04:03Z</time>
      </trkpt>
      <trkpt lat="44.6845" lon="3.32603">
        <ele>1052.1999511719</ele>
        <time>2019-05-25T13:04:04Z</time>
      </trkpt>
      <trkpt lat="44.68453" lon="3.32609">
        <ele>1051.5999755859</ele>
        <time>2019-05-25T13:04:05Z</time>
      </trkpt>
      <trkpt lat="44.68454" lon="3.32624">
        <ele>1050.5999755859</ele>
        <time>2019-05-25T13:04:07Z</time>
      </trkpt>
      <trkpt lat="44.68459" lon="3.32663">
        <ele>1048.5999755859</ele>
        <time>2019-05-25T13:04:12Z</time>
      </trkpt>
      <trkpt lat="44.6846" lon="3.32671">
        <ele>1048.4000244141</ele>
        <time>2019-05-25T13:04:13Z</time>
      </trkpt>
      <trkpt lat="44.68463" lon="3.32683">
        <ele>1047.5999755859</ele>
        <time>2019-05-25T13:04:15Z</time>
      </trkpt>
      <trkpt lat="44.68467" lon="3.3269">
        <ele>1047.1999511719</ele>
        <time>2019-05-25T13:04:16Z</time>
      </trkpt>
      <trkpt lat="44.68472" lon="3.32696">
        <ele>1046.8000488281</ele>
        <time>2019-05-25T13:04:17Z</time>
      </trkpt>
      <trkpt lat="44.68481" lon="3.32703">
        <ele>1046</ele>
        <time>2019-05-25T13:04:19Z</time>
      </trkpt>
      <trkpt lat="44.68492" lon="3.32708">
        <ele>1045.1999511719</ele>
        <time>2019-05-25T13:04:21Z</time>
      </trkpt>
      <trkpt lat="44.68502" lon="3.32718">
        <ele>1044.4000244141</ele>
        <time>2019-05-25T13:04:23Z</time>
      </trkpt>
      <trkpt lat="44.68515" lon="3.32737">
        <ele>1043.1999511719</ele>
        <time>2019-05-25T13:04:26Z</time>
      </trkpt>
      <trkpt lat="44.68526" lon="3.32742">
        <ele>1042.4000244141</ele>
        <time>2019-05-25T13:04:28Z</time>
      </trkpt>
      <trkpt lat="44.68536" lon="3.32735">
        <ele>1041.8000488281</ele>
        <time>2019-05-25T13:04:30Z</time>
      </trkpt>
      <trkpt lat="44.68541" lon="3.3273">
        <ele>1041.4000244141</ele>
        <time>2019-05-25T13:04:31Z</time>
      </trkpt>
      <trkpt lat="44.68557" lon="3.32717">
        <ele>1040.1999511719</ele>
        <time>2019-05-25T13:04:34Z</time>
      </trkpt>
      <trkpt lat="44.68568" lon="3.32714">
        <ele>1039.8000488281</ele>
        <time>2019-05-25T13:04:36Z</time>
      </trkpt>
      <trkpt lat="44.68592" lon="3.32707">
        <ele>1038.5999755859</ele>
        <time>2019-05-25T13:04:41Z</time>
      </trkpt>
      <trkpt lat="44.68612" lon="3.327">
        <ele>1038</ele>
        <time>2019-05-25T13:04:45Z</time>
      </trkpt>
      <trkpt lat="44.68626" lon="3.32691">
        <ele>1037.1999511719</ele>
        <time>2019-05-25T13:04:49Z</time>
      </trkpt>
      <trkpt lat="44.68636" lon="3.32683">
        <ele>1036.1999511719</ele>
        <time>2019-05-25T13:04:52Z</time>
      </trkpt>
      <trkpt lat="44.6864" lon="3.32678">
        <ele>1036</ele>
        <time>2019-05-25T13:04:53Z</time>
      </trkpt>
      <trkpt lat="44.68644" lon="3.32672">
        <ele>1035.8000488281</ele>
        <time>2019-05-25T13:04:54Z</time>
      </trkpt>
      <trkpt lat="44.68659" lon="3.32649">
        <ele>1034.8000488281</ele>
        <time>2019-05-25T13:04:57Z</time>
      </trkpt>
      <trkpt lat="44.68672" lon="3.32635">
        <ele>1034</ele>
        <time>2019-05-25T13:04:59Z</time>
      </trkpt>
      <trkpt lat="44.68689" lon="3.32624">
        <ele>1033.1999511719</ele>
        <time>2019-05-25T13:05:01Z</time>
      </trkpt>
      <trkpt lat="44.68705" lon="3.32619">
        <ele>1032.8000488281</ele>
        <time>2019-05-25T13:05:03Z</time>
      </trkpt>
      <trkpt lat="44.68712" lon="3.32618">
        <ele>1032.5999755859</ele>
        <time>2019-05-25T13:05:04Z</time>
      </trkpt>
      <trkpt lat="44.68723" lon="3.32619">
        <ele>1032.4000244141</ele>
        <time>2019-05-25T13:05:06Z</time>
      </trkpt>
      <trkpt lat="44.68731" lon="3.32617">
        <ele>1032.1999511719</ele>
        <time>2019-05-25T13:05:08Z</time>
      </trkpt>
      <trkpt lat="44.68749" lon="3.32617">
        <ele>1031.5999755859</ele>
        <time>2019-05-25T13:05:13Z</time>
      </trkpt>
      <trkpt lat="44.68775" lon="3.3262">
        <ele>1030.5999755859</ele>
        <time>2019-05-25T13:05:20Z</time>
      </trkpt>
      <trkpt lat="44.68794" lon="3.32632">
        <ele>1029.8000488281</ele>
        <time>2019-05-25T13:05:26Z</time>
      </trkpt>
      <trkpt lat="44.68817" lon="3.32652">
        <ele>1028.5999755859</ele>
        <time>2019-05-25T13:05:34Z</time>
      </trkpt>
      <trkpt lat="44.68843" lon="3.32677">
        <ele>1027.4000244141</ele>
        <time>2019-05-25T13:05:43Z</time>
      </trkpt>
      <trkpt lat="44.68857" lon="3.32693">
        <ele>1027</ele>
        <time>2019-05-25T13:05:49Z</time>
      </trkpt>
      <trkpt lat="44.68869" lon="3.32716">
        <ele>1026.8000488281</ele>
        <time>2019-05-25T13:05:55Z</time>
      </trkpt>
      <trkpt lat="44.68877" lon="3.32743">
        <ele>1026.1999511719</ele>
        <time>2019-05-25T13:06:01Z</time>
      </trkpt>
      <trkpt lat="44.6888" lon="3.32755">
        <ele>1026</ele>
        <time>2019-05-25T13:06:03Z</time>
      </trkpt>
      <trkpt lat="44.68881" lon="3.3277">
        <ele>1025.8000488281</ele>
        <time>2019-05-25T13:06:05Z</time>
      </trkpt>
      <trkpt lat="44.6888" lon="3.32778">
        <ele>1025.8000488281</ele>
        <time>2019-05-25T13:06:06Z</time>
      </trkpt>
      <trkpt lat="44.68879" lon="3.32817">
        <ele>1025</ele>
        <time>2019-05-25T13:06:10Z</time>
      </trkpt>
      <trkpt lat="44.68876" lon="3.32863">
        <ele>1024.1999511719</ele>
        <time>2019-05-25T13:06:14Z</time>
      </trkpt>
      <trkpt lat="44.68876" lon="3.32876">
        <ele>1024</ele>
        <time>2019-05-25T13:06:15Z</time>
      </trkpt>
      <trkpt lat="44.68878" lon="3.32927">
        <ele>1023.200012207</ele>
        <time>2019-05-25T13:06:19Z</time>
      </trkpt>
      <trkpt lat="44.68879" lon="3.32937">
        <ele>1022.799987793</ele>
        <time>2019-05-25T13:06:20Z</time>
      </trkpt>
      <trkpt lat="44.68885" lon="3.32954">
        <ele>1022.4000244141</ele>
        <time>2019-05-25T13:06:22Z</time>
      </trkpt>
      <trkpt lat="44.689" lon="3.32977">
        <ele>1021.4000244141</ele>
        <time>2019-05-25T13:06:25Z</time>
      </trkpt>
      <trkpt lat="44.68904" lon="3.32986">
        <ele>1021</ele>
        <time>2019-05-25T13:06:26Z</time>
      </trkpt>
      <trkpt lat="44.68911" lon="3.33002">
        <ele>1020.4000244141</ele>
        <time>2019-05-25T13:06:28Z</time>
      </trkpt>
      <trkpt lat="44.68911" lon="3.33016">
        <ele>1019.5999755859</ele>
        <time>2019-05-25T13:06:30Z</time>
      </trkpt>
      <trkpt lat="44.68904" lon="3.33027">
        <ele>1019</ele>
        <time>2019-05-25T13:06:32Z</time>
      </trkpt>
      <trkpt lat="44.68899" lon="3.33029">
        <ele>1018.5999755859</ele>
        <time>2019-05-25T13:06:33Z</time>
      </trkpt>
      <trkpt lat="44.68893" lon="3.33029">
        <ele>1018.200012207</ele>
        <time>2019-05-25T13:06:34Z</time>
      </trkpt>
      <trkpt lat="44.68881" lon="3.33028">
        <ele>1017.4000244141</ele>
        <time>2019-05-25T13:06:36Z</time>
      </trkpt>
      <trkpt lat="44.68853" lon="3.33037">
        <ele>1015.799987793</ele>
        <time>2019-05-25T13:06:40Z</time>
      </trkpt>
      <trkpt lat="44.68838" lon="3.33055">
        <ele>1014.4000244141</ele>
        <time>2019-05-25T13:06:43Z</time>
      </trkpt>
      <trkpt lat="44.68828" lon="3.33074">
        <ele>1013.200012207</ele>
        <time>2019-05-25T13:06:46Z</time>
      </trkpt>
      <trkpt lat="44.68826" lon="3.33081">
        <ele>1012.799987793</ele>
        <time>2019-05-25T13:06:47Z</time>
      </trkpt>
      <trkpt lat="44.68825" lon="3.33088">
        <ele>1012.4000244141</ele>
        <time>2019-05-25T13:06:48Z</time>
      </trkpt>
      <trkpt lat="44.68826" lon="3.33102">
        <ele>1011.4000244141</ele>
        <time>2019-05-25T13:06:50Z</time>
      </trkpt>
      <trkpt lat="44.68827" lon="3.33109">
        <ele>1011</ele>
        <time>2019-05-25T13:06:51Z</time>
      </trkpt>
      <trkpt lat="44.6883" lon="3.33122">
        <ele>1010.200012207</ele>
        <time>2019-05-25T13:06:53Z</time>
      </trkpt>
      <trkpt lat="44.68832" lon="3.33128">
        <ele>1009.5999755859</ele>
        <time>2019-05-25T13:06:54Z</time>
      </trkpt>
      <trkpt lat="44.68836" lon="3.3315">
        <ele>1007.799987793</ele>
        <time>2019-05-25T13:06:58Z</time>
      </trkpt>
      <trkpt lat="44.6884" lon="3.33169">
        <ele>1005.799987793</ele>
        <time>2019-05-25T13:07:02Z</time>
      </trkpt>
      <trkpt lat="44.68845" lon="3.33181">
        <ele>1004.799987793</ele>
        <time>2019-05-25T13:07:04Z</time>
      </trkpt>
      <trkpt lat="44.68848" lon="3.33186">
        <ele>1004.4000244141</ele>
        <time>2019-05-25T13:07:05Z</time>
      </trkpt>
      <trkpt lat="44.68856" lon="3.33205">
        <ele>1002.799987793</ele>
        <time>2019-05-25T13:07:09Z</time>
      </trkpt>
      <trkpt lat="44.68866" lon="3.33242">
        <ele>1000.5999755859</ele>
        <time>2019-05-25T13:07:14Z</time>
      </trkpt>
      <trkpt lat="44.68864" lon="3.3326">
        <ele>999.79998779297</ele>
        <time>2019-05-25T13:07:16Z</time>
      </trkpt>
      <trkpt lat="44.68863" lon="3.33269">
        <ele>999.20001220703</ele>
        <time>2019-05-25T13:07:17Z</time>
      </trkpt>
      <trkpt lat="44.68862" lon="3.33279">
        <ele>998.79998779297</ele>
        <time>2019-05-25T13:07:18Z</time>
      </trkpt>
      <trkpt lat="44.68864" lon="3.33298">
        <ele>998</ele>
        <time>2019-05-25T13:07:20Z</time>
      </trkpt>
      <trkpt lat="44.68866" lon="3.33307">
        <ele>997.59997558594</ele>
        <time>2019-05-25T13:07:21Z</time>
      </trkpt>
      <trkpt lat="44.68875" lon="3.33347">
        <ele>996.40002441406</ele>
        <time>2019-05-25T13:07:26Z</time>
      </trkpt>
      <trkpt lat="44.68878" lon="3.33354">
        <ele>996.40002441406</ele>
        <time>2019-05-25T13:07:27Z</time>
      </trkpt>
      <trkpt lat="44.68898" lon="3.33391">
        <ele>995.20001220703</ele>
        <time>2019-05-25T13:07:34Z</time>
      </trkpt>
      <trkpt lat="44.68914" lon="3.33407">
        <ele>994.40002441406</ele>
        <time>2019-05-25T13:07:40Z</time>
      </trkpt>
      <trkpt lat="44.68917" lon="3.33411">
        <ele>994.20001220703</ele>
        <time>2019-05-25T13:07:41Z</time>
      </trkpt>
      <trkpt lat="44.68921" lon="3.33419">
        <ele>994</ele>
        <time>2019-05-25T13:07:43Z</time>
      </trkpt>
      <trkpt lat="44.68924" lon="3.33435">
        <ele>993.20001220703</ele>
        <time>2019-05-25T13:07:46Z</time>
      </trkpt>
      <trkpt lat="44.68924" lon="3.3344">
        <ele>993</ele>
        <time>2019-05-25T13:07:47Z</time>
      </trkpt>
      <trkpt lat="44.68928" lon="3.33471">
        <ele>992.20001220703</ele>
        <time>2019-05-25T13:07:51Z</time>
      </trkpt>
      <trkpt lat="44.68935" lon="3.33507">
        <ele>991.40002441406</ele>
        <time>2019-05-25T13:07:55Z</time>
      </trkpt>
      <trkpt lat="44.68939" lon="3.33517">
        <ele>991</ele>
        <time>2019-05-25T13:07:57Z</time>
      </trkpt>
      <trkpt lat="44.68943" lon="3.33519">
        <ele>990.79998779297</ele>
        <time>2019-05-25T13:07:58Z</time>
      </trkpt>
      <trkpt lat="44.68964" lon="3.33529">
        <ele>990.20001220703</ele>
        <time>2019-05-25T13:08:02Z</time>
      </trkpt>
      <trkpt lat="44.68971" lon="3.33533">
        <ele>990</ele>
        <time>2019-05-25T13:08:03Z</time>
      </trkpt>
      <trkpt lat="44.68984" lon="3.33545">
        <ele>989.59997558594</ele>
        <time>2019-05-25T13:08:05Z</time>
      </trkpt>
      <trkpt lat="44.68991" lon="3.33553">
        <ele>989.40002441406</ele>
        <time>2019-05-25T13:08:06Z</time>
      </trkpt>
      <trkpt lat="44.69019" lon="3.33598">
        <ele>987.79998779297</ele>
        <time>2019-05-25T13:08:11Z</time>
      </trkpt>
      <trkpt lat="44.69044" lon="3.33657">
        <ele>986.20001220703</ele>
        <time>2019-05-25T13:08:17Z</time>
      </trkpt>
      <trkpt lat="44.69058" lon="3.33699">
        <ele>985.40002441406</ele>
        <time>2019-05-25T13:08:22Z</time>
      </trkpt>
      <trkpt lat="44.69065" lon="3.33723">
        <ele>985</ele>
        <time>2019-05-25T13:08:25Z</time>
      </trkpt>
      <trkpt lat="44.69069" lon="3.33745">
        <ele>984.40002441406</ele>
        <time>2019-05-25T13:08:28Z</time>
      </trkpt>
      <trkpt lat="44.69075" lon="3.33781">
        <ele>983.59997558594</ele>
        <time>2019-05-25T13:08:33Z</time>
      </trkpt>
      <trkpt lat="44.69078" lon="3.33801">
        <ele>982.79998779297</ele>
        <time>2019-05-25T13:08:36Z</time>
      </trkpt>
      <trkpt lat="44.6908" lon="3.33814">
        <ele>982.40002441406</ele>
        <time>2019-05-25T13:08:38Z</time>
      </trkpt>
      <trkpt lat="44.69082" lon="3.33821">
        <ele>982.20001220703</ele>
        <time>2019-05-25T13:08:39Z</time>
      </trkpt>
      <trkpt lat="44.69085" lon="3.3384">
        <ele>981.40002441406</ele>
        <time>2019-05-25T13:08:42Z</time>
      </trkpt>
      <trkpt lat="44.69087" lon="3.33847">
        <ele>981.20001220703</ele>
        <time>2019-05-25T13:08:43Z</time>
      </trkpt>
      <trkpt lat="44.6909" lon="3.33859">
        <ele>980.79998779297</ele>
        <time>2019-05-25T13:08:45Z</time>
      </trkpt>
      <trkpt lat="44.69093" lon="3.33893">
        <ele>979.40002441406</ele>
        <time>2019-05-25T13:08:50Z</time>
      </trkpt>
      <trkpt lat="44.69096" lon="3.33904">
        <ele>978.79998779297</ele>
        <time>2019-05-25T13:08:52Z</time>
      </trkpt>
      <trkpt lat="44.69098" lon="3.33916">
        <ele>978.20001220703</ele>
        <time>2019-05-25T13:08:54Z</time>
      </trkpt>
      <trkpt lat="44.69098" lon="3.33928">
        <ele>977.79998779297</ele>
        <time>2019-05-25T13:08:56Z</time>
      </trkpt>
      <trkpt lat="44.69093" lon="3.33941">
        <ele>977.20001220703</ele>
        <time>2019-05-25T13:08:58Z</time>
      </trkpt>
      <trkpt lat="44.69088" lon="3.33953">
        <ele>977</ele>
        <time>2019-05-25T13:09:00Z</time>
      </trkpt>
      <trkpt lat="44.69082" lon="3.33966">
        <ele>976.59997558594</ele>
        <time>2019-05-25T13:09:02Z</time>
      </trkpt>
      <trkpt lat="44.69078" lon="3.33978">
        <ele>976.40002441406</ele>
        <time>2019-05-25T13:09:04Z</time>
      </trkpt>
      <trkpt lat="44.69077" lon="3.3399">
        <ele>976</ele>
        <time>2019-05-25T13:09:06Z</time>
      </trkpt>
      <trkpt lat="44.69108" lon="3.34005">
        <ele>975</ele>
        <time>2019-05-25T13:09:09Z</time>
      </trkpt>
      <trkpt lat="44.69116" lon="3.34011">
        <ele>974.79998779297</ele>
        <time>2019-05-25T13:09:10Z</time>
      </trkpt>
      <trkpt lat="44.69126" lon="3.34023">
        <ele>974.59997558594</ele>
        <time>2019-05-25T13:09:12Z</time>
      </trkpt>
      <trkpt lat="44.69132" lon="3.34036">
        <ele>974.40002441406</ele>
        <time>2019-05-25T13:09:14Z</time>
      </trkpt>
      <trkpt lat="44.69134" lon="3.34042">
        <ele>974.20001220703</ele>
        <time>2019-05-25T13:09:15Z</time>
      </trkpt>
      <trkpt lat="44.69136" lon="3.34062">
        <ele>973.79998779297</ele>
        <time>2019-05-25T13:09:18Z</time>
      </trkpt>
      <trkpt lat="44.69133" lon="3.34095">
        <ele>973</ele>
        <time>2019-05-25T13:09:23Z</time>
      </trkpt>
      <trkpt lat="44.69133" lon="3.34108">
        <ele>972.59997558594</ele>
        <time>2019-05-25T13:09:25Z</time>
      </trkpt>
      <trkpt lat="44.69135" lon="3.34121">
        <ele>972.20001220703</ele>
        <time>2019-05-25T13:09:27Z</time>
      </trkpt>
      <trkpt lat="44.69136" lon="3.34128">
        <ele>972</ele>
        <time>2019-05-25T13:09:28Z</time>
      </trkpt>
      <trkpt lat="44.6914" lon="3.34142">
        <ele>971.79998779297</ele>
        <time>2019-05-25T13:09:30Z</time>
      </trkpt>
      <trkpt lat="44.69146" lon="3.34154">
        <ele>971.79998779297</ele>
        <time>2019-05-25T13:09:32Z</time>
      </trkpt>
      <trkpt lat="44.69157" lon="3.3417">
        <ele>972</ele>
        <time>2019-05-25T13:09:35Z</time>
      </trkpt>
      <trkpt lat="44.69169" lon="3.34187">
        <ele>972.20001220703</ele>
        <time>2019-05-25T13:09:38Z</time>
      </trkpt>
      <trkpt lat="44.69173" lon="3.34193">
        <ele>972.20001220703</ele>
        <time>2019-05-25T13:09:39Z</time>
      </trkpt>
      <trkpt lat="44.6918" lon="3.34205">
        <ele>972.20001220703</ele>
        <time>2019-05-25T13:09:41Z</time>
      </trkpt>
      <trkpt lat="44.69183" lon="3.34212">
        <ele>972.20001220703</ele>
        <time>2019-05-25T13:09:42Z</time>
      </trkpt>
      <trkpt lat="44.69186" lon="3.34219">
        <ele>972.20001220703</ele>
        <time>2019-05-25T13:09:43Z</time>
      </trkpt>
      <trkpt lat="44.69187" lon="3.34231">
        <ele>972.20001220703</ele>
        <time>2019-05-25T13:09:45Z</time>
      </trkpt>
      <trkpt lat="44.69185" lon="3.34239">
        <ele>972.20001220703</ele>
        <time>2019-05-25T13:09:47Z</time>
      </trkpt>
      <trkpt lat="44.69184" lon="3.34241">
        <ele>972.40002441406</ele>
        <time>2019-05-25T13:09:48Z</time>
      </trkpt>
      <trkpt lat="44.69184" lon="3.34244">
        <ele>972.40002441406</ele>
        <time>2019-05-25T13:09:49Z</time>
      </trkpt>
      <trkpt lat="44.69185" lon="3.34249">
        <ele>972.40002441406</ele>
        <time>2019-05-25T13:09:51Z</time>
      </trkpt>
      <trkpt lat="44.69185" lon="3.34252">
        <ele>972.40002441406</ele>
        <time>2019-05-25T13:09:52Z</time>
      </trkpt>
      <trkpt lat="44.69181" lon="3.34276">
        <ele>972.59997558594</ele>
        <time>2019-05-25T13:09:57Z</time>
      </trkpt>
      <trkpt lat="44.69177" lon="3.34303">
        <ele>972.40002441406</ele>
        <time>2019-05-25T13:10:01Z</time>
      </trkpt>
      <trkpt lat="44.69177" lon="3.3431">
        <ele>972.40002441406</ele>
        <time>2019-05-25T13:10:02Z</time>
      </trkpt>
      <trkpt lat="44.69178" lon="3.34325">
        <ele>972.59997558594</ele>
        <time>2019-05-25T13:10:04Z</time>
      </trkpt>
      <trkpt lat="44.69182" lon="3.34337">
        <ele>972.59997558594</ele>
        <time>2019-05-25T13:10:06Z</time>
      </trkpt>
      <trkpt lat="44.69188" lon="3.34347">
        <ele>972.59997558594</ele>
        <time>2019-05-25T13:10:08Z</time>
      </trkpt>
      <trkpt lat="44.69195" lon="3.34357">
        <ele>972.59997558594</ele>
        <time>2019-05-25T13:10:10Z</time>
      </trkpt>
      <trkpt lat="44.69201" lon="3.34365">
        <ele>972.79998779297</ele>
        <time>2019-05-25T13:10:12Z</time>
      </trkpt>
      <trkpt lat="44.69211" lon="3.34385">
        <ele>973.20001220703</ele>
        <time>2019-05-25T13:10:17Z</time>
      </trkpt>
      <trkpt lat="44.69217" lon="3.34409">
        <ele>974</ele>
        <time>2019-05-25T13:10:23Z</time>
      </trkpt>
      <trkpt lat="44.69221" lon="3.34439">
        <ele>975</ele>
        <time>2019-05-25T13:10:31Z</time>
      </trkpt>
      <trkpt lat="44.69225" lon="3.34464">
        <ele>975.59997558594</ele>
        <time>2019-05-25T13:10:38Z</time>
      </trkpt>
      <trkpt lat="44.69233" lon="3.34483">
        <ele>976.20001220703</ele>
        <time>2019-05-25T13:10:44Z</time>
      </trkpt>
      <trkpt lat="44.69241" lon="3.34497">
        <ele>976.40002441406</ele>
        <time>2019-05-25T13:10:47Z</time>
      </trkpt>
      <trkpt lat="44.69245" lon="3.34501">
        <ele>976.40002441406</ele>
        <time>2019-05-25T13:10:48Z</time>
      </trkpt>
      <trkpt lat="44.6925" lon="3.34504">
        <ele>976.40002441406</ele>
        <time>2019-05-25T13:10:49Z</time>
      </trkpt>
      <trkpt lat="44.6926" lon="3.34501">
        <ele>976.40002441406</ele>
        <time>2019-05-25T13:10:51Z</time>
      </trkpt>
      <trkpt lat="44.69271" lon="3.34488">
        <ele>976.59997558594</ele>
        <time>2019-05-25T13:10:54Z</time>
      </trkpt>
      <trkpt lat="44.69274" lon="3.34484">
        <ele>976.59997558594</ele>
        <time>2019-05-25T13:10:55Z</time>
      </trkpt>
      <trkpt lat="44.69277" lon="3.34479">
        <ele>976.79998779297</ele>
        <time>2019-05-25T13:10:56Z</time>
      </trkpt>
      <trkpt lat="44.69281" lon="3.34468">
        <ele>976.79998779297</ele>
        <time>2019-05-25T13:10:58Z</time>
      </trkpt>
      <trkpt lat="44.69283" lon="3.34461">
        <ele>976.79998779297</ele>
        <time>2019-05-25T13:10:59Z</time>
      </trkpt>
      <trkpt lat="44.69286" lon="3.34437">
        <ele>976.79998779297</ele>
        <time>2019-05-25T13:11:02Z</time>
      </trkpt>
      <trkpt lat="44.69288" lon="3.34428">
        <ele>976.79998779297</ele>
        <time>2019-05-25T13:11:03Z</time>
      </trkpt>
      <trkpt lat="44.69291" lon="3.34419">
        <ele>976.79998779297</ele>
        <time>2019-05-25T13:11:04Z</time>
      </trkpt>
      <trkpt lat="44.69301" lon="3.34401">
        <ele>976.59997558594</ele>
        <time>2019-05-25T13:11:06Z</time>
      </trkpt>
      <trkpt lat="44.69314" lon="3.34385">
        <ele>976.40002441406</ele>
        <time>2019-05-25T13:11:08Z</time>
      </trkpt>
      <trkpt lat="44.69322" lon="3.3438">
        <ele>976.20001220703</ele>
        <time>2019-05-25T13:11:09Z</time>
      </trkpt>
      <trkpt lat="44.69339" lon="3.34373">
        <ele>976</ele>
        <time>2019-05-25T13:11:11Z</time>
      </trkpt>
      <trkpt lat="44.69346" lon="3.34366">
        <ele>976</ele>
        <time>2019-05-25T13:11:12Z</time>
      </trkpt>
      <trkpt lat="44.6935" lon="3.34358">
        <ele>975.79998779297</ele>
        <time>2019-05-25T13:11:13Z</time>
      </trkpt>
      <trkpt lat="44.69355" lon="3.34342">
        <ele>975.79998779297</ele>
        <time>2019-05-25T13:11:15Z</time>
      </trkpt>
      <trkpt lat="44.69352" lon="3.34326">
        <ele>975.59997558594</ele>
        <time>2019-05-25T13:11:17Z</time>
      </trkpt>
      <trkpt lat="44.6935" lon="3.34318">
        <ele>975.59997558594</ele>
        <time>2019-05-25T13:11:18Z</time>
      </trkpt>
      <trkpt lat="44.69349" lon="3.34308">
        <ele>975.59997558594</ele>
        <time>2019-05-25T13:11:19Z</time>
      </trkpt>
      <trkpt lat="44.69354" lon="3.34293">
        <ele>975.59997558594</ele>
        <time>2019-05-25T13:11:21Z</time>
      </trkpt>
      <trkpt lat="44.69365" lon="3.34291">
        <ele>975.79998779297</ele>
        <time>2019-05-25T13:11:23Z</time>
      </trkpt>
      <trkpt lat="44.69376" lon="3.34292">
        <ele>976</ele>
        <time>2019-05-25T13:11:25Z</time>
      </trkpt>
      <trkpt lat="44.6938" lon="3.3429">
        <ele>976</ele>
        <time>2019-05-25T13:11:26Z</time>
      </trkpt>
      <trkpt lat="44.69383" lon="3.34285">
        <ele>976</ele>
        <time>2019-05-25T13:11:27Z</time>
      </trkpt>
      <trkpt lat="44.69388" lon="3.34278">
        <ele>976</ele>
        <time>2019-05-25T13:11:29Z</time>
      </trkpt>
      <trkpt lat="44.69393" lon="3.34278">
        <ele>976.20001220703</ele>
        <time>2019-05-25T13:11:31Z</time>
      </trkpt>
      <trkpt lat="44.69403" lon="3.34282">
        <ele>976.40002441406</ele>
        <time>2019-05-25T13:11:34Z</time>
      </trkpt>
      <trkpt lat="44.69421" lon="3.3429">
        <ele>976.40002441406</ele>
        <time>2019-05-25T13:11:40Z</time>
      </trkpt>
      <trkpt lat="44.69423" lon="3.34301">
        <ele>976</ele>
        <time>2019-05-25T13:11:43Z</time>
      </trkpt>
      <trkpt lat="44.69424" lon="3.34304">
        <ele>976</ele>
        <time>2019-05-25T13:11:44Z</time>
      </trkpt>
      <trkpt lat="44.69427" lon="3.34309">
        <ele>975.79998779297</ele>
        <time>2019-05-25T13:11:46Z</time>
      </trkpt>
      <trkpt lat="44.69429" lon="3.34315">
        <ele>975.79998779297</ele>
        <time>2019-05-25T13:11:47Z</time>
      </trkpt>
      <trkpt lat="44.69435" lon="3.34333">
        <ele>975.59997558594</ele>
        <time>2019-05-25T13:11:50Z</time>
      </trkpt>
      <trkpt lat="44.6944" lon="3.34351">
        <ele>975.20001220703</ele>
        <time>2019-05-25T13:11:53Z</time>
      </trkpt>
      <trkpt lat="44.69442" lon="3.34368">
        <ele>975.20001220703</ele>
        <time>2019-05-25T13:11:56Z</time>
      </trkpt>
      <trkpt lat="44.69454" lon="3.34379">
        <ele>975.20001220703</ele>
        <time>2019-05-25T13:12:00Z</time>
      </trkpt>
      <trkpt lat="44.69469" lon="3.34372">
        <ele>975</ele>
        <time>2019-05-25T13:12:04Z</time>
      </trkpt>
      <trkpt lat="44.6948" lon="3.34372">
        <ele>975</ele>
        <time>2019-05-25T13:12:08Z</time>
      </trkpt>
      <trkpt lat="44.69486" lon="3.34372">
        <ele>975</ele>
        <time>2019-05-25T13:12:12Z</time>
      </trkpt>
      <trkpt lat="44.69487" lon="3.34363">
        <ele>973</ele>
        <time>2019-05-25T13:14:14Z</time>
      </trkpt>
      <trkpt lat="44.69486" lon="3.34356">
        <ele>973</ele>
        <time>2019-05-25T13:14:16Z</time>
      </trkpt>
      <trkpt lat="44.6948" lon="3.3434">
        <ele>973.20001220703</ele>
        <time>2019-05-25T13:14:22Z</time>
      </trkpt>
      <trkpt lat="44.69473" lon="3.34321">
        <ele>973.20001220703</ele>
        <time>2019-05-25T13:14:28Z</time>
      </trkpt>
      <trkpt lat="44.69463" lon="3.34299">
        <ele>973.40002441406</ele>
        <time>2019-05-25T13:14:34Z</time>
      </trkpt>
      <trkpt lat="44.69458" lon="3.34288">
        <ele>973.59997558594</ele>
        <time>2019-05-25T13:14:37Z</time>
      </trkpt>
      <trkpt lat="44.69455" lon="3.34287">
        <ele>973.59997558594</ele>
        <time>2019-05-25T13:14:38Z</time>
      </trkpt>
      <trkpt lat="44.69437" lon="3.34288">
        <ele>973.59997558594</ele>
        <time>2019-05-25T13:14:43Z</time>
      </trkpt>
      <trkpt lat="44.69426" lon="3.34285">
        <ele>973.79998779297</ele>
        <time>2019-05-25T13:14:47Z</time>
      </trkpt>
      <trkpt lat="44.69431" lon="3.3428">
        <ele>974</ele>
        <time>2019-05-25T13:14:50Z</time>
      </trkpt>
      <trkpt lat="44.69449" lon="3.3428">
        <ele>974.59997558594</ele>
        <time>2019-05-25T13:14:57Z</time>
      </trkpt>
      <trkpt lat="44.69467" lon="3.34284">
        <ele>974.79998779297</ele>
        <time>2019-05-25T13:15:04Z</time>
      </trkpt>
      <trkpt lat="44.69485" lon="3.34289">
        <ele>975.20001220703</ele>
        <time>2019-05-25T13:15:10Z</time>
      </trkpt>
      <trkpt lat="44.69501" lon="3.34285">
        <ele>975.79998779297</ele>
        <time>2019-05-25T13:15:16Z</time>
      </trkpt>
      <trkpt lat="44.69522" lon="3.34282">
        <ele>976</ele>
        <time>2019-05-25T13:15:22Z</time>
      </trkpt>
      <trkpt lat="44.69537" lon="3.34285">
        <ele>976</ele>
        <time>2019-05-25T13:15:25Z</time>
      </trkpt>
      <trkpt lat="44.69548" lon="3.34286">
        <ele>976</ele>
        <time>2019-05-25T13:15:27Z</time>
      </trkpt>
      <trkpt lat="44.69577" lon="3.34285">
        <ele>975.79998779297</ele>
        <time>2019-05-25T13:15:32Z</time>
      </trkpt>
      <trkpt lat="44.69583" lon="3.34283">
        <ele>975.79998779297</ele>
        <time>2019-05-25T13:15:33Z</time>
      </trkpt>
      <trkpt lat="44.6962" lon="3.34274">
        <ele>975.79998779297</ele>
        <time>2019-05-25T13:15:40Z</time>
      </trkpt>
      <trkpt lat="44.69624" lon="3.34272">
        <ele>975.79998779297</ele>
        <time>2019-05-25T13:15:41Z</time>
      </trkpt>
      <trkpt lat="44.69628" lon="3.34269">
        <ele>975.79998779297</ele>
        <time>2019-05-25T13:15:42Z</time>
      </trkpt>
      <trkpt lat="44.69629" lon="3.34258">
        <ele>975.79998779297</ele>
        <time>2019-05-25T13:15:44Z</time>
      </trkpt>
      <trkpt lat="44.69629" lon="3.34255">
        <ele>975.79998779297</ele>
        <time>2019-05-25T13:15:46Z</time>
      </trkpt>
      <trkpt lat="44.69627" lon="3.34253">
        <ele>975.20001220703</ele>
        <time>2019-05-25T13:19:29Z</time>
      </trkpt>
      <trkpt lat="44.69625" lon="3.34242">
        <ele>975.40002441406</ele>
        <time>2019-05-25T13:19:34Z</time>
      </trkpt>
      <trkpt lat="44.6963" lon="3.34224">
        <ele>975.59997558594</ele>
        <time>2019-05-25T13:19:40Z</time>
      </trkpt>
      <trkpt lat="44.69637" lon="3.34209">
        <ele>975.79998779297</ele>
        <time>2019-05-25T13:19:46Z</time>
      </trkpt>
      <trkpt lat="44.69651" lon="3.34197">
        <ele>976.59997558594</ele>
        <time>2019-05-25T13:19:56Z</time>
      </trkpt>
      <trkpt lat="44.69659" lon="3.34185">
        <ele>977.40002441406</ele>
        <time>2019-05-25T13:20:05Z</time>
      </trkpt>
      <trkpt lat="44.69658" lon="3.34169">
        <ele>978</ele>
        <time>2019-05-25T13:20:12Z</time>
      </trkpt>
      <trkpt lat="44.69654" lon="3.3415">
        <ele>978.59997558594</ele>
        <time>2019-05-25T13:20:21Z</time>
      </trkpt>
      <trkpt lat="44.69649" lon="3.34134">
        <ele>979.40002441406</ele>
        <time>2019-05-25T13:20:29Z</time>
      </trkpt>
      <trkpt lat="44.69647" lon="3.34119">
        <ele>980.40002441406</ele>
        <time>2019-05-25T13:20:37Z</time>
      </trkpt>
      <trkpt lat="44.69646" lon="3.34102">
        <ele>981</ele>
        <time>2019-05-25T13:20:44Z</time>
      </trkpt>
      <trkpt lat="44.69646" lon="3.34092">
        <ele>981.40002441406</ele>
        <time>2019-05-25T13:20:49Z</time>
      </trkpt>
      <trkpt lat="44.69647" lon="3.3409">
        <ele>981.59997558594</ele>
        <time>2019-05-25T13:20:50Z</time>
      </trkpt>
      <trkpt lat="44.69646" lon="3.34087">
        <ele>981.59997558594</ele>
        <time>2019-05-25T13:20:52Z</time>
      </trkpt>
      <trkpt lat="44.69643" lon="3.34084">
        <ele>981.79998779297</ele>
        <time>2019-05-25T13:20:54Z</time>
      </trkpt>
      <trkpt lat="44.6964" lon="3.34082">
        <ele>981.79998779297</ele>
        <time>2019-05-25T13:20:55Z</time>
      </trkpt>
      <trkpt lat="44.69631" lon="3.34073">
        <ele>982.40002441406</ele>
        <time>2019-05-25T13:21:00Z</time>
      </trkpt>
      <trkpt lat="44.69622" lon="3.34062">
        <ele>983.40002441406</ele>
        <time>2019-05-25T13:21:05Z</time>
      </trkpt>
      <trkpt lat="44.69614" lon="3.3405">
        <ele>984</ele>
        <time>2019-05-25T13:21:11Z</time>
      </trkpt>
      <trkpt lat="44.69607" lon="3.34037">
        <ele>984.59997558594</ele>
        <time>2019-05-25T13:21:19Z</time>
      </trkpt>
      <trkpt lat="44.69605" lon="3.34033">
        <ele>984.59997558594</ele>
        <time>2019-05-25T13:21:22Z</time>
      </trkpt>
      <trkpt lat="44.69486" lon="3.33863">
        <ele>1011.5999755859</ele>
        <time>2019-05-25T13:24:13Z</time>
      </trkpt>
      <trkpt lat="44.69486" lon="3.33858">
        <ele>1011.799987793</ele>
        <time>2019-05-25T13:24:16Z</time>
      </trkpt>
      <trkpt lat="44.69489" lon="3.33843">
        <ele>1012.5999755859</ele>
        <time>2019-05-25T13:24:24Z</time>
      </trkpt>
      <trkpt lat="44.69494" lon="3.33829">
        <ele>1013.4000244141</ele>
        <time>2019-05-25T13:24:32Z</time>
      </trkpt>
      <trkpt lat="44.69499" lon="3.33815">
        <ele>1014.200012207</ele>
        <time>2019-05-25T13:24:39Z</time>
      </trkpt>
      <trkpt lat="44.69508" lon="3.33792">
        <ele>1015.200012207</ele>
        <time>2019-05-25T13:24:49Z</time>
      </trkpt>
      <trkpt lat="44.69514" lon="3.33776">
        <ele>1015.799987793</ele>
        <time>2019-05-25T13:24:56Z</time>
      </trkpt>
      <trkpt lat="44.69525" lon="3.33756">
        <ele>1017</ele>
        <time>2019-05-25T13:25:06Z</time>
      </trkpt>
      <trkpt lat="44.69535" lon="3.33744">
        <ele>1017.799987793</ele>
        <time>2019-05-25T13:25:14Z</time>
      </trkpt>
      <trkpt lat="44.69548" lon="3.33732">
        <ele>1019.4000244141</ele>
        <time>2019-05-25T13:25:25Z</time>
      </trkpt>
      <trkpt lat="44.6956" lon="3.33722">
        <ele>1020.200012207</ele>
        <time>2019-05-25T13:25:33Z</time>
      </trkpt>
      <trkpt lat="44.69573" lon="3.33715">
        <ele>1021.200012207</ele>
        <time>2019-05-25T13:25:41Z</time>
      </trkpt>
      <trkpt lat="44.69589" lon="3.33706">
        <ele>1022.4000244141</ele>
        <time>2019-05-25T13:25:50Z</time>
      </trkpt>
      <trkpt lat="44.69601" lon="3.33698">
        <ele>1023.5999755859</ele>
        <time>2019-05-25T13:25:58Z</time>
      </trkpt>
      <trkpt lat="44.69614" lon="3.33691">
        <ele>1024.5999755859</ele>
        <time>2019-05-25T13:26:06Z</time>
      </trkpt>
      <trkpt lat="44.69628" lon="3.33682">
        <ele>1026</ele>
        <time>2019-05-25T13:26:15Z</time>
      </trkpt>
      <trkpt lat="44.69638" lon="3.33677">
        <ele>1027</ele>
        <time>2019-05-25T13:26:20Z</time>
      </trkpt>
      <trkpt lat="44.6965" lon="3.3367">
        <ele>1028</ele>
        <time>2019-05-25T13:26:27Z</time>
      </trkpt>
      <trkpt lat="44.69663" lon="3.33664">
        <ele>1028.5999755859</ele>
        <time>2019-05-25T13:26:33Z</time>
      </trkpt>
      <trkpt lat="44.69682" lon="3.33659">
        <ele>1029.5999755859</ele>
        <time>2019-05-25T13:26:42Z</time>
      </trkpt>
      <trkpt lat="44.69691" lon="3.33656">
        <ele>1030.1999511719</ele>
        <time>2019-05-25T13:26:46Z</time>
      </trkpt>
      <trkpt lat="44.69696" lon="3.33653">
        <ele>1030.4000244141</ele>
        <time>2019-05-25T13:26:49Z</time>
      </trkpt>
      <trkpt lat="44.69712" lon="3.3365">
        <ele>1031.1999511719</ele>
        <time>2019-05-25T13:26:57Z</time>
      </trkpt>
      <trkpt lat="44.69729" lon="3.33645">
        <ele>1032</ele>
        <time>2019-05-25T13:27:06Z</time>
      </trkpt>
      <trkpt lat="44.69745" lon="3.33644">
        <ele>1033.4000244141</ele>
        <time>2019-05-25T13:27:16Z</time>
      </trkpt>
      <trkpt lat="44.69756" lon="3.3364">
        <ele>1034.4000244141</ele>
        <time>2019-05-25T13:27:24Z</time>
      </trkpt>
      <trkpt lat="44.69766" lon="3.33636">
        <ele>1035.4000244141</ele>
        <time>2019-05-25T13:27:31Z</time>
      </trkpt>
      <trkpt lat="44.69778" lon="3.3363">
        <ele>1036.8000488281</ele>
        <time>2019-05-25T13:27:40Z</time>
      </trkpt>
      <trkpt lat="44.69786" lon="3.3362">
        <ele>1037.8000488281</ele>
        <time>2019-05-25T13:27:47Z</time>
      </trkpt>
      <trkpt lat="44.69797" lon="3.33607">
        <ele>1038.5999755859</ele>
        <time>2019-05-25T13:27:54Z</time>
      </trkpt>
      <trkpt lat="44.69807" lon="3.33593">
        <ele>1039.5999755859</ele>
        <time>2019-05-25T13:28:01Z</time>
      </trkpt>
      <trkpt lat="44.69824" lon="3.33572">
        <ele>1040.8000488281</ele>
        <time>2019-05-25T13:28:12Z</time>
      </trkpt>
      <trkpt lat="44.69842" lon="3.33555">
        <ele>1041.8000488281</ele>
        <time>2019-05-25T13:28:21Z</time>
      </trkpt>
      <trkpt lat="44.6985" lon="3.33545">
        <ele>1042.4000244141</ele>
        <time>2019-05-25T13:28:26Z</time>
      </trkpt>
      <trkpt lat="44.69853" lon="3.33541">
        <ele>1042.5999755859</ele>
        <time>2019-05-25T13:28:28Z</time>
      </trkpt>
      <trkpt lat="44.69867" lon="3.33527">
        <ele>1043.4000244141</ele>
        <time>2019-05-25T13:28:37Z</time>
      </trkpt>
      <trkpt lat="44.69879" lon="3.33515">
        <ele>1044</ele>
        <time>2019-05-25T13:28:44Z</time>
      </trkpt>
      <trkpt lat="44.69887" lon="3.33506">
        <ele>1044.5999755859</ele>
        <time>2019-05-25T13:28:50Z</time>
      </trkpt>
      <trkpt lat="44.69895" lon="3.33496">
        <ele>1045.1999511719</ele>
        <time>2019-05-25T13:28:56Z</time>
      </trkpt>
      <trkpt lat="44.69905" lon="3.33488">
        <ele>1045.8000488281</ele>
        <time>2019-05-25T13:29:02Z</time>
      </trkpt>
      <trkpt lat="44.69915" lon="3.33481">
        <ele>1046.4000244141</ele>
        <time>2019-05-25T13:29:08Z</time>
      </trkpt>
      <trkpt lat="44.69926" lon="3.33474">
        <ele>1047.1999511719</ele>
        <time>2019-05-25T13:29:15Z</time>
      </trkpt>
      <trkpt lat="44.69938" lon="3.33458">
        <ele>1047.8000488281</ele>
        <time>2019-05-25T13:29:23Z</time>
      </trkpt>
      <trkpt lat="44.69948" lon="3.33443">
        <ele>1048.8000488281</ele>
        <time>2019-05-25T13:29:31Z</time>
      </trkpt>
      <trkpt lat="44.69956" lon="3.33423">
        <ele>1049.5999755859</ele>
        <time>2019-05-25T13:29:39Z</time>
      </trkpt>
      <trkpt lat="44.69963" lon="3.3341">
        <ele>1050.1999511719</ele>
        <time>2019-05-25T13:29:45Z</time>
      </trkpt>
      <trkpt lat="44.69974" lon="3.33396">
        <ele>1051.1999511719</ele>
        <time>2019-05-25T13:29:53Z</time>
      </trkpt>
      <trkpt lat="44.69986" lon="3.33382">
        <ele>1051.8000488281</ele>
        <time>2019-05-25T13:30:00Z</time>
      </trkpt>
      <trkpt lat="44.7" lon="3.33364">
        <ele>1052.1999511719</ele>
        <time>2019-05-25T13:30:08Z</time>
      </trkpt>
      <trkpt lat="44.70013" lon="3.33347">
        <ele>1052.4000244141</ele>
        <time>2019-05-25T13:30:14Z</time>
      </trkpt>
      <trkpt lat="44.70034" lon="3.3332">
        <ele>1052.5999755859</ele>
        <time>2019-05-25T13:30:20Z</time>
      </trkpt>
      <trkpt lat="44.70067" lon="3.33285">
        <ele>1052.5999755859</ele>
        <time>2019-05-25T13:30:27Z</time>
      </trkpt>
      <trkpt lat="44.70098" lon="3.33258">
        <ele>1052.8000488281</ele>
        <time>2019-05-25T13:30:33Z</time>
      </trkpt>
      <trkpt lat="44.70123" lon="3.33228">
        <ele>1052.8000488281</ele>
        <time>2019-05-25T13:30:39Z</time>
      </trkpt>
      <trkpt lat="44.70152" lon="3.33189">
        <ele>1052.8000488281</ele>
        <time>2019-05-25T13:30:47Z</time>
      </trkpt>
      <trkpt lat="44.70162" lon="3.33176">
        <ele>1052.8000488281</ele>
        <time>2019-05-25T13:30:50Z</time>
      </trkpt>
      <trkpt lat="44.70168" lon="3.33168">
        <ele>1052.8000488281</ele>
        <time>2019-05-25T13:30:52Z</time>
      </trkpt>
      <trkpt lat="44.70178" lon="3.33157">
        <ele>1052.8000488281</ele>
        <time>2019-05-25T13:30:55Z</time>
      </trkpt>
      <trkpt lat="44.7019" lon="3.3314">
        <ele>1053</ele>
        <time>2019-05-25T13:30:59Z</time>
      </trkpt>
      <trkpt lat="44.70193" lon="3.33136">
        <ele>1053</ele>
        <time>2019-05-25T13:31:00Z</time>
      </trkpt>
      <trkpt lat="44.70214" lon="3.33102">
        <ele>1053</ele>
        <time>2019-05-25T13:31:08Z</time>
      </trkpt>
      <trkpt lat="44.7023" lon="3.33077">
        <ele>1053</ele>
        <time>2019-05-25T13:31:14Z</time>
      </trkpt>
      <trkpt lat="44.70247" lon="3.33045">
        <ele>1053.1999511719</ele>
        <time>2019-05-25T13:31:22Z</time>
      </trkpt>
      <trkpt lat="44.70263" lon="3.33019">
        <ele>1053.4000244141</ele>
        <time>2019-05-25T13:31:29Z</time>
      </trkpt>
      <trkpt lat="44.70278" lon="3.32996">
        <ele>1053.4000244141</ele>
        <time>2019-05-25T13:31:35Z</time>
      </trkpt>
      <trkpt lat="44.70297" lon="3.32966">
        <ele>1053.4000244141</ele>
        <time>2019-05-25T13:31:42Z</time>
      </trkpt>
      <trkpt lat="44.70316" lon="3.32936">
        <ele>1053.4000244141</ele>
        <time>2019-05-25T13:31:49Z</time>
      </trkpt>
      <trkpt lat="44.70334" lon="3.32906">
        <ele>1053.4000244141</ele>
        <time>2019-05-25T13:31:56Z</time>
      </trkpt>
      <trkpt lat="44.70352" lon="3.32882">
        <ele>1053.1999511719</ele>
        <time>2019-05-25T13:32:02Z</time>
      </trkpt>
      <trkpt lat="44.70367" lon="3.32864">
        <ele>1053</ele>
        <time>2019-05-25T13:32:06Z</time>
      </trkpt>
      <trkpt lat="44.70373" lon="3.32856">
        <ele>1053</ele>
        <time>2019-05-25T13:32:08Z</time>
      </trkpt>
      <trkpt lat="44.70397" lon="3.32818">
        <ele>1053.1999511719</ele>
        <time>2019-05-25T13:32:17Z</time>
      </trkpt>
      <trkpt lat="44.70419" lon="3.32786">
        <ele>1053.4000244141</ele>
        <time>2019-05-25T13:32:26Z</time>
      </trkpt>
      <trkpt lat="44.70442" lon="3.32751">
        <ele>1053.8000488281</ele>
        <time>2019-05-25T13:32:36Z</time>
      </trkpt>
      <trkpt lat="44.70456" lon="3.32731">
        <ele>1054</ele>
        <time>2019-05-25T13:32:42Z</time>
      </trkpt>
      <trkpt lat="44.70471" lon="3.32718">
        <ele>1054.1999511719</ele>
        <time>2019-05-25T13:32:47Z</time>
      </trkpt>
      <trkpt lat="44.70496" lon="3.32719">
        <ele>1054.1999511719</ele>
        <time>2019-05-25T13:32:53Z</time>
      </trkpt>
      <trkpt lat="44.70504" lon="3.32719">
        <ele>1054</ele>
        <time>2019-05-25T13:32:55Z</time>
      </trkpt>
      <trkpt lat="44.70511" lon="3.32716">
        <ele>1054</ele>
        <time>2019-05-25T13:32:57Z</time>
      </trkpt>
      <trkpt lat="44.70537" lon="3.32699">
        <ele>1053.8000488281</ele>
        <time>2019-05-25T13:33:03Z</time>
      </trkpt>
      <trkpt lat="44.70564" lon="3.32683">
        <ele>1053.4000244141</ele>
        <time>2019-05-25T13:33:08Z</time>
      </trkpt>
      <trkpt lat="44.70598" lon="3.32674">
        <ele>1053</ele>
        <time>2019-05-25T13:33:13Z</time>
      </trkpt>
      <trkpt lat="44.7064" lon="3.3266">
        <ele>1052.4000244141</ele>
        <time>2019-05-25T13:33:19Z</time>
      </trkpt>
      <trkpt lat="44.70647" lon="3.32656">
        <ele>1052.4000244141</ele>
        <time>2019-05-25T13:33:20Z</time>
      </trkpt>
      <trkpt lat="44.70675" lon="3.32631">
        <ele>1051.8000488281</ele>
        <time>2019-05-25T13:33:25Z</time>
      </trkpt>
      <trkpt lat="44.70681" lon="3.32626">
        <ele>1051.5999755859</ele>
        <time>2019-05-25T13:33:26Z</time>
      </trkpt>
      <trkpt lat="44.70699" lon="3.32618">
        <ele>1051.4000244141</ele>
        <time>2019-05-25T13:33:29Z</time>
      </trkpt>
      <trkpt lat="44.70733" lon="3.32609">
        <ele>1050.5999755859</ele>
        <time>2019-05-25T13:33:34Z</time>
      </trkpt>
      <trkpt lat="44.70765" lon="3.32593">
        <ele>1049.4000244141</ele>
        <time>2019-05-25T13:33:38Z</time>
      </trkpt>
      <trkpt lat="44.70805" lon="3.32567">
        <ele>1047.5999755859</ele>
        <time>2019-05-25T13:33:42Z</time>
      </trkpt>
      <trkpt lat="44.70835" lon="3.32547">
        <ele>1046.4000244141</ele>
        <time>2019-05-25T13:33:45Z</time>
      </trkpt>
      <trkpt lat="44.70845" lon="3.32543">
        <ele>1046.1999511719</ele>
        <time>2019-05-25T13:33:46Z</time>
      </trkpt>
      <trkpt lat="44.70855" lon="3.32541">
        <ele>1046</ele>
        <time>2019-05-25T13:33:47Z</time>
      </trkpt>
      <trkpt lat="44.70873" lon="3.32538">
        <ele>1045.5999755859</ele>
        <time>2019-05-25T13:33:49Z</time>
      </trkpt>
      <trkpt lat="44.70899" lon="3.32535">
        <ele>1045</ele>
        <time>2019-05-25T13:33:52Z</time>
      </trkpt>
      <trkpt lat="44.70913" lon="3.32528">
        <ele>1044.5999755859</ele>
        <time>2019-05-25T13:33:54Z</time>
      </trkpt>
      <trkpt lat="44.70946" lon="3.32498">
        <ele>1043.8000488281</ele>
        <time>2019-05-25T13:33:59Z</time>
      </trkpt>
      <trkpt lat="44.70966" lon="3.32474">
        <ele>1043</ele>
        <time>2019-05-25T13:34:02Z</time>
      </trkpt>
      <trkpt lat="44.70972" lon="3.32464">
        <ele>1042.5999755859</ele>
        <time>2019-05-25T13:34:03Z</time>
      </trkpt>
      <trkpt lat="44.70998" lon="3.32418">
        <ele>1041</ele>
        <time>2019-05-25T13:34:07Z</time>
      </trkpt>
      <trkpt lat="44.71025" lon="3.32381">
        <ele>1039.8000488281</ele>
        <time>2019-05-25T13:34:11Z</time>
      </trkpt>
      <trkpt lat="44.7105" lon="3.32362">
        <ele>1039.1999511719</ele>
        <time>2019-05-25T13:34:15Z</time>
      </trkpt>
      <trkpt lat="44.71059" lon="3.32353">
        <ele>1039</ele>
        <time>2019-05-25T13:34:17Z</time>
      </trkpt>
      <trkpt lat="44.71067" lon="3.32347">
        <ele>1038.8000488281</ele>
        <time>2019-05-25T13:34:19Z</time>
      </trkpt>
      <trkpt lat="44.71079" lon="3.32333">
        <ele>1038.4000244141</ele>
        <time>2019-05-25T13:34:24Z</time>
      </trkpt>
      <trkpt lat="44.71094" lon="3.32319">
        <ele>1037.8000488281</ele>
        <time>2019-05-25T13:34:31Z</time>
      </trkpt>
      <trkpt lat="44.71116" lon="3.32301">
        <ele>1036.8000488281</ele>
        <time>2019-05-25T13:34:40Z</time>
      </trkpt>
      <trkpt lat="44.7114" lon="3.32286">
        <ele>1036.4000244141</ele>
        <time>2019-05-25T13:34:49Z</time>
      </trkpt>
      <trkpt lat="44.71168" lon="3.32279">
        <ele>1035.8000488281</ele>
        <time>2019-05-25T13:34:59Z</time>
      </trkpt>
      <trkpt lat="44.71189" lon="3.3227">
        <ele>1035.8000488281</ele>
        <time>2019-05-25T13:35:07Z</time>
      </trkpt>
      <trkpt lat="44.71205" lon="3.32257">
        <ele>1035.8000488281</ele>
        <time>2019-05-25T13:35:14Z</time>
      </trkpt>
      <trkpt lat="44.71221" lon="3.32238">
        <ele>1035.5999755859</ele>
        <time>2019-05-25T13:35:22Z</time>
      </trkpt>
      <trkpt lat="44.71237" lon="3.32222">
        <ele>1035.8000488281</ele>
        <time>2019-05-25T13:35:30Z</time>
      </trkpt>
      <trkpt lat="44.71256" lon="3.32215">
        <ele>1036.1999511719</ele>
        <time>2019-05-25T13:35:38Z</time>
      </trkpt>
      <trkpt lat="44.71274" lon="3.32215">
        <ele>1036.8000488281</ele>
        <time>2019-05-25T13:35:45Z</time>
      </trkpt>
      <trkpt lat="44.71287" lon="3.32215">
        <ele>1037</ele>
        <time>2019-05-25T13:35:50Z</time>
      </trkpt>
      <trkpt lat="44.71302" lon="3.32218">
        <ele>1037.4000244141</ele>
        <time>2019-05-25T13:35:56Z</time>
      </trkpt>
      <trkpt lat="44.7132" lon="3.32223">
        <ele>1038</ele>
        <time>2019-05-25T13:36:03Z</time>
      </trkpt>
      <trkpt lat="44.71336" lon="3.32229">
        <ele>1038.1999511719</ele>
        <time>2019-05-25T13:36:09Z</time>
      </trkpt>
      <trkpt lat="44.71339" lon="3.32231">
        <ele>1038.4000244141</ele>
        <time>2019-05-25T13:36:10Z</time>
      </trkpt>
      <trkpt lat="44.71345" lon="3.32242">
        <ele>1038.4000244141</ele>
        <time>2019-05-25T13:36:13Z</time>
      </trkpt>
      <trkpt lat="44.7135" lon="3.32251">
        <ele>1038.4000244141</ele>
        <time>2019-05-25T13:36:15Z</time>
      </trkpt>
      <trkpt lat="44.71361" lon="3.32266">
        <ele>1038.5999755859</ele>
        <time>2019-05-25T13:36:18Z</time>
      </trkpt>
      <trkpt lat="44.71365" lon="3.3227">
        <ele>1038.4000244141</ele>
        <time>2019-05-25T13:36:19Z</time>
      </trkpt>
      <trkpt lat="44.71378" lon="3.32275">
        <ele>1038.4000244141</ele>
        <time>2019-05-25T13:36:21Z</time>
      </trkpt>
      <trkpt lat="44.71392" lon="3.32267">
        <ele>1038.4000244141</ele>
        <time>2019-05-25T13:36:23Z</time>
      </trkpt>
      <trkpt lat="44.71399" lon="3.32261">
        <ele>1038.4000244141</ele>
        <time>2019-05-25T13:36:24Z</time>
      </trkpt>
      <trkpt lat="44.71407" lon="3.32257">
        <ele>1038.4000244141</ele>
        <time>2019-05-25T13:36:25Z</time>
      </trkpt>
      <trkpt lat="44.71422" lon="3.32257">
        <ele>1038.4000244141</ele>
        <time>2019-05-25T13:36:27Z</time>
      </trkpt>
      <trkpt lat="44.71434" lon="3.32268">
        <ele>1038.4000244141</ele>
        <time>2019-05-25T13:36:29Z</time>
      </trkpt>
      <trkpt lat="44.71437" lon="3.32276">
        <ele>1038.4000244141</ele>
        <time>2019-05-25T13:36:30Z</time>
      </trkpt>
      <trkpt lat="44.71441" lon="3.32284">
        <ele>1038.4000244141</ele>
        <time>2019-05-25T13:36:31Z</time>
      </trkpt>
      <trkpt lat="44.71447" lon="3.32311">
        <ele>1038.4000244141</ele>
        <time>2019-05-25T13:36:34Z</time>
      </trkpt>
      <trkpt lat="44.7146" lon="3.32346">
        <ele>1038.1999511719</ele>
        <time>2019-05-25T13:36:38Z</time>
      </trkpt>
      <trkpt lat="44.71464" lon="3.32355">
        <ele>1038.1999511719</ele>
        <time>2019-05-25T13:36:39Z</time>
      </trkpt>
      <trkpt lat="44.7149" lon="3.32396">
        <ele>1037.5999755859</ele>
        <time>2019-05-25T13:36:44Z</time>
      </trkpt>
      <trkpt lat="44.71529" lon="3.32434">
        <ele>1036.5999755859</ele>
        <time>2019-05-25T13:36:49Z</time>
      </trkpt>
      <trkpt lat="44.71568" lon="3.32459">
        <ele>1035.8000488281</ele>
        <time>2019-05-25T13:36:53Z</time>
      </trkpt>
      <trkpt lat="44.71621" lon="3.32492">
        <ele>1034.4000244141</ele>
        <time>2019-05-25T13:36:58Z</time>
      </trkpt>
      <trkpt lat="44.71631" lon="3.32501">
        <ele>1034</ele>
        <time>2019-05-25T13:36:59Z</time>
      </trkpt>
      <trkpt lat="44.71673" lon="3.32549">
        <ele>1032.5999755859</ele>
        <time>2019-05-25T13:37:04Z</time>
      </trkpt>
      <trkpt lat="44.71701" lon="3.32582">
        <ele>1031.5999755859</ele>
        <time>2019-05-25T13:37:08Z</time>
      </trkpt>
      <trkpt lat="44.7173" lon="3.32612">
        <ele>1031</ele>
        <time>2019-05-25T13:37:13Z</time>
      </trkpt>
      <trkpt lat="44.71742" lon="3.32628">
        <ele>1030.5999755859</ele>
        <time>2019-05-25T13:37:17Z</time>
      </trkpt>
      <trkpt lat="44.71749" lon="3.32635">
        <ele>1030.4000244141</ele>
        <time>2019-05-25T13:37:22Z</time>
      </trkpt>
      <trkpt lat="44.7176" lon="3.32646">
        <ele>1029.5999755859</ele>
        <time>2019-05-25T13:37:29Z</time>
      </trkpt>
      <trkpt lat="44.71764" lon="3.32651">
        <ele>1029.4000244141</ele>
        <time>2019-05-25T13:37:32Z</time>
      </trkpt>
      <trkpt lat="44.71772" lon="3.3266">
        <ele>1029.4000244141</ele>
        <time>2019-05-25T13:37:38Z</time>
      </trkpt>
      <trkpt lat="44.71773" lon="3.32661">
        <ele>1029.4000244141</ele>
        <time>2019-05-25T13:37:39Z</time>
      </trkpt>
      <trkpt lat="44.71783" lon="3.3267">
        <ele>1029.8000488281</ele>
        <time>2019-05-25T13:37:46Z</time>
      </trkpt>
      <trkpt lat="44.71797" lon="3.32678">
        <ele>1030.1999511719</ele>
        <time>2019-05-25T13:37:54Z</time>
      </trkpt>
      <trkpt lat="44.71809" lon="3.32683">
        <ele>1030.4000244141</ele>
        <time>2019-05-25T13:38:00Z</time>
      </trkpt>
      <trkpt lat="44.71823" lon="3.32686">
        <ele>1030.5999755859</ele>
        <time>2019-05-25T13:38:07Z</time>
      </trkpt>
      <trkpt lat="44.71832" lon="3.32691">
        <ele>1030.8000488281</ele>
        <time>2019-05-25T13:38:12Z</time>
      </trkpt>
      <trkpt lat="44.71849" lon="3.32703">
        <ele>1031</ele>
        <time>2019-05-25T13:38:20Z</time>
      </trkpt>
      <trkpt lat="44.7186" lon="3.32712">
        <ele>1031</ele>
        <time>2019-05-25T13:38:26Z</time>
      </trkpt>
      <trkpt lat="44.71873" lon="3.32722">
        <ele>1031.4000244141</ele>
        <time>2019-05-25T13:38:33Z</time>
      </trkpt>
      <trkpt lat="44.71889" lon="3.32734">
        <ele>1031.8000488281</ele>
        <time>2019-05-25T13:38:41Z</time>
      </trkpt>
      <trkpt lat="44.71906" lon="3.32744">
        <ele>1032.1999511719</ele>
        <time>2019-05-25T13:38:49Z</time>
      </trkpt>
      <trkpt lat="44.71924" lon="3.32751">
        <ele>1032.4000244141</ele>
        <time>2019-05-25T13:38:55Z</time>
      </trkpt>
      <trkpt lat="44.7194" lon="3.32755">
        <ele>1032.4000244141</ele>
        <time>2019-05-25T13:38:59Z</time>
      </trkpt>
      <trkpt lat="44.71945" lon="3.32755">
        <ele>1032.4000244141</ele>
        <time>2019-05-25T13:39:00Z</time>
      </trkpt>
      <trkpt lat="44.71976" lon="3.32754">
        <ele>1032.4000244141</ele>
        <time>2019-05-25T13:39:06Z</time>
      </trkpt>
      <trkpt lat="44.71998" lon="3.32764">
        <ele>1032.4000244141</ele>
        <time>2019-05-25T13:39:10Z</time>
      </trkpt>
      <trkpt lat="44.72003" lon="3.32766">
        <ele>1032.4000244141</ele>
        <time>2019-05-25T13:39:11Z</time>
      </trkpt>
      <trkpt lat="44.72043" lon="3.32783">
        <ele>1032.1999511719</ele>
        <time>2019-05-25T13:39:18Z</time>
      </trkpt>
      <trkpt lat="44.72057" lon="3.32784">
        <ele>1032</ele>
        <time>2019-05-25T13:39:20Z</time>
      </trkpt>
      <trkpt lat="44.7208" lon="3.32785">
        <ele>1031.5999755859</ele>
        <time>2019-05-25T13:39:23Z</time>
      </trkpt>
      <trkpt lat="44.72088" lon="3.32786">
        <ele>1031.4000244141</ele>
        <time>2019-05-25T13:39:24Z</time>
      </trkpt>
      <trkpt lat="44.72105" lon="3.32788">
        <ele>1031</ele>
        <time>2019-05-25T13:39:26Z</time>
      </trkpt>
      <trkpt lat="44.72112" lon="3.32787">
        <ele>1031</ele>
        <time>2019-05-25T13:39:27Z</time>
      </trkpt>
      <trkpt lat="44.72119" lon="3.32785">
        <ele>1031</ele>
        <time>2019-05-25T13:39:28Z</time>
      </trkpt>
      <trkpt lat="44.72136" lon="3.32781">
        <ele>1031</ele>
        <time>2019-05-25T13:39:31Z</time>
      </trkpt>
      <trkpt lat="44.72149" lon="3.32782">
        <ele>1031.1999511719</ele>
        <time>2019-05-25T13:39:35Z</time>
      </trkpt>
      <trkpt lat="44.72165" lon="3.32785">
        <ele>1031.4000244141</ele>
        <time>2019-05-25T13:39:40Z</time>
      </trkpt>
      <trkpt lat="44.7218" lon="3.32786">
        <ele>1031.5999755859</ele>
        <time>2019-05-25T13:39:45Z</time>
      </trkpt>
      <trkpt lat="44.7219" lon="3.32786">
        <ele>1031.8000488281</ele>
        <time>2019-05-25T13:39:49Z</time>
      </trkpt>
      <trkpt lat="44.72202" lon="3.3278">
        <ele>1032</ele>
        <time>2019-05-25T13:39:55Z</time>
      </trkpt>
      <trkpt lat="44.72214" lon="3.32769">
        <ele>1032.4000244141</ele>
        <time>2019-05-25T13:40:02Z</time>
      </trkpt>
      <trkpt lat="44.72225" lon="3.32749">
        <ele>1032.8000488281</ele>
        <time>2019-05-25T13:40:10Z</time>
      </trkpt>
      <trkpt lat="44.72235" lon="3.32735">
        <ele>1033.1999511719</ele>
        <time>2019-05-25T13:40:16Z</time>
      </trkpt>
      <trkpt lat="44.72249" lon="3.32735">
        <ele>1033.1999511719</ele>
        <time>2019-05-25T13:40:21Z</time>
      </trkpt>
      <trkpt lat="44.72263" lon="3.32745">
        <ele>1033.4000244141</ele>
        <time>2019-05-25T13:40:25Z</time>
      </trkpt>
      <trkpt lat="44.72269" lon="3.32754">
        <ele>1033.1999511719</ele>
        <time>2019-05-25T13:40:28Z</time>
      </trkpt>
      <trkpt lat="44.7228" lon="3.32763">
        <ele>1033.5999755859</ele>
        <time>2019-05-25T13:40:33Z</time>
      </trkpt>
      <trkpt lat="44.72294" lon="3.32775">
        <ele>1034</ele>
        <time>2019-05-25T13:40:40Z</time>
      </trkpt>
      <trkpt lat="44.72308" lon="3.32785">
        <ele>1034.8000488281</ele>
        <time>2019-05-25T13:40:47Z</time>
      </trkpt>
      <trkpt lat="44.72316" lon="3.32794">
        <ele>1035.1999511719</ele>
        <time>2019-05-25T13:40:53Z</time>
      </trkpt>
      <trkpt lat="44.72327" lon="3.32804">
        <ele>1035.8000488281</ele>
        <time>2019-05-25T13:41:00Z</time>
      </trkpt>
      <trkpt lat="44.72337" lon="3.32815">
        <ele>1036.5999755859</ele>
        <time>2019-05-25T13:41:08Z</time>
      </trkpt>
      <trkpt lat="44.72343" lon="3.32825">
        <ele>1037.1999511719</ele>
        <time>2019-05-25T13:41:14Z</time>
      </trkpt>
      <trkpt lat="44.72353" lon="3.32834">
        <ele>1037.8000488281</ele>
        <time>2019-05-25T13:41:21Z</time>
      </trkpt>
      <trkpt lat="44.72359" lon="3.3283">
        <ele>1038.4000244141</ele>
        <time>2019-05-25T13:41:27Z</time>
      </trkpt>
      <trkpt lat="44.72367" lon="3.32821">
        <ele>1039.1999511719</ele>
        <time>2019-05-25T13:41:34Z</time>
      </trkpt>
      <trkpt lat="44.72373" lon="3.32812">
        <ele>1039.8000488281</ele>
        <time>2019-05-25T13:41:40Z</time>
      </trkpt>
      <trkpt lat="44.72382" lon="3.32804">
        <ele>1040.4000244141</ele>
        <time>2019-05-25T13:41:47Z</time>
      </trkpt>
      <trkpt lat="44.72386" lon="3.328">
        <ele>1040.8000488281</ele>
        <time>2019-05-25T13:41:50Z</time>
      </trkpt>
      <trkpt lat="44.72389" lon="3.32797">
        <ele>1040.8000488281</ele>
        <time>2019-05-25T13:41:52Z</time>
      </trkpt>
      <trkpt lat="44.72395" lon="3.32792">
        <ele>1041.1999511719</ele>
        <time>2019-05-25T13:41:56Z</time>
      </trkpt>
      <trkpt lat="44.72398" lon="3.3279">
        <ele>1041.4000244141</ele>
        <time>2019-05-25T13:41:58Z</time>
      </trkpt>
      <trkpt lat="44.72408" lon="3.32782">
        <ele>1042</ele>
        <time>2019-05-25T13:42:04Z</time>
      </trkpt>
      <trkpt lat="44.72418" lon="3.32778">
        <ele>1042.8000488281</ele>
        <time>2019-05-25T13:42:11Z</time>
      </trkpt>
      <trkpt lat="44.72415" lon="3.3277">
        <ele>1050</ele>
        <time>2019-05-25T13:47:20Z</time>
      </trkpt>
      <trkpt lat="44.72412" lon="3.32763">
        <ele>1050</ele>
        <time>2019-05-25T13:47:22Z</time>
      </trkpt>
      <trkpt lat="44.72404" lon="3.32743">
        <ele>1050</ele>
        <time>2019-05-25T13:47:27Z</time>
      </trkpt>
      <trkpt lat="44.72394" lon="3.32715">
        <ele>1050</ele>
        <time>2019-05-25T13:47:32Z</time>
      </trkpt>
      <trkpt lat="44.72392" lon="3.32708">
        <ele>1050</ele>
        <time>2019-05-25T13:47:33Z</time>
      </trkpt>
      <trkpt lat="44.7239" lon="3.32696">
        <ele>1050.1999511719</ele>
        <time>2019-05-25T13:47:35Z</time>
      </trkpt>
      <trkpt lat="44.72389" lon="3.3269">
        <ele>1050.1999511719</ele>
        <time>2019-05-25T13:47:36Z</time>
      </trkpt>
      <trkpt lat="44.72388" lon="3.32654">
        <ele>1050.1999511719</ele>
        <time>2019-05-25T13:47:41Z</time>
      </trkpt>
      <trkpt lat="44.72388" lon="3.32641">
        <ele>1050.1999511719</ele>
        <time>2019-05-25T13:47:43Z</time>
      </trkpt>
      <trkpt lat="44.72389" lon="3.32628">
        <ele>1050.1999511719</ele>
        <time>2019-05-25T13:47:45Z</time>
      </trkpt>
      <trkpt lat="44.72392" lon="3.3261">
        <ele>1050.1999511719</ele>
        <time>2019-05-25T13:47:48Z</time>
      </trkpt>
      <trkpt lat="44.72393" lon="3.32599">
        <ele>1050.1999511719</ele>
        <time>2019-05-25T13:47:50Z</time>
      </trkpt>
      <trkpt lat="44.72394" lon="3.32587">
        <ele>1050</ele>
        <time>2019-05-25T13:47:52Z</time>
      </trkpt>
      <trkpt lat="44.72393" lon="3.32575">
        <ele>1050</ele>
        <time>2019-05-25T13:47:54Z</time>
      </trkpt>
      <trkpt lat="44.72394" lon="3.32569">
        <ele>1050</ele>
        <time>2019-05-25T13:47:55Z</time>
      </trkpt>
      <trkpt lat="44.72396" lon="3.32537">
        <ele>1050</ele>
        <time>2019-05-25T13:48:01Z</time>
      </trkpt>
      <trkpt lat="44.72399" lon="3.32511">
        <ele>1050</ele>
        <time>2019-05-25T13:48:06Z</time>
      </trkpt>
      <trkpt lat="44.72405" lon="3.32477">
        <ele>1050.1999511719</ele>
        <time>2019-05-25T13:48:13Z</time>
      </trkpt>
      <trkpt lat="44.72408" lon="3.32449">
        <ele>1050.4000244141</ele>
        <time>2019-05-25T13:48:19Z</time>
      </trkpt>
      <trkpt lat="44.72411" lon="3.32429">
        <ele>1050.5999755859</ele>
        <time>2019-05-25T13:48:23Z</time>
      </trkpt>
      <trkpt lat="44.72415" lon="3.32397">
        <ele>1050.8000488281</ele>
        <time>2019-05-25T13:48:30Z</time>
      </trkpt>
      <trkpt lat="44.72418" lon="3.32373">
        <ele>1051.1999511719</ele>
        <time>2019-05-25T13:48:35Z</time>
      </trkpt>
      <trkpt lat="44.72423" lon="3.32346">
        <ele>1051.8000488281</ele>
        <time>2019-05-25T13:48:41Z</time>
      </trkpt>
      <trkpt lat="44.72428" lon="3.3232">
        <ele>1052.1999511719</ele>
        <time>2019-05-25T13:48:47Z</time>
      </trkpt>
      <trkpt lat="44.72432" lon="3.3229">
        <ele>1052.5999755859</ele>
        <time>2019-05-25T13:48:53Z</time>
      </trkpt>
      <trkpt lat="44.72433" lon="3.32278">
        <ele>1052.5999755859</ele>
        <time>2019-05-25T13:48:55Z</time>
      </trkpt>
      <trkpt lat="44.72433" lon="3.32259">
        <ele>1052.5999755859</ele>
        <time>2019-05-25T13:48:58Z</time>
      </trkpt>
      <trkpt lat="44.72431" lon="3.32231">
        <ele>1052.4000244141</ele>
        <time>2019-05-25T13:49:02Z</time>
      </trkpt>
      <trkpt lat="44.72431" lon="3.32216">
        <ele>1052.4000244141</ele>
        <time>2019-05-25T13:49:04Z</time>
      </trkpt>
      <trkpt lat="44.72428" lon="3.32164">
        <ele>1052.4000244141</ele>
        <time>2019-05-25T13:49:11Z</time>
      </trkpt>
      <trkpt lat="44.72429" lon="3.32148">
        <ele>1052.4000244141</ele>
        <time>2019-05-25T13:49:13Z</time>
      </trkpt>
      <trkpt lat="44.72431" lon="3.32132">
        <ele>1052.4000244141</ele>
        <time>2019-05-25T13:49:15Z</time>
      </trkpt>
      <trkpt lat="44.72433" lon="3.32125">
        <ele>1052.4000244141</ele>
        <time>2019-05-25T13:49:16Z</time>
      </trkpt>
      <trkpt lat="44.72435" lon="3.32118">
        <ele>1052.4000244141</ele>
        <time>2019-05-25T13:49:17Z</time>
      </trkpt>
      <trkpt lat="44.72445" lon="3.321">
        <ele>1052.1999511719</ele>
        <time>2019-05-25T13:49:20Z</time>
      </trkpt>
      <trkpt lat="44.72453" lon="3.3209">
        <ele>1052.1999511719</ele>
        <time>2019-05-25T13:49:22Z</time>
      </trkpt>
      <trkpt lat="44.72465" lon="3.32077">
        <ele>1052.1999511719</ele>
        <time>2019-05-25T13:49:25Z</time>
      </trkpt>
      <trkpt lat="44.72468" lon="3.32072">
        <ele>1052.1999511719</ele>
        <time>2019-05-25T13:49:26Z</time>
      </trkpt>
      <trkpt lat="44.72476" lon="3.32058">
        <ele>1052.1999511719</ele>
        <time>2019-05-25T13:49:29Z</time>
      </trkpt>
      <trkpt lat="44.72478" lon="3.32053">
        <ele>1052.1999511719</ele>
        <time>2019-05-25T13:49:30Z</time>
      </trkpt>
      <trkpt lat="44.72485" lon="3.32025">
        <ele>1052.4000244141</ele>
        <time>2019-05-25T13:49:36Z</time>
      </trkpt>
      <trkpt lat="44.72488" lon="3.31993">
        <ele>1052.5999755859</ele>
        <time>2019-05-25T13:49:43Z</time>
      </trkpt>
      <trkpt lat="44.72493" lon="3.31952">
        <ele>1053</ele>
        <time>2019-05-25T13:49:52Z</time>
      </trkpt>
      <trkpt lat="44.72496" lon="3.31929">
        <ele>1053.4000244141</ele>
        <time>2019-05-25T13:49:57Z</time>
      </trkpt>
      <trkpt lat="44.725" lon="3.31905">
        <ele>1053.5999755859</ele>
        <time>2019-05-25T13:50:03Z</time>
      </trkpt>
      <trkpt lat="44.72502" lon="3.31887">
        <ele>1054</ele>
        <time>2019-05-25T13:50:07Z</time>
      </trkpt>
      <trkpt lat="44.72504" lon="3.3186">
        <ele>1054.4000244141</ele>
        <time>2019-05-25T13:50:13Z</time>
      </trkpt>
      <trkpt lat="44.72506" lon="3.31833">
        <ele>1054.8000488281</ele>
        <time>2019-05-25T13:50:19Z</time>
      </trkpt>
      <trkpt lat="44.7251" lon="3.31808">
        <ele>1055.1999511719</ele>
        <time>2019-05-25T13:50:24Z</time>
      </trkpt>
      <trkpt lat="44.72511" lon="3.31802">
        <ele>1055.4000244141</ele>
        <time>2019-05-25T13:50:25Z</time>
      </trkpt>
      <trkpt lat="44.72515" lon="3.31786">
        <ele>1055.4000244141</ele>
        <time>2019-05-25T13:50:28Z</time>
      </trkpt>
      <trkpt lat="44.72517" lon="3.31762">
        <ele>1055.4000244141</ele>
        <time>2019-05-25T13:50:32Z</time>
      </trkpt>
      <trkpt lat="44.72519" lon="3.31738">
        <ele>1055.5999755859</ele>
        <time>2019-05-25T13:50:36Z</time>
      </trkpt>
      <trkpt lat="44.72518" lon="3.31726">
        <ele>1055.5999755859</ele>
        <time>2019-05-25T13:50:38Z</time>
      </trkpt>
      <trkpt lat="44.72517" lon="3.31715">
        <ele>1055.8000488281</ele>
        <time>2019-05-25T13:50:40Z</time>
      </trkpt>
      <trkpt lat="44.72516" lon="3.31683">
        <ele>1056</ele>
        <time>2019-05-25T13:50:47Z</time>
      </trkpt>
      <trkpt lat="44.72517" lon="3.31657">
        <ele>1056.4000244141</ele>
        <time>2019-05-25T13:50:53Z</time>
      </trkpt>
      <trkpt lat="44.7252" lon="3.31632">
        <ele>1057</ele>
        <time>2019-05-25T13:51:00Z</time>
      </trkpt>
      <trkpt lat="44.72525" lon="3.31608">
        <ele>1057.4000244141</ele>
        <time>2019-05-25T13:51:07Z</time>
      </trkpt>
      <trkpt lat="44.72527" lon="3.31594">
        <ele>1057.8000488281</ele>
        <time>2019-05-25T13:51:11Z</time>
      </trkpt>
      <trkpt lat="44.72525" lon="3.31588">
        <ele>1058</ele>
        <time>2019-05-25T13:51:13Z</time>
      </trkpt>
      <trkpt lat="44.72528" lon="3.31573">
        <ele>1058.5999755859</ele>
        <time>2019-05-25T13:51:17Z</time>
      </trkpt>
      <trkpt lat="44.72532" lon="3.31554">
        <ele>1059.1999511719</ele>
        <time>2019-05-25T13:51:22Z</time>
      </trkpt>
      <trkpt lat="44.72535" lon="3.31532">
        <ele>1059.8000488281</ele>
        <time>2019-05-25T13:51:28Z</time>
      </trkpt>
      <trkpt lat="44.72537" lon="3.31498">
        <ele>1060.8000488281</ele>
        <time>2019-05-25T13:51:37Z</time>
      </trkpt>
      <trkpt lat="44.7254" lon="3.31485">
        <ele>1061.1999511719</ele>
        <time>2019-05-25T13:51:41Z</time>
      </trkpt>
      <trkpt lat="44.72539" lon="3.31466">
        <ele>1061.8000488281</ele>
        <time>2019-05-25T13:51:46Z</time>
      </trkpt>
      <trkpt lat="44.72538" lon="3.31442">
        <ele>1062.8000488281</ele>
        <time>2019-05-25T13:51:52Z</time>
      </trkpt>
      <trkpt lat="44.72539" lon="3.3142">
        <ele>1063.5999755859</ele>
        <time>2019-05-25T13:51:58Z</time>
      </trkpt>
      <trkpt lat="44.7254" lon="3.31406">
        <ele>1064.1999511719</ele>
        <time>2019-05-25T13:52:02Z</time>
      </trkpt>
      <trkpt lat="44.72541" lon="3.31402">
        <ele>1064.1999511719</ele>
        <time>2019-05-25T13:52:03Z</time>
      </trkpt>
      <trkpt lat="44.72544" lon="3.3139">
        <ele>1064.5999755859</ele>
        <time>2019-05-25T13:52:07Z</time>
      </trkpt>
      <trkpt lat="44.72547" lon="3.31366">
        <ele>1065.1999511719</ele>
        <time>2019-05-25T13:52:14Z</time>
      </trkpt>
      <trkpt lat="44.72548" lon="3.31344">
        <ele>1066</ele>
        <time>2019-05-25T13:52:20Z</time>
      </trkpt>
      <trkpt lat="44.72548" lon="3.31336">
        <ele>1066.4000244141</ele>
        <time>2019-05-25T13:52:22Z</time>
      </trkpt>
      <trkpt lat="44.72549" lon="3.31329">
        <ele>1066.5999755859</ele>
        <time>2019-05-25T13:52:24Z</time>
      </trkpt>
      <trkpt lat="44.72549" lon="3.31312">
        <ele>1067.1999511719</ele>
        <time>2019-05-25T13:52:29Z</time>
      </trkpt>
      <trkpt lat="44.72552" lon="3.31288">
        <ele>1068.1999511719</ele>
        <time>2019-05-25T13:52:36Z</time>
      </trkpt>
      <trkpt lat="44.72553" lon="3.31258">
        <ele>1069</ele>
        <time>2019-05-25T13:52:44Z</time>
      </trkpt>
      <trkpt lat="44.72552" lon="3.31239">
        <ele>1069.5999755859</ele>
        <time>2019-05-25T13:52:50Z</time>
      </trkpt>
      <trkpt lat="44.72551" lon="3.31235">
        <ele>1069.5999755859</ele>
        <time>2019-05-25T13:52:51Z</time>
      </trkpt>
      <trkpt lat="44.72551" lon="3.31226">
        <ele>1070</ele>
        <time>2019-05-25T13:52:54Z</time>
      </trkpt>
      <trkpt lat="44.72552" lon="3.31206">
        <ele>1071</ele>
        <time>2019-05-25T13:53:01Z</time>
      </trkpt>
      <trkpt lat="44.72553" lon="3.3119">
        <ele>1071.5999755859</ele>
        <time>2019-05-25T13:53:07Z</time>
      </trkpt>
      <trkpt lat="44.72552" lon="3.31172">
        <ele>1072.1999511719</ele>
        <time>2019-05-25T13:53:14Z</time>
      </trkpt>
      <trkpt lat="44.72553" lon="3.31162">
        <ele>1072.5999755859</ele>
        <time>2019-05-25T13:53:18Z</time>
      </trkpt>
      <trkpt lat="44.72553" lon="3.31157">
        <ele>1072.8000488281</ele>
        <time>2019-05-25T13:53:20Z</time>
      </trkpt>
      <trkpt lat="44.72553" lon="3.31137">
        <ele>1073.5999755859</ele>
        <time>2019-05-25T13:53:29Z</time>
      </trkpt>
      <trkpt lat="44.72555" lon="3.31129">
        <ele>1074</ele>
        <time>2019-05-25T13:53:33Z</time>
      </trkpt>
      <trkpt lat="44.72556" lon="3.31125">
        <ele>1074.1999511719</ele>
        <time>2019-05-25T13:53:35Z</time>
      </trkpt>
      <trkpt lat="44.72556" lon="3.31114">
        <ele>1075</ele>
        <time>2019-05-25T13:53:41Z</time>
      </trkpt>
      <trkpt lat="44.72556" lon="3.31109">
        <ele>1075.1999511719</ele>
        <time>2019-05-25T13:53:43Z</time>
      </trkpt>
      <trkpt lat="44.72556" lon="3.31087">
        <ele>1076</ele>
        <time>2019-05-25T13:53:51Z</time>
      </trkpt>
      <trkpt lat="44.72556" lon="3.31071">
        <ele>1076.8000488281</ele>
        <time>2019-05-25T13:53:57Z</time>
      </trkpt>
      <trkpt lat="44.72554" lon="3.3105">
        <ele>1077.8000488281</ele>
        <time>2019-05-25T13:54:04Z</time>
      </trkpt>
      <trkpt lat="44.72554" lon="3.3103">
        <ele>1078.5999755859</ele>
        <time>2019-05-25T13:54:11Z</time>
      </trkpt>
      <trkpt lat="44.72553" lon="3.31014">
        <ele>1079</ele>
        <time>2019-05-25T13:54:16Z</time>
      </trkpt>
      <trkpt lat="44.72553" lon="3.31006">
        <ele>1079.1999511719</ele>
        <time>2019-05-25T13:54:18Z</time>
      </trkpt>
      <trkpt lat="44.72554" lon="3.30981">
        <ele>1079.8000488281</ele>
        <time>2019-05-25T13:54:24Z</time>
      </trkpt>
      <trkpt lat="44.72555" lon="3.30952">
        <ele>1080.4000244141</ele>
        <time>2019-05-25T13:54:30Z</time>
      </trkpt>
      <trkpt lat="44.72554" lon="3.30926">
        <ele>1081</ele>
        <time>2019-05-25T13:54:36Z</time>
      </trkpt>
      <trkpt lat="44.72551" lon="3.30907">
        <ele>1081.4000244141</ele>
        <time>2019-05-25T13:54:41Z</time>
      </trkpt>
      <trkpt lat="44.72547" lon="3.30885">
        <ele>1082.1999511719</ele>
        <time>2019-05-25T13:54:47Z</time>
      </trkpt>
      <trkpt lat="44.72543" lon="3.3087">
        <ele>1082.5999755859</ele>
        <time>2019-05-25T13:54:51Z</time>
      </trkpt>
      <trkpt lat="44.72538" lon="3.30852">
        <ele>1083.1999511719</ele>
        <time>2019-05-25T13:54:56Z</time>
      </trkpt>
      <trkpt lat="44.72534" lon="3.3083">
        <ele>1083.8000488281</ele>
        <time>2019-05-25T13:55:02Z</time>
      </trkpt>
      <trkpt lat="44.7253" lon="3.30807">
        <ele>1084.5999755859</ele>
        <time>2019-05-25T13:55:08Z</time>
      </trkpt>
      <trkpt lat="44.72527" lon="3.30784">
        <ele>1085.1999511719</ele>
        <time>2019-05-25T13:55:14Z</time>
      </trkpt>
      <trkpt lat="44.72522" lon="3.30766">
        <ele>1085.5999755859</ele>
        <time>2019-05-25T13:55:19Z</time>
      </trkpt>
      <trkpt lat="44.72522" lon="3.30759">
        <ele>1085.8000488281</ele>
        <time>2019-05-25T13:55:21Z</time>
      </trkpt>
      <trkpt lat="44.72525" lon="3.30758">
        <ele>1085.8000488281</ele>
        <time>2019-05-25T13:55:22Z</time>
      </trkpt>
      <trkpt lat="44.72538" lon="3.30764">
        <ele>1086</ele>
        <time>2019-05-25T13:55:26Z</time>
      </trkpt>
      <trkpt lat="44.72546" lon="3.30767">
        <ele>1086</ele>
        <time>2019-05-25T13:55:28Z</time>
      </trkpt>
      <trkpt lat="44.72559" lon="3.30772">
        <ele>1086.4000244141</ele>
        <time>2019-05-25T13:55:31Z</time>
      </trkpt>
      <trkpt lat="44.72563" lon="3.30774">
        <ele>1086.4000244141</ele>
        <time>2019-05-25T13:55:32Z</time>
      </trkpt>
      <trkpt lat="44.72572" lon="3.30779">
        <ele>1086.4000244141</ele>
        <time>2019-05-25T13:55:34Z</time>
      </trkpt>
      <trkpt lat="44.72581" lon="3.30782">
        <ele>1086.4000244141</ele>
        <time>2019-05-25T13:55:36Z</time>
      </trkpt>
      <trkpt lat="44.72585" lon="3.30785">
        <ele>1086.4000244141</ele>
        <time>2019-05-25T13:55:37Z</time>
      </trkpt>
      <trkpt lat="44.72611" lon="3.30797">
        <ele>1086.4000244141</ele>
        <time>2019-05-25T13:55:42Z</time>
      </trkpt>
      <trkpt lat="44.72647" lon="3.30814">
        <ele>1086.5999755859</ele>
        <time>2019-05-25T13:55:48Z</time>
      </trkpt>
      <trkpt lat="44.72671" lon="3.30825">
        <ele>1086.5999755859</ele>
        <time>2019-05-25T13:55:52Z</time>
      </trkpt>
      <trkpt lat="44.72679" lon="3.30822">
        <ele>1086.4000244141</ele>
        <time>2019-05-25T13:55:54Z</time>
      </trkpt>
      <trkpt lat="44.72679" lon="3.30817">
        <ele>1086.4000244141</ele>
        <time>2019-05-25T13:55:55Z</time>
      </trkpt>
      <trkpt lat="44.72679" lon="3.30813">
        <ele>1086.4000244141</ele>
        <time>2019-05-25T13:55:56Z</time>
      </trkpt>
      <trkpt lat="44.72676" lon="3.30808">
        <ele>1086.4000244141</ele>
        <time>2019-05-25T13:55:58Z</time>
      </trkpt>
      <trkpt lat="44.72667" lon="3.30801">
        <ele>1086.4000244141</ele>
        <time>2019-05-25T13:56:03Z</time>
      </trkpt>
      <trkpt lat="44.72657" lon="3.30792">
        <ele>1086.5999755859</ele>
        <time>2019-05-25T13:56:09Z</time>
      </trkpt>
      <trkpt lat="44.72648" lon="3.30786">
        <ele>1087</ele>
        <time>2019-05-25T13:56:15Z</time>
      </trkpt>
      <trkpt lat="44.72638" lon="3.30779">
        <ele>1087.1999511719</ele>
        <time>2019-05-25T13:56:20Z</time>
      </trkpt>
      <trkpt lat="44.72626" lon="3.30769">
        <ele>1087.5999755859</ele>
        <time>2019-05-25T13:56:27Z</time>
      </trkpt>
      <trkpt lat="44.72614" lon="3.3076">
        <ele>1088.1999511719</ele>
        <time>2019-05-25T13:56:34Z</time>
      </trkpt>
      <trkpt lat="44.72603" lon="3.3075">
        <ele>1088.5999755859</ele>
        <time>2019-05-25T13:56:40Z</time>
      </trkpt>
      <trkpt lat="44.72591" lon="3.30737">
        <ele>1089.1999511719</ele>
        <time>2019-05-25T13:56:46Z</time>
      </trkpt>
      <trkpt lat="44.72574" lon="3.30721">
        <ele>1089.8000488281</ele>
        <time>2019-05-25T13:56:53Z</time>
      </trkpt>
      <trkpt lat="44.72559" lon="3.30699">
        <ele>1090.1999511719</ele>
        <time>2019-05-25T13:57:00Z</time>
      </trkpt>
      <trkpt lat="44.72546" lon="3.30675">
        <ele>1090.8000488281</ele>
        <time>2019-05-25T13:57:07Z</time>
      </trkpt>
      <trkpt lat="44.72537" lon="3.30651">
        <ele>1091.4000244141</ele>
        <time>2019-05-25T13:57:13Z</time>
      </trkpt>
      <trkpt lat="44.72528" lon="3.30624">
        <ele>1092</ele>
        <time>2019-05-25T13:57:19Z</time>
      </trkpt>
      <trkpt lat="44.72519" lon="3.30589">
        <ele>1092.8000488281</ele>
        <time>2019-05-25T13:57:27Z</time>
      </trkpt>
      <trkpt lat="44.72513" lon="3.3056">
        <ele>1093.4000244141</ele>
        <time>2019-05-25T13:57:33Z</time>
      </trkpt>
      <trkpt lat="44.72512" lon="3.30555">
        <ele>1093.4000244141</ele>
        <time>2019-05-25T13:57:34Z</time>
      </trkpt>
      <trkpt lat="44.72507" lon="3.30538">
        <ele>1093.8000488281</ele>
        <time>2019-05-25T13:57:37Z</time>
      </trkpt>
      <trkpt lat="44.72502" lon="3.30526">
        <ele>1093.8000488281</ele>
        <time>2019-05-25T13:57:39Z</time>
      </trkpt>
      <trkpt lat="44.72497" lon="3.30508">
        <ele>1094.1999511719</ele>
        <time>2019-05-25T13:57:42Z</time>
      </trkpt>
      <trkpt lat="44.72495" lon="3.30501">
        <ele>1094.1999511719</ele>
        <time>2019-05-25T13:57:43Z</time>
      </trkpt>
      <trkpt lat="44.72491" lon="3.30489">
        <ele>1094.4000244141</ele>
        <time>2019-05-25T13:57:45Z</time>
      </trkpt>
      <trkpt lat="44.72483" lon="3.30469">
        <ele>1094.5999755859</ele>
        <time>2019-05-25T13:57:48Z</time>
      </trkpt>
      <trkpt lat="44.72478" lon="3.30457">
        <ele>1094.8000488281</ele>
        <time>2019-05-25T13:57:50Z</time>
      </trkpt>
      <trkpt lat="44.72466" lon="3.30432">
        <ele>1095</ele>
        <time>2019-05-25T13:57:54Z</time>
      </trkpt>
      <trkpt lat="44.72448" lon="3.30382">
        <ele>1095.4000244141</ele>
        <time>2019-05-25T13:58:02Z</time>
      </trkpt>
      <trkpt lat="44.72429" lon="3.30333">
        <ele>1096</ele>
        <time>2019-05-25T13:58:10Z</time>
      </trkpt>
      <trkpt lat="44.72412" lon="3.30295">
        <ele>1096.1999511719</ele>
        <time>2019-05-25T13:58:17Z</time>
      </trkpt>
      <trkpt lat="44.72387" lon="3.30255">
        <ele>1097</ele>
        <time>2019-05-25T13:58:26Z</time>
      </trkpt>
      <trkpt lat="44.72384" lon="3.30251">
        <ele>1097</ele>
        <time>2019-05-25T13:58:27Z</time>
      </trkpt>
      <trkpt lat="44.72375" lon="3.3024">
        <ele>1097.1999511719</ele>
        <time>2019-05-25T13:58:30Z</time>
      </trkpt>
      <trkpt lat="44.7237" lon="3.30232">
        <ele>1097.4000244141</ele>
        <time>2019-05-25T13:58:32Z</time>
      </trkpt>
      <trkpt lat="44.72349" lon="3.30205">
        <ele>1097.8000488281</ele>
        <time>2019-05-25T13:58:39Z</time>
      </trkpt>
      <trkpt lat="44.72329" lon="3.3017">
        <ele>1098.1999511719</ele>
        <time>2019-05-25T13:58:47Z</time>
      </trkpt>
      <trkpt lat="44.72315" lon="3.30138">
        <ele>1098.5999755859</ele>
        <time>2019-05-25T13:58:54Z</time>
      </trkpt>
      <trkpt lat="44.72308" lon="3.30123">
        <ele>1098.8000488281</ele>
        <time>2019-05-25T13:58:57Z</time>
      </trkpt>
      <trkpt lat="44.72301" lon="3.30106">
        <ele>1099</ele>
        <time>2019-05-25T13:59:00Z</time>
      </trkpt>
      <trkpt lat="44.72292" lon="3.30078">
        <ele>1098.8000488281</ele>
        <time>2019-05-25T13:59:04Z</time>
      </trkpt>
      <trkpt lat="44.72288" lon="3.3007">
        <ele>1098.8000488281</ele>
        <time>2019-05-25T13:59:05Z</time>
      </trkpt>
      <trkpt lat="44.72273" lon="3.30029">
        <ele>1098.4000244141</ele>
        <time>2019-05-25T13:59:09Z</time>
      </trkpt>
      <trkpt lat="44.7225" lon="3.29985">
        <ele>1097.4000244141</ele>
        <time>2019-05-25T13:59:13Z</time>
      </trkpt>
      <trkpt lat="44.72233" lon="3.29967">
        <ele>1097</ele>
        <time>2019-05-25T13:59:15Z</time>
      </trkpt>
      <trkpt lat="44.72224" lon="3.2996">
        <ele>1096.5999755859</ele>
        <time>2019-05-25T13:59:16Z</time>
      </trkpt>
      <trkpt lat="44.72186" lon="3.29941">
        <ele>1095.5999755859</ele>
        <time>2019-05-25T13:59:20Z</time>
      </trkpt>
      <trkpt lat="44.72176" lon="3.29936">
        <ele>1095.4000244141</ele>
        <time>2019-05-25T13:59:21Z</time>
      </trkpt>
      <trkpt lat="44.72158" lon="3.29923">
        <ele>1094.8000488281</ele>
        <time>2019-05-25T13:59:23Z</time>
      </trkpt>
      <trkpt lat="44.72121" lon="3.29882">
        <ele>1094</ele>
        <time>2019-05-25T13:59:28Z</time>
      </trkpt>
      <trkpt lat="44.72102" lon="3.29858">
        <ele>1093.4000244141</ele>
        <time>2019-05-25T13:59:31Z</time>
      </trkpt>
      <trkpt lat="44.72097" lon="3.29849">
        <ele>1093.4000244141</ele>
        <time>2019-05-25T13:59:32Z</time>
      </trkpt>
      <trkpt lat="44.72093" lon="3.29839">
        <ele>1093.1999511719</ele>
        <time>2019-05-25T13:59:33Z</time>
      </trkpt>
      <trkpt lat="44.7209" lon="3.29819">
        <ele>1093</ele>
        <time>2019-05-25T13:59:35Z</time>
      </trkpt>
      <trkpt lat="44.72089" lon="3.29791">
        <ele>1092.5999755859</ele>
        <time>2019-05-25T13:59:38Z</time>
      </trkpt>
      <trkpt lat="44.72088" lon="3.29782">
        <ele>1092.5999755859</ele>
        <time>2019-05-25T13:59:39Z</time>
      </trkpt>
      <trkpt lat="44.72084" lon="3.29719">
        <ele>1091.8000488281</ele>
        <time>2019-05-25T13:59:46Z</time>
      </trkpt>
      <trkpt lat="44.72077" lon="3.29664">
        <ele>1091</ele>
        <time>2019-05-25T13:59:53Z</time>
      </trkpt>
      <trkpt lat="44.72073" lon="3.29639">
        <ele>1090.5999755859</ele>
        <time>2019-05-25T13:59:56Z</time>
      </trkpt>
      <trkpt lat="44.72071" lon="3.29626">
        <ele>1090.4000244141</ele>
        <time>2019-05-25T13:59:58Z</time>
      </trkpt>
      <trkpt lat="44.72069" lon="3.2962">
        <ele>1090.1999511719</ele>
        <time>2019-05-25T13:59:59Z</time>
      </trkpt>
      <trkpt lat="44.72061" lon="3.29609">
        <ele>1090</ele>
        <time>2019-05-25T14:00:01Z</time>
      </trkpt>
      <trkpt lat="44.72047" lon="3.29595">
        <ele>1089.1999511719</ele>
        <time>2019-05-25T14:00:05Z</time>
      </trkpt>
      <trkpt lat="44.72038" lon="3.29587">
        <ele>1088.8000488281</ele>
        <time>2019-05-25T14:00:07Z</time>
      </trkpt>
      <trkpt lat="44.72031" lon="3.29568">
        <ele>1088.4000244141</ele>
        <time>2019-05-25T14:00:10Z</time>
      </trkpt>
      <trkpt lat="44.72028" lon="3.29565">
        <ele>1088</ele>
        <time>2019-05-25T14:00:11Z</time>
      </trkpt>
      <trkpt lat="44.72021" lon="3.29544">
        <ele>1087.1999511719</ele>
        <time>2019-05-25T14:00:15Z</time>
      </trkpt>
      <trkpt lat="44.7202" lon="3.29538">
        <ele>1087.1999511719</ele>
        <time>2019-05-25T14:00:16Z</time>
      </trkpt>
      <trkpt lat="44.72016" lon="3.29509">
        <ele>1086.4000244141</ele>
        <time>2019-05-25T14:00:20Z</time>
      </trkpt>
      <trkpt lat="44.72015" lon="3.29501">
        <ele>1086.1999511719</ele>
        <time>2019-05-25T14:00:21Z</time>
      </trkpt>
      <trkpt lat="44.72019" lon="3.29464">
        <ele>1085.1999511719</ele>
        <time>2019-05-25T14:00:26Z</time>
      </trkpt>
      <trkpt lat="44.72024" lon="3.29453">
        <ele>1084.8000488281</ele>
        <time>2019-05-25T14:00:28Z</time>
      </trkpt>
      <trkpt lat="44.72027" lon="3.2944">
        <ele>1084.4000244141</ele>
        <time>2019-05-25T14:00:30Z</time>
      </trkpt>
      <trkpt lat="44.72029" lon="3.29433">
        <ele>1084.1999511719</ele>
        <time>2019-05-25T14:00:31Z</time>
      </trkpt>
      <trkpt lat="44.72036" lon="3.29412">
        <ele>1083.8000488281</ele>
        <time>2019-05-25T14:00:34Z</time>
      </trkpt>
      <trkpt lat="44.72047" lon="3.29367">
        <ele>1082.4000244141</ele>
        <time>2019-05-25T14:00:40Z</time>
      </trkpt>
      <trkpt lat="44.72049" lon="3.29359">
        <ele>1082.1999511719</ele>
        <time>2019-05-25T14:00:41Z</time>
      </trkpt>
      <trkpt lat="44.72054" lon="3.29335">
        <ele>1081.5999755859</ele>
        <time>2019-05-25T14:00:44Z</time>
      </trkpt>
      <trkpt lat="44.72055" lon="3.29327">
        <ele>1081.4000244141</ele>
        <time>2019-05-25T14:00:45Z</time>
      </trkpt>
      <trkpt lat="44.72057" lon="3.29319">
        <ele>1081.4000244141</ele>
        <time>2019-05-25T14:00:46Z</time>
      </trkpt>
      <trkpt lat="44.72064" lon="3.29295">
        <ele>1080.8000488281</ele>
        <time>2019-05-25T14:00:49Z</time>
      </trkpt>
      <trkpt lat="44.72066" lon="3.29287">
        <ele>1080.8000488281</ele>
        <time>2019-05-25T14:00:50Z</time>
      </trkpt>
      <trkpt lat="44.72069" lon="3.29274">
        <ele>1080.5999755859</ele>
        <time>2019-05-25T14:00:52Z</time>
      </trkpt>
      <trkpt lat="44.72075" lon="3.29259">
        <ele>1080.4000244141</ele>
        <time>2019-05-25T14:00:56Z</time>
      </trkpt>
      <trkpt lat="44.72082" lon="3.29242">
        <ele>1080.4000244141</ele>
        <time>2019-05-25T14:01:00Z</time>
      </trkpt>
      <trkpt lat="44.72091" lon="3.29217">
        <ele>1080</ele>
        <time>2019-05-25T14:01:05Z</time>
      </trkpt>
      <trkpt lat="44.72096" lon="3.29204">
        <ele>1079.8000488281</ele>
        <time>2019-05-25T14:01:07Z</time>
      </trkpt>
      <trkpt lat="44.72103" lon="3.29174">
        <ele>1079.4000244141</ele>
        <time>2019-05-25T14:01:11Z</time>
      </trkpt>
      <trkpt lat="44.72114" lon="3.29132">
        <ele>1078.8000488281</ele>
        <time>2019-05-25T14:01:16Z</time>
      </trkpt>
      <trkpt lat="44.72128" lon="3.29077">
        <ele>1077.4000244141</ele>
        <time>2019-05-25T14:01:21Z</time>
      </trkpt>
      <trkpt lat="44.72144" lon="3.29001">
        <ele>1075.5999755859</ele>
        <time>2019-05-25T14:01:27Z</time>
      </trkpt>
      <trkpt lat="44.72146" lon="3.28989">
        <ele>1075.4000244141</ele>
        <time>2019-05-25T14:01:28Z</time>
      </trkpt>
      <trkpt lat="44.72159" lon="3.28934">
        <ele>1074.1999511719</ele>
        <time>2019-05-25T14:01:33Z</time>
      </trkpt>
      <trkpt lat="44.72174" lon="3.28885">
        <ele>1072.8000488281</ele>
        <time>2019-05-25T14:01:38Z</time>
      </trkpt>
      <trkpt lat="44.72197" lon="3.28825">
        <ele>1071.4000244141</ele>
        <time>2019-05-25T14:01:44Z</time>
      </trkpt>
      <trkpt lat="44.72218" lon="3.28765">
        <ele>1069.8000488281</ele>
        <time>2019-05-25T14:01:50Z</time>
      </trkpt>
      <trkpt lat="44.72226" lon="3.28738">
        <ele>1069</ele>
        <time>2019-05-25T14:01:53Z</time>
      </trkpt>
      <trkpt lat="44.72227" lon="3.2873">
        <ele>1068.8000488281</ele>
        <time>2019-05-25T14:01:54Z</time>
      </trkpt>
      <trkpt lat="44.72225" lon="3.28704">
        <ele>1067.5999755859</ele>
        <time>2019-05-25T14:01:58Z</time>
      </trkpt>
      <trkpt lat="44.72223" lon="3.28698">
        <ele>1067.4000244141</ele>
        <time>2019-05-25T14:01:59Z</time>
      </trkpt>
      <trkpt lat="44.72216" lon="3.2866">
        <ele>1066</ele>
        <time>2019-05-25T14:02:04Z</time>
      </trkpt>
      <trkpt lat="44.72213" lon="3.28636">
        <ele>1065</ele>
        <time>2019-05-25T14:02:07Z</time>
      </trkpt>
      <trkpt lat="44.72208" lon="3.28622">
        <ele>1064.5999755859</ele>
        <time>2019-05-25T14:02:09Z</time>
      </trkpt>
      <trkpt lat="44.72202" lon="3.28614">
        <ele>1064</ele>
        <time>2019-05-25T14:02:11Z</time>
      </trkpt>
      <trkpt lat="44.72201" lon="3.28611">
        <ele>1063.8000488281</ele>
        <time>2019-05-25T14:02:12Z</time>
      </trkpt>
      <trkpt lat="44.72203" lon="3.28594">
        <ele>1062.8000488281</ele>
        <time>2019-05-25T14:02:17Z</time>
      </trkpt>
      <trkpt lat="44.72208" lon="3.28571">
        <ele>1061.8000488281</ele>
        <time>2019-05-25T14:02:24Z</time>
      </trkpt>
      <trkpt lat="44.72209" lon="3.28569">
        <ele>1061.8000488281</ele>
        <time>2019-05-25T14:02:25Z</time>
      </trkpt>
      <trkpt lat="44.72212" lon="3.28562">
        <ele>1061.1999511719</ele>
        <time>2019-05-25T14:02:28Z</time>
      </trkpt>
      <trkpt lat="44.72214" lon="3.28556">
        <ele>1060.8000488281</ele>
        <time>2019-05-25T14:02:30Z</time>
      </trkpt>
      <trkpt lat="44.72214" lon="3.28551">
        <ele>1060.5999755859</ele>
        <time>2019-05-25T14:02:31Z</time>
      </trkpt>
      <trkpt lat="44.72214" lon="3.28534">
        <ele>1060.1999511719</ele>
        <time>2019-05-25T14:02:34Z</time>
      </trkpt>
      <trkpt lat="44.72213" lon="3.28523">
        <ele>1060</ele>
        <time>2019-05-25T14:02:36Z</time>
      </trkpt>
      <trkpt lat="44.72214" lon="3.28519">
        <ele>1059.8000488281</ele>
        <time>2019-05-25T14:02:37Z</time>
      </trkpt>
      <trkpt lat="44.72217" lon="3.28517">
        <ele>1059.4000244141</ele>
        <time>2019-05-25T14:02:39Z</time>
      </trkpt>
      <trkpt lat="44.72226" lon="3.28518">
        <ele>1059</ele>
        <time>2019-05-25T14:02:42Z</time>
      </trkpt>
      <trkpt lat="44.72228" lon="3.28516">
        <ele>1058.8000488281</ele>
        <time>2019-05-25T14:02:43Z</time>
      </trkpt>
      <trkpt lat="44.7223" lon="3.28513">
        <ele>1058.5999755859</ele>
        <time>2019-05-25T14:02:44Z</time>
      </trkpt>
      <trkpt lat="44.72229" lon="3.28504">
        <ele>1058.4000244141</ele>
        <time>2019-05-25T14:02:46Z</time>
      </trkpt>
      <trkpt lat="44.72227" lon="3.28491">
        <ele>1058</ele>
        <time>2019-05-25T14:02:50Z</time>
      </trkpt>
      <trkpt lat="44.72227" lon="3.28491">
        <ele>1057.8000488281</ele>
        <time>2019-05-25T14:02:51Z</time>
      </trkpt>
      <trkpt lat="44.72224" lon="3.28474">
        <ele>1056.1999511719</ele>
        <time>2019-05-25T14:03:20Z</time>
      </trkpt>
      <trkpt lat="44.72223" lon="3.2847">
        <ele>1056.1999511719</ele>
        <time>2019-05-25T14:03:22Z</time>
      </trkpt>
      <trkpt lat="44.72219" lon="3.28464">
        <ele>1056</ele>
        <time>2019-05-25T14:03:27Z</time>
      </trkpt>
      <trkpt lat="44.72211" lon="3.28467">
        <ele>1056.1999511719</ele>
        <time>2019-05-25T14:03:40Z</time>
      </trkpt>
      <trkpt lat="44.72209" lon="3.28468">
        <ele>1056.1999511719</ele>
        <time>2019-05-25T14:03:41Z</time>
      </trkpt>
      <trkpt lat="44.72202" lon="3.28472">
        <ele>1056.1999511719</ele>
        <time>2019-05-25T14:03:45Z</time>
      </trkpt>
      <trkpt lat="44.72205" lon="3.28465">
        <ele>1056.1999511719</ele>
        <time>2019-05-25T14:03:48Z</time>
      </trkpt>
      <trkpt lat="44.72215" lon="3.28459">
        <ele>1056.1999511719</ele>
        <time>2019-05-25T14:03:51Z</time>
      </trkpt>
      <trkpt lat="44.72217" lon="3.28455">
        <ele>1056.1999511719</ele>
        <time>2019-05-25T14:03:52Z</time>
      </trkpt>
      <trkpt lat="44.72218" lon="3.28452">
        <ele>1056.1999511719</ele>
        <time>2019-05-25T14:03:53Z</time>
      </trkpt>
      <trkpt lat="44.72216" lon="3.28448">
        <ele>1056</ele>
        <time>2019-05-25T14:03:55Z</time>
      </trkpt>
      <trkpt lat="44.72216" lon="3.28447">
        <ele>1056</ele>
        <time>2019-05-25T14:03:56Z</time>
      </trkpt>
      <trkpt lat="44.72217" lon="3.28442">
        <ele>1054.8000488281</ele>
        <time>2019-05-25T14:05:41Z</time>
      </trkpt>
      <trkpt lat="44.72216" lon="3.28435">
        <ele>1054.8000488281</ele>
        <time>2019-05-25T14:05:43Z</time>
      </trkpt>
      <trkpt lat="44.72214" lon="3.28407">
        <ele>1054</ele>
        <time>2019-05-25T14:05:50Z</time>
      </trkpt>
      <trkpt lat="44.72215" lon="3.28402">
        <ele>1053.8000488281</ele>
        <time>2019-05-25T14:05:51Z</time>
      </trkpt>
      <trkpt lat="44.72221" lon="3.28393">
        <ele>1053.8000488281</ele>
        <time>2019-05-25T14:05:53Z</time>
      </trkpt>
      <trkpt lat="44.72228" lon="3.28387">
        <ele>1053.8000488281</ele>
        <time>2019-05-25T14:05:55Z</time>
      </trkpt>
      <trkpt lat="44.72235" lon="3.28382">
        <ele>1053.8000488281</ele>
        <time>2019-05-25T14:05:57Z</time>
      </trkpt>
      <trkpt lat="44.72239" lon="3.28387">
        <ele>1053.5999755859</ele>
        <time>2019-05-25T14:05:59Z</time>
      </trkpt>
    </trkseg>
  </trk>
</gpx>